dateAir_TemperaturedateAir_PressuredateRadiationdateWind_DirectiondateWind_SpeeddateRelative_HumiditydateDew_Point_TempdateVirtual_TempdateEvaporationdatePrecipitation
1/5/2017 1:0018.91/5/2017 1:00953.81/5/2017 1:0001/5/2017 1:0022.001/5/2017 1:000.901/5/2017 1:0083.11/5/2017 1:0016.01/5/2017 1:0021.31/5/2017 1:0031.81/5/2017 1:000.0
1/5/2017 2:0018.81/5/2017 2:00953.21/5/2017 2:0001/5/2017 2:00347.001/5/2017 2:001.701/5/2017 2:0084.61/5/2017 2:0016.21/5/2017 2:0021.01/5/2017 2:0032.01/5/2017 2:000.0
1/5/2017 3:0018.81/5/2017 3:00952.71/5/2017 3:0001/5/2017 3:00332.001/5/2017 3:002.701/5/2017 3:0085.11/5/2017 3:0016.31/5/2017 3:0020.91/5/2017 3:0031.81/5/2017 3:000.0
1/5/2017 4:0018.71/5/2017 4:00952.31/5/2017 4:0001/5/2017 4:00336.001/5/2017 4:002.901/5/2017 4:0085.01/5/2017 4:0016.21/5/2017 4:0020.71/5/2017 4:0031.91/5/2017 4:000.0
1/5/2017 5:0018.61/5/2017 5:00952.11/5/2017 5:0001/5/2017 5:00332.001/5/2017 5:002.901/5/2017 5:0085.31/5/2017 5:0016.21/5/2017 5:0020.71/5/2017 5:0032.01/5/2017 5:000.0
1/5/2017 6:0018.61/5/2017 6:00952.11/5/2017 6:0001/5/2017 6:00336.001/5/2017 6:002.401/5/2017 6:0086.31/5/2017 6:0016.31/5/2017 6:0020.71/5/2017 6:0032.11/5/2017 6:000.0
1/5/2017 7:0018.91/5/2017 7:00952.61/5/2017 7:00131/5/2017 7:00330.001/5/2017 7:002.201/5/2017 7:0084.01/5/2017 7:0016.21/5/2017 7:0020.91/5/2017 7:0032.01/5/2017 7:000.0
1/5/2017 8:0020.31/5/2017 8:00953.41/5/2017 8:001521/5/2017 8:00346.001/5/2017 8:002.201/5/2017 8:0078.51/5/2017 8:0016.51/5/2017 8:0021.41/5/2017 8:0032.21/5/2017 8:000.0
1/5/2017 9:0021.91/5/2017 9:00954.01/5/2017 9:003941/5/2017 9:0042.001/5/2017 9:002.401/5/2017 9:0070.01/5/2017 9:0016.31/5/2017 9:0022.51/5/2017 9:0032.71/5/2017 9:000.0
1/5/2017 10:0022.91/5/2017 10:00954.01/5/2017 10:005101/5/2017 10:0077.001/5/2017 10:002.601/5/2017 10:0066.11/5/2017 10:0016.31/5/2017 10:0023.51/5/2017 10:0033.21/5/2017 10:000.0
1/5/2017 11:0023.71/5/2017 11:00953.51/5/2017 11:007281/5/2017 11:0097.001/5/2017 11:003.001/5/2017 11:0062.91/5/2017 11:0016.31/5/2017 11:0024.41/5/2017 11:0033.11/5/2017 11:000.0
1/5/2017 12:0024.51/5/2017 12:00952.71/5/2017 12:008031/5/2017 12:0086.001/5/2017 12:004.201/5/2017 12:0060.61/5/2017 12:0016.51/5/2017 12:0025.41/5/2017 12:0033.41/5/2017 12:000.0
1/5/2017 13:0025.01/5/2017 13:00951.91/5/2017 13:008141/5/2017 13:0082.001/5/2017 13:003.701/5/2017 13:0059.31/5/2017 13:0016.61/5/2017 13:0025.81/5/2017 13:0033.81/5/2017 13:000.0
1/5/2017 14:0025.01/5/2017 14:00951.31/5/2017 14:006721/5/2017 14:0084.001/5/2017 14:004.001/5/2017 14:0060.21/5/2017 14:0016.81/5/2017 14:0025.71/5/2017 14:0034.41/5/2017 14:000.0
1/5/2017 15:0024.31/5/2017 15:00951.11/5/2017 15:006111/5/2017 15:0080.001/5/2017 15:004.501/5/2017 15:0062.71/5/2017 15:0016.81/5/2017 15:0025.01/5/2017 15:0035.11/5/2017 15:000.0
1/5/2017 16:0022.71/5/2017 16:00951.41/5/2017 16:001821/5/2017 16:0070.001/5/2017 16:003.601/5/2017 16:0068.51/5/2017 16:0016.71/5/2017 16:0024.01/5/2017 16:0035.71/5/2017 16:000.0
1/5/2017 17:0021.61/5/2017 17:00951.81/5/2017 17:00711/5/2017 17:0062.001/5/2017 17:003.201/5/2017 17:0071.71/5/2017 17:0016.31/5/2017 17:0023.31/5/2017 17:0035.51/5/2017 17:000.0
1/5/2017 18:0020.81/5/2017 18:00952.51/5/2017 18:0081/5/2017 18:0052.001/5/2017 18:002.801/5/2017 18:0073.91/5/2017 18:0016.01/5/2017 18:0022.61/5/2017 18:0035.91/5/2017 18:000.0
1/5/2017 19:0020.11/5/2017 19:00952.71/5/2017 19:0001/5/2017 19:0047.001/5/2017 19:002.501/5/2017 19:0076.21/5/2017 19:0015.81/5/2017 19:0022.11/5/2017 19:0036.21/5/2017 19:000.0
1/5/2017 20:0019.71/5/2017 20:00953.31/5/2017 20:0001/5/2017 20:0045.001/5/2017 20:002.901/5/2017 20:0077.91/5/2017 20:0015.81/5/2017 20:0021.71/5/2017 20:0036.21/5/2017 20:000.0
1/5/2017 21:0019.81/5/2017 21:00953.71/5/2017 21:0001/5/2017 21:0039.001/5/2017 21:002.701/5/2017 21:0077.51/5/2017 21:0015.81/5/2017 21:0021.81/5/2017 21:0036.41/5/2017 21:000.0
1/5/2017 22:0019.71/5/2017 22:00953.71/5/2017 22:0001/5/2017 22:0034.001/5/2017 22:002.001/5/2017 22:0077.81/5/2017 22:0015.81/5/2017 22:0021.71/5/2017 22:0036.61/5/2017 22:000.0
1/5/2017 23:0019.31/5/2017 23:00953.61/5/2017 23:0001/5/2017 23:0018.001/5/2017 23:002.101/5/2017 23:0079.71/5/2017 23:0015.81/5/2017 23:0021.41/5/2017 23:0036.91/5/2017 23:000.0
1/6/2017 0:0019.21/6/2017 0:00953.11/6/2017 0:0001/6/2017 0:007.001/6/2017 0:002.001/6/2017 0:0082.11/6/2017 0:0016.11/6/2017 0:0021.31/6/2017 0:0037.11/6/2017 0:000.0
1/6/2017 1:0018.81/6/2017 1:00952.41/6/2017 1:0001/6/2017 1:00354.001/6/2017 1:002.101/6/2017 1:0084.11/6/2017 1:0016.11/6/2017 1:0020.91/6/2017 1:0036.71/6/2017 1:000.0
1/6/2017 2:0018.61/6/2017 2:00952.01/6/2017 2:0001/6/2017 2:00354.001/6/2017 2:001.401/6/2017 2:0084.61/6/2017 2:0016.01/6/2017 2:0020.81/6/2017 2:0036.71/6/2017 2:000.0
1/6/2017 3:0018.71/6/2017 3:00951.51/6/2017 3:0001/6/2017 3:0034.001/6/2017 3:001.501/6/2017 3:0083.21/6/2017 3:0015.91/6/2017 3:0021.01/6/2017 3:0036.71/6/2017 3:000.0
1/6/2017 4:0019.31/6/2017 4:00951.21/6/2017 4:0001/6/2017 4:0058.001/6/2017 4:002.201/6/2017 4:0079.11/6/2017 4:0015.71/6/2017 4:0021.41/6/2017 4:0037.31/6/2017 4:000.0
1/6/2017 5:0018.61/6/2017 5:00951.21/6/2017 5:0001/6/2017 5:00330.001/6/2017 5:002.201/6/2017 5:0085.31/6/2017 5:0016.21/6/2017 5:0020.61/6/2017 5:0037.11/6/2017 5:000.0
1/6/2017 6:0018.41/6/2017 6:00951.61/6/2017 6:0001/6/2017 6:00325.001/6/2017 6:002.001/6/2017 6:0085.71/6/2017 6:0016.01/6/2017 6:0020.61/6/2017 6:0037.01/6/2017 6:000.0
1/6/2017 7:0018.81/6/2017 7:00952.11/6/2017 7:0091/6/2017 7:00345.001/6/2017 7:001.901/6/2017 7:0084.31/6/2017 7:0016.21/6/2017 7:0020.91/6/2017 7:0037.01/6/2017 7:000.0
1/6/2017 8:0020.11/6/2017 8:00952.61/6/2017 8:00621/6/2017 8:0058.001/6/2017 8:001.801/6/2017 8:0076.71/6/2017 8:0016.01/6/2017 8:0022.01/6/2017 8:0037.11/6/2017 8:000.0
1/6/2017 9:0022.51/6/2017 9:00953.11/6/2017 9:003311/6/2017 9:0098.001/6/2017 9:002.101/6/2017 9:0066.61/6/2017 9:0016.01/6/2017 9:0023.11/6/2017 9:0037.31/6/2017 9:000.0
1/6/2017 10:0023.91/6/2017 10:00953.11/6/2017 10:005901/6/2017 10:0091.001/6/2017 10:003.701/6/2017 10:0061.41/6/2017 10:0016.11/6/2017 10:0024.51/6/2017 10:0038.01/6/2017 10:000.0
1/6/2017 11:0024.91/6/2017 11:00952.61/6/2017 11:007271/6/2017 11:0091.001/6/2017 11:003.501/6/2017 11:0058.81/6/2017 11:0016.41/6/2017 11:0025.61/6/2017 11:0038.31/6/2017 11:000.0
1/6/2017 12:0025.61/6/2017 12:00951.51/6/2017 12:008351/6/2017 12:0097.001/6/2017 12:003.701/6/2017 12:0057.21/6/2017 12:0016.61/6/2017 12:0026.21/6/2017 12:0038.51/6/2017 12:000.0
1/6/2017 13:0026.01/6/2017 13:00950.21/6/2017 13:007391/6/2017 13:0085.001/6/2017 13:003.101/6/2017 13:0056.41/6/2017 13:0016.71/6/2017 13:0026.71/6/2017 13:0039.01/6/2017 13:000.0
1/6/2017 14:0026.21/6/2017 14:00949.41/6/2017 14:006241/6/2017 14:0081.001/6/2017 14:002.901/6/2017 14:0056.91/6/2017 14:0017.11/6/2017 14:0026.91/6/2017 14:0039.31/6/2017 14:000.0
1/6/2017 15:0025.61/6/2017 15:00948.91/6/2017 15:003881/6/2017 15:0088.001/6/2017 15:003.201/6/2017 15:0060.51/6/2017 15:0017.51/6/2017 15:0026.71/6/2017 15:0039.61/6/2017 15:000.0
1/6/2017 16:0025.21/6/2017 16:00949.01/6/2017 16:003181/6/2017 16:0090.001/6/2017 16:003.301/6/2017 16:0062.31/6/2017 16:0017.61/6/2017 16:0026.21/6/2017 16:0040.11/6/2017 16:000.0
1/6/2017 17:0024.21/6/2017 17:00949.51/6/2017 17:001821/6/2017 17:0082.001/6/2017 17:003.101/6/2017 17:0067.01/6/2017 17:0017.81/6/2017 17:0025.41/6/2017 17:0040.81/6/2017 17:000.0
1/6/2017 18:0022.01/6/2017 18:00950.11/6/2017 18:0091/6/2017 18:0076.001/6/2017 18:003.101/6/2017 18:0073.91/6/2017 18:0017.21/6/2017 18:0023.81/6/2017 18:0040.71/6/2017 18:000.0
1/6/2017 19:0021.21/6/2017 19:00950.81/6/2017 19:0001/6/2017 19:0090.001/6/2017 19:002.301/6/2017 19:0077.01/6/2017 19:0017.11/6/2017 19:0023.21/6/2017 19:0040.71/6/2017 19:000.0
1/6/2017 20:0020.91/6/2017 20:00951.61/6/2017 20:0001/6/2017 20:0093.001/6/2017 20:002.601/6/2017 20:0077.41/6/2017 20:0016.91/6/2017 20:0022.91/6/2017 20:0040.91/6/2017 20:000.0
1/6/2017 21:0020.51/6/2017 21:00951.91/6/2017 21:0001/6/2017 21:0083.001/6/2017 21:002.301/6/2017 21:0079.31/6/2017 21:0016.91/6/2017 21:0022.51/6/2017 21:0041.31/6/2017 21:000.0
1/6/2017 22:0020.41/6/2017 22:00952.01/6/2017 22:0001/6/2017 22:0064.001/6/2017 22:001.501/6/2017 22:0079.11/6/2017 22:0016.71/6/2017 22:0022.41/6/2017 22:0041.51/6/2017 22:000.0
1/6/2017 23:0020.41/6/2017 23:00951.81/6/2017 23:0001/6/2017 23:0067.001/6/2017 23:001.101/6/2017 23:0080.01/6/2017 23:0016.91/6/2017 23:0022.51/6/2017 23:0041.81/6/2017 23:000.0
1/7/2017 0:0020.21/7/2017 0:00951.51/7/2017 0:0001/7/2017 0:00106.001/7/2017 0:001.501/7/2017 0:0080.91/7/2017 0:0016.91/7/2017 0:0022.31/7/2017 0:0041.91/7/2017 0:000.0
1/7/2017 17:0025.41/7/2017 17:00948.11/7/2017 17:001991/7/2017 17:00105.001/7/2017 17:002.601/7/2017 17:0061.81/7/2017 17:0017.61/7/2017 17:0026.21/7/2017 17:0045.31/7/2017 17:000.0
1/7/2017 18:0023.51/7/2017 18:00948.61/7/2017 18:00221/7/2017 18:0096.001/7/2017 18:002.301/7/2017 18:0070.61/7/2017 18:0017.91/7/2017 18:0025.21/7/2017 18:0045.71/7/2017 18:000.0
1/7/2017 19:0021.81/7/2017 19:00949.41/7/2017 19:0001/7/2017 19:0084.001/7/2017 19:002.001/7/2017 19:0076.51/7/2017 19:0017.61/7/2017 19:0023.91/7/2017 19:0045.21/7/2017 19:000.0
1/7/2017 20:0021.01/7/2017 20:00950.11/7/2017 20:0001/7/2017 20:0087.001/7/2017 20:001.601/7/2017 20:0078.91/7/2017 20:0017.31/7/2017 20:0023.11/7/2017 20:0045.21/7/2017 20:000.0
1/7/2017 21:0020.41/7/2017 21:00950.41/7/2017 21:0001/7/2017 21:0090.001/7/2017 21:001.001/7/2017 21:0080.51/7/2017 21:0017.01/7/2017 21:0022.51/7/2017 21:0045.61/7/2017 21:000.0
1/7/2017 22:0019.81/7/2017 22:00950.61/7/2017 22:0001/7/2017 22:0094.001/7/2017 22:001.001/7/2017 22:0083.21/7/2017 22:0016.91/7/2017 22:0022.11/7/2017 22:0045.41/7/2017 22:000.0
1/7/2017 23:0019.51/7/2017 23:00950.81/7/2017 23:0001/7/2017 23:00136.001/7/2017 23:000.901/7/2017 23:0084.71/7/2017 23:0016.91/7/2017 23:0021.91/7/2017 23:0045.71/7/2017 23:000.0
1/8/2017 0:0019.31/8/2017 0:00950.61/8/2017 0:0001/8/2017 0:0061.001/8/2017 0:000.901/8/2017 0:0085.41/8/2017 0:0016.91/8/2017 0:0021.91/8/2017 0:0045.81/8/2017 0:000.0
1/8/2017 1:0019.51/8/2017 1:00950.21/8/2017 1:0001/8/2017 1:0046.001/8/2017 1:001.401/8/2017 1:0083.81/8/2017 1:0016.81/8/2017 1:0021.81/8/2017 1:0045.51/8/2017 1:000.0
1/8/2017 2:0019.51/8/2017 2:00949.91/8/2017 2:0001/8/2017 2:0059.001/8/2017 2:001.501/8/2017 2:0082.61/8/2017 2:0016.51/8/2017 2:0021.71/8/2017 2:0046.11/8/2017 2:000.0
1/8/2017 3:0019.01/8/2017 3:00949.61/8/2017 3:0001/8/2017 3:0061.001/8/2017 3:000.901/8/2017 3:0086.21/8/2017 3:0016.71/8/2017 3:0021.31/8/2017 3:0045.91/8/2017 3:000.0
1/8/2017 4:0019.51/8/2017 4:00949.41/8/2017 4:0001/8/2017 4:0049.001/8/2017 4:001.301/8/2017 4:0083.81/8/2017 4:0016.81/8/2017 4:0021.71/8/2017 4:0046.21/8/2017 4:000.0
1/8/2017 5:0019.61/8/2017 5:00949.51/8/2017 5:0001/8/2017 5:00338.001/8/2017 5:001.301/8/2017 5:0083.71/8/2017 5:0016.81/8/2017 5:0021.81/8/2017 5:0046.11/8/2017 5:000.0
1/8/2017 6:0019.51/8/2017 6:00949.81/8/2017 6:0001/8/2017 6:00333.001/8/2017 6:001.001/8/2017 6:0086.41/8/2017 6:0017.21/8/2017 6:0021.81/8/2017 6:0046.31/8/2017 6:000.0
1/8/2017 7:0019.31/8/2017 7:00950.41/8/2017 7:0061/8/2017 7:00333.001/8/2017 7:001.801/8/2017 7:0088.41/8/2017 7:0017.41/8/2017 7:0021.51/8/2017 7:0046.31/8/2017 7:000.0
1/8/2017 8:0019.71/8/2017 8:00951.31/8/2017 8:00951/8/2017 8:00316.001/8/2017 8:001.601/8/2017 8:0087.41/8/2017 8:0017.61/8/2017 8:0021.51/8/2017 8:0046.01/8/2017 8:000.0
1/8/2017 9:0023.61/8/2017 9:00952.21/8/2017 9:003741/8/2017 9:00290.001/8/2017 9:000.901/8/2017 9:0069.21/8/2017 9:0017.71/8/2017 9:0023.11/8/2017 9:0046.21/8/2017 9:000.0
1/8/2017 10:0024.61/8/2017 10:00952.21/8/2017 10:005721/8/2017 10:0073.001/8/2017 10:001.901/8/2017 10:0064.31/8/2017 10:0017.51/8/2017 10:0024.71/8/2017 10:0047.51/8/2017 10:000.0
1/8/2017 11:0025.01/8/2017 11:00951.81/8/2017 11:007221/8/2017 11:0090.001/8/2017 11:003.701/8/2017 11:0062.41/8/2017 11:0017.41/8/2017 11:0025.91/8/2017 11:0047.31/8/2017 11:000.0
1/8/2017 12:0025.81/8/2017 12:00951.01/8/2017 12:008021/8/2017 12:00104.001/8/2017 12:003.401/8/2017 12:0059.31/8/2017 12:0017.31/8/2017 12:0026.61/8/2017 12:0047.21/8/2017 12:000.0
1/8/2017 13:0026.41/8/2017 13:00949.91/8/2017 13:008131/8/2017 13:0088.001/8/2017 13:003.101/8/2017 13:0058.31/8/2017 13:0017.61/8/2017 13:0027.21/8/2017 13:0047.71/8/2017 13:000.0
1/8/2017 14:0027.11/8/2017 14:00948.91/8/2017 14:007461/8/2017 14:0085.001/8/2017 14:002.701/8/2017 14:0056.91/8/2017 14:0017.91/8/2017 14:0027.61/8/2017 14:0048.31/8/2017 14:000.0
1/8/2017 15:0027.31/8/2017 15:00948.21/8/2017 15:006031/8/2017 15:0081.001/8/2017 15:002.601/8/2017 15:0056.81/8/2017 15:0018.11/8/2017 15:0027.81/8/2017 15:0048.81/8/2017 15:000.0
1/8/2017 16:0026.41/8/2017 16:00948.01/8/2017 16:002051/8/2017 16:00101.001/8/2017 16:002.601/8/2017 16:0060.61/8/2017 16:0018.21/8/2017 16:0027.61/8/2017 16:0049.61/8/2017 16:000.0
1/8/2017 17:0024.81/8/2017 17:00948.41/8/2017 17:00941/8/2017 17:00116.001/8/2017 17:003.401/8/2017 17:0067.61/8/2017 17:0018.51/8/2017 17:0026.61/8/2017 17:0049.61/8/2017 17:000.0
1/8/2017 18:0023.71/8/2017 18:00949.31/8/2017 18:00191/8/2017 18:00120.001/8/2017 18:002.901/8/2017 18:0070.31/8/2017 18:0018.01/8/2017 18:0025.61/8/2017 18:0049.91/8/2017 18:000.0
1/8/2017 19:0022.31/8/2017 19:00950.11/8/2017 19:0001/8/2017 19:0092.001/8/2017 19:002.501/8/2017 19:0076.71/8/2017 19:0018.11/8/2017 19:0024.31/8/2017 19:0050.01/8/2017 19:000.0
1/8/2017 20:0021.61/8/2017 20:00950.91/8/2017 20:0001/8/2017 20:0083.001/8/2017 20:001.901/8/2017 20:0079.31/8/2017 20:0017.91/8/2017 20:0023.71/8/2017 20:0050.01/8/2017 20:000.0
1/8/2017 21:0021.21/8/2017 21:00951.21/8/2017 21:0001/8/2017 21:0078.001/8/2017 21:001.001/8/2017 21:0081.31/8/2017 21:0017.91/8/2017 21:0023.51/8/2017 21:0050.31/8/2017 21:000.0
1/8/2017 22:0020.91/8/2017 22:00951.41/8/2017 22:0001/8/2017 22:0065.001/8/2017 22:001.301/8/2017 22:0082.31/8/2017 22:0017.81/8/2017 22:0023.21/8/2017 22:0050.21/8/2017 22:000.0
1/8/2017 23:0020.51/8/2017 23:00951.51/8/2017 23:0001/8/2017 23:0076.001/8/2017 23:001.001/8/2017 23:0084.51/8/2017 23:0017.91/8/2017 23:0022.81/8/2017 23:0050.11/8/2017 23:000.0
1/9/2017 0:0020.61/9/2017 0:00951.31/9/2017 0:0001/9/2017 0:0055.001/9/2017 0:001.201/9/2017 0:0082.81/9/2017 0:0017.61/9/2017 0:0023.01/9/2017 0:0050.11/9/2017 0:000.0
1/9/2017 1:0019.91/9/2017 1:00951.21/9/2017 1:0001/9/2017 1:00266.001/9/2017 1:000.501/9/2017 1:0086.41/9/2017 1:0017.61/9/2017 1:0022.61/9/2017 1:0050.51/9/2017 1:000.0
1/9/2017 2:0019.41/9/2017 2:00950.71/9/2017 2:0001/9/2017 2:00325.001/9/2017 2:000.701/9/2017 2:0091.51/9/2017 2:0018.11/9/2017 2:0022.21/9/2017 2:0050.81/9/2017 2:000.0
1/9/2017 3:0019.31/9/2017 3:00950.21/9/2017 3:0001/9/2017 3:00342.001/9/2017 3:000.901/9/2017 3:0092.31/9/2017 3:0018.11/9/2017 3:0022.21/9/2017 3:0050.61/9/2017 3:000.0
1/9/2017 4:0019.41/9/2017 4:00949.91/9/2017 4:0001/9/2017 4:00332.001/9/2017 4:001.301/9/2017 4:0092.21/9/2017 4:0018.21/9/2017 4:0021.91/9/2017 4:0050.61/9/2017 4:000.0
1/9/2017 5:0019.41/9/2017 5:00950.01/9/2017 5:0001/9/2017 5:00324.001/9/2017 5:001.701/9/2017 5:0090.01/9/2017 5:0017.81/9/2017 5:0021.81/9/2017 5:0050.81/9/2017 5:000.0
1/9/2017 6:0019.31/9/2017 6:00910.41/9/2017 6:0001/9/2017 6:00334.001/9/2017 6:001.601/9/2017 6:0089.71/9/2017 6:0017.61/9/2017 6:0021.61/9/2017 6:0050.91/9/2017 6:000.0
1/9/2017 7:0019.31/9/2017 7:00847.31/9/2017 7:0091/9/2017 7:00357.001/9/2017 7:001.001/9/2017 7:0090.91/9/2017 7:0017.81/9/2017 7:0021.71/9/2017 7:0050.61/9/2017 7:000.0
1/9/2017 8:0021.81/9/2017 8:00843.81/9/2017 8:001591/9/2017 8:00350.001/9/2017 8:001.401/9/2017 8:0080.31/9/2017 8:0018.31/9/2017 8:0022.71/9/2017 8:0050.51/9/2017 8:000.0
1/9/2017 9:0023.81/9/2017 9:00845.01/9/2017 9:003751/9/2017 9:0033.001/9/2017 9:001.701/9/2017 9:0070.61/9/2017 9:0018.21/9/2017 9:0024.11/9/2017 9:0051.41/9/2017 9:000.0
1/9/2017 10:0024.81/9/2017 10:00843.31/9/2017 10:005801/9/2017 10:0047.001/9/2017 10:002.201/9/2017 10:0065.91/9/2017 10:0018.11/9/2017 10:0025.11/9/2017 10:0051.91/9/2017 10:000.0
1/9/2017 11:0025.31/9/2017 11:00842.21/9/2017 11:006851/9/2017 11:0083.001/9/2017 11:003.801/9/2017 11:0064.71/9/2017 11:0018.21/9/2017 11:0026.31/9/2017 11:0051.81/9/2017 11:000.0
1/9/2017 12:0025.51/9/2017 12:00842.01/9/2017 12:007361/9/2017 12:0082.001/9/2017 12:003.801/9/2017 12:0064.01/9/2017 12:0018.31/9/2017 12:0026.51/9/2017 12:0051.91/9/2017 12:000.0
1/9/2017 13:0025.81/9/2017 13:00841.61/9/2017 13:005621/9/2017 13:0089.001/9/2017 13:003.301/9/2017 13:0063.31/9/2017 13:0018.41/9/2017 13:0026.71/9/2017 13:0052.31/9/2017 13:000.0
1/9/2017 14:0026.01/9/2017 14:00841.21/9/2017 14:007521/9/2017 14:0092.001/9/2017 14:003.701/9/2017 14:0062.41/9/2017 14:0018.31/9/2017 14:0026.91/9/2017 14:0052.81/9/2017 14:000.0
1/9/2017 15:0026.31/9/2017 15:00841.01/9/2017 15:005981/9/2017 15:0089.001/9/2017 15:003.601/9/2017 15:0061.71/9/2017 15:0018.41/9/2017 15:0027.01/9/2017 15:0053.51/9/2017 15:000.0
1/9/2017 16:0025.41/9/2017 16:00841.11/9/2017 16:002761/9/2017 16:0091.001/9/2017 16:003.101/9/2017 16:0065.11/9/2017 16:0018.41/9/2017 16:0026.61/9/2017 16:0054.21/9/2017 16:000.0
1/9/2017 17:0023.91/9/2017 17:00841.11/9/2017 17:00881/9/2017 17:0096.001/9/2017 17:003.401/9/2017 17:0071.11/9/2017 17:0018.41/9/2017 17:0025.71/9/2017 17:0054.11/9/2017 17:000.0
1/9/2017 18:0022.61/9/2017 18:00841.21/9/2017 18:00121/9/2017 18:0075.001/9/2017 18:002.701/9/2017 18:0075.11/9/2017 18:0018.01/9/2017 18:0024.61/9/2017 18:0054.21/9/2017 18:000.0
1/9/2017 19:0021.91/9/2017 19:00841.11/9/2017 19:0001/9/2017 19:0059.001/9/2017 19:002.201/9/2017 19:0075.31/9/2017 19:0017.41/9/2017 19:0023.91/9/2017 19:0054.51/9/2017 19:000.0
1/9/2017 20:0021.41/9/2017 20:00841.01/9/2017 20:0001/9/2017 20:0081.001/9/2017 20:001.901/9/2017 20:0078.31/9/2017 20:0017.51/9/2017 20:0023.51/9/2017 20:0054.41/9/2017 20:000.0
1/9/2017 21:0021.11/9/2017 21:00841.01/9/2017 21:0001/9/2017 21:0056.001/9/2017 21:001.901/9/2017 21:0079.51/9/2017 21:0017.51/9/2017 21:0023.31/9/2017 21:0054.81/9/2017 21:000.0
1/9/2017 22:0021.21/9/2017 22:00841.01/9/2017 22:0001/9/2017 22:0061.001/9/2017 22:002.301/9/2017 22:0078.31/9/2017 22:0017.31/9/2017 22:0023.31/9/2017 22:0055.21/9/2017 22:000.0
1/9/2017 23:0020.91/9/2017 23:00841.31/9/2017 23:0001/9/2017 23:0089.001/9/2017 23:001.301/9/2017 23:0081.21/9/2017 23:0017.61/9/2017 23:0023.11/9/2017 23:0055.31/9/2017 23:000.0
1/10/2017 0:0020.61/10/2017 0:00841.11/10/2017 0:0001/10/2017 0:0071.001/10/2017 0:001.601/10/2017 0:0081.21/10/2017 0:0017.31/10/2017 0:0023.01/10/2017 0:0055.01/10/2017 0:000.0
1/10/2017 1:0021.01/10/2017 1:00841.31/10/2017 1:0001/10/2017 1:0066.001/10/2017 1:001.601/10/2017 1:0077.41/10/2017 1:0017.01/10/2017 1:0023.11/10/2017 1:0055.41/10/2017 1:000.0
1/10/2017 2:0020.81/10/2017 2:00841.61/10/2017 2:0001/10/2017 2:0060.001/10/2017 2:000.901/10/2017 2:0079.01/10/2017 2:0017.11/10/2017 2:0023.01/10/2017 2:0055.61/10/2017 2:000.0
1/10/2017 3:0020.71/10/2017 3:00841.41/10/2017 3:0001/10/2017 3:0093.001/10/2017 3:001.101/10/2017 3:0081.31/10/2017 3:0017.51/10/2017 3:0022.91/10/2017 3:0055.31/10/2017 3:000.0
1/10/2017 4:0020.61/10/2017 4:00841.51/10/2017 4:0001/10/2017 4:0095.001/10/2017 4:001.301/10/2017 4:0081.11/10/2017 4:0017.31/10/2017 4:0022.81/10/2017 4:0055.41/10/2017 4:000.0
1/10/2017 5:0020.71/10/2017 5:00841.61/10/2017 5:0001/10/2017 5:0070.001/10/2017 5:001.701/10/2017 5:0079.11/10/2017 5:0017.01/10/2017 5:0022.81/10/2017 5:0055.71/10/2017 5:000.0
1/10/2017 6:0020.71/10/2017 6:00841.61/10/2017 6:0001/10/2017 6:0028.001/10/2017 6:001.201/10/2017 6:0078.11/10/2017 6:0016.81/10/2017 6:0023.01/10/2017 6:0055.81/10/2017 6:000.0
1/10/2017 7:0021.01/10/2017 7:00841.81/10/2017 7:00101/10/2017 7:0020.001/10/2017 7:001.301/10/2017 7:0075.51/10/2017 7:0016.61/10/2017 7:0023.21/10/2017 7:0055.81/10/2017 7:000.0
1/10/2017 8:0021.71/10/2017 8:00841.81/10/2017 8:001001/10/2017 8:000.001/10/2017 8:001.301/10/2017 8:0079.01/10/2017 8:0018.01/10/2017 8:0023.31/10/2017 8:0055.41/10/2017 8:000.0
1/10/2017 9:0022.81/10/2017 9:00841.51/10/2017 9:002001/10/2017 9:0031.001/10/2017 9:001.101/10/2017 9:0075.81/10/2017 9:0018.41/10/2017 9:0023.81/10/2017 9:0055.81/10/2017 9:000.0
1/10/2017 10:0023.61/10/2017 10:00841.31/10/2017 10:003391/10/2017 10:00100.001/10/2017 10:002.501/10/2017 10:0072.61/10/2017 10:0018.51/10/2017 10:0024.91/10/2017 10:0056.01/10/2017 10:000.0
1/10/2017 11:0025.11/10/2017 11:00841.41/10/2017 11:006381/10/2017 11:00107.001/10/2017 11:003.101/10/2017 11:0066.31/10/2017 11:0018.41/10/2017 11:0025.91/10/2017 11:0056.11/10/2017 11:000.0
1/10/2017 12:0026.31/10/2017 12:00841.31/10/2017 12:006731/10/2017 12:00109.001/10/2017 12:002.501/10/2017 12:0062.21/10/2017 12:0018.61/10/2017 12:0026.91/10/2017 12:0056.51/10/2017 12:000.0
1/10/2017 13:0026.61/10/2017 13:00841.51/10/2017 13:004941/10/2017 13:0096.001/10/2017 13:002.701/10/2017 13:0060.81/10/2017 13:0018.51/10/2017 13:0027.61/10/2017 13:0057.01/10/2017 13:000.0
1/10/2017 14:0025.01/10/2017 14:00841.71/10/2017 14:00771/10/2017 14:0048.001/10/2017 14:001.701/10/2017 14:0069.41/10/2017 14:0019.11/10/2017 14:0026.71/10/2017 14:0057.01/10/2017 14:000.4
1/10/2017 15:0024.31/10/2017 15:00842.01/10/2017 15:001631/10/2017 15:0048.001/10/2017 15:001.701/10/2017 15:0076.31/10/2017 15:0019.91/10/2017 15:0026.11/10/2017 15:0055.91/10/2017 15:000.1
1/10/2017 16:0024.11/10/2017 16:00842.01/10/2017 16:001971/10/2017 16:0063.001/10/2017 16:002.301/10/2017 16:0075.61/10/2017 16:0019.61/10/2017 16:0025.91/10/2017 16:0056.01/10/2017 16:000.0
1/10/2017 17:0024.21/10/2017 17:00842.21/10/2017 17:001051/10/2017 17:0064.001/10/2017 17:002.201/10/2017 17:0073.81/10/2017 17:0019.31/10/2017 17:0026.01/10/2017 17:0056.71/10/2017 17:000.0
1/10/2017 18:0023.21/10/2017 18:00842.21/10/2017 18:0071/10/2017 18:0065.001/10/2017 18:001.501/10/2017 18:0077.41/10/2017 18:0019.11/10/2017 18:0025.41/10/2017 18:0056.51/10/2017 18:000.0
1/10/2017 19:0022.71/10/2017 19:00842.01/10/2017 19:0001/10/2017 19:0065.001/10/2017 19:002.401/10/2017 19:0079.71/10/2017 19:0019.11/10/2017 19:0024.91/10/2017 19:0056.41/10/2017 19:000.0
1/10/2017 20:0022.31/10/2017 20:00841.81/10/2017 20:0001/10/2017 20:0084.001/10/2017 20:002.401/10/2017 20:0081.41/10/2017 20:0019.01/10/2017 20:0024.61/10/2017 20:0056.91/10/2017 20:000.0
1/10/2017 21:0021.81/10/2017 21:00841.71/10/2017 21:0001/10/2017 21:0092.001/10/2017 21:002.001/10/2017 21:0084.01/10/2017 21:0019.01/10/2017 21:0024.11/10/2017 21:0056.61/10/2017 21:000.0
1/10/2017 22:0021.31/10/2017 22:00841.71/10/2017 22:0001/10/2017 22:0090.001/10/2017 22:001.601/10/2017 22:0086.51/10/2017 22:0019.01/10/2017 22:0023.71/10/2017 22:0057.01/10/2017 22:000.0
1/10/2017 23:0021.41/10/2017 23:00841.51/10/2017 23:0001/10/2017 23:0065.001/10/2017 23:001.401/10/2017 23:0084.61/10/2017 23:0018.81/10/2017 23:0023.81/10/2017 23:0057.11/10/2017 23:000.0
1/11/2017 0:0021.31/11/2017 0:00841.51/11/2017 0:0001/11/2017 0:0026.001/11/2017 0:000.701/11/2017 0:0083.61/11/2017 0:0018.51/11/2017 0:0023.81/11/2017 0:0057.31/11/2017 0:000.0
1/11/2017 1:0020.81/11/2017 1:00841.51/11/2017 1:0001/11/2017 1:00159.001/11/2017 1:000.501/11/2017 1:0087.31/11/2017 1:0018.71/11/2017 1:0023.41/11/2017 1:0057.31/11/2017 1:000.0
1/11/2017 2:0020.71/11/2017 2:00841.41/11/2017 2:0001/11/2017 2:00122.001/11/2017 2:000.901/11/2017 2:0088.21/11/2017 2:0018.81/11/2017 2:0023.21/11/2017 2:0057.31/11/2017 2:000.0
1/11/2017 3:0020.71/11/2017 3:00841.21/11/2017 3:0001/11/2017 3:00124.001/11/2017 3:000.901/11/2017 3:0088.31/11/2017 3:0018.81/11/2017 3:0023.11/11/2017 3:0057.41/11/2017 3:000.0
1/11/2017 4:0020.61/11/2017 4:00841.31/11/2017 4:0001/11/2017 4:0093.001/11/2017 4:000.701/11/2017 4:0089.21/11/2017 4:0018.81/11/2017 4:0023.11/11/2017 4:0057.71/11/2017 4:000.0
1/11/2017 5:0020.71/11/2017 5:00841.31/11/2017 5:0001/11/2017 5:0055.001/11/2017 5:000.701/11/2017 5:0089.01/11/2017 5:0018.91/11/2017 5:0023.21/11/2017 5:0057.71/11/2017 5:000.0
1/11/2017 6:0020.71/11/2017 6:00841.51/11/2017 6:0001/11/2017 6:0081.001/11/2017 6:000.901/11/2017 6:0090.11/11/2017 6:0019.11/11/2017 6:0023.11/11/2017 6:0057.61/11/2017 6:000.3
1/11/2017 7:0020.51/11/2017 7:00841.31/11/2017 7:0021/11/2017 7:0092.001/11/2017 7:001.001/11/2017 7:0091.71/11/2017 7:0019.21/11/2017 7:0022.91/11/2017 7:0057.11/11/2017 7:000.4
1/11/2017 8:0020.81/11/2017 8:00841.31/11/2017 8:00441/11/2017 8:00103.001/11/2017 8:001.001/11/2017 8:0090.81/11/2017 8:0019.31/11/2017 8:0023.21/11/2017 8:0056.71/11/2017 8:000.0
1/11/2017 9:0021.91/11/2017 9:00841.01/11/2017 9:001811/11/2017 9:00105.001/11/2017 9:001.401/11/2017 9:0085.71/11/2017 9:0019.51/11/2017 9:0023.71/11/2017 9:0056.61/11/2017 9:000.1
1/11/2017 10:0022.41/11/2017 10:00840.81/11/2017 10:002071/11/2017 10:00115.001/11/2017 10:001.601/11/2017 10:0082.41/11/2017 10:0019.31/11/2017 10:0024.11/11/2017 10:0056.91/11/2017 10:000.0
1/11/2017 11:0024.11/11/2017 11:00840.81/11/2017 11:007571/11/2017 11:00104.001/11/2017 11:002.601/11/2017 11:0073.21/11/2017 11:0019.11/11/2017 11:0024.91/11/2017 11:0057.01/11/2017 11:000.0
1/11/2017 12:0024.61/11/2017 12:00840.71/11/2017 12:004251/11/2017 12:00121.001/11/2017 12:002.501/11/2017 12:0073.01/11/2017 12:0019.51/11/2017 12:0025.81/11/2017 12:0057.61/11/2017 12:000.0
1/11/2017 13:0025.51/11/2017 13:00840.71/11/2017 13:003231/11/2017 13:00134.001/11/2017 13:002.101/11/2017 13:0068.11/11/2017 13:0019.31/11/2017 13:0026.51/11/2017 13:0057.81/11/2017 13:000.0
1/11/2017 14:0025.41/11/2017 14:00840.61/11/2017 14:002341/11/2017 14:00184.001/11/2017 14:001.501/11/2017 14:0068.41/11/2017 14:0019.21/11/2017 14:0026.51/11/2017 14:0057.51/11/2017 14:000.0
1/11/2017 15:0026.21/11/2017 15:00840.71/11/2017 15:003491/11/2017 15:00142.001/11/2017 15:001.801/11/2017 15:0065.11/11/2017 15:0019.21/11/2017 15:0027.01/11/2017 15:0057.81/11/2017 15:000.0
1/11/2017 16:0025.61/11/2017 16:00840.71/11/2017 16:001981/11/2017 16:0095.001/11/2017 16:001.701/11/2017 16:0068.01/11/2017 16:0019.31/11/2017 16:0027.01/11/2017 16:0058.31/11/2017 16:000.0
1/11/2017 17:0025.21/11/2017 17:00840.71/11/2017 17:001171/11/2017 17:0056.001/11/2017 17:001.301/11/2017 17:0071.01/11/2017 17:0019.61/11/2017 17:0026.71/11/2017 17:0058.51/11/2017 17:000.0
1/11/2017 18:0024.31/11/2017 18:00840.71/11/2017 18:0061/11/2017 18:0039.001/11/2017 18:000.701/11/2017 18:0074.51/11/2017 18:0019.51/11/2017 18:0026.51/11/2017 18:0058.11/11/2017 18:000.0
1/11/2017 19:0023.51/11/2017 19:00840.91/11/2017 19:0001/11/2017 19:00311.001/11/2017 19:000.501/11/2017 19:0082.21/11/2017 19:0020.41/11/2017 19:0026.01/11/2017 19:0058.11/11/2017 19:000.0
1/11/2017 20:0023.11/11/2017 20:00841.01/11/2017 20:0001/11/2017 20:00345.001/11/2017 20:000.801/11/2017 20:0084.51/11/2017 20:0020.41/11/2017 20:0025.51/11/2017 20:0058.01/11/2017 20:000.0
1/11/2017 21:0022.81/11/2017 21:00841.21/11/2017 21:0001/11/2017 21:00352.001/11/2017 21:000.501/11/2017 21:0086.31/11/2017 21:0020.51/11/2017 21:0025.51/11/2017 21:0058.11/11/2017 21:000.0
1/11/2017 22:0022.51/11/2017 22:00841.31/11/2017 22:0001/11/2017 22:0059.001/11/2017 22:000.801/11/2017 22:0089.61/11/2017 22:0020.81/11/2017 22:0025.21/11/2017 22:0058.41/11/2017 22:000.0
1/11/2017 23:0022.21/11/2017 23:00841.41/11/2017 23:0001/11/2017 23:00145.001/11/2017 23:000.901/11/2017 23:0089.11/11/2017 23:0020.41/11/2017 23:0024.81/11/2017 23:0058.51/11/2017 23:000.0
1/12/2017 0:0021.81/12/2017 0:00841.41/12/2017 0:0001/12/2017 0:00110.001/12/2017 0:001.401/12/2017 0:0088.01/12/2017 0:0019.81/12/2017 0:0024.31/12/2017 0:0058.51/12/2017 0:000.0
1/12/2017 1:0021.41/12/2017 1:00841.31/12/2017 1:0001/12/2017 1:00100.001/12/2017 1:001.401/12/2017 1:0089.71/12/2017 1:0019.71/12/2017 1:0023.91/12/2017 1:0058.41/12/2017 1:000.0
1/12/2017 2:0021.31/12/2017 2:00841.31/12/2017 2:0001/12/2017 2:0048.001/12/2017 2:000.901/12/2017 2:0090.31/12/2017 2:0019.71/12/2017 2:0023.81/12/2017 2:0058.51/12/2017 2:000.0
1/12/2017 3:0021.11/12/2017 3:00841.31/12/2017 3:0001/12/2017 3:00154.001/12/2017 3:001.201/12/2017 3:0090.31/12/2017 3:0019.51/12/2017 3:0023.51/12/2017 3:0058.71/12/2017 3:000.0
1/12/2017 4:0020.91/12/2017 4:00841.21/12/2017 4:0001/12/2017 4:00128.001/12/2017 4:000.901/12/2017 4:0091.21/12/2017 4:0019.51/12/2017 4:0023.31/12/2017 4:0058.71/12/2017 4:000.0
1/12/2017 5:0021.01/12/2017 5:00841.31/12/2017 5:0001/12/2017 5:00120.001/12/2017 5:001.301/12/2017 5:0090.21/12/2017 5:0019.41/12/2017 5:0023.51/12/2017 5:0058.71/12/2017 5:000.0
1/12/2017 6:0021.01/12/2017 6:00841.31/12/2017 6:0001/12/2017 6:00117.001/12/2017 6:001.101/12/2017 6:0089.51/12/2017 6:0019.31/12/2017 6:0023.41/12/2017 6:0058.81/12/2017 6:000.0
1/12/2017 7:0020.91/12/2017 7:00841.31/12/2017 7:0031/12/2017 7:00120.001/12/2017 7:001.101/12/2017 7:0089.71/12/2017 7:0019.21/12/2017 7:0023.31/12/2017 7:0059.01/12/2017 7:000.0
1/12/2017 8:0021.21/12/2017 8:00841.31/12/2017 8:00341/12/2017 8:00108.001/12/2017 8:001.501/12/2017 8:0089.01/12/2017 8:0019.41/12/2017 8:0023.51/12/2017 8:0058.81/12/2017 8:000.0
1/12/2017 9:0022.11/12/2017 9:00841.21/12/2017 9:001681/12/2017 9:00122.001/12/2017 9:001.801/12/2017 9:0084.41/12/2017 9:0019.41/12/2017 9:0024.01/12/2017 9:0058.81/12/2017 9:000.0
1/12/2017 10:0024.21/12/2017 10:00841.01/12/2017 10:005691/12/2017 10:00103.001/12/2017 10:002.601/12/2017 10:0074.61/12/2017 10:0019.51/12/2017 10:0025.01/12/2017 10:0059.21/12/2017 10:000.0
1/12/2017 11:0025.31/12/2017 11:00840.71/12/2017 11:006681/12/2017 11:0089.001/12/2017 11:002.601/12/2017 11:0069.31/12/2017 11:0019.31/12/2017 11:0026.11/12/2017 11:0060.01/12/2017 11:000.0
1/12/2017 12:0026.81/12/2017 12:00840.61/12/2017 12:006461/12/2017 12:00124.001/12/2017 12:001.801/12/2017 12:0065.01/12/2017 12:0019.71/12/2017 12:0027.21/12/2017 12:0060.11/12/2017 12:000.0
1/12/2017 13:0028.11/12/2017 13:00840.51/12/2017 13:006691/12/2017 13:00162.001/12/2017 13:001.901/12/2017 13:0060.71/12/2017 13:0019.91/12/2017 13:0028.11/12/2017 13:0060.51/12/2017 13:000.0
1/12/2017 14:0028.61/12/2017 14:00840.51/12/2017 14:006831/12/2017 14:00180.001/12/2017 14:002.101/12/2017 14:0058.31/12/2017 14:0019.71/12/2017 14:0028.61/12/2017 14:0060.81/12/2017 14:000.0
1/12/2017 15:0028.61/12/2017 15:00840.61/12/2017 15:004351/12/2017 15:00221.001/12/2017 15:002.101/12/2017 15:0056.11/12/2017 15:0019.11/12/2017 15:0029.11/12/2017 15:0061.11/12/2017 15:000.0
1/12/2017 16:0027.51/12/2017 16:00840.81/12/2017 16:001561/12/2017 16:00169.001/12/2017 16:001.901/12/2017 16:0060.71/12/2017 16:0019.31/12/2017 16:0028.71/12/2017 16:0061.61/12/2017 16:000.0
1/12/2017 17:0025.11/12/2017 17:00841.11/12/2017 17:00561/12/2017 17:0078.001/12/2017 17:002.701/12/2017 17:0075.01/12/2017 17:0020.41/12/2017 17:0027.01/12/2017 17:0061.61/12/2017 17:000.0
1/12/2017 18:0022.91/12/2017 18:00841.41/12/2017 18:0071/12/2017 18:0073.001/12/2017 18:002.601/12/2017 18:0077.01/12/2017 18:0018.71/12/2017 18:0024.91/12/2017 18:0061.81/12/2017 18:000.0
1/12/2017 19:0021.51/12/2017 19:00841.51/12/2017 19:0001/12/2017 19:0075.001/12/2017 19:002.901/12/2017 19:0075.81/12/2017 19:0017.11/12/2017 19:0023.41/12/2017 19:0062.21/12/2017 19:000.0
1/12/2017 20:0020.61/12/2017 20:00841.61/12/2017 20:0001/12/2017 20:0062.001/12/2017 20:002.701/12/2017 20:0073.01/12/2017 20:0015.71/12/2017 20:0022.41/12/2017 20:0062.41/12/2017 20:000.0
1/13/2017 1:0018.81/13/2017 1:00841.71/13/2017 1:0001/13/2017 1:0063.001/13/2017 1:002.201/13/2017 1:0075.11/13/2017 1:0014.41/13/2017 1:0020.51/13/2017 1:0063.91/13/2017 1:000.0
1/13/2017 2:0018.61/13/2017 2:00841.71/13/2017 2:0001/13/2017 2:0074.001/13/2017 2:002.801/13/2017 2:0074.71/13/2017 2:0014.11/13/2017 2:0020.41/13/2017 2:0064.01/13/2017 2:000.0
1/13/2017 3:0018.61/13/2017 3:00841.71/13/2017 3:0001/13/2017 3:0070.001/13/2017 3:002.201/13/2017 3:0074.31/13/2017 3:0014.01/13/2017 3:0020.41/13/2017 3:0064.01/13/2017 3:000.0
1/13/2017 4:0018.41/13/2017 4:00841.61/13/2017 4:0001/13/2017 4:0065.001/13/2017 4:002.501/13/2017 4:0074.11/13/2017 4:0013.81/13/2017 4:0020.11/13/2017 4:0064.21/13/2017 4:000.0
1/13/2017 5:0018.31/13/2017 5:00841.71/13/2017 5:0001/13/2017 5:0065.001/13/2017 5:002.601/13/2017 5:0073.71/13/2017 5:0013.61/13/2017 5:0020.01/13/2017 5:0064.31/13/2017 5:000.0
1/13/2017 6:0018.31/13/2017 6:00841.81/13/2017 6:0001/13/2017 6:0068.001/13/2017 6:002.601/13/2017 6:0073.81/13/2017 6:0013.61/13/2017 6:0020.01/13/2017 6:0064.11/13/2017 6:000.0
1/13/2017 7:0018.31/13/2017 7:00841.71/13/2017 7:0031/13/2017 7:0064.001/13/2017 7:002.601/13/2017 7:0073.51/13/2017 7:0013.61/13/2017 7:0020.01/13/2017 7:0064.51/13/2017 7:000.0
1/13/2017 8:0018.41/13/2017 8:00841.81/13/2017 8:00461/13/2017 8:0061.001/13/2017 8:002.401/13/2017 8:0073.71/13/2017 8:0013.71/13/2017 8:0020.01/13/2017 8:0052.21/13/2017 8:000.0
1/13/2017 9:0018.61/13/2017 9:00841.71/13/2017 9:001181/13/2017 9:0069.001/13/2017 9:002.501/13/2017 9:0071.91/13/2017 9:0013.51/13/2017 9:0020.01/13/2017 9:0048.31/13/2017 9:000.0
1/13/2017 10:0019.21/13/2017 10:00841.71/13/2017 10:003331/13/2017 10:0060.001/13/2017 10:002.901/13/2017 10:0069.21/13/2017 10:0013.51/13/2017 10:0020.21/13/2017 10:0048.61/13/2017 10:000.0
1/13/2017 11:0020.51/13/2017 11:00841.51/13/2017 11:005031/13/2017 11:0047.001/13/2017 11:002.901/13/2017 11:0065.11/13/2017 11:0013.81/13/2017 11:0021.11/13/2017 11:0049.21/13/2017 11:000.0
1/13/2017 12:0021.21/13/2017 12:00841.51/13/2017 12:006541/13/2017 12:0077.001/13/2017 12:002.901/13/2017 12:0064.01/13/2017 12:0014.21/13/2017 12:0021.81/13/2017 12:0049.31/13/2017 12:000.0
1/13/2017 13:0022.11/13/2017 13:00841.21/13/2017 13:007121/13/2017 13:0060.001/13/2017 13:002.601/13/2017 13:0062.01/13/2017 13:0014.51/13/2017 13:0022.61/13/2017 13:0049.61/13/2017 13:000.0
1/13/2017 14:0022.51/13/2017 14:00841.11/13/2017 14:005891/13/2017 14:0077.001/13/2017 14:003.001/13/2017 14:0062.21/13/2017 14:0015.01/13/2017 14:0023.11/13/2017 14:0050.31/13/2017 14:000.0
1/13/2017 15:0022.31/13/2017 15:00841.21/13/2017 15:003551/13/2017 15:0085.001/13/2017 15:002.901/13/2017 15:0064.41/13/2017 15:0015.31/13/2017 15:0023.21/13/2017 15:0050.51/13/2017 15:000.0
1/13/2017 16:0022.61/13/2017 16:00841.31/13/2017 16:004411/13/2017 16:0090.001/13/2017 16:003.701/13/2017 16:0063.61/13/2017 16:0015.41/13/2017 16:0023.11/13/2017 16:0050.81/13/2017 16:000.0
1/13/2017 17:0021.11/13/2017 17:00841.41/13/2017 17:001791/13/2017 17:00100.001/13/2017 17:003.901/13/2017 17:0068.51/13/2017 17:0015.11/13/2017 17:0022.11/13/2017 17:0051.41/13/2017 17:000.0
1/13/2017 18:0019.31/13/2017 18:00841.51/13/2017 18:00101/13/2017 18:00107.001/13/2017 18:003.001/13/2017 18:0074.01/13/2017 18:0014.61/13/2017 18:0020.91/13/2017 18:0051.21/13/2017 18:000.0
1/13/2017 19:0018.01/13/2017 19:00841.81/13/2017 19:0001/13/2017 19:00110.001/13/2017 19:003.101/13/2017 19:0077.31/13/2017 19:0014.01/13/2017 19:0019.71/13/2017 19:0051.31/13/2017 19:000.0
1/13/2017 20:0017.61/13/2017 20:00842.01/13/2017 20:0001/13/2017 20:0092.001/13/2017 20:002.901/13/2017 20:0078.31/13/2017 20:0013.81/13/2017 20:0019.31/13/2017 20:0051.71/13/2017 20:000.0
1/13/2017 21:0017.71/13/2017 21:00841.91/13/2017 21:0001/13/2017 21:0082.001/13/2017 21:002.301/13/2017 21:0077.11/13/2017 21:0013.71/13/2017 21:0019.41/13/2017 21:0051.81/13/2017 21:000.0
1/13/2017 22:0017.21/13/2017 22:00841.91/13/2017 22:0001/13/2017 22:00112.001/13/2017 22:002.201/13/2017 22:0078.81/13/2017 22:0013.61/13/2017 22:0018.91/13/2017 22:0051.71/13/2017 22:000.0
1/13/2017 23:0016.91/13/2017 23:00841.91/13/2017 23:0001/13/2017 23:00123.001/13/2017 23:002.001/13/2017 23:0079.61/13/2017 23:0013.41/13/2017 23:0018.71/13/2017 23:0052.11/13/2017 23:000.0
1/14/2017 0:0016.71/14/2017 0:00842.01/14/2017 0:0001/14/2017 0:00111.001/14/2017 0:002.001/14/2017 0:0081.21/14/2017 0:0013.51/14/2017 0:0018.51/14/2017 0:0052.41/14/2017 0:000.0
1/14/2017 5:0016.81/14/2017 5:00841.91/14/2017 5:0001/14/2017 5:0053.001/14/2017 5:001.401/14/2017 5:0080.71/14/2017 5:0013.51/14/2017 5:0018.81/14/2017 5:0052.11/14/2017 5:000.0
2/1/2017 17:0022.12/1/2017 17:00840.32/1/2017 17:001622/1/2017 17:0076.002/1/2017 17:003.502/1/2017 17:0068.52/1/2017 17:0016.12/1/2017 17:0023.22/1/2017 17:0027.22/1/2017 17:000.0
2/2/2017 1:0018.92/2/2017 1:00840.32/2/2017 1:0002/2/2017 1:0021.002/2/2017 1:002.402/2/2017 1:0077.32/2/2017 1:0014.92/2/2017 1:0020.82/2/2017 1:0028.22/2/2017 1:000.0
2/2/2017 2:0019.22/2/2017 2:00840.32/2/2017 2:0002/2/2017 2:009.002/2/2017 2:002.702/2/2017 2:0076.62/2/2017 2:0015.12/2/2017 2:0021.12/2/2017 2:0028.72/2/2017 2:000.0
2/2/2017 3:0018.92/2/2017 3:00840.22/2/2017 3:0002/2/2017 3:006.002/2/2017 3:002.402/2/2017 3:0077.92/2/2017 3:0015.02/2/2017 3:0020.92/2/2017 3:0028.72/2/2017 3:000.0
2/2/2017 4:0018.92/2/2017 4:00840.22/2/2017 4:0002/2/2017 4:006.002/2/2017 4:002.602/2/2017 4:0078.52/2/2017 4:0015.22/2/2017 4:0020.92/2/2017 4:0028.42/2/2017 4:000.0
2/2/2017 5:0018.92/2/2017 5:00840.32/2/2017 5:0002/2/2017 5:005.002/2/2017 5:002.902/2/2017 5:0078.52/2/2017 5:0015.22/2/2017 5:0020.82/2/2017 5:0028.62/2/2017 5:000.0
2/2/2017 6:0018.52/2/2017 6:00840.22/2/2017 6:0002/2/2017 6:003.002/2/2017 6:002.302/2/2017 6:0080.22/2/2017 6:0015.12/2/2017 6:0020.52/2/2017 6:0028.72/2/2017 6:000.0
2/2/2017 7:0018.52/2/2017 7:00840.32/2/2017 7:0072/2/2017 7:009.002/2/2017 7:002.102/2/2017 7:0079.32/2/2017 7:0014.92/2/2017 7:0020.62/2/2017 7:0028.92/2/2017 7:000.0
2/2/2017 8:0019.72/2/2017 8:00840.32/2/2017 8:001202/2/2017 8:00355.002/2/2017 8:002.602/2/2017 8:0075.42/2/2017 8:0015.32/2/2017 8:0021.12/2/2017 8:0028.62/2/2017 8:000.0
2/2/2017 9:0021.32/2/2017 9:00840.12/2/2017 9:004312/2/2017 9:00341.002/2/2017 9:003.102/2/2017 9:0070.62/2/2017 9:0015.82/2/2017 9:0021.92/2/2017 9:0029.22/2/2017 9:000.0
2/2/2017 10:0022.12/2/2017 10:00840.02/2/2017 10:003692/2/2017 10:00357.002/2/2017 10:002.002/2/2017 10:0066.82/2/2017 10:0015.72/2/2017 10:0022.92/2/2017 10:0029.62/2/2017 10:000.0
2/2/2017 11:0023.22/2/2017 11:00839.92/2/2017 11:004592/2/2017 11:0056.002/2/2017 11:003.702/2/2017 11:0062.92/2/2017 11:0015.82/2/2017 11:0024.32/2/2017 11:0029.52/2/2017 11:000.0
2/2/2017 12:0024.62/2/2017 12:00839.82/2/2017 12:008652/2/2017 12:0059.002/2/2017 12:004.402/2/2017 12:0059.22/2/2017 12:0016.22/2/2017 12:0025.42/2/2017 12:0029.72/2/2017 12:000.0
2/2/2017 13:0025.12/2/2017 13:00839.72/2/2017 13:007382/2/2017 13:0053.002/2/2017 13:004.202/2/2017 13:0057.42/2/2017 13:0016.22/2/2017 13:0025.72/2/2017 13:0030.32/2/2017 13:000.0
2/2/2017 14:0025.12/2/2017 14:00839.82/2/2017 14:006202/2/2017 14:0063.002/2/2017 14:004.102/2/2017 14:0057.72/2/2017 14:0016.22/2/2017 14:0025.72/2/2017 14:0030.62/2/2017 14:000.0
2/2/2017 15:0023.72/2/2017 15:00839.82/2/2017 15:002652/2/2017 15:0079.002/2/2017 15:003.802/2/2017 15:0062.82/2/2017 15:0016.32/2/2017 15:0024.82/2/2017 15:0031.32/2/2017 15:000.0
2/2/2017 16:0022.52/2/2017 16:00839.92/2/2017 16:001712/2/2017 16:0084.002/2/2017 16:003.802/2/2017 16:0067.02/2/2017 16:0016.12/2/2017 16:0023.92/2/2017 16:0031.52/2/2017 16:000.0
2/2/2017 17:0021.72/2/2017 17:00840.02/2/2017 17:00542/2/2017 17:0080.002/2/2017 17:003.502/2/2017 17:0069.22/2/2017 17:0015.92/2/2017 17:0023.42/2/2017 17:0031.92/2/2017 17:000.0
2/2/2017 18:0020.92/2/2017 18:00840.12/2/2017 18:00212/2/2017 18:0072.002/2/2017 18:003.502/2/2017 18:0071.72/2/2017 18:0015.72/2/2017 18:0022.72/2/2017 18:0032.12/2/2017 18:000.0
2/2/2017 19:0020.52/2/2017 19:00840.02/2/2017 19:0002/2/2017 19:0064.002/2/2017 19:003.702/2/2017 19:0072.22/2/2017 19:0015.42/2/2017 19:0022.32/2/2017 19:0032.32/2/2017 19:000.0
2/2/2017 20:0020.22/2/2017 20:00840.12/2/2017 20:0002/2/2017 20:0061.002/2/2017 20:003.602/2/2017 20:0072.82/2/2017 20:0015.22/2/2017 20:0022.02/2/2017 20:0032.52/2/2017 20:000.0
2/2/2017 21:0020.02/2/2017 21:00840.22/2/2017 21:0002/2/2017 21:0062.002/2/2017 21:002.602/2/2017 21:0073.92/2/2017 21:0015.32/2/2017 21:0021.92/2/2017 21:0032.52/2/2017 21:000.0
2/2/2017 22:0019.82/2/2017 22:00840.22/2/2017 22:0002/2/2017 22:0080.002/2/2017 22:002.402/2/2017 22:0076.12/2/2017 22:0015.52/2/2017 22:0021.62/2/2017 22:0032.62/2/2017 22:000.0
2/2/2017 23:0019.62/2/2017 23:00840.22/2/2017 23:0002/2/2017 23:0055.002/2/2017 23:002.302/2/2017 23:0076.42/2/2017 23:0015.42/2/2017 23:0021.52/2/2017 23:0032.92/2/2017 23:000.0
2/3/2017 0:0019.72/3/2017 0:00840.12/3/2017 0:0002/3/2017 0:0053.002/3/2017 0:002.402/3/2017 0:0076.82/3/2017 0:0015.62/3/2017 0:0021.62/3/2017 0:0033.02/3/2017 0:000.0
2/4/2017 15:0027.82/4/2017 15:00838.42/4/2017 15:003892/4/2017 15:00341.002/4/2017 15:003.402/4/2017 15:0041.82/4/2017 15:0013.72/4/2017 15:0028.22/4/2017 15:008.72/4/2017 15:000.0
2/4/2017 16:0028.12/4/2017 16:00838.52/4/2017 16:003392/4/2017 16:00345.002/4/2017 16:002.402/4/2017 16:0040.92/4/2017 16:0013.62/4/2017 16:0028.52/4/2017 16:009.12/4/2017 16:000.0
2/4/2017 17:0029.42/4/2017 17:00838.52/4/2017 17:002752/4/2017 17:00343.002/4/2017 17:001.602/4/2017 17:0037.52/4/2017 17:0013.52/4/2017 17:0028.82/4/2017 17:009.92/4/2017 17:000.0
2/4/2017 18:0027.82/4/2017 18:00838.42/4/2017 18:00572/4/2017 18:00314.002/4/2017 18:001.002/4/2017 18:0044.82/4/2017 18:0014.82/4/2017 18:0027.72/4/2017 18:0010.42/4/2017 18:000.0
2/4/2017 19:0022.92/4/2017 19:00838.52/4/2017 19:0002/4/2017 19:00299.002/4/2017 19:000.802/4/2017 19:0058.02/4/2017 19:0014.32/4/2017 19:0025.22/4/2017 19:0010.12/4/2017 19:000.0
2/4/2017 20:0021.92/4/2017 20:00838.72/4/2017 20:0002/4/2017 20:00337.002/4/2017 20:000.802/4/2017 20:0070.02/4/2017 20:0016.32/4/2017 20:0024.52/4/2017 20:0010.02/4/2017 20:000.0
2/4/2017 21:0021.72/4/2017 21:00838.92/4/2017 21:0002/4/2017 21:0059.002/4/2017 21:001.102/4/2017 21:0068.12/4/2017 21:0015.62/4/2017 21:0024.12/4/2017 21:0010.12/4/2017 21:000.0
2/4/2017 22:0021.52/4/2017 22:00839.12/4/2017 22:0002/4/2017 22:0054.002/4/2017 22:001.602/4/2017 22:0068.62/4/2017 22:0015.62/4/2017 22:0023.62/4/2017 22:0010.12/4/2017 22:000.0
2/4/2017 23:0021.02/4/2017 23:00839.12/4/2017 23:0002/4/2017 23:0055.002/4/2017 23:001.702/4/2017 23:0074.82/4/2017 23:0016.42/4/2017 23:0023.12/4/2017 23:0010.32/4/2017 23:000.0
2/5/2017 0:0020.22/5/2017 0:00839.02/5/2017 0:0002/5/2017 0:0023.002/5/2017 0:001.502/5/2017 0:0078.12/5/2017 0:0016.32/5/2017 0:0022.52/5/2017 0:0010.72/5/2017 0:000.0
2/5/2017 1:0019.32/5/2017 1:00839.02/5/2017 1:0002/5/2017 1:006.002/5/2017 1:001.202/5/2017 1:0081.72/5/2017 1:0016.22/5/2017 1:0021.72/5/2017 1:0010.62/5/2017 1:000.0
2/5/2017 2:0018.72/5/2017 2:00839.12/5/2017 2:0002/5/2017 2:00339.002/5/2017 2:001.502/5/2017 2:0086.22/5/2017 2:0016.42/5/2017 2:0021.02/5/2017 2:0010.82/5/2017 2:000.0
2/5/2017 3:0018.32/5/2017 3:00839.22/5/2017 3:0002/5/2017 3:003.002/5/2017 3:001.402/5/2017 3:0085.22/5/2017 3:0015.82/5/2017 3:0020.72/5/2017 3:0011.02/5/2017 3:000.0
2/5/2017 4:0017.82/5/2017 4:00839.22/5/2017 4:0002/5/2017 4:00338.002/5/2017 4:001.602/5/2017 4:0087.72/5/2017 4:0015.82/5/2017 4:0020.22/5/2017 4:0010.72/5/2017 4:000.0
2/5/2017 5:0017.52/5/2017 5:00839.12/5/2017 5:0002/5/2017 5:00340.002/5/2017 5:001.602/5/2017 5:0088.32/5/2017 5:0015.62/5/2017 5:0019.82/5/2017 5:0010.72/5/2017 5:000.0
2/5/2017 6:0017.32/5/2017 6:00839.12/5/2017 6:0002/5/2017 6:00344.002/5/2017 6:001.502/5/2017 6:0085.72/5/2017 6:0015.02/5/2017 6:0019.72/5/2017 6:0010.92/5/2017 6:000.0
2/5/2017 7:0017.32/5/2017 7:00839.22/5/2017 7:00142/5/2017 7:00322.002/5/2017 7:001.302/5/2017 7:0087.22/5/2017 7:0015.22/5/2017 7:0019.42/5/2017 7:0010.92/5/2017 7:000.0
2/5/2017 8:0019.72/5/2017 8:00839.12/5/2017 8:001802/5/2017 8:00348.002/5/2017 8:001.702/5/2017 8:0075.02/5/2017 8:0015.22/5/2017 8:0020.32/5/2017 8:0011.22/5/2017 8:000.0
2/5/2017 9:0021.82/5/2017 9:00838.82/5/2017 9:004262/5/2017 9:006.002/5/2017 9:002.602/5/2017 9:0060.72/5/2017 9:0013.92/5/2017 9:0022.02/5/2017 9:0011.92/5/2017 9:000.0
2/5/2017 10:0023.42/5/2017 10:00838.72/5/2017 10:006412/5/2017 10:0020.002/5/2017 10:002.102/5/2017 10:0055.22/5/2017 10:0014.02/5/2017 10:0023.22/5/2017 10:0012.22/5/2017 10:000.0
2/5/2017 11:0024.12/5/2017 11:00838.52/5/2017 11:007972/5/2017 11:006.002/5/2017 11:002.102/5/2017 11:0051.22/5/2017 11:0013.52/5/2017 11:0023.92/5/2017 11:0012.42/5/2017 11:000.0
2/5/2017 12:0025.12/5/2017 12:00838.22/5/2017 12:008902/5/2017 12:00110.002/5/2017 12:002.102/5/2017 12:0047.72/5/2017 12:0013.32/5/2017 12:0024.92/5/2017 12:0012.42/5/2017 12:000.0
2/5/2017 13:0026.02/5/2017 13:00838.32/5/2017 13:009082/5/2017 13:00131.002/5/2017 13:002.002/5/2017 13:0044.12/5/2017 13:0012.92/5/2017 13:0025.52/5/2017 13:0012.82/5/2017 13:000.0
2/5/2017 14:0027.62/5/2017 14:00838.22/5/2017 14:008482/5/2017 14:0089.002/5/2017 14:001.602/5/2017 14:0037.52/5/2017 14:0011.92/5/2017 14:0026.62/5/2017 14:0013.32/5/2017 14:000.0
2/5/2017 15:0028.32/5/2017 15:00838.12/5/2017 15:007192/5/2017 15:0071.002/5/2017 15:001.602/5/2017 15:0034.82/5/2017 15:0011.42/5/2017 15:0027.32/5/2017 15:0014.32/5/2017 15:000.0
2/5/2017 16:0028.22/5/2017 16:00838.12/5/2017 16:005242/5/2017 16:0043.002/5/2017 16:002.102/5/2017 16:0036.32/5/2017 16:0011.92/5/2017 16:0027.42/5/2017 16:0014.82/5/2017 16:000.0
2/5/2017 17:0027.62/5/2017 17:00838.32/5/2017 17:002912/5/2017 17:00339.002/5/2017 17:002.002/5/2017 17:0040.52/5/2017 17:0013.02/5/2017 17:0027.22/5/2017 17:0015.32/5/2017 17:000.0
2/5/2017 18:0026.62/5/2017 18:00838.32/5/2017 18:00642/5/2017 18:00335.002/5/2017 18:001.102/5/2017 18:0046.52/5/2017 18:0014.32/5/2017 18:0026.72/5/2017 18:0015.72/5/2017 18:000.0
2/5/2017 19:0022.32/5/2017 19:00838.62/5/2017 19:0002/5/2017 19:00223.002/5/2017 19:000.702/5/2017 19:0060.82/5/2017 19:0014.42/5/2017 19:0024.52/5/2017 19:0015.42/5/2017 19:000.0
2/5/2017 20:0021.42/5/2017 20:00838.72/5/2017 20:0002/5/2017 20:00114.002/5/2017 20:000.902/5/2017 20:0069.72/5/2017 20:0015.72/5/2017 20:0024.02/5/2017 20:0015.32/5/2017 20:000.0
2/5/2017 21:0020.32/5/2017 21:00838.92/5/2017 21:0002/5/2017 21:00327.002/5/2017 21:000.502/5/2017 21:0076.72/5/2017 21:0016.12/5/2017 21:0023.02/5/2017 21:0015.42/5/2017 21:000.0
2/5/2017 22:0019.32/5/2017 22:00839.02/5/2017 22:0002/5/2017 22:00176.002/5/2017 22:000.602/5/2017 22:0081.32/5/2017 22:0016.12/5/2017 22:0022.12/5/2017 22:0015.72/5/2017 22:000.0
2/5/2017 23:0018.42/5/2017 23:00839.12/5/2017 23:0002/5/2017 23:00205.002/5/2017 23:000.802/5/2017 23:0084.72/5/2017 23:0015.82/5/2017 23:0021.22/5/2017 23:0015.52/5/2017 23:000.0
2/6/2017 0:0017.82/6/2017 0:00839.12/6/2017 0:0002/6/2017 0:00204.002/6/2017 0:000.502/6/2017 0:0088.22/6/2017 0:0015.92/6/2017 0:0020.52/6/2017 0:0015.72/6/2017 0:000.0
2/6/2017 1:0017.62/6/2017 1:00839.12/6/2017 1:0002/6/2017 1:0099.002/6/2017 1:000.802/6/2017 1:0089.22/6/2017 1:0015.92/6/2017 1:0020.22/6/2017 1:0016.12/6/2017 1:000.0
2/6/2017 2:0017.42/6/2017 2:00839.12/6/2017 2:0002/6/2017 2:0088.002/6/2017 2:000.902/6/2017 2:0092.22/6/2017 2:0016.22/6/2017 2:0020.02/6/2017 2:0015.92/6/2017 2:000.0
2/6/2017 3:0016.62/6/2017 3:00839.22/6/2017 3:0002/6/2017 3:00136.002/6/2017 3:001.702/6/2017 3:0091.92/6/2017 3:0015.32/6/2017 3:0018.72/6/2017 3:0015.82/6/2017 3:000.0
2/6/2017 4:0015.62/6/2017 4:00839.22/6/2017 4:0002/6/2017 4:00178.002/6/2017 4:000.802/6/2017 4:0093.22/6/2017 4:0014.62/6/2017 4:0017.82/6/2017 4:0016.02/6/2017 4:000.0
2/6/2017 5:0015.52/6/2017 5:00839.32/6/2017 5:0002/6/2017 5:00123.002/6/2017 5:001.102/6/2017 5:0094.52/6/2017 5:0014.72/6/2017 5:0018.02/6/2017 5:0016.32/6/2017 5:000.0
2/6/2017 6:0016.02/6/2017 6:00839.22/6/2017 6:0002/6/2017 6:0083.002/6/2017 6:001.002/6/2017 6:0092.52/6/2017 6:0014.92/6/2017 6:0018.32/6/2017 6:0016.32/6/2017 6:000.0
2/6/2017 7:0016.22/6/2017 7:00839.12/6/2017 7:00132/6/2017 7:00101.002/6/2017 7:001.502/6/2017 7:0091.02/6/2017 7:0014.82/6/2017 7:0018.32/6/2017 7:0016.32/6/2017 7:000.0
2/6/2017 8:0018.42/6/2017 8:00839.02/6/2017 8:001732/6/2017 8:0085.002/6/2017 8:001.402/6/2017 8:0080.72/6/2017 8:0015.12/6/2017 8:0018.92/6/2017 8:0016.32/6/2017 8:000.0
2/6/2017 9:0019.82/6/2017 9:00838.82/6/2017 9:004102/6/2017 9:00113.002/6/2017 9:002.002/6/2017 9:0072.12/6/2017 9:0014.72/6/2017 9:0019.82/6/2017 9:0017.02/6/2017 9:000.0
2/6/2017 10:0021.02/6/2017 10:00838.62/6/2017 10:006292/6/2017 10:00123.002/6/2017 10:002.302/6/2017 10:0065.62/6/2017 10:0014.42/6/2017 10:0020.92/6/2017 10:0017.32/6/2017 10:000.0
2/6/2017 11:0023.12/6/2017 11:00838.42/6/2017 11:007892/6/2017 11:00111.002/6/2017 11:002.002/6/2017 11:0058.12/6/2017 11:0014.52/6/2017 11:0023.02/6/2017 11:0017.42/6/2017 11:000.0
2/6/2017 12:0024.92/6/2017 12:00838.42/6/2017 12:008812/6/2017 12:00211.002/6/2017 12:002.002/6/2017 12:0053.92/6/2017 12:0015.02/6/2017 12:0024.62/6/2017 12:0017.82/6/2017 12:000.0
2/6/2017 13:0026.32/6/2017 13:00838.42/6/2017 13:009012/6/2017 13:00204.002/6/2017 13:002.102/6/2017 13:0047.02/6/2017 13:0014.22/6/2017 13:0025.72/6/2017 13:0018.02/6/2017 13:000.0
2/6/2017 14:0027.52/6/2017 14:00838.42/6/2017 14:008452/6/2017 14:00214.002/6/2017 14:002.202/6/2017 14:0043.52/6/2017 14:0014.12/6/2017 14:0026.92/6/2017 14:0018.42/6/2017 14:000.0
2/6/2017 15:0027.52/6/2017 15:00838.32/6/2017 15:007042/6/2017 15:0041.002/6/2017 15:002.602/6/2017 15:0046.22/6/2017 15:0015.02/6/2017 15:0027.22/6/2017 15:0019.22/6/2017 15:000.0
2/6/2017 16:0027.52/6/2017 16:00838.32/6/2017 16:005152/6/2017 16:0048.002/6/2017 16:002.502/6/2017 16:0045.32/6/2017 16:0014.72/6/2017 16:0027.42/6/2017 16:0020.02/6/2017 16:000.0
2/6/2017 17:0027.82/6/2017 17:00838.32/6/2017 17:002752/6/2017 17:0039.002/6/2017 17:001.802/6/2017 17:0043.92/6/2017 17:0014.52/6/2017 17:0027.62/6/2017 17:0020.72/6/2017 17:000.0
2/6/2017 18:0026.72/6/2017 18:00838.32/6/2017 18:00602/6/2017 18:0047.002/6/2017 18:001.002/6/2017 18:0048.52/6/2017 18:0015.02/6/2017 18:0026.92/6/2017 18:0020.92/6/2017 18:000.0
2/6/2017 19:0022.72/6/2017 19:00838.52/6/2017 19:0002/6/2017 19:00251.002/6/2017 19:000.902/6/2017 19:0062.42/6/2017 19:0015.22/6/2017 19:0024.82/6/2017 19:0020.52/6/2017 19:000.0
2/6/2017 20:0020.92/6/2017 20:00838.42/6/2017 20:0002/6/2017 20:00266.002/6/2017 20:000.802/6/2017 20:0065.92/6/2017 20:0014.42/6/2017 20:0023.52/6/2017 20:0020.32/6/2017 20:000.0
2/6/2017 21:0020.52/6/2017 21:00838.62/6/2017 21:0002/6/2017 21:00321.002/6/2017 21:000.902/6/2017 21:0070.92/6/2017 21:0015.12/6/2017 21:0023.02/6/2017 21:0020.42/6/2017 21:000.0
2/6/2017 22:0019.82/6/2017 22:00838.72/6/2017 22:0002/6/2017 22:00334.002/6/2017 22:001.302/6/2017 22:0072.12/6/2017 22:0014.72/6/2017 22:0022.42/6/2017 22:0020.72/6/2017 22:000.0
2/6/2017 23:0019.02/6/2017 23:00838.82/6/2017 23:0002/6/2017 23:0018.002/6/2017 23:000.902/6/2017 23:0084.12/6/2017 23:0016.32/6/2017 23:0021.62/6/2017 23:0020.62/6/2017 23:000.0
2/7/2017 0:0018.82/7/2017 0:00838.82/7/2017 0:0002/7/2017 0:00118.002/7/2017 0:001.002/7/2017 0:0084.52/7/2017 0:0016.22/7/2017 0:0021.32/7/2017 0:0020.82/7/2017 0:000.0
2/7/2017 1:0017.62/7/2017 1:00838.82/7/2017 1:0002/7/2017 1:00154.002/7/2017 1:000.402/7/2017 1:0089.72/7/2017 1:0016.02/7/2017 1:0020.42/7/2017 1:0021.12/7/2017 1:000.0
2/7/2017 2:0017.12/7/2017 2:00839.02/7/2017 2:0002/7/2017 2:00223.002/7/2017 2:000.402/7/2017 2:0092.52/7/2017 2:0015.92/7/2017 2:0019.82/7/2017 2:0021.02/7/2017 2:000.0
2/7/2017 3:0017.02/7/2017 3:00839.02/7/2017 3:0002/7/2017 3:0034.002/7/2017 3:000.602/7/2017 3:0093.62/7/2017 3:0016.02/7/2017 3:0019.82/7/2017 3:0020.92/7/2017 3:000.0
2/7/2017 4:0017.32/7/2017 4:00839.02/7/2017 4:0002/7/2017 4:0061.002/7/2017 4:001.302/7/2017 4:0090.72/7/2017 4:0015.82/7/2017 4:0019.72/7/2017 4:0021.12/7/2017 4:000.0
2/7/2017 5:0017.02/7/2017 5:00839.02/7/2017 5:0002/7/2017 5:0087.002/7/2017 5:001.302/7/2017 5:0090.22/7/2017 5:0015.52/7/2017 5:0019.22/7/2017 5:0021.22/7/2017 5:000.0
2/7/2017 6:0016.52/7/2017 6:00838.92/7/2017 6:0002/7/2017 6:0085.002/7/2017 6:000.602/7/2017 6:0091.12/7/2017 6:0015.12/7/2017 6:0018.92/7/2017 6:0021.52/7/2017 6:000.0
2/7/2017 7:0016.92/7/2017 7:00839.02/7/2017 7:00122/7/2017 7:0045.002/7/2017 7:001.302/7/2017 7:0088.62/7/2017 7:0015.12/7/2017 7:0019.12/7/2017 7:0021.62/7/2017 7:000.0
2/7/2017 8:0018.82/7/2017 8:00838.92/7/2017 8:001642/7/2017 8:00357.002/7/2017 8:001.402/7/2017 8:0081.82/7/2017 8:0015.72/7/2017 8:0019.62/7/2017 8:007.52/7/2017 8:000.0
2/7/2017 9:0020.72/7/2017 9:00838.62/7/2017 9:003942/7/2017 9:00349.002/7/2017 9:001.502/7/2017 9:0074.02/7/2017 9:0016.02/7/2017 9:0020.82/7/2017 9:005.72/7/2017 9:000.0
2/7/2017 10:0022.62/7/2017 10:00838.32/7/2017 10:006062/7/2017 10:0016.002/7/2017 10:001.402/7/2017 10:0062.72/7/2017 10:0015.22/7/2017 10:0022.12/7/2017 10:006.12/7/2017 10:000.0
2/7/2017 11:0024.22/7/2017 11:00838.12/7/2017 11:007662/7/2017 11:0014.002/7/2017 11:001.402/7/2017 11:0056.62/7/2017 11:0015.12/7/2017 11:0023.82/7/2017 11:006.22/7/2017 11:000.0
2/7/2017 12:0025.62/7/2017 12:00838.02/7/2017 12:008572/7/2017 12:0081.002/7/2017 12:002.302/7/2017 12:0051.12/7/2017 12:0014.82/7/2017 12:0025.92/7/2017 12:006.32/7/2017 12:000.0
2/7/2017 13:0027.32/7/2017 13:00837.82/7/2017 13:008762/7/2017 13:00112.002/7/2017 13:002.102/7/2017 13:0045.92/7/2017 13:0014.72/7/2017 13:0027.22/7/2017 13:006.62/7/2017 13:000.0
2/7/2017 14:0029.02/7/2017 14:00837.82/7/2017 14:008182/7/2017 14:00198.002/7/2017 14:001.802/7/2017 14:0036.32/7/2017 14:0012.62/7/2017 14:0028.12/7/2017 14:007.02/7/2017 14:000.0
2/7/2017 15:0030.12/7/2017 15:00837.82/7/2017 15:006992/7/2017 15:00215.002/7/2017 15:001.902/7/2017 15:0034.42/7/2017 15:0012.82/7/2017 15:0028.72/7/2017 15:007.82/7/2017 15:000.0
2/7/2017 16:0030.22/7/2017 16:00837.92/7/2017 16:005022/7/2017 16:00185.002/7/2017 16:002.102/7/2017 16:0033.62/7/2017 16:0012.52/7/2017 16:0029.02/7/2017 16:008.32/7/2017 16:000.0
2/7/2017 17:0030.32/7/2017 17:00837.92/7/2017 17:002662/7/2017 17:00168.002/7/2017 17:001.702/7/2017 17:0033.82/7/2017 17:0012.72/7/2017 17:0029.22/7/2017 17:009.02/7/2017 17:000.0
2/7/2017 18:0028.52/7/2017 18:00838.12/7/2017 18:00562/7/2017 18:00157.002/7/2017 18:001.402/7/2017 18:0038.22/7/2017 18:0013.02/7/2017 18:0028.62/7/2017 18:009.32/7/2017 18:000.0
2/7/2017 19:0023.92/7/2017 19:00838.22/7/2017 19:0002/7/2017 19:00281.002/7/2017 19:000.602/7/2017 19:0059.22/7/2017 19:0015.52/7/2017 19:0026.02/7/2017 19:009.12/7/2017 19:000.0
2/7/2017 20:0022.52/7/2017 20:00838.32/7/2017 20:0002/7/2017 20:0033.002/7/2017 20:001.002/7/2017 20:0067.22/7/2017 20:0016.22/7/2017 20:0025.02/7/2017 20:009.02/7/2017 20:000.0
2/7/2017 21:0021.82/7/2017 21:00838.42/7/2017 21:0002/7/2017 21:0084.002/7/2017 21:001.202/7/2017 21:0070.22/7/2017 21:0016.22/7/2017 21:0024.22/7/2017 21:009.22/7/2017 21:000.0
2/7/2017 22:0020.72/7/2017 22:00838.82/7/2017 22:0002/7/2017 22:00127.002/7/2017 22:001.302/7/2017 22:0078.22/7/2017 22:0016.82/7/2017 22:0023.12/7/2017 22:009.32/7/2017 22:000.0
2/7/2017 23:0020.02/7/2017 23:00838.92/7/2017 23:0002/7/2017 23:00141.002/7/2017 23:001.002/7/2017 23:0081.92/7/2017 23:0016.92/7/2017 23:0022.42/7/2017 23:009.52/7/2017 23:000.0
2/8/2017 0:0019.12/8/2017 0:00839.02/8/2017 0:0002/8/2017 0:00139.002/8/2017 0:000.602/8/2017 0:0087.22/8/2017 0:0017.02/8/2017 0:0022.02/8/2017 0:009.62/8/2017 0:000.0
2/8/2017 1:0018.52/8/2017 1:00839.12/8/2017 1:0002/8/2017 1:00314.002/8/2017 1:000.602/8/2017 1:0090.72/8/2017 1:0017.02/8/2017 1:0021.42/8/2017 1:009.52/8/2017 1:000.0
2/8/2017 2:0018.12/8/2017 2:00839.22/8/2017 2:0002/8/2017 2:00309.002/8/2017 2:000.702/8/2017 2:0093.32/8/2017 2:0017.12/8/2017 2:0021.12/8/2017 2:009.62/8/2017 2:000.0
2/8/2017 3:0018.22/8/2017 3:00839.22/8/2017 3:0002/8/2017 3:00325.002/8/2017 3:001.402/8/2017 3:0093.42/8/2017 3:0017.22/8/2017 3:0020.72/8/2017 3:009.82/8/2017 3:000.0
2/8/2017 4:0018.32/8/2017 4:00839.12/8/2017 4:0002/8/2017 4:00341.002/8/2017 4:001.502/8/2017 4:0091.72/8/2017 4:0017.02/8/2017 4:0020.82/8/2017 4:009.92/8/2017 4:000.0
2/8/2017 5:0018.12/8/2017 5:00839.12/8/2017 5:0002/8/2017 5:00337.002/8/2017 5:001.602/8/2017 5:0088.42/8/2017 5:0016.22/8/2017 5:0020.52/8/2017 5:0010.22/8/2017 5:000.0
2/8/2017 6:0017.82/8/2017 6:00839.12/8/2017 6:0002/8/2017 6:00334.002/8/2017 6:001.502/8/2017 6:0088.22/8/2017 6:0015.92/8/2017 6:0020.22/8/2017 6:0010.22/8/2017 6:000.0
2/8/2017 7:0017.92/8/2017 7:00839.22/8/2017 7:0092/8/2017 7:00345.002/8/2017 7:001.502/8/2017 7:0089.12/8/2017 7:0016.22/8/2017 7:0020.22/8/2017 7:009.82/8/2017 7:000.0
2/8/2017 8:0019.42/8/2017 8:00839.22/8/2017 8:001462/8/2017 8:00345.002/8/2017 8:001.502/8/2017 8:0081.52/8/2017 8:0016.22/8/2017 8:0020.32/8/2017 8:0010.22/8/2017 8:000.0
2/8/2017 9:0021.22/8/2017 9:00838.92/8/2017 9:003632/8/2017 9:00326.002/8/2017 9:001.502/8/2017 9:0072.42/8/2017 9:0016.12/8/2017 9:0021.52/8/2017 9:0010.72/8/2017 9:000.0
2/8/2017 10:0023.32/8/2017 10:00838.52/8/2017 10:005732/8/2017 10:0078.002/8/2017 10:001.202/8/2017 10:0062.42/8/2017 10:0015.82/8/2017 10:0022.82/8/2017 10:0011.22/8/2017 10:000.0
2/8/2017 11:0023.82/8/2017 11:00838.12/8/2017 11:007342/8/2017 11:0082.002/8/2017 11:001.902/8/2017 11:0061.92/8/2017 11:0016.12/8/2017 11:0024.02/8/2017 11:0011.22/8/2017 11:000.0
2/8/2017 12:0025.52/8/2017 12:00838.12/8/2017 12:008252/8/2017 12:0098.002/8/2017 12:002.402/8/2017 12:0054.12/8/2017 12:0015.62/8/2017 12:0025.92/8/2017 12:0011.42/8/2017 12:000.0
2/8/2017 13:0027.32/8/2017 13:00838.22/8/2017 13:008412/8/2017 13:0082.002/8/2017 13:002.002/8/2017 13:0048.92/8/2017 13:0015.72/8/2017 13:0027.42/8/2017 13:0011.72/8/2017 13:000.0
2/8/2017 14:0028.72/8/2017 14:00838.12/8/2017 14:007772/8/2017 14:00113.002/8/2017 14:001.602/8/2017 14:0044.32/8/2017 14:0015.42/8/2017 14:0028.32/8/2017 14:0012.12/8/2017 14:000.0
2/8/2017 15:0029.42/8/2017 15:00838.12/8/2017 15:006532/8/2017 15:0099.002/8/2017 15:001.802/8/2017 15:0041.92/8/2017 15:0015.22/8/2017 15:0028.72/8/2017 15:0012.82/8/2017 15:000.0
2/8/2017 16:0029.42/8/2017 16:00838.12/8/2017 16:004732/8/2017 16:0078.002/8/2017 16:002.102/8/2017 16:0041.42/8/2017 16:0015.02/8/2017 16:0029.12/8/2017 16:0013.42/8/2017 16:000.0
2/8/2017 17:0028.72/8/2017 17:00838.22/8/2017 17:002322/8/2017 17:00104.002/8/2017 17:002.302/8/2017 17:0043.42/8/2017 17:0015.12/8/2017 17:0029.02/8/2017 17:0013.82/8/2017 17:000.0
2/8/2017 18:0026.02/8/2017 18:00838.42/8/2017 18:00432/8/2017 18:0098.002/8/2017 18:003.102/8/2017 18:0057.32/8/2017 18:0017.02/8/2017 18:0027.42/8/2017 18:0014.32/8/2017 18:000.0
2/8/2017 19:0023.12/8/2017 19:00838.52/8/2017 19:0002/8/2017 19:0082.002/8/2017 19:002.602/8/2017 19:0069.42/8/2017 19:0017.32/8/2017 19:0025.02/8/2017 19:0014.32/8/2017 19:000.0
2/8/2017 20:0021.82/8/2017 20:00838.82/8/2017 20:0002/8/2017 20:0080.002/8/2017 20:002.202/8/2017 20:0073.22/8/2017 20:0016.92/8/2017 20:0023.82/8/2017 20:0014.52/8/2017 20:000.0
2/8/2017 21:0021.42/8/2017 21:00838.92/8/2017 21:0002/8/2017 21:0066.002/8/2017 21:001.902/8/2017 21:0073.92/8/2017 21:0016.62/8/2017 21:0023.42/8/2017 21:0014.72/8/2017 21:000.0
2/8/2017 22:0021.12/8/2017 22:00838.82/8/2017 22:0002/8/2017 22:0025.002/8/2017 22:002.302/8/2017 22:0074.82/8/2017 22:0016.52/8/2017 22:0023.22/8/2017 22:0015.12/8/2017 22:000.0
2/8/2017 23:0021.12/8/2017 23:00839.02/8/2017 23:0002/8/2017 23:0031.002/8/2017 23:002.402/8/2017 23:0074.22/8/2017 23:0016.42/8/2017 23:0023.22/8/2017 23:0015.42/8/2017 23:000.0
2/9/2017 1:0020.72/9/2017 1:00838.92/9/2017 1:0002/9/2017 1:0041.002/9/2017 1:002.402/9/2017 1:0075.72/9/2017 1:0016.32/9/2017 1:0022.72/9/2017 1:0015.12/9/2017 1:000.0
2/9/2017 2:0020.62/9/2017 2:00838.92/9/2017 2:0002/9/2017 2:0033.002/9/2017 2:002.802/9/2017 2:0074.52/9/2017 2:0016.02/9/2017 2:0022.72/9/2017 2:0015.32/9/2017 2:000.0
2/9/2017 3:0020.82/9/2017 3:00838.82/9/2017 3:0002/9/2017 3:0043.002/9/2017 3:002.802/9/2017 3:0073.42/9/2017 3:0015.92/9/2017 3:0022.82/9/2017 3:0015.42/9/2017 3:000.0
2/9/2017 4:0020.62/9/2017 4:00838.92/9/2017 4:0002/9/2017 4:0028.002/9/2017 4:002.302/9/2017 4:0074.52/9/2017 4:0016.02/9/2017 4:0022.62/9/2017 4:0015.62/9/2017 4:000.0
2/9/2017 5:0020.52/9/2017 5:00839.02/9/2017 5:0002/9/2017 5:0035.002/9/2017 5:003.402/9/2017 5:0070.32/9/2017 5:0015.02/9/2017 5:0022.42/9/2017 5:0015.82/9/2017 5:000.0
2/9/2017 6:0020.22/9/2017 6:00839.02/9/2017 6:0002/9/2017 6:0044.002/9/2017 6:004.002/9/2017 6:0067.42/9/2017 6:0014.02/9/2017 6:0022.02/9/2017 6:0016.02/9/2017 6:000.0
2/9/2017 7:0019.62/9/2017 7:00839.22/9/2017 7:0092/9/2017 7:0046.002/9/2017 7:003.102/9/2017 7:0067.12/9/2017 7:0013.42/9/2017 7:0021.22/9/2017 7:0016.32/9/2017 7:000.0
2/9/2017 8:0019.12/9/2017 8:00839.12/9/2017 8:00842/9/2017 8:0052.002/9/2017 8:003.602/9/2017 8:0066.82/9/2017 8:0012.92/9/2017 8:0020.52/9/2017 8:0016.32/9/2017 8:000.0
2/9/2017 9:0019.12/9/2017 9:00839.22/9/2017 9:002302/9/2017 9:0050.002/9/2017 9:004.802/9/2017 9:0064.92/9/2017 9:0012.42/9/2017 9:0020.32/9/2017 9:0016.42/9/2017 9:000.0
2/9/2017 10:0019.82/9/2017 10:00839.02/9/2017 10:004792/9/2017 10:0042.002/9/2017 10:004.302/9/2017 10:0062.02/9/2017 10:0012.42/9/2017 10:0020.52/9/2017 10:0016.72/9/2017 10:000.0
2/9/2017 11:0020.42/9/2017 11:00838.92/9/2017 11:006632/9/2017 11:0047.002/9/2017 11:004.502/9/2017 11:0059.62/9/2017 11:0012.32/9/2017 11:0021.02/9/2017 11:0017.32/9/2017 11:000.0
2/9/2017 12:0021.02/9/2017 12:00838.82/9/2017 12:008672/9/2017 12:0056.002/9/2017 12:004.902/9/2017 12:0057.12/9/2017 12:0012.32/9/2017 12:0021.52/9/2017 12:0017.82/9/2017 12:000.0
2/9/2017 13:0020.92/9/2017 13:00838.72/9/2017 13:008842/9/2017 13:0052.002/9/2017 13:004.502/9/2017 13:0057.22/9/2017 13:0012.22/9/2017 13:0021.32/9/2017 13:0018.22/9/2017 13:000.0
2/9/2017 14:0020.82/9/2017 14:00838.62/9/2017 14:008222/9/2017 14:0060.002/9/2017 14:004.502/9/2017 14:0058.02/9/2017 14:0012.32/9/2017 14:0021.12/9/2017 14:0018.82/9/2017 14:000.0
2/9/2017 15:0020.32/9/2017 15:00838.72/9/2017 15:006972/9/2017 15:0063.002/9/2017 15:004.802/9/2017 15:0058.52/9/2017 15:0012.02/9/2017 15:0020.72/9/2017 15:0019.52/9/2017 15:000.0
2/9/2017 16:0019.82/9/2017 16:00838.72/9/2017 16:005002/9/2017 16:0066.002/9/2017 16:004.602/9/2017 16:0060.22/9/2017 16:0011.92/9/2017 16:0020.12/9/2017 16:0020.32/9/2017 16:000.0
2/9/2017 17:0017.92/9/2017 17:00838.82/9/2017 17:002412/9/2017 17:0068.002/9/2017 17:004.802/9/2017 17:0065.72/9/2017 17:0011.52/9/2017 17:0018.62/9/2017 17:0020.92/9/2017 17:000.0
2/9/2017 18:0016.02/9/2017 18:00838.92/9/2017 18:00572/9/2017 18:0067.002/9/2017 18:004.802/9/2017 18:0072.12/9/2017 18:0011.02/9/2017 18:0017.22/9/2017 18:0021.22/9/2017 18:000.0
2/9/2017 19:0014.82/9/2017 19:00839.12/9/2017 19:0002/9/2017 19:0068.002/9/2017 19:003.202/9/2017 19:0077.12/9/2017 19:0010.92/9/2017 19:0016.32/9/2017 19:0021.22/9/2017 19:000.0
2/9/2017 20:0014.62/9/2017 20:00839.22/9/2017 20:0002/9/2017 20:0065.002/9/2017 20:002.702/9/2017 20:0078.52/9/2017 20:0011.02/9/2017 20:0016.12/9/2017 20:0021.52/9/2017 20:000.0
2/9/2017 21:0014.42/9/2017 21:00839.22/9/2017 21:0002/9/2017 21:0057.002/9/2017 21:002.902/9/2017 21:0078.52/9/2017 21:0010.82/9/2017 21:0016.02/9/2017 21:0021.62/9/2017 21:000.0
2/9/2017 22:0014.22/9/2017 22:00839.32/9/2017 22:0002/9/2017 22:0040.002/9/2017 22:002.702/9/2017 22:0079.12/9/2017 22:0010.72/9/2017 22:0015.72/9/2017 22:0021.52/9/2017 22:000.0
2/9/2017 23:0014.02/9/2017 23:00839.32/9/2017 23:0002/9/2017 23:0039.002/9/2017 23:002.902/9/2017 23:0080.12/9/2017 23:0010.72/9/2017 23:0015.62/9/2017 23:0021.72/9/2017 23:000.0
2/10/2017 0:0013.82/10/2017 0:00839.32/10/2017 0:0002/10/2017 0:0032.002/10/2017 0:003.402/10/2017 0:0079.82/10/2017 0:0010.42/10/2017 0:0015.42/10/2017 0:0021.92/10/2017 0:000.0
2/10/2017 4:0014.72/10/2017 4:00839.22/10/2017 4:0002/10/2017 4:0033.002/10/2017 4:003.602/10/2017 4:0074.42/10/2017 4:0010.32/10/2017 4:0016.22/10/2017 4:0022.22/10/2017 4:000.0
2/10/2017 5:0014.62/10/2017 5:00839.32/10/2017 5:0002/10/2017 5:0034.002/10/2017 5:003.802/10/2017 5:0074.92/10/2017 5:0010.32/10/2017 5:0016.22/10/2017 5:0022.42/10/2017 5:000.0
2/10/2017 6:0014.62/10/2017 6:00839.32/10/2017 6:0002/10/2017 6:0034.002/10/2017 6:003.702/10/2017 6:0075.12/10/2017 6:0010.32/10/2017 6:0016.22/10/2017 6:0022.42/10/2017 6:000.0
2/10/2017 7:0014.82/10/2017 7:00839.32/10/2017 7:0092/10/2017 7:0034.002/10/2017 7:003.302/10/2017 7:0075.72/10/2017 7:0010.62/10/2017 7:0016.32/10/2017 7:0022.42/10/2017 7:000.0
2/10/2017 8:0015.52/10/2017 8:00839.22/10/2017 8:001202/10/2017 8:0034.002/10/2017 8:003.302/10/2017 8:0073.32/10/2017 8:0010.82/10/2017 8:0016.82/10/2017 8:0022.52/10/2017 8:000.0
2/10/2017 9:0017.32/10/2017 9:00839.02/10/2017 9:003892/10/2017 9:0040.002/10/2017 9:003.602/10/2017 9:0066.72/10/2017 9:0011.12/10/2017 9:0017.92/10/2017 9:0022.92/10/2017 9:000.0
2/10/2017 10:0018.92/10/2017 10:00838.72/10/2017 10:006092/10/2017 10:0040.002/10/2017 10:003.402/10/2017 10:0061.82/10/2017 10:0011.52/10/2017 10:0019.12/10/2017 10:0023.42/10/2017 10:000.0
2/10/2017 11:0020.12/10/2017 11:00838.72/10/2017 11:007682/10/2017 11:0063.002/10/2017 11:003.802/10/2017 11:0058.32/10/2017 11:0011.72/10/2017 11:0020.52/10/2017 11:0023.52/10/2017 11:000.0
2/10/2017 12:0019.82/10/2017 12:00838.62/10/2017 12:008682/10/2017 12:0085.002/10/2017 12:005.202/10/2017 12:0059.92/10/2017 12:0011.92/10/2017 12:0020.32/10/2017 12:0023.82/10/2017 12:000.0
2/10/2017 13:0019.92/10/2017 13:00838.52/10/2017 13:008852/10/2017 13:0077.002/10/2017 13:005.102/10/2017 13:0060.02/10/2017 13:0012.02/10/2017 13:0020.52/10/2017 13:0024.02/10/2017 13:000.0
2/10/2017 14:0020.42/10/2017 14:00838.52/10/2017 14:008232/10/2017 14:0071.002/10/2017 14:005.002/10/2017 14:0057.82/10/2017 14:0011.92/10/2017 14:0020.82/10/2017 14:0024.82/10/2017 14:000.0
2/10/2017 15:0020.52/10/2017 15:00838.42/10/2017 15:006992/10/2017 15:0074.002/10/2017 15:004.802/10/2017 15:0057.82/10/2017 15:0012.02/10/2017 15:0020.82/10/2017 15:0025.42/10/2017 15:000.0
2/10/2017 16:0020.22/10/2017 16:00838.42/10/2017 16:005142/10/2017 16:0072.002/10/2017 16:004.402/10/2017 16:0059.02/10/2017 16:0012.02/10/2017 16:0020.52/10/2017 16:0025.92/10/2017 16:000.0
2/10/2017 17:0018.62/10/2017 17:00838.52/10/2017 17:002842/10/2017 17:0072.002/10/2017 17:004.702/10/2017 17:0063.42/10/2017 17:0011.62/10/2017 17:0019.22/10/2017 17:0026.72/10/2017 17:000.0
2/10/2017 18:0016.72/10/2017 18:00838.62/10/2017 18:00632/10/2017 18:0067.002/10/2017 18:004.502/10/2017 18:0069.62/10/2017 18:0011.22/10/2017 18:0017.82/10/2017 18:0027.02/10/2017 18:000.0
2/10/2017 19:0015.42/10/2017 19:00838.92/10/2017 19:0002/10/2017 19:0059.002/10/2017 19:004.102/10/2017 19:0073.42/10/2017 19:0010.72/10/2017 19:0016.92/10/2017 19:0026.92/10/2017 19:000.0
2/10/2017 20:0015.02/10/2017 20:00839.02/10/2017 20:0002/10/2017 20:0054.002/10/2017 20:003.302/10/2017 20:0075.02/10/2017 20:0010.72/10/2017 20:0016.62/10/2017 20:0027.22/10/2017 20:000.0
2/10/2017 21:0014.92/10/2017 21:00839.02/10/2017 21:0002/10/2017 21:0040.002/10/2017 21:003.502/10/2017 21:0075.72/10/2017 21:0010.72/10/2017 21:0016.42/10/2017 21:0027.52/10/2017 21:000.0
2/10/2017 22:0014.82/10/2017 22:00839.12/10/2017 22:0002/10/2017 22:0043.002/10/2017 22:004.102/10/2017 22:0075.92/10/2017 22:0010.72/10/2017 22:0016.32/10/2017 22:0027.32/10/2017 22:000.0
2/10/2017 23:0014.72/10/2017 23:00839.02/10/2017 23:0002/10/2017 23:0042.002/10/2017 23:004.502/10/2017 23:0075.12/10/2017 23:0010.42/10/2017 23:0016.22/10/2017 23:0027.42/10/2017 23:000.0
2/11/2017 0:0014.62/11/2017 0:00839.12/11/2017 0:0002/11/2017 0:0044.002/11/2017 0:004.202/11/2017 0:0074.62/11/2017 0:0010.22/11/2017 0:0016.22/11/2017 0:0027.62/11/2017 0:000.0
2/11/2017 1:0014.62/11/2017 1:00839.12/11/2017 1:0002/11/2017 1:0040.002/11/2017 1:004.302/11/2017 1:0073.92/11/2017 1:0010.12/11/2017 1:0016.22/11/2017 1:0027.82/11/2017 1:000.0
2/11/2017 2:0014.82/11/2017 2:00839.02/11/2017 2:0002/11/2017 2:0041.002/11/2017 2:004.302/11/2017 2:0073.12/11/2017 2:0010.12/11/2017 2:0016.32/11/2017 2:0027.92/11/2017 2:000.0
2/11/2017 3:0014.82/11/2017 3:00839.12/11/2017 3:0002/11/2017 3:0039.002/11/2017 3:004.102/11/2017 3:0072.12/11/2017 3:009.92/11/2017 3:0016.42/11/2017 3:0027.92/11/2017 3:000.0
2/11/2017 4:0014.92/11/2017 4:00839.12/11/2017 4:0002/11/2017 4:0037.002/11/2017 4:004.102/11/2017 4:0071.52/11/2017 4:009.92/11/2017 4:0016.42/11/2017 4:0027.92/11/2017 4:000.0
2/11/2017 5:0014.92/11/2017 5:00839.12/11/2017 5:0002/11/2017 5:0039.002/11/2017 5:003.902/11/2017 5:0072.22/11/2017 5:0010.02/11/2017 5:0016.42/11/2017 5:0028.12/11/2017 5:000.0
2/11/2017 6:0014.92/11/2017 6:00839.12/11/2017 6:0002/11/2017 6:0043.002/11/2017 6:003.902/11/2017 6:0073.72/11/2017 6:0010.32/11/2017 6:0016.42/11/2017 6:0028.22/11/2017 6:000.0
2/11/2017 7:0015.02/11/2017 7:00839.12/11/2017 7:00122/11/2017 7:0038.002/11/2017 7:004.402/11/2017 7:0072.52/11/2017 7:0010.22/11/2017 7:0016.52/11/2017 7:0028.22/11/2017 7:000.0
2/11/2017 8:0015.92/11/2017 8:00839.12/11/2017 8:001612/11/2017 8:0036.002/11/2017 8:004.702/11/2017 8:0067.72/11/2017 8:0010.02/11/2017 8:0016.92/11/2017 8:0028.52/11/2017 8:000.0
2/11/2017 9:0017.12/11/2017 9:00838.92/11/2017 9:003992/11/2017 9:0040.002/11/2017 9:005.202/11/2017 9:0063.22/11/2017 9:0010.12/11/2017 9:0017.82/11/2017 9:0028.92/11/2017 9:000.0
2/11/2017 10:0018.12/11/2017 10:00838.82/11/2017 10:006212/11/2017 10:0042.002/11/2017 10:005.202/11/2017 10:0060.22/11/2017 10:0010.32/11/2017 10:0018.62/11/2017 10:0029.22/11/2017 10:000.0
2/11/2017 11:0018.82/11/2017 11:00838.72/11/2017 11:007832/11/2017 11:0049.002/11/2017 11:005.002/11/2017 11:0058.22/11/2017 11:0010.52/11/2017 11:0019.22/11/2017 11:0029.32/11/2017 11:000.0
2/11/2017 12:0019.12/11/2017 12:00838.72/11/2017 12:008732/11/2017 12:0054.002/11/2017 12:005.102/11/2017 12:0058.02/11/2017 12:0010.72/11/2017 12:0019.52/11/2017 12:0030.02/11/2017 12:000.0
2/11/2017 13:0019.02/11/2017 13:00838.72/11/2017 13:008932/11/2017 13:0056.002/11/2017 13:005.102/11/2017 13:0058.12/11/2017 13:0010.62/11/2017 13:0019.42/11/2017 13:0030.52/11/2017 13:000.0
2/11/2017 14:0019.02/11/2017 14:00838.62/11/2017 14:008352/11/2017 14:0057.002/11/2017 14:005.102/11/2017 14:0057.92/11/2017 14:0010.62/11/2017 14:0019.32/11/2017 14:0031.02/11/2017 14:000.0
2/11/2017 15:0018.32/11/2017 15:00838.52/11/2017 15:007032/11/2017 15:0057.002/11/2017 15:005.202/11/2017 15:0060.22/11/2017 15:0010.52/11/2017 15:0018.62/11/2017 15:0031.62/11/2017 15:000.0
2/11/2017 16:0017.52/11/2017 16:00838.62/11/2017 16:005072/11/2017 16:0062.002/11/2017 16:005.202/11/2017 16:0062.32/11/2017 16:0010.32/11/2017 16:0017.92/11/2017 16:0032.32/11/2017 16:000.0
2/11/2017 17:0016.02/11/2017 17:00838.72/11/2017 17:002722/11/2017 17:0063.002/11/2017 17:005.502/11/2017 17:0065.92/11/2017 17:009.72/11/2017 17:0016.62/11/2017 17:0032.82/11/2017 17:000.0
2/11/2017 18:0014.22/11/2017 18:00838.92/11/2017 18:00592/11/2017 18:0061.002/11/2017 18:005.102/11/2017 18:0072.42/11/2017 18:009.42/11/2017 18:0015.32/11/2017 18:0033.22/11/2017 18:000.0
2/11/2017 19:0013.12/11/2017 19:00839.02/11/2017 19:0002/11/2017 19:0059.002/11/2017 19:004.302/11/2017 19:0077.12/11/2017 19:009.22/11/2017 19:0014.62/11/2017 19:0033.12/11/2017 19:000.0
2/11/2017 20:0013.22/11/2017 20:00839.02/11/2017 20:0002/11/2017 20:0053.002/11/2017 20:003.902/11/2017 20:0076.02/11/2017 20:009.12/11/2017 20:0014.62/11/2017 20:0033.42/11/2017 20:000.0
2/11/2017 21:0013.42/11/2017 21:00839.12/11/2017 21:0002/11/2017 21:0039.002/11/2017 21:003.302/11/2017 21:0074.12/11/2017 21:008.92/11/2017 21:0014.92/11/2017 21:0033.62/11/2017 21:000.0
2/11/2017 22:0013.62/11/2017 22:00839.12/11/2017 22:0002/11/2017 22:0036.002/11/2017 22:003.402/11/2017 22:0073.72/11/2017 22:009.12/11/2017 22:0015.12/11/2017 22:0033.82/11/2017 22:000.0
2/11/2017 23:0013.72/11/2017 23:00839.02/11/2017 23:0002/11/2017 23:0040.002/11/2017 23:003.302/11/2017 23:0073.62/11/2017 23:009.12/11/2017 23:0015.22/11/2017 23:0033.92/11/2017 23:000.0
2/12/2017 0:0013.62/12/2017 0:00839.02/12/2017 0:0002/12/2017 0:0033.002/12/2017 0:003.302/12/2017 0:0073.42/12/2017 0:009.02/12/2017 0:0015.12/12/2017 0:0034.02/12/2017 0:000.0
2/12/2017 1:0013.42/12/2017 1:00839.02/12/2017 1:0002/12/2017 1:0015.002/12/2017 1:002.602/12/2017 1:0075.42/12/2017 1:009.22/12/2017 1:0015.02/12/2017 1:0034.22/12/2017 1:000.0
2/12/2017 2:0013.42/12/2017 2:00839.12/12/2017 2:0002/12/2017 2:0031.002/12/2017 2:002.302/12/2017 2:0076.42/12/2017 2:009.42/12/2017 2:0015.02/12/2017 2:0033.82/12/2017 2:000.0
2/12/2017 3:0013.22/12/2017 3:00839.22/12/2017 3:0002/12/2017 3:0065.002/12/2017 3:002.602/12/2017 3:0077.22/12/2017 3:009.42/12/2017 3:0014.72/12/2017 3:0033.92/12/2017 3:000.0
2/12/2017 4:0013.12/12/2017 4:00839.12/12/2017 4:0002/12/2017 4:0068.002/12/2017 4:002.602/12/2017 4:0077.42/12/2017 4:009.32/12/2017 4:0014.62/12/2017 4:0033.92/12/2017 4:000.0
2/12/2017 5:0012.92/12/2017 5:00839.12/12/2017 5:0002/12/2017 5:0067.002/12/2017 5:003.102/12/2017 5:0076.12/12/2017 5:008.92/12/2017 5:0014.42/12/2017 5:0033.92/12/2017 5:000.0
2/12/2017 6:0012.92/12/2017 6:00839.22/12/2017 6:0002/12/2017 6:0064.002/12/2017 6:003.302/12/2017 6:0075.92/12/2017 6:008.82/12/2017 6:0014.52/12/2017 6:0034.02/12/2017 6:000.0
2/12/2017 7:0013.22/12/2017 7:00839.22/12/2017 7:00112/12/2017 7:0056.002/12/2017 7:003.902/12/2017 7:0075.52/12/2017 7:009.02/12/2017 7:0014.62/12/2017 7:0033.92/12/2017 7:000.0
2/12/2017 8:0013.92/12/2017 8:00839.22/12/2017 8:001492/12/2017 8:0060.002/12/2017 8:003.602/12/2017 8:0071.72/12/2017 8:008.92/12/2017 8:0014.92/12/2017 8:0034.22/12/2017 8:000.0
2/12/2017 9:0015.62/12/2017 9:00839.02/12/2017 9:003802/12/2017 9:0061.002/12/2017 9:003.302/12/2017 9:0065.02/12/2017 9:009.12/12/2017 9:0016.12/12/2017 9:0034.72/12/2017 9:000.0
2/12/2017 10:0017.12/12/2017 10:00838.72/12/2017 10:006122/12/2017 10:0061.002/12/2017 10:004.202/12/2017 10:0059.92/12/2017 10:009.32/12/2017 10:0017.32/12/2017 10:0035.12/12/2017 10:000.0
2/12/2017 11:0018.22/12/2017 11:00838.62/12/2017 11:007672/12/2017 11:0053.002/12/2017 11:004.502/12/2017 11:0057.32/12/2017 11:009.72/12/2017 11:0018.42/12/2017 11:0035.12/12/2017 11:000.0
2/12/2017 12:0018.42/12/2017 12:00838.72/12/2017 12:008712/12/2017 12:0058.002/12/2017 12:004.602/12/2017 12:0057.62/12/2017 12:009.92/12/2017 12:0018.82/12/2017 12:0035.42/12/2017 12:000.0
2/12/2017 13:0018.62/12/2017 13:00838.62/12/2017 13:008872/12/2017 13:0076.002/12/2017 13:004.902/12/2017 13:0058.02/12/2017 13:0010.22/12/2017 13:0019.02/12/2017 13:0036.12/12/2017 13:000.0
2/12/2017 14:0018.52/12/2017 14:00838.52/12/2017 14:008332/12/2017 14:0082.002/12/2017 14:005.202/12/2017 14:0058.92/12/2017 14:0010.42/12/2017 14:0018.92/12/2017 14:0036.52/12/2017 14:000.0
2/12/2017 15:0018.62/12/2017 15:00838.62/12/2017 15:007062/12/2017 15:0078.002/12/2017 15:005.302/12/2017 15:0058.72/12/2017 15:0010.42/12/2017 15:0018.92/12/2017 15:0037.02/12/2017 15:000.0
2/12/2017 16:0018.02/12/2017 16:00838.62/12/2017 16:005092/12/2017 16:0077.002/12/2017 16:005.202/12/2017 16:0059.62/12/2017 16:0010.12/12/2017 16:0018.42/12/2017 16:0037.82/12/2017 16:000.0
2/12/2017 17:0017.02/12/2017 17:00838.72/12/2017 17:002702/12/2017 17:0069.002/12/2017 17:004.802/12/2017 17:0062.32/12/2017 17:009.82/12/2017 17:0017.62/12/2017 17:0038.22/12/2017 17:000.0
2/12/2017 18:0015.22/12/2017 18:00838.82/12/2017 18:00582/12/2017 18:0065.002/12/2017 18:004.802/12/2017 18:0068.32/12/2017 18:009.52/12/2017 18:0016.32/12/2017 18:0038.62/12/2017 18:000.0
2/12/2017 19:0013.92/12/2017 19:00839.02/12/2017 19:0002/12/2017 19:0068.002/12/2017 19:004.202/12/2017 19:0072.12/12/2017 19:009.02/12/2017 19:0015.32/12/2017 19:0038.42/12/2017 19:000.0
2/12/2017 20:0013.72/12/2017 20:00839.02/12/2017 20:0002/12/2017 20:0056.002/12/2017 20:003.102/12/2017 20:0072.82/12/2017 20:009.02/12/2017 20:0015.12/12/2017 20:0038.52/12/2017 20:000.0
2/12/2017 21:0013.92/12/2017 21:00839.02/12/2017 21:0002/12/2017 21:0052.002/12/2017 21:003.602/12/2017 21:0071.22/12/2017 21:008.82/12/2017 21:0015.42/12/2017 21:0038.72/12/2017 21:000.0
2/12/2017 22:0014.02/12/2017 22:00839.12/12/2017 22:0002/12/2017 22:0048.002/12/2017 22:003.202/12/2017 22:0071.72/12/2017 22:009.02/12/2017 22:0015.52/12/2017 22:0038.92/12/2017 22:000.0
2/12/2017 23:0014.02/12/2017 23:00839.12/12/2017 23:0002/12/2017 23:0040.002/12/2017 23:002.702/12/2017 23:0072.92/12/2017 23:009.32/12/2017 23:0015.52/12/2017 23:0039.12/12/2017 23:000.0
2/13/2017 0:0014.22/13/2017 0:00839.22/13/2017 0:0002/13/2017 0:0043.002/13/2017 0:003.602/13/2017 0:0071.22/13/2017 0:009.12/13/2017 0:0015.82/13/2017 0:0039.22/13/2017 0:000.0
2/13/2017 1:0014.22/13/2017 1:00839.22/13/2017 1:0002/13/2017 1:0049.002/13/2017 1:003.302/13/2017 1:0069.52/13/2017 1:008.82/13/2017 1:0015.72/13/2017 1:0039.32/13/2017 1:000.0
2/13/2017 2:0014.32/13/2017 2:00839.22/13/2017 2:0002/13/2017 2:0023.002/13/2017 2:003.002/13/2017 2:0067.32/13/2017 2:008.42/13/2017 2:0015.72/13/2017 2:0039.52/13/2017 2:000.0
2/13/2017 3:0014.12/13/2017 3:00839.32/13/2017 3:0002/13/2017 3:001.002/13/2017 3:003.002/13/2017 3:0069.92/13/2017 3:008.82/13/2017 3:0015.62/13/2017 3:0039.62/13/2017 3:000.0
2/13/2017 4:0013.92/13/2017 4:00839.32/13/2017 4:0002/13/2017 4:00352.002/13/2017 4:002.902/13/2017 4:0073.82/13/2017 4:009.42/13/2017 4:0015.52/13/2017 4:0039.82/13/2017 4:000.0
2/13/2017 5:0013.12/13/2017 5:00839.32/13/2017 5:0002/13/2017 5:0011.002/13/2017 5:002.702/13/2017 5:0078.02/13/2017 5:009.42/13/2017 5:0014.62/13/2017 5:0039.62/13/2017 5:000.0
2/13/2017 6:0012.62/13/2017 6:00839.42/13/2017 6:0002/13/2017 6:008.002/13/2017 6:002.102/13/2017 6:0079.62/13/2017 6:009.22/13/2017 6:0014.22/13/2017 6:0039.62/13/2017 6:000.0
2/13/2017 7:0012.92/13/2017 7:00839.52/13/2017 7:00132/13/2017 7:0028.002/13/2017 7:002.102/13/2017 7:0072.42/13/2017 7:008.12/13/2017 7:0014.52/13/2017 7:0039.62/13/2017 7:000.0
2/13/2017 8:0014.52/13/2017 8:00839.42/13/2017 8:001632/13/2017 8:0027.002/13/2017 8:002.402/13/2017 8:0065.22/13/2017 8:008.12/13/2017 8:0015.12/13/2017 8:0039.62/13/2017 8:000.0
2/13/2017 9:0015.72/13/2017 9:00839.12/13/2017 9:004062/13/2017 9:0035.002/13/2017 9:002.602/13/2017 9:0061.72/13/2017 9:008.42/13/2017 9:0015.82/13/2017 9:0040.22/13/2017 9:000.0
2/13/2017 10:0017.62/13/2017 10:00839.02/13/2017 10:006282/13/2017 10:0054.002/13/2017 10:003.002/13/2017 10:0053.22/13/2017 10:008.02/13/2017 10:0017.52/13/2017 10:0040.42/13/2017 10:000.0
2/13/2017 11:0019.02/13/2017 11:00838.72/13/2017 11:007872/13/2017 11:0019.002/13/2017 11:003.002/13/2017 11:0052.02/13/2017 11:009.02/13/2017 11:0018.92/13/2017 11:0040.82/13/2017 11:000.0
2/13/2017 12:0020.02/13/2017 12:00838.72/13/2017 12:008822/13/2017 12:0053.002/13/2017 12:004.502/13/2017 12:0051.12/13/2017 12:009.62/13/2017 12:0020.32/13/2017 12:0041.02/13/2017 12:000.0
2/13/2017 13:0020.72/13/2017 13:00838.52/13/2017 13:009002/13/2017 13:0048.002/13/2017 13:004.102/13/2017 13:0051.02/13/2017 13:0010.32/13/2017 13:0021.02/13/2017 13:0041.32/13/2017 13:000.0
2/13/2017 14:0021.32/13/2017 14:00838.42/13/2017 14:008382/13/2017 14:0088.002/13/2017 14:004.502/13/2017 14:0051.02/13/2017 14:0010.82/13/2017 14:0021.52/13/2017 14:0041.92/13/2017 14:000.0
2/13/2017 15:0021.72/13/2017 15:00838.52/13/2017 15:007112/13/2017 15:0067.002/13/2017 15:004.102/13/2017 15:0049.42/13/2017 15:0010.72/13/2017 15:0021.92/13/2017 15:0042.42/13/2017 15:000.0
2/13/2017 16:0021.32/13/2017 16:00838.52/13/2017 16:005182/13/2017 16:0075.002/13/2017 16:004.002/13/2017 16:0051.62/13/2017 16:0011.02/13/2017 16:0021.52/13/2017 16:0043.22/13/2017 16:000.0
2/13/2017 17:0020.42/13/2017 17:00838.52/13/2017 17:002842/13/2017 17:0072.002/13/2017 17:004.202/13/2017 17:0054.12/13/2017 17:0010.92/13/2017 17:0020.92/13/2017 17:0043.72/13/2017 17:000.0
2/13/2017 18:0018.72/13/2017 18:00838.72/13/2017 18:00652/13/2017 18:0078.002/13/2017 18:004.002/13/2017 18:0059.72/13/2017 18:0010.82/13/2017 18:0019.72/13/2017 18:0044.02/13/2017 18:000.0
2/13/2017 19:0016.92/13/2017 19:00838.82/13/2017 19:0002/13/2017 19:0071.002/13/2017 19:002.902/13/2017 19:0066.62/13/2017 19:0010.72/13/2017 19:0018.42/13/2017 19:0044.02/13/2017 19:000.0
2/13/2017 20:0016.02/13/2017 20:00838.82/13/2017 20:0002/13/2017 20:0080.002/13/2017 20:002.702/13/2017 20:0071.72/13/2017 20:0011.02/13/2017 20:0017.52/13/2017 20:0044.02/13/2017 20:000.0
2/13/2017 21:0015.62/13/2017 21:00839.02/13/2017 21:0002/13/2017 21:0070.002/13/2017 21:003.702/13/2017 21:0072.52/13/2017 21:0010.72/13/2017 21:0017.12/13/2017 21:0044.22/13/2017 21:000.0
2/13/2017 22:0015.62/13/2017 22:00839.02/13/2017 22:0002/13/2017 22:0065.002/13/2017 22:003.202/13/2017 22:0071.02/13/2017 22:0010.42/13/2017 22:0017.22/13/2017 22:0044.52/13/2017 22:000.0
2/13/2017 23:0016.02/13/2017 23:00839.02/13/2017 23:0002/13/2017 23:0054.002/13/2017 23:002.702/13/2017 23:0070.72/13/2017 23:0010.72/13/2017 23:0017.62/13/2017 23:0044.72/13/2017 23:000.0
2/14/2017 0:0016.32/14/2017 0:00839.02/14/2017 0:0002/14/2017 0:0057.002/14/2017 0:002.502/14/2017 0:0070.02/14/2017 0:0010.92/14/2017 0:0017.92/14/2017 0:0044.82/14/2017 0:000.0
2/14/2017 1:0016.32/14/2017 1:00839.02/14/2017 1:0002/14/2017 1:0064.002/14/2017 1:002.802/14/2017 1:0071.52/14/2017 1:0011.22/14/2017 1:0017.92/14/2017 1:0044.92/14/2017 1:000.0
2/14/2017 2:0016.22/14/2017 2:00838.92/14/2017 2:0002/14/2017 2:0059.002/14/2017 2:002.702/14/2017 2:0073.32/14/2017 2:0011.52/14/2017 2:0017.92/14/2017 2:0045.02/14/2017 2:000.0
2/14/2017 3:0016.12/14/2017 3:00838.92/14/2017 3:0002/14/2017 3:0060.002/14/2017 3:002.202/14/2017 3:0074.32/14/2017 3:0011.62/14/2017 3:0017.82/14/2017 3:0045.12/14/2017 3:000.0
2/14/2017 4:0016.02/14/2017 4:00839.02/14/2017 4:0002/14/2017 4:0060.002/14/2017 4:001.902/14/2017 4:0073.32/14/2017 4:0011.32/14/2017 4:0017.72/14/2017 4:0045.02/14/2017 4:000.0
2/14/2017 5:0015.02/14/2017 5:00839.32/14/2017 5:0002/14/2017 5:009.002/14/2017 5:001.802/14/2017 5:0077.52/14/2017 5:0011.22/14/2017 5:0016.62/14/2017 5:0044.82/14/2017 5:000.0
2/14/2017 6:0013.82/14/2017 6:00839.32/14/2017 6:0002/14/2017 6:00334.002/14/2017 6:001.802/14/2017 6:0080.62/14/2017 6:0010.62/14/2017 6:0015.52/14/2017 6:0045.02/14/2017 6:000.0
2/14/2017 7:0013.72/14/2017 7:00839.32/14/2017 7:00172/14/2017 7:00328.002/14/2017 7:001.802/14/2017 7:0079.22/14/2017 7:0010.22/14/2017 7:0015.22/14/2017 7:0044.82/14/2017 7:000.0
2/14/2017 8:0015.52/14/2017 8:00839.22/14/2017 8:001842/14/2017 8:00325.002/14/2017 8:001.902/14/2017 8:0071.12/14/2017 8:0010.42/14/2017 8:0016.02/14/2017 8:0044.92/14/2017 8:000.0
2/14/2017 9:0018.02/14/2017 9:00839.12/14/2017 9:004272/14/2017 9:00358.002/14/2017 9:001.802/14/2017 9:0064.72/14/2017 9:0011.32/14/2017 9:0017.82/14/2017 9:0045.62/14/2017 9:000.0
2/14/2017 10:0019.32/14/2017 10:00838.72/14/2017 10:006522/14/2017 10:0087.002/14/2017 10:003.002/14/2017 10:0058.72/14/2017 10:0011.12/14/2017 10:0019.42/14/2017 10:0045.92/14/2017 10:000.0
2/14/2017 11:0020.22/14/2017 11:00838.62/14/2017 11:008152/14/2017 11:0093.002/14/2017 11:004.502/14/2017 11:0057.52/14/2017 11:0011.62/14/2017 11:0020.62/14/2017 11:0046.12/14/2017 11:000.0
2/14/2017 12:0020.92/14/2017 12:00838.62/14/2017 12:009102/14/2017 12:0087.002/14/2017 12:005.002/14/2017 12:0056.32/14/2017 12:0011.92/14/2017 12:0021.42/14/2017 12:0046.22/14/2017 12:000.0
2/14/2017 13:0021.52/14/2017 13:00838.52/14/2017 13:009392/14/2017 13:0095.002/14/2017 13:005.102/14/2017 13:0055.72/14/2017 13:0012.32/14/2017 13:0022.02/14/2017 13:0046.42/14/2017 13:000.0
2/14/2017 14:0022.02/14/2017 14:00838.42/14/2017 14:008602/14/2017 14:0093.002/14/2017 14:005.002/14/2017 14:0055.42/14/2017 14:0012.72/14/2017 14:0022.52/14/2017 14:0047.42/14/2017 14:000.0
2/14/2017 15:0021.92/14/2017 15:00838.62/14/2017 15:007462/14/2017 15:0084.002/14/2017 15:005.402/14/2017 15:0056.52/14/2017 15:0012.92/14/2017 15:0022.32/14/2017 15:0048.12/14/2017 15:000.0
2/14/2017 16:0021.62/14/2017 16:00838.62/14/2017 16:005562/14/2017 16:0064.002/14/2017 16:005.202/14/2017 16:0056.42/14/2017 16:0012.62/14/2017 16:0022.02/14/2017 16:0048.92/14/2017 16:000.0
2/14/2017 17:0020.62/14/2017 17:00838.52/14/2017 17:003102/14/2017 17:0068.002/14/2017 17:005.102/14/2017 17:0058.12/14/2017 17:0012.12/14/2017 17:0021.12/14/2017 17:0049.52/14/2017 17:000.0
2/14/2017 18:0019.12/14/2017 18:00838.62/14/2017 18:00772/14/2017 18:0062.002/14/2017 18:004.402/14/2017 18:0063.52/14/2017 18:0012.12/14/2017 18:0020.12/14/2017 18:0049.92/14/2017 18:000.0
2/14/2017 19:0017.62/14/2017 19:00838.62/14/2017 19:0002/14/2017 19:0062.002/14/2017 19:003.502/14/2017 19:0070.02/14/2017 19:0012.12/14/2017 19:0019.22/14/2017 19:0049.72/14/2017 19:000.0
2/14/2017 20:0017.32/14/2017 20:00838.72/14/2017 20:0002/14/2017 20:0057.002/14/2017 20:003.102/14/2017 20:0072.32/14/2017 20:0012.32/14/2017 20:0019.02/14/2017 20:0049.92/14/2017 20:000.0
2/14/2017 21:0017.42/14/2017 21:00838.92/14/2017 21:0002/14/2017 21:0062.002/14/2017 21:003.202/14/2017 21:0071.02/14/2017 21:0012.22/14/2017 21:0019.02/14/2017 21:0050.32/14/2017 21:000.0
2/14/2017 22:0017.52/14/2017 22:00838.92/14/2017 22:0002/14/2017 22:0050.002/14/2017 22:002.802/14/2017 22:0070.32/14/2017 22:0012.12/14/2017 22:0019.32/14/2017 22:0050.52/14/2017 22:000.0
2/14/2017 23:0017.72/14/2017 23:00838.82/14/2017 23:0002/14/2017 23:0043.002/14/2017 23:002.502/14/2017 23:0069.02/14/2017 23:0012.02/14/2017 23:0019.42/14/2017 23:0050.62/14/2017 23:000.0
2/15/2017 1:0017.12/15/2017 1:00838.82/15/2017 1:0002/15/2017 1:0052.002/15/2017 1:002.702/15/2017 1:0075.62/15/2017 1:0012.82/15/2017 1:0018.92/15/2017 1:0050.32/15/2017 1:000.0
2/15/2017 2:0016.92/15/2017 2:00838.82/15/2017 2:0002/15/2017 2:0016.002/15/2017 2:002.002/15/2017 2:0077.02/15/2017 2:0012.92/15/2017 2:0018.72/15/2017 2:0050.42/15/2017 2:000.0
2/15/2017 3:0015.82/15/2017 3:00838.92/15/2017 3:0002/15/2017 3:00357.002/15/2017 3:001.302/15/2017 3:0084.42/15/2017 3:0013.22/15/2017 3:0017.82/15/2017 3:0050.52/15/2017 3:000.0
2/15/2017 4:0015.32/15/2017 4:00838.92/15/2017 4:0002/15/2017 4:00345.002/15/2017 4:001.302/15/2017 4:0086.42/15/2017 4:0013.12/15/2017 4:0017.42/15/2017 4:0050.22/15/2017 4:000.0
2/15/2017 5:0015.82/15/2017 5:00839.02/15/2017 5:0002/15/2017 5:00359.002/15/2017 5:001.502/15/2017 5:0084.82/15/2017 5:0013.32/15/2017 5:0017.92/15/2017 5:0050.42/15/2017 5:000.0
2/15/2017 6:0015.52/15/2017 6:00839.02/15/2017 6:0002/15/2017 6:00349.002/15/2017 6:002.002/15/2017 6:0086.52/15/2017 6:0013.32/15/2017 6:0017.42/15/2017 6:0050.32/15/2017 6:000.0
2/15/2017 7:0015.72/15/2017 7:00839.12/15/2017 7:00182/15/2017 7:00359.002/15/2017 7:001.502/15/2017 7:0084.72/15/2017 7:0013.22/15/2017 7:0017.62/15/2017 7:0050.42/15/2017 7:000.0
2/15/2017 8:0017.72/15/2017 8:00839.12/15/2017 8:001922/15/2017 8:00345.002/15/2017 8:001.302/15/2017 8:0076.52/15/2017 8:0013.62/15/2017 8:0018.02/15/2017 8:0050.62/15/2017 8:000.0
2/15/2017 9:0019.12/15/2017 9:00838.82/15/2017 9:004352/15/2017 9:00339.002/15/2017 9:002.002/15/2017 9:0071.32/15/2017 9:0013.92/15/2017 9:0019.22/15/2017 9:0051.32/15/2017 9:000.0
2/15/2017 10:0021.02/15/2017 10:00838.62/15/2017 10:006512/15/2017 10:006.002/15/2017 10:001.402/15/2017 10:0062.82/15/2017 10:0013.72/15/2017 10:0020.52/15/2017 10:0051.52/15/2017 10:000.0
2/15/2017 11:0021.52/15/2017 11:00838.42/15/2017 11:008272/15/2017 11:0087.002/15/2017 11:003.302/15/2017 11:0061.02/15/2017 11:0013.72/15/2017 11:0021.72/15/2017 11:0051.72/15/2017 11:000.0
2/15/2017 12:0022.12/15/2017 12:00838.42/15/2017 12:009482/15/2017 12:0092.002/15/2017 12:003.902/15/2017 12:0058.32/15/2017 12:0013.62/15/2017 12:0022.52/15/2017 12:0051.62/15/2017 12:000.0
2/15/2017 13:0022.72/15/2017 13:00838.42/15/2017 13:006702/15/2017 13:0099.002/15/2017 13:003.702/15/2017 13:0056.92/15/2017 13:0013.82/15/2017 13:0023.22/15/2017 13:0052.12/15/2017 13:000.0
2/15/2017 14:0021.62/15/2017 14:00838.32/15/2017 14:004082/15/2017 14:00104.002/15/2017 14:004.702/15/2017 14:0061.82/15/2017 14:0014.02/15/2017 14:0022.62/15/2017 14:0052.52/15/2017 14:000.0
2/15/2017 15:0022.42/15/2017 15:00838.32/15/2017 15:007352/15/2017 15:0094.002/15/2017 15:005.102/15/2017 15:0057.42/15/2017 15:0013.62/15/2017 15:0022.92/15/2017 15:0053.02/15/2017 15:000.0
2/15/2017 16:0022.32/15/2017 16:00838.42/15/2017 16:005472/15/2017 16:0093.002/15/2017 16:004.402/15/2017 16:0057.82/15/2017 16:0013.72/15/2017 16:0022.82/15/2017 16:0053.72/15/2017 16:000.0
2/15/2017 17:0021.92/15/2017 17:00838.42/15/2017 17:003302/15/2017 17:0070.002/15/2017 17:003.902/15/2017 17:0059.72/15/2017 17:0013.82/15/2017 17:0022.32/15/2017 17:0054.42/15/2017 17:000.0
2/15/2017 18:0020.42/15/2017 18:00838.52/15/2017 18:00882/15/2017 18:0070.002/15/2017 18:003.502/15/2017 18:0065.42/15/2017 18:0013.82/15/2017 18:0021.42/15/2017 18:0055.12/15/2017 18:000.0
2/15/2017 19:0018.72/15/2017 19:00838.92/15/2017 19:0002/15/2017 19:0064.002/15/2017 19:003.302/15/2017 19:0073.22/15/2017 19:0013.92/15/2017 19:0020.42/15/2017 19:0054.72/15/2017 19:000.0
2/15/2017 20:0018.32/15/2017 20:00838.92/15/2017 20:0002/15/2017 20:0064.002/15/2017 20:002.602/15/2017 20:0074.62/15/2017 20:0013.82/15/2017 20:0020.02/15/2017 20:0054.92/15/2017 20:000.0
2/15/2017 21:0017.72/15/2017 21:00839.02/15/2017 21:0002/15/2017 21:0062.002/15/2017 21:001.902/15/2017 21:0077.32/15/2017 21:0013.72/15/2017 21:0019.52/15/2017 21:0054.82/15/2017 21:000.0
2/15/2017 22:0017.72/15/2017 22:00839.12/15/2017 22:0002/15/2017 22:0056.002/15/2017 22:002.302/15/2017 22:0077.32/15/2017 22:0013.72/15/2017 22:0019.62/15/2017 22:0055.12/15/2017 22:000.0
2/15/2017 23:0017.52/15/2017 23:00839.12/15/2017 23:0002/15/2017 23:0073.002/15/2017 23:001.502/15/2017 23:0077.62/15/2017 23:0013.62/15/2017 23:0019.42/15/2017 23:0055.32/15/2017 23:000.0
2/16/2017 0:0017.02/16/2017 0:00839.12/16/2017 0:0002/16/2017 0:0091.002/16/2017 0:001.402/16/2017 0:0081.02/16/2017 0:0013.82/16/2017 0:0019.12/16/2017 0:0055.02/16/2017 0:000.0
2/16/2017 5:0016.12/16/2017 5:00839.22/16/2017 5:0002/16/2017 5:0040.002/16/2017 5:001.002/16/2017 5:0079.52/16/2017 5:0012.62/16/2017 5:0018.22/16/2017 5:0055.42/16/2017 5:000.0
2/16/2017 6:0016.02/16/2017 6:00839.12/16/2017 6:0002/16/2017 6:0050.002/16/2017 6:001.502/16/2017 6:0078.62/16/2017 6:0012.42/16/2017 6:0018.22/16/2017 6:0055.22/16/2017 6:000.0
2/16/2017 7:0016.52/16/2017 7:00839.02/16/2017 7:00192/16/2017 7:0045.002/16/2017 7:001.602/16/2017 7:0076.82/16/2017 7:0012.52/16/2017 7:0018.32/16/2017 7:0055.22/16/2017 7:000.0
2/16/2017 8:0018.62/16/2017 8:00838.92/16/2017 8:001962/16/2017 8:0076.002/16/2017 8:002.002/16/2017 8:0068.42/16/2017 8:0012.72/16/2017 8:0019.12/16/2017 8:0055.42/16/2017 8:000.0
2/16/2017 9:0019.72/16/2017 9:00838.62/16/2017 9:004442/16/2017 9:0076.002/16/2017 9:002.702/16/2017 9:0064.72/16/2017 9:0012.92/16/2017 9:0019.92/16/2017 9:0056.02/16/2017 9:000.0
2/17/2017 17:0024.82/17/2017 17:00838.02/17/2017 17:003142/17/2017 17:0073.002/17/2017 17:004.002/17/2017 17:0051.32/17/2017 17:0014.12/17/2017 17:0025.22/17/2017 17:0065.72/17/2017 17:000.0
2/17/2017 18:0022.62/17/2017 18:00837.92/17/2017 18:00782/17/2017 18:0069.002/17/2017 18:003.802/17/2017 18:0058.82/17/2017 18:0014.22/17/2017 18:0023.72/17/2017 18:0066.42/17/2017 18:000.0
2/17/2017 19:0020.62/17/2017 19:00838.12/17/2017 19:0002/17/2017 19:0069.002/17/2017 19:003.402/17/2017 19:0067.22/17/2017 19:0014.42/17/2017 19:0022.32/17/2017 19:0066.22/17/2017 19:000.0
2/17/2017 20:0020.02/17/2017 20:00838.22/17/2017 20:0002/17/2017 20:0065.002/17/2017 20:002.702/17/2017 20:0071.02/17/2017 20:0014.72/17/2017 20:0021.82/17/2017 20:0066.02/17/2017 20:000.0
2/17/2017 21:0019.52/17/2017 21:00838.42/17/2017 21:0002/17/2017 21:0067.002/17/2017 21:001.202/17/2017 21:0073.72/17/2017 21:0014.72/17/2017 21:0021.42/17/2017 21:0066.42/17/2017 21:000.0
2/17/2017 22:0019.22/17/2017 22:00838.32/17/2017 22:0002/17/2017 22:0050.002/17/2017 22:001.902/17/2017 22:0072.62/17/2017 22:0014.22/17/2017 22:0021.22/17/2017 22:0066.42/17/2017 22:000.0
2/17/2017 23:0018.82/17/2017 23:00838.42/17/2017 23:0002/17/2017 23:0076.002/17/2017 23:001.402/17/2017 23:0071.32/17/2017 23:0013.62/17/2017 23:0020.72/17/2017 23:0066.42/17/2017 23:000.0
2/18/2017 0:0018.12/18/2017 0:00838.42/18/2017 0:0002/18/2017 0:00106.002/18/2017 0:001.402/18/2017 0:0071.12/18/2017 0:0012.82/18/2017 0:0020.02/18/2017 0:0066.72/18/2017 0:000.0
2/18/2017 1:0017.52/18/2017 1:00838.52/18/2017 1:0002/18/2017 1:00115.002/18/2017 1:001.802/18/2017 1:0071.72/18/2017 1:0012.42/18/2017 1:0019.42/18/2017 1:0066.52/18/2017 1:000.0
2/18/2017 2:0017.22/18/2017 2:00838.42/18/2017 2:0002/18/2017 2:00111.002/18/2017 2:001.602/18/2017 2:0070.52/18/2017 2:0011.92/18/2017 2:0019.12/18/2017 2:0066.82/18/2017 2:000.0
2/18/2017 3:0016.82/18/2017 3:00838.52/18/2017 3:0002/18/2017 3:00108.002/18/2017 3:001.302/18/2017 3:0072.72/18/2017 3:0011.92/18/2017 3:0018.82/18/2017 3:0066.92/18/2017 3:000.0
2/18/2017 4:0015.72/18/2017 4:00838.52/18/2017 4:0002/18/2017 4:00250.002/18/2017 4:000.702/18/2017 4:0081.32/18/2017 4:0012.62/18/2017 4:0018.02/18/2017 4:0066.92/18/2017 4:000.0
2/18/2017 5:0015.42/18/2017 5:00838.72/18/2017 5:0002/18/2017 5:00315.002/18/2017 5:000.702/18/2017 5:0084.12/18/2017 5:0012.82/18/2017 5:0017.82/18/2017 5:0066.82/18/2017 5:000.0
2/18/2017 6:0014.92/18/2017 6:00838.82/18/2017 6:0002/18/2017 6:00309.002/18/2017 6:000.902/18/2017 6:0089.12/18/2017 6:0013.22/18/2017 6:0017.52/18/2017 6:0067.02/18/2017 6:000.0
2/18/2017 7:0015.42/18/2017 7:00838.82/18/2017 7:00202/18/2017 7:00315.002/18/2017 7:000.702/18/2017 7:0087.02/18/2017 7:0013.32/18/2017 7:0017.82/18/2017 7:0066.92/18/2017 7:000.0
2/18/2017 8:0018.92/18/2017 8:00838.52/18/2017 8:002012/18/2017 8:0044.002/18/2017 8:002.402/18/2017 8:0066.42/18/2017 8:0012.62/18/2017 8:0019.72/18/2017 8:0010.02/18/2017 8:000.0
2/18/2017 9:0020.72/18/2017 9:00838.22/18/2017 9:004532/18/2017 9:0051.002/18/2017 9:003.102/18/2017 9:0059.12/18/2017 9:0012.52/18/2017 9:0020.92/18/2017 9:003.12/18/2017 9:000.0
2/18/2017 10:0021.72/18/2017 10:00838.22/18/2017 10:006762/18/2017 10:0053.002/18/2017 10:004.002/18/2017 10:0057.12/18/2017 10:0012.92/18/2017 10:0022.02/18/2017 10:003.32/18/2017 10:000.0
2/18/2017 11:0022.72/18/2017 11:00838.12/18/2017 11:008372/18/2017 11:0054.002/18/2017 11:004.302/18/2017 11:0054.02/18/2017 11:0013.02/18/2017 11:0023.12/18/2017 11:003.42/18/2017 11:000.0
2/18/2017 12:0023.52/18/2017 12:00838.12/18/2017 12:009332/18/2017 12:0059.002/18/2017 12:004.702/18/2017 12:0050.32/18/2017 12:0012.62/18/2017 12:0024.12/18/2017 12:004.02/18/2017 12:000.0
2/18/2017 13:0024.12/18/2017 13:00838.02/18/2017 13:009532/18/2017 13:0068.002/18/2017 13:005.202/18/2017 13:0048.72/18/2017 13:0012.72/18/2017 13:0024.52/18/2017 13:004.42/18/2017 13:000.0
2/18/2017 14:0024.62/18/2017 14:00838.02/18/2017 14:008932/18/2017 14:0081.002/18/2017 14:004.702/18/2017 14:0046.42/18/2017 14:0012.42/18/2017 14:0024.92/18/2017 14:005.22/18/2017 14:000.0
2/18/2017 15:0024.82/18/2017 15:00838.12/18/2017 15:007602/18/2017 15:0084.002/18/2017 15:004.602/18/2017 15:0044.92/18/2017 15:0012.12/18/2017 15:0025.02/18/2017 15:006.12/18/2017 15:000.0
2/18/2017 16:0025.02/18/2017 16:00838.02/18/2017 16:005632/18/2017 16:0081.002/18/2017 16:004.202/18/2017 16:0044.12/18/2017 16:0012.02/18/2017 16:0025.12/18/2017 16:006.92/18/2017 16:000.0
2/18/2017 17:0024.52/18/2017 17:00838.12/18/2017 17:003392/18/2017 17:0072.002/18/2017 17:003.802/18/2017 17:0046.92/18/2017 17:0012.52/18/2017 17:0024.72/18/2017 17:007.52/18/2017 17:000.0
2/18/2017 18:0022.82/18/2017 18:00838.22/18/2017 18:00882/18/2017 18:0066.002/18/2017 18:003.402/18/2017 18:0052.32/18/2017 18:0012.62/18/2017 18:0023.62/18/2017 18:008.22/18/2017 18:000.0
2/18/2017 19:0020.92/18/2017 19:00838.32/18/2017 19:0002/18/2017 19:0065.002/18/2017 19:003.202/18/2017 19:0060.92/18/2017 19:0013.12/18/2017 19:0022.42/18/2017 19:008.12/18/2017 19:000.0
2/18/2017 20:0019.92/18/2017 20:00838.42/18/2017 20:0002/18/2017 20:0055.002/18/2017 20:002.302/18/2017 20:0066.82/18/2017 20:0013.62/18/2017 20:0021.52/18/2017 20:008.32/18/2017 20:000.0
2/18/2017 21:0019.02/18/2017 21:00838.42/18/2017 21:0002/18/2017 21:0065.002/18/2017 21:002.402/18/2017 21:0072.92/18/2017 21:0014.12/18/2017 21:0020.82/18/2017 21:008.72/18/2017 21:000.0
2/18/2017 22:0018.42/18/2017 22:00838.62/18/2017 22:0002/18/2017 22:0060.002/18/2017 22:001.302/18/2017 22:0074.92/18/2017 22:0013.92/18/2017 22:0020.32/18/2017 22:008.72/18/2017 22:000.0
2/18/2017 23:0018.22/18/2017 23:00838.42/18/2017 23:0002/18/2017 23:0055.002/18/2017 23:001.902/18/2017 23:0071.42/18/2017 23:0013.02/18/2017 23:0020.12/18/2017 23:008.82/18/2017 23:000.0
2/19/2017 0:0017.72/19/2017 0:00838.52/19/2017 0:0002/19/2017 0:0059.002/19/2017 0:001.802/19/2017 0:0072.62/19/2017 0:0012.82/19/2017 0:0019.52/19/2017 0:009.02/19/2017 0:000.0
2/19/2017 1:0017.32/19/2017 1:00838.62/19/2017 1:0002/19/2017 1:0031.002/19/2017 1:001.402/19/2017 1:0073.12/19/2017 1:0012.52/19/2017 1:0019.42/19/2017 1:008.92/19/2017 1:000.0
2/19/2017 2:0017.32/19/2017 2:00838.72/19/2017 2:0002/19/2017 2:0027.002/19/2017 2:001.802/19/2017 2:0071.12/19/2017 2:0012.12/19/2017 2:0019.42/19/2017 2:009.22/19/2017 2:000.0
2/19/2017 3:0016.52/19/2017 3:00838.62/19/2017 3:0002/19/2017 3:00334.002/19/2017 3:001.502/19/2017 3:0079.42/19/2017 3:0013.02/19/2017 3:0018.52/19/2017 3:009.22/19/2017 3:000.0
2/19/2017 4:0016.02/19/2017 4:00838.62/19/2017 4:0002/19/2017 4:00335.002/19/2017 4:001.202/19/2017 4:0081.12/19/2017 4:0012.82/19/2017 4:0018.12/19/2017 4:008.82/19/2017 4:000.0
2/19/2017 5:0015.92/19/2017 5:00838.72/19/2017 5:0002/19/2017 5:00325.002/19/2017 5:002.102/19/2017 5:0084.02/19/2017 5:0013.32/19/2017 5:0017.92/19/2017 5:008.92/19/2017 5:000.0
2/19/2017 6:0015.72/19/2017 6:00838.72/19/2017 6:0002/19/2017 6:00321.002/19/2017 6:002.702/19/2017 6:0085.82/19/2017 6:0013.42/19/2017 6:0017.62/19/2017 6:009.22/19/2017 6:000.0
2/19/2017 7:0015.72/19/2017 7:00838.82/19/2017 7:00202/19/2017 7:00319.002/19/2017 7:002.302/19/2017 7:0084.12/19/2017 7:0013.12/19/2017 7:0017.42/19/2017 7:009.12/19/2017 7:000.0
2/19/2017 8:0017.42/19/2017 8:00838.82/19/2017 8:001982/19/2017 8:00315.002/19/2017 8:002.102/19/2017 8:0075.72/19/2017 8:0013.12/19/2017 8:0018.02/19/2017 8:009.52/19/2017 8:000.0
2/19/2017 9:0019.62/19/2017 9:00838.52/19/2017 9:004462/19/2017 9:00328.002/19/2017 9:002.202/19/2017 9:0064.72/19/2017 9:0012.82/19/2017 9:0019.82/19/2017 9:0010.02/19/2017 9:000.0
2/19/2017 10:0021.52/19/2017 10:00838.32/19/2017 10:006672/19/2017 10:00322.002/19/2017 10:002.002/19/2017 10:0052.72/19/2017 10:0011.52/19/2017 10:0021.22/19/2017 10:0010.32/19/2017 10:000.0
2/19/2017 11:0022.92/19/2017 11:00838.22/19/2017 11:008292/19/2017 11:00316.002/19/2017 11:002.002/19/2017 11:0048.62/19/2017 11:0011.62/19/2017 11:0022.62/19/2017 11:0010.52/19/2017 11:000.0
2/19/2017 12:0024.62/19/2017 12:00838.12/19/2017 12:009182/19/2017 12:00304.002/19/2017 12:001.702/19/2017 12:0045.12/19/2017 12:0012.02/19/2017 12:0024.32/19/2017 12:0010.72/19/2017 12:000.0
2/19/2017 13:0026.32/19/2017 13:00838.02/19/2017 13:009332/19/2017 13:00337.002/19/2017 13:001.702/19/2017 13:0038.32/19/2017 13:0011.02/19/2017 13:0025.72/19/2017 13:0011.02/19/2017 13:000.0
2/19/2017 14:0026.72/19/2017 14:00837.92/19/2017 14:008762/19/2017 14:00339.002/19/2017 14:002.602/19/2017 14:0038.82/19/2017 14:0011.62/19/2017 14:0026.32/19/2017 14:0011.52/19/2017 14:000.0
2/19/2017 15:0027.62/19/2017 15:00837.82/19/2017 15:007492/19/2017 15:00327.002/19/2017 15:002.502/19/2017 15:0037.42/19/2017 15:0011.82/19/2017 15:0027.22/19/2017 15:0012.12/19/2017 15:000.0
2/19/2017 16:0028.52/19/2017 16:00837.72/19/2017 16:005542/19/2017 16:0024.002/19/2017 16:001.902/19/2017 16:0033.82/19/2017 16:0011.12/19/2017 16:0027.62/19/2017 16:0012.82/19/2017 16:000.0
2/19/2017 17:0028.62/19/2017 17:00837.72/19/2017 17:002922/19/2017 17:00356.002/19/2017 17:001.202/19/2017 17:0033.12/19/2017 17:0010.92/19/2017 17:0027.62/19/2017 17:0013.52/19/2017 17:000.0
2/19/2017 18:0027.52/19/2017 18:00837.72/19/2017 18:00772/19/2017 18:0047.002/19/2017 18:001.002/19/2017 18:0036.92/19/2017 18:0011.52/19/2017 18:0027.12/19/2017 18:0013.82/19/2017 18:000.0
2/19/2017 19:0022.92/19/2017 19:00838.02/19/2017 19:0002/19/2017 19:00235.002/19/2017 19:000.702/19/2017 19:0053.52/19/2017 19:0013.02/19/2017 19:0024.92/19/2017 19:0013.42/19/2017 19:000.0
2/19/2017 20:0020.72/19/2017 20:00838.32/19/2017 20:0002/19/2017 20:00246.002/19/2017 20:000.602/19/2017 20:0063.92/19/2017 20:0013.72/19/2017 20:0023.92/19/2017 20:0013.32/19/2017 20:000.0
2/19/2017 21:0020.32/19/2017 21:00838.42/19/2017 21:0002/19/2017 21:00315.002/19/2017 21:000.802/19/2017 21:0070.72/19/2017 21:0014.92/19/2017 21:0023.32/19/2017 21:0013.32/19/2017 21:000.0
2/19/2017 22:0019.32/19/2017 22:00838.72/19/2017 22:0002/19/2017 22:00269.002/19/2017 22:000.602/19/2017 22:0070.92/19/2017 22:0014.02/19/2017 22:0022.52/19/2017 22:0013.52/19/2017 22:000.0
2/19/2017 23:0018.92/19/2017 23:00838.72/19/2017 23:0002/19/2017 23:00317.002/19/2017 23:001.202/19/2017 23:0077.22/19/2017 23:0014.92/19/2017 23:0021.52/19/2017 23:0013.62/19/2017 23:000.0
2/20/2017 0:0018.52/20/2017 0:00838.72/20/2017 0:0002/20/2017 0:00322.002/20/2017 0:001.202/20/2017 0:0082.72/20/2017 0:0015.62/20/2017 0:0021.02/20/2017 0:0013.62/20/2017 0:000.0
2/20/2017 1:0017.92/20/2017 1:00838.72/20/2017 1:0002/20/2017 1:00334.002/20/2017 1:001.102/20/2017 1:0087.12/20/2017 1:0015.82/20/2017 1:0020.62/20/2017 1:0013.92/20/2017 1:000.0
2/20/2017 2:0017.82/20/2017 2:00838.82/20/2017 2:0002/20/2017 2:00356.002/20/2017 2:000.802/20/2017 2:0087.12/20/2017 2:0015.72/20/2017 2:0020.52/20/2017 2:0014.22/20/2017 2:000.0
2/20/2017 3:0017.42/20/2017 3:00838.82/20/2017 3:0002/20/2017 3:00332.002/20/2017 3:001.402/20/2017 3:0089.52/20/2017 3:0015.72/20/2017 3:0020.02/20/2017 3:0013.92/20/2017 3:000.0
2/20/2017 4:0017.62/20/2017 4:00838.82/20/2017 4:0002/20/2017 4:00342.002/20/2017 4:001.602/20/2017 4:0087.42/20/2017 4:0015.62/20/2017 4:0019.92/20/2017 4:0013.92/20/2017 4:000.0
2/20/2017 5:0017.22/20/2017 5:00838.92/20/2017 5:0002/20/2017 5:00331.002/20/2017 5:001.502/20/2017 5:0088.92/20/2017 5:0015.42/20/2017 5:0019.52/20/2017 5:0014.22/20/2017 5:000.0
2/20/2017 6:0017.12/20/2017 6:00838.92/20/2017 6:0002/20/2017 6:00341.002/20/2017 6:001.702/20/2017 6:0088.62/20/2017 6:0015.32/20/2017 6:0019.32/20/2017 6:0014.42/20/2017 6:000.0
2/20/2017 7:0017.22/20/2017 7:00838.92/20/2017 7:00162/20/2017 7:00328.002/20/2017 7:002.202/20/2017 7:0086.22/20/2017 7:0014.92/20/2017 7:0019.32/20/2017 7:0014.32/20/2017 7:000.0
2/20/2017 8:0019.02/20/2017 8:00838.82/20/2017 8:001752/20/2017 8:00333.002/20/2017 8:001.802/20/2017 8:0078.92/20/2017 8:0015.32/20/2017 8:0019.92/20/2017 8:0014.42/20/2017 8:000.0
2/20/2017 9:0021.02/20/2017 9:00838.62/20/2017 9:004042/20/2017 9:00349.002/20/2017 9:001.902/20/2017 9:0072.12/20/2017 9:0015.92/20/2017 9:0021.32/20/2017 9:0015.02/20/2017 9:000.0
2/20/2017 10:0023.12/20/2017 10:00838.42/20/2017 10:006122/20/2017 10:0011.002/20/2017 10:001.602/20/2017 10:0059.12/20/2017 10:0014.72/20/2017 10:0022.92/20/2017 10:0015.32/20/2017 10:000.0
2/20/2017 11:0025.92/20/2017 11:00838.12/20/2017 11:007672/20/2017 11:00102.002/20/2017 11:001.402/20/2017 11:0047.92/20/2017 11:0014.12/20/2017 11:0025.22/20/2017 11:0015.42/20/2017 11:000.0
2/20/2017 12:0028.22/20/2017 12:00838.02/20/2017 12:008292/20/2017 12:00185.002/20/2017 12:002.002/20/2017 12:0041.62/20/2017 12:0014.02/20/2017 12:0027.52/20/2017 12:0015.52/20/2017 12:000.0
2/20/2017 13:0028.92/20/2017 13:00838.02/20/2017 13:008872/20/2017 13:00182.002/20/2017 13:002.302/20/2017 13:0038.52/20/2017 13:0013.42/20/2017 13:0028.22/20/2017 13:0015.92/20/2017 13:000.0
2/21/2017 1:0019.92/21/2017 1:00838.92/21/2017 1:0002/21/2017 1:00340.002/21/2017 1:001.402/21/2017 1:0083.32/21/2017 1:0017.12/21/2017 1:0022.42/21/2017 1:0019.72/21/2017 1:000.0
2/21/2017 2:0019.32/21/2017 2:00838.92/21/2017 2:0002/21/2017 2:00338.002/21/2017 2:001.702/21/2017 2:0082.92/21/2017 2:0016.42/21/2017 2:0021.82/21/2017 2:0019.42/21/2017 2:000.0
2/21/2017 3:0019.32/21/2017 3:00838.92/21/2017 3:0002/21/2017 3:00348.002/21/2017 3:001.602/21/2017 3:0079.92/21/2017 3:0015.82/21/2017 3:0021.72/21/2017 3:0019.62/21/2017 3:000.0
2/21/2017 4:0018.72/21/2017 4:00838.92/21/2017 4:0002/21/2017 4:00341.002/21/2017 4:001.502/21/2017 4:0085.92/21/2017 4:0016.42/21/2017 4:0021.22/21/2017 4:0019.92/21/2017 4:000.0
2/21/2017 5:0018.52/21/2017 5:00838.82/21/2017 5:0002/21/2017 5:00342.002/21/2017 5:001.402/21/2017 5:0084.82/21/2017 5:0016.02/21/2017 5:0020.92/21/2017 5:0020.12/21/2017 5:000.0
2/21/2017 6:0018.22/21/2017 6:00839.02/21/2017 6:0002/21/2017 6:005.002/21/2017 6:000.802/21/2017 6:0088.02/21/2017 6:0016.32/21/2017 6:0020.72/21/2017 6:0019.92/21/2017 6:000.0
2/21/2017 7:0018.12/21/2017 7:00838.92/21/2017 7:00152/21/2017 7:00353.002/21/2017 7:001.002/21/2017 7:0085.72/21/2017 7:0015.72/21/2017 7:0020.42/21/2017 7:0019.62/21/2017 7:000.0
2/21/2017 8:0020.32/21/2017 8:00838.82/21/2017 8:001532/21/2017 8:00353.002/21/2017 8:000.602/21/2017 8:0079.62/21/2017 8:0016.72/21/2017 8:0020.72/21/2017 8:0020.02/21/2017 8:000.0
2/21/2017 9:0023.22/21/2017 9:00838.52/21/2017 9:003742/21/2017 9:0084.002/21/2017 9:000.702/21/2017 9:0066.92/21/2017 9:0016.82/21/2017 9:0022.42/21/2017 9:0020.62/21/2017 9:000.0
2/21/2017 10:0023.92/21/2017 10:00838.22/21/2017 10:005802/21/2017 10:0028.002/21/2017 10:001.602/21/2017 10:0062.52/21/2017 10:0016.42/21/2017 10:0023.92/21/2017 10:0020.72/21/2017 10:000.0
2/21/2017 11:0026.42/21/2017 11:00838.22/21/2017 11:007292/21/2017 11:0064.002/21/2017 11:001.302/21/2017 11:0051.92/21/2017 11:0015.82/21/2017 11:0026.02/21/2017 11:0021.02/21/2017 11:000.0
2/21/2017 12:0028.12/21/2017 12:00838.02/21/2017 12:008302/21/2017 12:0050.002/21/2017 12:001.902/21/2017 12:0047.62/21/2017 12:0016.02/21/2017 12:0028.22/21/2017 12:0021.12/21/2017 12:000.0
2/21/2017 13:0030.32/21/2017 13:00838.12/21/2017 13:008552/21/2017 13:00189.002/21/2017 13:002.902/21/2017 13:0041.92/21/2017 13:0016.02/21/2017 13:0030.02/21/2017 13:0021.52/21/2017 13:000.0
2/21/2017 14:0030.82/21/2017 14:00838.02/21/2017 14:007812/21/2017 14:00162.002/21/2017 14:003.302/21/2017 14:0041.12/21/2017 14:0016.12/21/2017 14:0030.52/21/2017 14:0021.92/21/2017 14:000.0
2/21/2017 15:0031.42/21/2017 15:00838.02/21/2017 15:005882/21/2017 15:00181.002/21/2017 15:002.902/21/2017 15:0039.12/21/2017 15:0015.92/21/2017 15:0031.32/21/2017 15:0022.62/21/2017 15:000.0
2/21/2017 16:0032.02/21/2017 16:00837.92/21/2017 16:004352/21/2017 16:00198.002/21/2017 16:002.702/21/2017 16:0035.22/21/2017 16:0014.82/21/2017 16:0031.62/21/2017 16:0023.62/21/2017 16:000.0
2/21/2017 17:0031.52/21/2017 17:00838.02/21/2017 17:002072/21/2017 17:00157.002/21/2017 17:001.802/21/2017 17:0037.42/21/2017 17:0015.32/21/2017 17:0031.52/21/2017 17:0024.02/21/2017 17:000.0
2/21/2017 18:0029.82/21/2017 18:00838.12/21/2017 18:00502/21/2017 18:00165.002/21/2017 18:001.002/21/2017 18:0043.12/21/2017 18:0016.02/21/2017 18:0030.62/21/2017 18:0024.42/21/2017 18:000.0
2/21/2017 19:0025.82/21/2017 19:00838.32/21/2017 19:0002/21/2017 19:00293.002/21/2017 19:000.702/21/2017 19:0061.42/21/2017 19:0017.92/21/2017 19:0028.12/21/2017 19:0024.22/21/2017 19:000.0
2/21/2017 20:0023.92/21/2017 20:00838.42/21/2017 20:0002/21/2017 20:00308.002/21/2017 20:000.802/21/2017 20:0069.52/21/2017 20:0018.12/21/2017 20:0026.42/21/2017 20:0024.02/21/2017 20:000.0
2/21/2017 21:0023.12/21/2017 21:00838.62/21/2017 21:0002/21/2017 21:00318.002/21/2017 21:001.102/21/2017 21:0073.42/21/2017 21:0018.22/21/2017 21:0025.92/21/2017 21:0024.32/21/2017 21:000.0
2/21/2017 22:0023.02/21/2017 22:00838.72/21/2017 22:0002/21/2017 22:00316.002/21/2017 22:001.102/21/2017 22:0073.42/21/2017 22:0018.12/21/2017 22:0025.92/21/2017 22:0024.62/21/2017 22:000.0
2/21/2017 23:0022.42/21/2017 23:00838.82/21/2017 23:0002/21/2017 23:00315.002/21/2017 23:001.002/21/2017 23:0079.12/21/2017 23:0018.72/21/2017 23:0025.22/21/2017 23:0024.72/21/2017 23:000.0
2/22/2017 0:0022.32/22/2017 0:00838.72/22/2017 0:0002/22/2017 0:00353.002/22/2017 0:000.602/22/2017 0:0077.42/22/2017 0:0018.22/22/2017 0:0025.62/22/2017 0:0024.72/22/2017 0:000.0
2/22/2017 1:0021.82/22/2017 1:00838.82/22/2017 1:0002/22/2017 1:00334.002/22/2017 1:000.802/22/2017 1:0083.32/22/2017 1:0018.92/22/2017 1:0024.62/22/2017 1:0024.92/22/2017 1:000.0
2/22/2017 2:0021.22/22/2017 2:00838.92/22/2017 2:0002/22/2017 2:00355.002/22/2017 2:000.902/22/2017 2:0083.82/22/2017 2:0018.42/22/2017 2:0023.92/22/2017 2:0024.92/22/2017 2:000.0
2/22/2017 3:0020.72/22/2017 3:00839.02/22/2017 3:0002/22/2017 3:00338.002/22/2017 3:001.002/22/2017 3:0082.32/22/2017 3:0017.62/22/2017 3:0023.42/22/2017 3:0024.82/22/2017 3:000.0
2/22/2017 4:0020.52/22/2017 4:00838.92/22/2017 4:0002/22/2017 4:00341.002/22/2017 4:001.102/22/2017 4:0086.32/22/2017 4:0018.22/22/2017 4:0023.02/22/2017 4:0025.02/22/2017 4:000.0
2/22/2017 5:0020.32/22/2017 5:00838.92/22/2017 5:0002/22/2017 5:00353.002/22/2017 5:001.202/22/2017 5:0088.02/22/2017 5:0018.32/22/2017 5:0023.02/22/2017 5:0025.22/22/2017 5:000.0
2/22/2017 6:0019.92/22/2017 6:00839.02/22/2017 6:0002/22/2017 6:0012.002/22/2017 6:000.702/22/2017 6:0092.02/22/2017 6:0018.62/22/2017 6:0022.62/22/2017 6:0025.32/22/2017 6:000.0
2/22/2017 7:0019.72/22/2017 7:00839.02/22/2017 7:00152/22/2017 7:00354.002/22/2017 7:001.002/22/2017 7:0092.22/22/2017 7:0018.52/22/2017 7:0022.32/22/2017 7:0025.02/22/2017 7:000.0
2/22/2017 8:0021.92/22/2017 8:00838.92/22/2017 8:001402/22/2017 8:0042.002/22/2017 8:000.602/22/2017 8:0082.02/22/2017 8:0018.82/22/2017 8:0022.72/22/2017 8:0025.22/22/2017 8:000.0
2/22/2017 9:0023.42/22/2017 9:00838.72/22/2017 9:003402/22/2017 9:00333.002/22/2017 9:001.102/22/2017 9:0076.62/22/2017 9:0019.12/22/2017 9:0024.02/22/2017 9:0025.82/22/2017 9:000.0
2/22/2017 10:0025.72/22/2017 10:00838.42/22/2017 10:005492/22/2017 10:0068.002/22/2017 10:001.502/22/2017 10:0066.92/22/2017 10:0019.22/22/2017 10:0025.82/22/2017 10:0026.02/22/2017 10:000.0
2/22/2017 11:0027.52/22/2017 11:00838.22/22/2017 11:007022/22/2017 11:00144.002/22/2017 11:002.702/22/2017 11:0057.12/22/2017 11:0018.32/22/2017 11:0027.92/22/2017 11:0026.22/22/2017 11:000.0
2/22/2017 12:0029.22/22/2017 12:00838.12/22/2017 12:007742/22/2017 12:00211.002/22/2017 12:001.902/22/2017 12:0051.02/22/2017 12:0018.12/22/2017 12:0029.02/22/2017 12:0026.42/22/2017 12:000.0
2/22/2017 13:0030.42/22/2017 13:00838.22/22/2017 13:007922/22/2017 13:00199.002/22/2017 13:002.202/22/2017 13:0050.22/22/2017 13:0018.92/22/2017 13:0030.42/22/2017 13:0026.82/22/2017 13:000.0
2/22/2017 14:0030.72/22/2017 14:00838.22/22/2017 14:004412/22/2017 14:00177.002/22/2017 14:002.002/22/2017 14:0049.32/22/2017 14:0018.92/22/2017 14:0031.02/22/2017 14:0027.32/22/2017 14:000.0
2/22/2017 15:0031.02/22/2017 15:00838.22/22/2017 15:004182/22/2017 15:00179.002/22/2017 15:002.402/22/2017 15:0047.12/22/2017 15:0018.52/22/2017 15:0031.62/22/2017 15:0027.62/22/2017 15:000.0
2/22/2017 16:0030.92/22/2017 16:00838.22/22/2017 16:004252/22/2017 16:0011.002/22/2017 16:002.402/22/2017 16:0050.32/22/2017 16:0019.42/22/2017 16:0031.42/22/2017 16:0028.12/22/2017 16:000.0
2/22/2017 17:0030.72/22/2017 17:00838.22/22/2017 17:002152/22/2017 17:00352.002/22/2017 17:001.402/22/2017 17:0050.02/22/2017 17:0019.22/22/2017 17:0031.32/22/2017 17:0028.72/22/2017 17:000.0
2/22/2017 18:0029.12/22/2017 18:00838.32/22/2017 18:00402/22/2017 18:0046.002/22/2017 18:000.802/22/2017 18:0056.72/22/2017 18:0019.72/22/2017 18:0030.72/22/2017 18:0028.82/22/2017 18:000.0
2/22/2017 19:0026.22/22/2017 19:00838.42/22/2017 19:0002/22/2017 19:00298.002/22/2017 19:000.802/22/2017 19:0070.52/22/2017 19:0020.52/22/2017 19:0028.82/22/2017 19:0028.72/22/2017 19:000.0
2/22/2017 20:0024.92/22/2017 20:00838.52/22/2017 20:0002/22/2017 20:00286.002/22/2017 20:000.702/22/2017 20:0074.12/22/2017 20:0020.02/22/2017 20:0027.92/22/2017 20:0028.62/22/2017 20:000.0
2/22/2017 21:0024.22/22/2017 21:00838.72/22/2017 21:0002/22/2017 21:00321.002/22/2017 21:000.602/22/2017 21:0077.42/22/2017 21:0020.12/22/2017 21:0027.32/22/2017 21:0028.82/22/2017 21:000.0
2/22/2017 22:0023.82/22/2017 22:00838.82/22/2017 22:0002/22/2017 22:00345.002/22/2017 22:000.902/22/2017 22:0079.72/22/2017 22:0020.22/22/2017 22:0026.82/22/2017 22:0028.62/22/2017 22:000.0
2/22/2017 23:0023.32/22/2017 23:00838.82/22/2017 23:0002/22/2017 23:00330.002/22/2017 23:001.302/22/2017 23:0080.82/22/2017 23:0019.92/22/2017 23:0026.02/22/2017 23:0029.02/22/2017 23:000.0
2/23/2017 0:0023.02/23/2017 0:00839.02/23/2017 0:0002/23/2017 0:00339.002/23/2017 0:001.302/23/2017 0:0082.92/23/2017 0:0020.02/23/2017 0:0025.72/23/2017 0:0029.22/23/2017 0:000.0
2/23/2017 7:0020.72/23/2017 7:00839.22/23/2017 7:00142/23/2017 7:00343.002/23/2017 7:000.902/23/2017 7:0092.72/23/2017 7:0019.52/23/2017 7:0023.52/23/2017 7:0029.42/23/2017 7:000.0
2/23/2017 8:0022.62/23/2017 8:00839.12/23/2017 8:001412/23/2017 8:00346.002/23/2017 8:000.702/23/2017 8:0085.62/23/2017 8:0020.12/23/2017 8:0023.92/23/2017 8:0029.62/23/2017 8:000.0
2/23/2017 9:0024.42/23/2017 9:00838.82/23/2017 9:003362/23/2017 9:00332.002/23/2017 9:001.302/23/2017 9:0079.02/23/2017 9:0020.62/23/2017 9:0025.32/23/2017 9:0030.22/23/2017 9:000.0
2/23/2017 10:0026.42/23/2017 10:00838.62/23/2017 10:005382/23/2017 10:00314.002/23/2017 10:001.302/23/2017 10:0070.22/23/2017 10:0020.62/23/2017 10:0026.92/23/2017 10:0030.32/23/2017 10:000.0
2/23/2017 11:0028.92/23/2017 11:00838.32/23/2017 11:006992/23/2017 11:00101.002/23/2017 11:001.302/23/2017 11:0060.32/23/2017 11:0020.52/23/2017 11:0028.82/23/2017 11:0030.82/23/2017 11:000.0
2/23/2017 12:0030.62/23/2017 12:00838.22/23/2017 12:008062/23/2017 12:00209.002/23/2017 12:001.702/23/2017 12:0052.62/23/2017 12:0019.92/23/2017 12:0030.52/23/2017 12:0030.82/23/2017 12:000.0
2/23/2017 13:0031.52/23/2017 13:00837.82/23/2017 13:008412/23/2017 13:0069.002/23/2017 13:001.902/23/2017 13:0050.02/23/2017 13:0019.92/23/2017 13:0031.52/23/2017 13:0030.92/23/2017 13:000.0
2/23/2017 14:0031.62/23/2017 14:00837.92/23/2017 14:007042/23/2017 14:0056.002/23/2017 14:002.502/23/2017 14:0048.52/23/2017 14:0019.52/23/2017 14:0032.12/23/2017 14:0031.52/23/2017 14:000.0
2/23/2017 15:0031.62/23/2017 15:00838.12/23/2017 15:003992/23/2017 15:008.002/23/2017 15:002.102/23/2017 15:0042.82/23/2017 15:0017.52/23/2017 15:0032.12/23/2017 15:0032.32/23/2017 15:000.0
2/23/2017 16:0032.22/23/2017 16:00838.22/23/2017 16:004362/23/2017 16:00352.002/23/2017 16:001.802/23/2017 16:0043.52/23/2017 16:0018.32/23/2017 16:0032.32/23/2017 16:0032.72/23/2017 16:000.0
2/23/2017 17:0031.22/23/2017 17:00838.12/23/2017 17:002252/23/2017 17:0062.002/23/2017 17:002.302/23/2017 17:0047.62/23/2017 17:0018.82/23/2017 17:0031.72/23/2017 17:0033.52/23/2017 17:000.0
2/23/2017 18:0027.02/23/2017 18:00838.32/23/2017 18:00542/23/2017 18:0095.002/23/2017 18:003.402/23/2017 18:0065.72/23/2017 18:0020.12/23/2017 18:0028.82/23/2017 18:0034.02/23/2017 18:000.0
2/23/2017 19:0024.62/23/2017 19:00838.52/23/2017 19:0002/23/2017 19:0094.002/23/2017 19:003.102/23/2017 19:0074.82/23/2017 19:0019.92/23/2017 19:0026.82/23/2017 19:0033.92/23/2017 19:000.0
2/23/2017 20:0023.52/23/2017 20:00838.82/23/2017 20:0002/23/2017 20:00101.002/23/2017 20:002.702/23/2017 20:0076.82/23/2017 20:0019.32/23/2017 20:0025.82/23/2017 20:0034.12/23/2017 20:000.0
2/23/2017 21:0022.62/23/2017 21:00839.02/23/2017 21:0002/23/2017 21:00105.002/23/2017 21:001.802/23/2017 21:0078.92/23/2017 21:0018.82/23/2017 21:0024.82/23/2017 21:0034.52/23/2017 21:000.0
2/23/2017 22:0021.92/23/2017 22:00838.92/23/2017 22:0002/23/2017 22:00104.002/23/2017 22:002.502/23/2017 22:0080.62/23/2017 22:0018.52/23/2017 22:0024.12/23/2017 22:0034.82/23/2017 22:000.0
2/23/2017 23:0021.52/23/2017 23:00839.12/23/2017 23:0002/23/2017 23:0093.002/23/2017 23:002.402/23/2017 23:0081.42/23/2017 23:0018.32/23/2017 23:0023.72/23/2017 23:0034.82/23/2017 23:000.0
2/24/2017 0:0021.22/24/2017 0:00839.02/24/2017 0:0002/24/2017 0:0098.002/24/2017 0:002.202/24/2017 0:0081.52/24/2017 0:0018.02/24/2017 0:0023.32/24/2017 0:0035.22/24/2017 0:000.0
2/24/2017 1:0020.92/24/2017 1:00839.02/24/2017 1:0002/24/2017 1:0089.002/24/2017 1:001.802/24/2017 1:0082.22/24/2017 1:0017.82/24/2017 1:0023.12/24/2017 1:0035.42/24/2017 1:000.0
2/24/2017 2:0020.72/24/2017 2:00839.02/24/2017 2:0002/24/2017 2:00107.002/24/2017 2:001.602/24/2017 2:0082.72/24/2017 2:0017.72/24/2017 2:0022.82/24/2017 2:0035.62/24/2017 2:000.0
2/24/2017 3:0020.92/24/2017 3:00839.12/24/2017 3:0002/24/2017 3:00112.002/24/2017 3:001.702/24/2017 3:0082.02/24/2017 3:0017.82/24/2017 3:0023.12/24/2017 3:0035.72/24/2017 3:000.0
2/24/2017 4:0020.92/24/2017 4:00839.12/24/2017 4:0002/24/2017 4:0089.002/24/2017 4:001.902/24/2017 4:0082.22/24/2017 4:0017.82/24/2017 4:0023.12/24/2017 4:0035.82/24/2017 4:000.0
2/24/2017 5:0020.72/24/2017 5:00839.12/24/2017 5:0002/24/2017 5:0083.002/24/2017 5:001.802/24/2017 5:0081.92/24/2017 5:0017.62/24/2017 5:0022.82/24/2017 5:0035.92/24/2017 5:000.0
2/24/2017 6:0020.42/24/2017 6:00839.22/24/2017 6:0002/24/2017 6:0077.002/24/2017 6:001.902/24/2017 6:0080.22/24/2017 6:0016.92/24/2017 6:0022.42/24/2017 6:0035.42/24/2017 6:000.0
2/24/2017 7:0020.02/24/2017 7:00839.02/24/2017 7:00182/24/2017 7:0074.002/24/2017 7:002.702/24/2017 7:0079.22/24/2017 7:0016.42/24/2017 7:0022.02/24/2017 7:0035.62/24/2017 7:000.0
2/24/2017 8:0020.12/24/2017 8:00839.12/24/2017 8:001012/24/2017 8:0075.002/24/2017 8:003.102/24/2017 8:0075.52/24/2017 8:0015.72/24/2017 8:0021.72/24/2017 8:0035.82/24/2017 8:000.0
2/24/2017 9:0020.62/24/2017 9:00839.02/24/2017 9:002072/24/2017 9:0070.002/24/2017 9:003.102/24/2017 9:0072.32/24/2017 9:0015.52/24/2017 9:0022.02/24/2017 9:0035.92/24/2017 9:000.0
2/24/2017 10:0021.52/24/2017 10:00838.92/24/2017 10:003162/24/2017 10:0067.002/24/2017 10:003.002/24/2017 10:0067.32/24/2017 10:0015.32/24/2017 10:0022.62/24/2017 10:0036.22/24/2017 10:000.0
2/24/2017 11:0021.82/24/2017 11:00838.82/24/2017 11:003582/24/2017 11:0078.002/24/2017 11:003.502/24/2017 11:0065.62/24/2017 11:0015.12/24/2017 11:0022.82/24/2017 11:0036.82/24/2017 11:000.0
2/24/2017 12:0021.22/24/2017 12:00838.72/24/2017 12:002932/24/2017 12:0070.002/24/2017 12:003.602/24/2017 12:0065.72/24/2017 12:0014.62/24/2017 12:0022.32/24/2017 12:0036.82/24/2017 12:000.0
2/24/2017 13:0022.52/24/2017 13:00838.52/24/2017 13:008422/24/2017 13:0078.002/24/2017 13:003.502/24/2017 13:0061.82/24/2017 13:0014.92/24/2017 13:0023.02/24/2017 13:0037.12/24/2017 13:000.0
2/24/2017 14:0023.02/24/2017 14:00838.52/24/2017 14:008452/24/2017 14:0070.002/24/2017 14:003.902/24/2017 14:0059.32/24/2017 14:0014.72/24/2017 14:0023.42/24/2017 14:0037.92/24/2017 14:000.0
2/24/2017 15:0022.82/24/2017 15:00838.52/24/2017 15:005352/24/2017 15:0082.002/24/2017 15:003.802/24/2017 15:0061.32/24/2017 15:0015.02/24/2017 15:0023.52/24/2017 15:0038.22/24/2017 15:000.0
2/25/2017 1:0017.12/25/2017 1:00839.02/25/2017 1:0002/25/2017 1:0058.002/25/2017 1:002.202/25/2017 1:0079.92/25/2017 1:0013.72/25/2017 1:0018.92/25/2017 1:0040.72/25/2017 1:000.0
2/25/2017 2:0017.02/25/2017 2:00839.02/25/2017 2:0002/25/2017 2:0071.002/25/2017 2:002.202/25/2017 2:0080.12/25/2017 2:0013.62/25/2017 2:0018.82/25/2017 2:0040.82/25/2017 2:000.0
2/25/2017 3:0016.82/25/2017 3:00839.12/25/2017 3:0002/25/2017 3:0061.002/25/2017 3:002.602/25/2017 3:0080.02/25/2017 3:0013.42/25/2017 3:0018.62/25/2017 3:0040.72/25/2017 3:000.0
2/25/2017 4:0016.92/25/2017 4:00839.02/25/2017 4:0002/25/2017 4:0031.002/25/2017 4:002.102/25/2017 4:0079.12/25/2017 4:0013.32/25/2017 4:0018.72/25/2017 4:0040.72/25/2017 4:000.0
2/25/2017 5:0017.02/25/2017 5:00839.02/25/2017 5:0002/25/2017 5:0046.002/25/2017 5:002.702/25/2017 5:0077.62/25/2017 5:0013.12/25/2017 5:0018.72/25/2017 5:0040.82/25/2017 5:000.0
2/25/2017 6:0016.72/25/2017 6:00839.02/25/2017 6:0002/25/2017 6:0069.002/25/2017 6:002.102/25/2017 6:0078.42/25/2017 6:0013.02/25/2017 6:0018.52/25/2017 6:0040.92/25/2017 6:000.0
2/25/2017 7:0017.02/25/2017 7:00839.12/25/2017 7:0022/25/2017 7:0056.002/25/2017 7:002.402/25/2017 7:0076.12/25/2017 7:0012.82/25/2017 7:0018.72/25/2017 7:0040.92/25/2017 7:000.0
2/25/2017 8:0017.32/25/2017 8:00839.12/25/2017 8:00612/25/2017 8:0072.002/25/2017 8:002.602/25/2017 8:0074.12/25/2017 8:0012.72/25/2017 8:0018.82/25/2017 8:0040.82/25/2017 8:000.0
2/25/2017 9:0018.02/25/2017 9:00839.02/25/2017 9:001812/25/2017 9:0054.002/25/2017 9:002.702/25/2017 9:0070.72/25/2017 9:0012.72/25/2017 9:0019.22/25/2017 9:0041.22/25/2017 9:000.0
2/25/2017 10:0018.42/25/2017 10:00838.92/25/2017 10:002042/25/2017 10:0049.002/25/2017 10:002.802/25/2017 10:0069.32/25/2017 10:0012.72/25/2017 10:0019.42/25/2017 10:0041.32/25/2017 10:000.0
2/25/2017 11:0017.22/25/2017 11:00838.92/25/2017 11:00922/25/2017 11:0048.002/25/2017 11:003.302/25/2017 11:0077.22/25/2017 11:0013.22/25/2017 11:0018.82/25/2017 11:0040.92/25/2017 11:000.8
2/25/2017 12:0016.42/25/2017 12:00839.12/25/2017 12:00762/25/2017 12:0040.002/25/2017 12:003.802/25/2017 12:0080.72/25/2017 12:0013.12/25/2017 12:0018.12/25/2017 12:0039.52/25/2017 12:002.6
2/25/2017 13:0015.92/25/2017 13:00838.92/25/2017 13:00792/25/2017 13:0052.002/25/2017 13:003.202/25/2017 13:0083.52/25/2017 13:0013.22/25/2017 13:0017.72/25/2017 13:0037.62/25/2017 13:000.0
2/25/2017 14:0015.82/25/2017 14:00839.02/25/2017 14:00522/25/2017 14:0065.002/25/2017 14:002.502/25/2017 14:0084.42/25/2017 14:0013.22/25/2017 14:0017.42/25/2017 14:0037.42/25/2017 14:001.6
2/25/2017 15:0015.22/25/2017 15:00839.02/25/2017 15:00432/25/2017 15:0066.002/25/2017 15:001.802/25/2017 15:0088.82/25/2017 15:0013.42/25/2017 15:0017.02/25/2017 15:0035.62/25/2017 15:000.8
2/25/2017 16:0014.92/25/2017 16:00839.12/25/2017 16:00542/25/2017 16:0069.002/25/2017 16:003.402/25/2017 16:0089.22/25/2017 16:0013.22/25/2017 16:0016.62/25/2017 16:0034.32/25/2017 16:001.7
2/25/2017 17:0014.42/25/2017 17:00839.02/25/2017 17:00252/25/2017 17:0076.002/25/2017 17:002.802/25/2017 17:0091.92/25/2017 17:0013.22/25/2017 17:0016.32/25/2017 17:0031.62/25/2017 17:002.8
2/25/2017 18:0014.82/25/2017 18:00839.02/25/2017 18:00372/25/2017 18:0072.002/25/2017 18:002.502/25/2017 18:0088.72/25/2017 18:0013.02/25/2017 18:0016.52/25/2017 18:0031.02/25/2017 18:000.0
2/25/2017 19:0014.92/25/2017 19:00839.02/25/2017 19:0012/25/2017 19:0073.002/25/2017 19:002.102/25/2017 19:0086.52/25/2017 19:0012.72/25/2017 19:0016.72/25/2017 19:0031.02/25/2017 19:000.0
2/25/2017 20:0015.22/25/2017 20:00838.92/25/2017 20:0012/25/2017 20:0070.002/25/2017 20:002.602/25/2017 20:0083.02/25/2017 20:0012.42/25/2017 20:0017.02/25/2017 20:0031.02/25/2017 20:000.0
2/25/2017 21:0015.22/25/2017 21:00839.02/25/2017 21:0002/25/2017 21:0070.002/25/2017 21:002.402/25/2017 21:0082.82/25/2017 21:0012.42/25/2017 21:0017.02/25/2017 21:0031.12/25/2017 21:000.0
2/25/2017 22:0015.22/25/2017 22:00838.92/25/2017 22:0002/25/2017 22:0075.002/25/2017 22:002.202/25/2017 22:0083.32/25/2017 22:0012.52/25/2017 22:0016.92/25/2017 22:0031.32/25/2017 22:000.0
2/25/2017 23:0014.92/25/2017 23:00839.02/25/2017 23:0002/25/2017 23:0068.002/25/2017 23:002.102/25/2017 23:0083.92/25/2017 23:0012.32/25/2017 23:0016.72/25/2017 23:0031.22/25/2017 23:000.0
2/26/2017 0:0015.32/26/2017 0:00839.02/26/2017 0:0002/26/2017 0:0039.002/26/2017 0:002.702/26/2017 0:0081.82/26/2017 0:0012.32/26/2017 0:0017.02/26/2017 0:0031.22/26/2017 0:000.0
2/27/2017 14:0021.42/27/2017 14:00838.12/27/2017 14:006812/27/2017 14:0071.002/27/2017 14:004.902/27/2017 14:0058.52/27/2017 14:0013.02/27/2017 14:0021.92/27/2017 14:0038.62/27/2017 14:000.0
2/28/2017 14:0024.62/28/2017 14:00837.92/28/2017 14:009042/28/2017 14:0084.002/28/2017 14:004.302/28/2017 14:0055.02/28/2017 14:0015.02/28/2017 14:0025.22/28/2017 14:0043.82/28/2017 14:000.0
2/28/2017 15:0024.92/28/2017 15:00837.82/28/2017 15:007682/28/2017 15:0085.002/28/2017 15:004.102/28/2017 15:0054.62/28/2017 15:0015.22/28/2017 15:0025.32/28/2017 15:0044.52/28/2017 15:000.0
2/28/2017 16:0024.82/28/2017 16:00837.72/28/2017 16:005702/28/2017 16:0081.002/28/2017 16:003.902/28/2017 16:0055.82/28/2017 16:0015.42/28/2017 16:0025.32/28/2017 16:0045.52/28/2017 16:000.0
2/28/2017 17:0024.02/28/2017 17:00837.82/28/2017 17:003322/28/2017 17:0081.002/28/2017 17:003.902/28/2017 17:0059.42/28/2017 17:0015.72/28/2017 17:0024.72/28/2017 17:0046.12/28/2017 17:000.0
2/28/2017 18:0021.82/28/2017 18:00837.92/28/2017 18:00922/28/2017 18:0083.002/28/2017 18:003.702/28/2017 18:0067.32/28/2017 18:0015.52/28/2017 18:0022.92/28/2017 18:0046.72/28/2017 18:000.0
2/28/2017 19:0019.12/28/2017 19:00838.12/28/2017 19:0002/28/2017 19:0088.002/28/2017 19:003.802/28/2017 19:0077.42/28/2017 19:0015.12/28/2017 19:0020.82/28/2017 19:0046.42/28/2017 19:000.0
2/28/2017 20:0018.12/28/2017 20:00838.32/28/2017 20:0002/28/2017 20:0086.002/28/2017 20:004.102/28/2017 20:0081.02/28/2017 20:0014.92/28/2017 20:0019.92/28/2017 20:0046.52/28/2017 20:000.0
2/28/2017 21:0017.82/28/2017 21:00838.62/28/2017 21:0002/28/2017 21:0098.002/28/2017 21:003.802/28/2017 21:0082.02/28/2017 21:0014.82/28/2017 21:0019.72/28/2017 21:0046.62/28/2017 21:000.0
2/28/2017 22:0017.52/28/2017 22:00838.52/28/2017 22:0002/28/2017 22:00103.002/28/2017 22:003.402/28/2017 22:0083.22/28/2017 22:0014.72/28/2017 22:0019.42/28/2017 22:0047.02/28/2017 22:000.0
2/28/2017 23:0017.52/28/2017 23:00838.62/28/2017 23:0002/28/2017 23:0097.002/28/2017 23:003.502/28/2017 23:0082.62/28/2017 23:0014.62/28/2017 23:0019.42/28/2017 23:0047.32/28/2017 23:000.0
3/1/2017 0:0017.63/1/2017 0:00838.73/1/2017 0:0003/1/2017 0:0091.003/1/2017 0:002.603/1/2017 0:0082.13/1/2017 0:0014.63/1/2017 0:0019.53/1/2017 0:0047.53/1/2017 0:000.0
3/1/2017 1:0017.53/1/2017 1:00838.83/1/2017 1:0003/1/2017 1:0084.003/1/2017 1:001.903/1/2017 1:0082.43/1/2017 1:0014.53/1/2017 1:0019.53/1/2017 1:0047.73/1/2017 1:000.0
3/1/2017 2:0017.83/1/2017 2:00838.83/1/2017 2:0003/1/2017 2:0056.003/1/2017 2:002.103/1/2017 2:0077.33/1/2017 2:0013.83/1/2017 2:0019.93/1/2017 2:0047.43/1/2017 2:000.0
3/1/2017 3:0018.03/1/2017 3:00838.53/1/2017 3:0003/1/2017 3:0055.003/1/2017 3:002.203/1/2017 3:0075.13/1/2017 3:0013.63/1/2017 3:0019.93/1/2017 3:0047.73/1/2017 3:000.0
3/1/2017 4:0017.83/1/2017 4:00838.53/1/2017 4:0003/1/2017 4:0051.003/1/2017 4:001.703/1/2017 4:0075.43/1/2017 4:0013.53/1/2017 4:0019.83/1/2017 4:0047.63/1/2017 4:000.0
3/1/2017 5:0017.63/1/2017 5:00838.63/1/2017 5:0003/1/2017 5:0012.003/1/2017 5:001.703/1/2017 5:0077.83/1/2017 5:0013.73/1/2017 5:0019.63/1/2017 5:0047.23/1/2017 5:000.0
3/1/2017 6:0017.43/1/2017 6:00838.73/1/2017 6:0003/1/2017 6:008.003/1/2017 6:001.803/1/2017 6:0080.23/1/2017 6:0014.03/1/2017 6:0019.53/1/2017 6:0047.33/1/2017 6:000.0
3/1/2017 7:0017.83/1/2017 7:00838.63/1/2017 7:00293/1/2017 7:005.003/1/2017 7:001.803/1/2017 7:0079.53/1/2017 7:0014.33/1/2017 7:0019.53/1/2017 7:0046.33/1/2017 7:000.0
3/1/2017 8:0019.83/1/2017 8:00838.53/1/2017 8:002193/1/2017 8:0052.003/1/2017 8:003.403/1/2017 8:0069.03/1/2017 8:0014.03/1/2017 8:0020.83/1/2017 8:0015.53/1/2017 8:000.0
3/1/2017 9:0021.13/1/2017 9:00838.23/1/2017 9:004693/1/2017 9:0075.003/1/2017 9:003.403/1/2017 9:0064.43/1/2017 9:0014.23/1/2017 9:0021.63/1/2017 9:0015.93/1/2017 9:000.0
3/1/2017 10:0022.03/1/2017 10:00838.13/1/2017 10:006903/1/2017 10:0086.003/1/2017 10:004.203/1/2017 10:0061.43/1/2017 10:0014.33/1/2017 10:0022.63/1/2017 10:0015.93/1/2017 10:000.0
3/1/2017 11:0022.63/1/2017 11:00837.93/1/2017 11:008463/1/2017 11:0085.003/1/2017 11:005.403/1/2017 11:0059.83/1/2017 11:0014.53/1/2017 11:0023.23/1/2017 11:0016.13/1/2017 11:000.0
3/1/2017 12:0022.93/1/2017 12:00837.93/1/2017 12:009363/1/2017 12:0077.003/1/2017 12:005.703/1/2017 12:0058.53/1/2017 12:0014.43/1/2017 12:0023.73/1/2017 12:0016.43/1/2017 12:000.0
3/1/2017 13:0023.83/1/2017 13:00838.03/1/2017 13:009433/1/2017 13:0077.003/1/2017 13:004.803/1/2017 13:0055.93/1/2017 13:0014.53/1/2017 13:0024.53/1/2017 13:0017.13/1/2017 13:000.0
3/1/2017 14:0023.93/1/2017 14:00838.03/1/2017 14:008713/1/2017 14:0077.003/1/2017 14:004.703/1/2017 14:0055.53/1/2017 14:0014.53/1/2017 14:0024.43/1/2017 14:0017.63/1/2017 14:000.0
3/2/2017 1:0016.43/2/2017 1:00838.73/2/2017 1:0003/2/2017 1:0032.003/2/2017 1:003.803/2/2017 1:0077.23/2/2017 1:0012.53/2/2017 1:0018.13/2/2017 1:0021.43/2/2017 1:000.0
3/2/2017 2:0016.23/2/2017 2:00838.83/2/2017 2:0003/2/2017 2:0024.003/2/2017 2:003.403/2/2017 2:0078.43/2/2017 2:0012.53/2/2017 2:0018.03/2/2017 2:0021.63/2/2017 2:000.0
3/2/2017 3:0016.13/2/2017 3:00838.93/2/2017 3:0003/2/2017 3:0039.003/2/2017 3:004.503/2/2017 3:0077.63/2/2017 3:0012.33/2/2017 3:0017.83/2/2017 3:0021.73/2/2017 3:000.0
3/2/2017 4:0016.03/2/2017 4:00838.83/2/2017 4:0003/2/2017 4:0024.003/2/2017 4:002.303/2/2017 4:0078.93/2/2017 4:0012.43/2/2017 4:0017.83/2/2017 4:0021.93/2/2017 4:000.0
3/2/2017 5:0015.93/2/2017 5:00838.93/2/2017 5:0003/2/2017 5:0024.003/2/2017 5:002.803/2/2017 5:0078.23/2/2017 5:0012.23/2/2017 5:0017.63/2/2017 5:0022.03/2/2017 5:000.0
3/2/2017 6:0015.83/2/2017 6:00839.03/2/2017 6:0003/2/2017 6:0031.003/2/2017 6:003.503/2/2017 6:0076.13/2/2017 6:0011.73/2/2017 6:0017.43/2/2017 6:0022.13/2/2017 6:000.0
3/2/2017 7:0016.03/2/2017 7:00838.93/2/2017 7:00233/2/2017 7:0050.003/2/2017 7:004.403/2/2017 7:0068.83/2/2017 7:0010.33/2/2017 7:0017.53/2/2017 7:0022.03/2/2017 7:000.0
3/2/2017 8:0016.93/2/2017 8:00838.93/2/2017 8:001903/2/2017 8:0047.003/2/2017 8:003.603/2/2017 8:0064.33/2/2017 8:0010.23/2/2017 8:0017.83/2/2017 8:0022.13/2/2017 8:000.0
3/2/2017 9:0018.43/2/2017 9:00838.83/2/2017 9:004283/2/2017 9:0047.003/2/2017 9:003.703/2/2017 9:0057.43/2/2017 9:009.93/2/2017 9:0018.93/2/2017 9:0022.63/2/2017 9:000.0
3/2/2017 10:0020.13/2/2017 10:00838.53/2/2017 10:006493/2/2017 10:0049.003/2/2017 10:003.703/2/2017 10:0052.13/2/2017 10:0010.03/2/2017 10:0020.33/2/2017 10:0022.93/2/2017 10:000.0
3/2/2017 11:0021.33/2/2017 11:00838.53/2/2017 11:008043/2/2017 11:0086.003/2/2017 11:003.103/2/2017 11:0049.03/2/2017 11:0010.23/2/2017 11:0021.43/2/2017 11:0023.33/2/2017 11:000.0
3/2/2017 12:0022.43/2/2017 12:00838.33/2/2017 12:008983/2/2017 12:0095.003/2/2017 12:003.503/2/2017 12:0047.33/2/2017 12:0010.73/2/2017 12:0022.63/2/2017 12:0023.83/2/2017 12:000.0
3/2/2017 13:0023.53/2/2017 13:00838.23/2/2017 13:009093/2/2017 13:0088.003/2/2017 13:004.003/2/2017 13:0047.53/2/2017 13:0011.83/2/2017 13:0023.83/2/2017 13:0023.83/2/2017 13:000.0
3/2/2017 14:0024.13/2/2017 14:00837.93/2/2017 14:008483/2/2017 14:0095.003/2/2017 14:003.803/2/2017 14:0047.33/2/2017 14:0012.23/2/2017 14:0024.43/2/2017 14:0024.53/2/2017 14:000.0
3/2/2017 15:0024.73/2/2017 15:00838.03/2/2017 15:007083/2/2017 15:0083.003/2/2017 15:003.803/2/2017 15:0046.63/2/2017 15:0012.63/2/2017 15:0024.93/2/2017 15:0025.13/2/2017 15:000.0
3/2/2017 16:0024.83/2/2017 16:00837.93/2/2017 16:005083/2/2017 16:0085.003/2/2017 16:003.403/2/2017 16:0047.53/2/2017 16:0013.03/2/2017 16:0025.03/2/2017 16:0026.03/2/2017 16:000.0
3/2/2017 17:0024.03/2/2017 17:00837.83/2/2017 17:002833/2/2017 17:0094.003/2/2017 17:003.603/2/2017 17:0050.23/2/2017 17:0013.13/2/2017 17:0024.53/2/2017 17:0026.53/2/2017 17:000.0
3/2/2017 18:0022.13/2/2017 18:00837.93/2/2017 18:00733/2/2017 18:0097.003/2/2017 18:003.403/2/2017 18:0056.43/2/2017 18:0013.13/2/2017 18:0023.23/2/2017 18:0027.13/2/2017 18:000.0
3/2/2017 19:0020.03/2/2017 19:00838.13/2/2017 19:0003/2/2017 19:0096.003/2/2017 19:002.503/2/2017 19:0064.53/2/2017 19:0013.23/2/2017 19:0021.53/2/2017 19:0027.03/2/2017 19:000.0
3/2/2017 20:0018.63/2/2017 20:00838.23/2/2017 20:0003/2/2017 20:0088.003/2/2017 20:002.303/2/2017 20:0068.83/2/2017 20:0012.83/2/2017 20:0020.23/2/2017 20:0027.13/2/2017 20:000.0
3/2/2017 21:0017.83/2/2017 21:00838.33/2/2017 21:0003/2/2017 21:0090.003/2/2017 21:002.103/2/2017 21:0071.43/2/2017 21:0012.63/2/2017 21:0019.53/2/2017 21:0027.23/2/2017 21:000.0
3/2/2017 22:0016.93/2/2017 22:00838.53/2/2017 22:0003/2/2017 22:0090.003/2/2017 22:001.203/2/2017 22:0076.13/2/2017 22:0012.73/2/2017 22:0018.73/2/2017 22:0027.53/2/2017 22:000.0
3/2/2017 23:0016.73/2/2017 23:00838.53/2/2017 23:0003/2/2017 23:0066.003/2/2017 23:001.903/2/2017 23:0075.03/2/2017 23:0012.33/2/2017 23:0018.53/2/2017 23:0027.43/2/2017 23:000.0
3/3/2017 0:0016.63/3/2017 0:00838.63/3/2017 0:0003/3/2017 0:0068.003/3/2017 0:001.803/3/2017 0:0074.93/3/2017 0:0012.23/3/2017 0:0018.33/3/2017 0:0027.53/3/2017 0:000.0
3/3/2017 1:0016.13/3/2017 1:00838.73/3/2017 1:0003/3/2017 1:0081.003/3/2017 1:001.403/3/2017 1:0078.83/3/2017 1:0012.53/3/2017 1:0017.93/3/2017 1:0027.73/3/2017 1:000.0
3/3/2017 2:0016.03/3/2017 2:00838.73/3/2017 2:0003/3/2017 2:0060.003/3/2017 2:001.203/3/2017 2:0077.53/3/2017 2:0012.13/3/2017 2:0017.93/3/2017 2:0028.03/3/2017 2:000.0
3/3/2017 3:0016.13/3/2017 3:00838.73/3/2017 3:0003/3/2017 3:0038.003/3/2017 3:001.503/3/2017 3:0075.43/3/2017 3:0011.83/3/2017 3:0018.03/3/2017 3:0028.13/3/2017 3:000.0
3/3/2017 4:0015.73/3/2017 4:00838.63/3/2017 4:0003/3/2017 4:0026.003/3/2017 4:001.603/3/2017 4:0077.03/3/2017 4:0011.73/3/2017 4:0017.73/3/2017 4:0027.93/3/2017 4:000.0
3/3/2017 5:0015.63/3/2017 5:00838.73/3/2017 5:0003/3/2017 5:0022.003/3/2017 5:001.303/3/2017 5:0077.83/3/2017 5:0011.83/3/2017 5:0017.63/3/2017 5:0027.93/3/2017 5:000.0
3/3/2017 6:0014.93/3/2017 6:00838.73/3/2017 6:0003/3/2017 6:00348.003/3/2017 6:000.803/3/2017 6:0087.13/3/2017 6:0012.83/3/2017 6:0017.23/3/2017 6:0028.13/3/2017 6:000.0
3/3/2017 7:0015.03/3/2017 7:00838.63/3/2017 7:00253/3/2017 7:00339.003/3/2017 7:000.903/3/2017 7:0089.33/3/2017 7:0013.33/3/2017 7:0017.03/3/2017 7:0028.13/3/2017 7:000.0
3/3/2017 8:0017.33/3/2017 8:00838.53/3/2017 8:001933/3/2017 8:0036.003/3/2017 8:001.303/3/2017 8:0076.03/3/2017 8:0013.13/3/2017 8:0017.93/3/2017 8:0028.13/3/2017 8:000.0
3/3/2017 9:0019.33/3/2017 9:00838.33/3/2017 9:004293/3/2017 9:0040.003/3/2017 9:001.303/3/2017 9:0065.23/3/2017 9:0012.73/3/2017 9:0019.03/3/2017 9:0028.63/3/2017 9:000.0
3/8/2017 22:0018.63/8/2017 22:00838.13/8/2017 22:0003/8/2017 22:0060.003/8/2017 22:002.403/8/2017 22:0079.13/8/2017 22:0015.03/8/2017 22:0020.53/8/2017 22:0013.53/8/2017 22:000.0
3/8/2017 23:0018.53/8/2017 23:00838.13/8/2017 23:0003/8/2017 23:0064.003/8/2017 23:002.203/8/2017 23:0078.93/8/2017 23:0014.83/8/2017 23:0020.53/8/2017 23:0013.63/8/2017 23:000.0
3/9/2017 0:0018.23/9/2017 0:00838.03/9/2017 0:0003/9/2017 0:0063.003/9/2017 0:001.903/9/2017 0:0080.13/9/2017 0:0014.83/9/2017 0:0020.23/9/2017 0:0013.93/9/2017 0:000.0
3/9/2017 1:0017.93/9/2017 1:00838.13/9/2017 1:0003/9/2017 1:0069.003/9/2017 1:001.803/9/2017 1:0081.53/9/2017 1:0014.83/9/2017 1:0019.83/9/2017 1:0014.13/9/2017 1:000.0
3/9/2017 2:0017.93/9/2017 2:00838.13/9/2017 2:0003/9/2017 2:0044.003/9/2017 2:001.803/9/2017 2:0080.83/9/2017 2:0014.63/9/2017 2:0019.93/9/2017 2:0014.33/9/2017 2:000.0
3/9/2017 3:0018.43/9/2017 3:00838.13/9/2017 3:0003/9/2017 3:0041.003/9/2017 3:001.803/9/2017 3:0079.93/9/2017 3:0014.93/9/2017 3:0020.43/9/2017 3:0014.43/9/2017 3:000.0
3/9/2017 4:0017.83/9/2017 4:00838.13/9/2017 4:0003/9/2017 4:00102.003/9/2017 4:001.203/9/2017 4:0083.23/9/2017 4:0015.03/9/2017 4:0019.73/9/2017 4:0014.43/9/2017 4:000.0
3/9/2017 5:0017.43/9/2017 5:00838.03/9/2017 5:0003/9/2017 5:00176.003/9/2017 5:000.603/9/2017 5:0086.13/9/2017 5:0015.13/9/2017 5:0019.63/9/2017 5:0014.53/9/2017 5:000.0
3/9/2017 6:0017.63/9/2017 6:00838.23/9/2017 6:0003/9/2017 6:00337.003/9/2017 6:001.103/9/2017 6:0087.63/9/2017 6:0015.63/9/2017 6:0019.93/9/2017 6:0014.53/9/2017 6:000.0
3/9/2017 7:0018.03/9/2017 7:00838.23/9/2017 7:0033/9/2017 7:00284.003/9/2017 7:001.703/9/2017 7:0088.43/9/2017 7:0016.13/9/2017 7:0019.93/9/2017 7:0014.43/9/2017 7:000.0
3/9/2017 8:0017.43/9/2017 8:00838.23/9/2017 8:00143/9/2017 8:00173.003/9/2017 8:000.903/9/2017 8:0088.03/9/2017 8:0015.53/9/2017 8:0019.23/9/2017 8:0014.43/9/2017 8:000.0
3/9/2017 9:0018.13/9/2017 9:00838.23/9/2017 9:00603/9/2017 9:0056.003/9/2017 9:000.403/9/2017 9:0087.93/9/2017 9:0016.13/9/2017 9:0019.93/9/2017 9:0014.43/9/2017 9:000.0
3/9/2017 10:0019.43/9/2017 10:00838.13/9/2017 10:001453/9/2017 10:00350.003/9/2017 10:001.303/9/2017 10:0085.13/9/2017 10:0016.93/9/2017 10:0021.03/9/2017 10:0014.53/9/2017 10:000.0
3/9/2017 11:0019.93/9/2017 11:00838.03/9/2017 11:001333/9/2017 11:0021.003/9/2017 11:001.203/9/2017 11:0083.03/9/2017 11:0017.03/9/2017 11:0021.43/9/2017 11:0014.83/9/2017 11:000.0
3/9/2017 12:0020.63/9/2017 12:00837.83/9/2017 12:002303/9/2017 12:0099.003/9/2017 12:001.203/9/2017 12:0080.33/9/2017 12:0017.23/9/2017 12:0022.03/9/2017 12:0014.53/9/2017 12:000.0
3/9/2017 13:0021.43/9/2017 13:00837.73/9/2017 13:002343/9/2017 13:00110.003/9/2017 13:001.503/9/2017 13:0077.13/9/2017 13:0017.33/9/2017 13:0022.73/9/2017 13:0014.83/9/2017 13:000.0
3/9/2017 14:0023.63/9/2017 14:00837.53/9/2017 14:007603/9/2017 14:0084.003/9/2017 14:001.503/9/2017 14:0068.93/9/2017 14:0017.63/9/2017 14:0023.73/9/2017 14:0015.03/9/2017 14:000.0
3/9/2017 15:0024.53/9/2017 15:00837.23/9/2017 15:006003/9/2017 15:0089.003/9/2017 15:001.903/9/2017 15:0067.33/9/2017 15:0018.13/9/2017 15:0025.03/9/2017 15:0015.43/9/2017 15:000.0
3/9/2017 16:0024.93/9/2017 16:00837.33/9/2017 16:003893/9/2017 16:00201.003/9/2017 16:001.903/9/2017 16:0065.73/9/2017 16:0018.13/9/2017 16:0025.23/9/2017 16:0015.53/9/2017 16:000.0
3/9/2017 17:0024.23/9/2017 17:00837.33/9/2017 17:002133/9/2017 17:00195.003/9/2017 17:001.703/9/2017 17:0068.53/9/2017 17:0018.13/9/2017 17:0025.03/9/2017 17:0015.43/9/2017 17:000.0
3/9/2017 18:0023.23/9/2017 18:00837.53/9/2017 18:00613/9/2017 18:00165.003/9/2017 18:001.403/9/2017 18:0073.63/9/2017 18:0018.33/9/2017 18:0024.63/9/2017 18:0015.53/9/2017 18:000.0
3/9/2017 19:0021.43/9/2017 19:00837.73/9/2017 19:0003/9/2017 19:00193.003/9/2017 19:000.803/9/2017 19:0082.53/9/2017 19:0018.43/9/2017 19:0023.63/9/2017 19:0015.13/9/2017 19:000.0
3/9/2017 20:0020.63/9/2017 20:00837.73/9/2017 20:0003/9/2017 20:00257.003/9/2017 20:000.803/9/2017 20:0087.43/9/2017 20:0018.53/9/2017 20:0023.03/9/2017 20:0014.63/9/2017 20:000.0
3/9/2017 21:0020.33/9/2017 21:00837.83/9/2017 21:0003/9/2017 21:00277.003/9/2017 21:000.803/9/2017 21:0089.83/9/2017 21:0018.63/9/2017 21:0023.03/9/2017 21:0015.03/9/2017 21:000.0
3/9/2017 22:0020.33/9/2017 22:00837.93/9/2017 22:0003/9/2017 22:00321.003/9/2017 22:000.903/9/2017 22:0091.13/9/2017 22:0018.93/9/2017 22:0023.03/9/2017 22:0015.03/9/2017 22:000.0
3/9/2017 23:0020.13/9/2017 23:00837.93/9/2017 23:0003/9/2017 23:00328.003/9/2017 23:000.903/9/2017 23:0092.73/9/2017 23:0019.03/9/2017 23:0022.73/9/2017 23:0014.53/9/2017 23:000.0
3/10/2017 0:0020.13/10/2017 0:00837.93/10/2017 0:0003/10/2017 0:00335.003/10/2017 0:001.303/10/2017 0:0093.03/10/2017 0:0019.03/10/2017 0:0022.73/10/2017 0:0014.83/10/2017 0:000.0
3/10/2017 1:0020.23/10/2017 1:00837.83/10/2017 1:0003/10/2017 1:00337.003/10/2017 1:001.503/10/2017 1:0092.93/10/2017 1:0019.13/10/2017 1:0022.83/10/2017 1:0014.83/10/2017 1:000.0
3/10/2017 2:0020.03/10/2017 2:00837.93/10/2017 2:0003/10/2017 2:00329.003/10/2017 2:001.003/10/2017 2:0092.93/10/2017 2:0018.93/10/2017 2:0022.53/10/2017 2:0015.13/10/2017 2:000.0
3/10/2017 3:0020.03/10/2017 3:00837.93/10/2017 3:0003/10/2017 3:00325.003/10/2017 3:001.703/10/2017 3:0093.43/10/2017 3:0019.03/10/2017 3:0022.63/10/2017 3:0015.13/10/2017 3:000.0
3/10/2017 4:0019.73/10/2017 4:00837.93/10/2017 4:0003/10/2017 4:00359.003/10/2017 4:001.203/10/2017 4:0094.13/10/2017 4:0018.83/10/2017 4:0022.23/10/2017 4:0015.33/10/2017 4:000.0
3/10/2017 5:0019.63/10/2017 5:00838.03/10/2017 5:0003/10/2017 5:0051.003/10/2017 5:001.203/10/2017 5:0095.43/10/2017 5:0018.93/10/2017 5:0022.13/10/2017 5:0015.53/10/2017 5:000.0
3/10/2017 6:0019.43/10/2017 6:00838.03/10/2017 6:0003/10/2017 6:0048.003/10/2017 6:001.203/10/2017 6:0095.13/10/2017 6:0018.73/10/2017 6:0021.93/10/2017 6:0015.63/10/2017 6:000.0
3/10/2017 7:0019.53/10/2017 7:00838.03/10/2017 7:00143/10/2017 7:0042.003/10/2017 7:000.503/10/2017 7:0095.33/10/2017 7:0018.83/10/2017 7:0022.03/10/2017 7:0015.63/10/2017 7:000.0
3/10/2017 8:0021.03/10/2017 8:00838.03/10/2017 8:001523/10/2017 8:0050.003/10/2017 8:000.603/10/2017 8:0090.43/10/2017 8:0019.43/10/2017 8:0022.63/10/2017 8:0015.33/10/2017 8:000.0
3/10/2017 9:0023.13/10/2017 9:00837.83/10/2017 9:003523/10/2017 9:00349.003/10/2017 9:001.003/10/2017 9:0081.03/10/2017 9:0019.73/10/2017 9:0023.93/10/2017 9:0015.73/10/2017 9:000.0
3/10/2017 10:0025.03/10/2017 10:00837.33/10/2017 10:005733/10/2017 10:0099.003/10/2017 10:001.703/10/2017 10:0072.33/10/2017 10:0019.73/10/2017 10:0025.73/10/2017 10:0016.13/10/2017 10:000.0
3/10/2017 11:0027.23/10/2017 11:00837.23/10/2017 11:005723/10/2017 11:00178.003/10/2017 11:002.003/10/2017 11:0062.03/10/2017 11:0019.43/10/2017 11:0027.53/10/2017 11:0016.23/10/2017 11:000.0
3/10/2017 12:0027.83/10/2017 12:00836.93/10/2017 12:005983/10/2017 12:00217.003/10/2017 12:002.503/10/2017 12:0060.23/10/2017 12:0019.53/10/2017 12:0028.33/10/2017 12:0016.43/10/2017 12:000.0
3/10/2017 13:0028.63/10/2017 13:00836.83/10/2017 13:007253/10/2017 13:00224.003/10/2017 13:002.703/10/2017 13:0058.43/10/2017 13:0019.73/10/2017 13:0029.13/10/2017 13:0016.63/10/2017 13:000.0
3/10/2017 14:0028.83/10/2017 14:00836.83/10/2017 14:007033/10/2017 14:00234.003/10/2017 14:004.703/10/2017 14:0057.03/10/2017 14:0019.53/10/2017 14:0029.83/10/2017 14:0017.23/10/2017 14:000.0
3/10/2017 15:0029.43/10/2017 15:00836.73/10/2017 15:005913/10/2017 15:00276.003/10/2017 15:003.503/10/2017 15:0056.03/10/2017 15:0019.83/10/2017 15:0030.23/10/2017 15:0017.93/10/2017 15:000.0
3/10/2017 16:0028.73/10/2017 16:00836.73/10/2017 16:002823/10/2017 16:008.003/10/2017 16:002.303/10/2017 16:0058.63/10/2017 16:0019.93/10/2017 16:0030.03/10/2017 16:0018.63/10/2017 16:000.0
3/10/2017 17:0029.23/10/2017 17:00836.83/10/2017 17:001863/10/2017 17:00321.003/10/2017 17:001.303/10/2017 17:0056.73/10/2017 17:0019.83/10/2017 17:0030.33/10/2017 17:0018.83/10/2017 17:000.0
3/10/2017 18:0028.83/10/2017 18:00836.93/10/2017 18:00693/10/2017 18:00268.003/10/2017 18:001.603/10/2017 18:0057.53/10/2017 18:0019.63/10/2017 18:0030.43/10/2017 18:0019.33/10/2017 18:000.0
3/10/2017 19:0026.73/10/2017 19:00837.03/10/2017 19:0013/10/2017 19:00261.003/10/2017 19:001.303/10/2017 19:0065.83/10/2017 19:0019.83/10/2017 19:0029.03/10/2017 19:0019.33/10/2017 19:000.0
3/10/2017 20:0025.03/10/2017 20:00837.23/10/2017 20:0003/10/2017 20:0049.003/10/2017 20:000.503/10/2017 20:0072.13/10/2017 20:0019.73/10/2017 20:0028.13/10/2017 20:0019.33/10/2017 20:000.0
3/10/2017 21:0023.73/10/2017 21:00837.23/10/2017 21:0003/10/2017 21:00298.003/10/2017 21:000.603/10/2017 21:0081.23/10/2017 21:0020.43/10/2017 21:0026.63/10/2017 21:0019.43/10/2017 21:000.0
3/10/2017 22:0022.93/10/2017 22:00837.33/10/2017 22:0003/10/2017 22:00316.003/10/2017 22:001.103/10/2017 22:0085.33/10/2017 22:0020.43/10/2017 22:0025.83/10/2017 22:0019.43/10/2017 22:000.0
3/10/2017 23:0022.53/10/2017 23:00837.43/10/2017 23:0003/10/2017 23:00335.003/10/2017 23:001.403/10/2017 23:0086.83/10/2017 23:0020.33/10/2017 23:0025.33/10/2017 23:0019.63/10/2017 23:000.0
3/11/2017 0:0022.33/11/2017 0:00837.63/11/2017 0:0003/11/2017 0:00354.003/11/2017 0:001.203/11/2017 0:0086.83/11/2017 0:0020.13/11/2017 0:0025.33/11/2017 0:0019.53/11/2017 0:000.0
3/11/2017 1:0021.93/11/2017 1:00837.63/11/2017 1:0003/11/2017 1:00354.003/11/2017 1:001.003/11/2017 1:0091.83/11/2017 1:0020.63/11/2017 1:0024.83/11/2017 1:0019.93/11/2017 1:000.0
3/11/2017 2:0021.53/11/2017 2:00837.63/11/2017 2:0003/11/2017 2:00344.003/11/2017 2:001.003/11/2017 2:0093.33/11/2017 2:0020.43/11/2017 2:0024.33/11/2017 2:0020.33/11/2017 2:000.0
3/11/2017 3:0021.23/11/2017 3:00837.63/11/2017 3:0003/11/2017 3:0015.003/11/2017 3:001.003/11/2017 3:0094.63/11/2017 3:0020.43/11/2017 3:0024.03/11/2017 3:0020.73/11/2017 3:000.0
3/11/2017 4:0021.23/11/2017 4:00837.73/11/2017 4:0003/11/2017 4:00332.003/11/2017 4:002.103/11/2017 4:0094.13/11/2017 4:0020.33/11/2017 4:0023.93/11/2017 4:0020.73/11/2017 4:000.0
3/11/2017 5:0021.43/11/2017 5:00837.73/11/2017 5:0003/11/2017 5:00331.003/11/2017 5:002.403/11/2017 5:0092.13/11/2017 5:0020.13/11/2017 5:0024.03/11/2017 5:0020.63/11/2017 5:000.0
3/11/2017 6:0021.23/11/2017 6:00837.63/11/2017 6:0003/11/2017 6:00342.003/11/2017 6:001.803/11/2017 6:0091.63/11/2017 6:0019.93/11/2017 6:0023.83/11/2017 6:0020.63/11/2017 6:000.0
3/11/2017 7:0021.23/11/2017 7:00837.73/11/2017 7:00303/11/2017 7:00340.003/11/2017 7:001.503/11/2017 7:0092.43/11/2017 7:0020.03/11/2017 7:0023.73/11/2017 7:0020.53/11/2017 7:000.0
3/11/2017 8:0022.73/11/2017 8:00837.63/11/2017 8:002003/11/2017 8:00334.003/11/2017 8:001.803/11/2017 8:0086.63/11/2017 8:0020.43/11/2017 8:0024.33/11/2017 8:0020.43/11/2017 8:000.0
3/11/2017 9:0024.53/11/2017 9:00837.43/11/2017 9:004283/11/2017 9:00345.003/11/2017 9:001.903/11/2017 9:0076.23/11/2017 9:0020.13/11/2017 9:0025.43/11/2017 9:0020.73/11/2017 9:000.0
3/11/2017 10:0026.83/11/2017 10:00837.03/11/2017 10:006183/11/2017 10:0019.003/11/2017 10:001.403/11/2017 10:0066.93/11/2017 10:0020.23/11/2017 10:0027.23/11/2017 10:0021.13/11/2017 10:000.0
3/11/2017 11:0029.43/11/2017 11:00836.73/11/2017 11:007763/11/2017 11:00212.003/11/2017 11:001.703/11/2017 11:0058.73/11/2017 11:0020.53/11/2017 11:0029.53/11/2017 11:0021.33/11/2017 11:000.0
3/11/2017 12:0030.93/11/2017 12:00836.53/11/2017 12:009053/11/2017 12:00201.003/11/2017 12:002.303/11/2017 12:0052.63/11/2017 12:0020.23/11/2017 12:0031.03/11/2017 12:0021.63/11/2017 12:000.0
3/11/2017 13:0031.53/11/2017 13:00836.43/11/2017 13:007753/11/2017 13:00196.003/11/2017 13:002.503/11/2017 13:0050.23/11/2017 13:0020.03/11/2017 13:0031.63/11/2017 13:0022.43/11/2017 13:000.0
3/11/2017 14:0031.43/11/2017 14:00836.43/11/2017 14:003963/11/2017 14:00271.003/11/2017 14:001.903/11/2017 14:0051.43/11/2017 14:0020.23/11/2017 14:0031.93/11/2017 14:0022.63/11/2017 14:000.0
3/11/2017 15:0030.93/11/2017 15:00836.63/11/2017 15:002903/11/2017 15:00332.003/11/2017 15:001.703/11/2017 15:0052.03/11/2017 15:0020.03/11/2017 15:0031.93/11/2017 15:0023.03/11/2017 15:000.0
3/11/2017 16:0032.03/11/2017 16:00836.53/11/2017 16:003323/11/2017 16:0037.003/11/2017 16:001.303/11/2017 16:0048.13/11/2017 16:0019.73/11/2017 16:0032.43/11/2017 16:0023.43/11/2017 16:000.0
3/11/2017 17:0032.23/11/2017 17:00836.53/11/2017 17:002493/11/2017 17:0073.003/11/2017 17:001.403/11/2017 17:0047.53/11/2017 17:0019.73/11/2017 17:0032.73/11/2017 17:0023.83/11/2017 17:000.0
3/11/2017 18:0030.53/11/2017 18:00836.53/11/2017 18:00693/11/2017 18:00335.003/11/2017 18:001.103/11/2017 18:0056.03/11/2017 18:0020.83/11/2017 18:0031.83/11/2017 18:0024.63/11/2017 18:000.0
3/11/2017 19:0028.03/11/2017 19:00836.83/11/2017 19:0013/11/2017 19:00316.003/11/2017 19:001.103/11/2017 19:0066.03/11/2017 19:0021.13/11/2017 19:0030.53/11/2017 19:0024.33/11/2017 19:000.0
3/11/2017 20:0026.53/11/2017 20:00837.13/11/2017 20:0003/11/2017 20:00270.003/11/2017 20:000.703/11/2017 20:0068.63/11/2017 20:0020.33/11/2017 20:0029.33/11/2017 20:0024.23/11/2017 20:000.0
3/11/2017 21:0025.63/11/2017 21:00837.23/11/2017 21:0003/11/2017 21:00346.003/11/2017 21:001.003/11/2017 21:0074.63/11/2017 21:0020.83/11/2017 21:0028.43/11/2017 21:0024.33/11/2017 21:000.0
3/11/2017 22:0025.13/11/2017 22:00837.33/11/2017 22:0003/11/2017 22:00325.003/11/2017 22:001.403/11/2017 22:0074.63/11/2017 22:0020.33/11/2017 22:0027.93/11/2017 22:0024.33/11/2017 22:000.0
3/11/2017 23:0024.53/11/2017 23:00837.33/11/2017 23:0003/11/2017 23:004.003/11/2017 23:001.003/11/2017 23:0078.53/11/2017 23:0020.63/11/2017 23:0027.53/11/2017 23:0024.33/11/2017 23:000.0
3/12/2017 0:0023.83/12/2017 0:00837.23/12/2017 0:0003/12/2017 0:00326.003/12/2017 0:000.703/12/2017 0:0083.63/12/2017 0:0020.93/12/2017 0:0026.73/12/2017 0:0024.43/12/2017 0:000.0
3/12/2017 1:0023.23/12/2017 1:00837.33/12/2017 1:0003/12/2017 1:00322.003/12/2017 1:001.003/12/2017 1:0084.23/12/2017 1:0020.53/12/2017 1:0026.13/12/2017 1:0024.63/12/2017 1:000.0
3/12/2017 2:0022.83/12/2017 2:00837.33/12/2017 2:0003/12/2017 2:00332.003/12/2017 2:001.003/12/2017 2:0087.83/12/2017 2:0020.73/12/2017 2:0025.83/12/2017 2:0024.73/12/2017 2:000.0
3/12/2017 3:0022.53/12/2017 3:00837.33/12/2017 3:0003/12/2017 3:00326.003/12/2017 3:000.703/12/2017 3:0090.13/12/2017 3:0020.93/12/2017 3:0025.53/12/2017 3:0024.43/12/2017 3:000.0
3/12/2017 4:0022.33/12/2017 4:00837.33/12/2017 4:0003/12/2017 4:0078.003/12/2017 4:000.603/12/2017 4:0091.63/12/2017 4:0020.93/12/2017 4:0025.33/12/2017 4:0024.63/12/2017 4:000.0
3/12/2017 5:0022.13/12/2017 5:00837.43/12/2017 5:0003/12/2017 5:00348.003/12/2017 5:000.703/12/2017 5:0093.43/12/2017 5:0021.13/12/2017 5:0025.13/12/2017 5:0024.83/12/2017 5:000.0
3/12/2017 6:0021.73/12/2017 6:00837.43/12/2017 6:0003/12/2017 6:00119.003/12/2017 6:000.403/12/2017 6:0094.63/12/2017 6:0020.93/12/2017 6:0024.73/12/2017 6:0024.83/12/2017 6:000.0
3/12/2017 7:0021.83/12/2017 7:00837.53/12/2017 7:00323/12/2017 7:00158.003/12/2017 7:000.703/12/2017 7:0092.83/12/2017 7:0020.73/12/2017 7:0024.43/12/2017 7:0024.83/12/2017 7:000.0
3/12/2017 8:0024.03/12/2017 8:00837.33/12/2017 8:001923/12/2017 8:006.003/12/2017 8:001.003/12/2017 8:0083.13/12/2017 8:0021.03/12/2017 8:0025.13/12/2017 8:009.33/12/2017 8:000.0
3/12/2017 9:0025.23/12/2017 9:00837.03/12/2017 9:003213/12/2017 9:0067.003/12/2017 9:001.203/12/2017 9:0075.53/12/2017 9:0020.63/12/2017 9:0026.33/12/2017 9:009.33/12/2017 9:000.0
3/12/2017 10:0027.53/12/2017 10:00836.83/12/2017 10:006203/12/2017 10:00109.003/12/2017 10:001.903/12/2017 10:0064.23/12/2017 10:0020.23/12/2017 10:0027.93/12/2017 10:009.13/12/2017 10:000.0
3/12/2017 11:0030.03/12/2017 11:00836.63/12/2017 11:007753/12/2017 11:00176.003/12/2017 11:002.503/12/2017 11:0054.83/12/2017 11:0020.03/12/2017 11:0029.73/12/2017 11:009.63/12/2017 11:000.0
3/12/2017 12:0030.83/12/2017 12:00836.63/12/2017 12:008743/12/2017 12:00185.003/12/2017 12:002.603/12/2017 12:0053.83/12/2017 12:0020.43/12/2017 12:0030.83/12/2017 12:0010.23/12/2017 12:000.0
3/12/2017 13:0031.93/12/2017 13:00836.33/12/2017 13:008733/12/2017 13:00181.003/12/2017 13:003.003/12/2017 13:0050.33/12/2017 13:0020.43/12/2017 13:0032.13/12/2017 13:0010.53/12/2017 13:000.0
3/12/2017 14:0032.53/12/2017 14:00836.33/12/2017 14:007733/12/2017 14:00217.003/12/2017 14:003.403/12/2017 14:0047.13/12/2017 14:0019.83/12/2017 14:0032.93/12/2017 14:0011.23/12/2017 14:000.0
3/12/2017 15:0033.03/12/2017 15:00836.33/12/2017 15:004863/12/2017 15:00200.003/12/2017 15:003.003/12/2017 15:0044.83/12/2017 15:0019.53/12/2017 15:0033.33/12/2017 15:0011.93/12/2017 15:000.0
3/12/2017 16:0032.93/12/2017 16:00836.53/12/2017 16:002683/12/2017 16:00200.003/12/2017 16:002.703/12/2017 16:0044.23/12/2017 16:0019.23/12/2017 16:0033.63/12/2017 16:0012.43/12/2017 16:000.0
3/12/2017 17:0028.63/12/2017 17:00836.53/12/2017 17:00783/12/2017 17:00307.003/12/2017 17:003.703/12/2017 17:0061.43/12/2017 17:0020.53/12/2017 17:0030.73/12/2017 17:0011.83/12/2017 17:006.3
3/12/2017 18:0025.73/12/2017 18:00836.73/12/2017 18:00653/12/2017 18:00277.003/12/2017 18:001.403/12/2017 18:0079.23/12/2017 18:0021.93/12/2017 18:0028.53/12/2017 18:007.93/12/2017 18:000.0
3/12/2017 19:0024.93/12/2017 19:00836.83/12/2017 19:0023/12/2017 19:00233.003/12/2017 19:001.303/12/2017 19:0087.23/12/2017 19:0022.73/12/2017 19:0028.23/12/2017 19:008.13/12/2017 19:000.0
3/12/2017 20:0024.83/12/2017 20:00836.93/12/2017 20:0003/12/2017 20:00300.003/12/2017 20:001.703/12/2017 20:0081.53/12/2017 20:0021.53/12/2017 20:0027.53/12/2017 20:008.23/12/2017 20:000.1
3/12/2017 21:0024.13/12/2017 21:00836.93/12/2017 21:0003/12/2017 21:00219.003/12/2017 21:000.803/12/2017 21:0088.43/12/2017 21:0022.13/12/2017 21:0027.43/12/2017 21:008.33/12/2017 21:000.0
3/12/2017 22:0024.03/12/2017 22:00837.03/12/2017 22:0003/12/2017 22:00294.003/12/2017 22:000.703/12/2017 22:0090.03/12/2017 22:0022.33/12/2017 22:0027.03/12/2017 22:008.23/12/2017 22:000.0
3/12/2017 23:0023.63/12/2017 23:00837.03/12/2017 23:0003/12/2017 23:00336.003/12/2017 23:001.003/12/2017 23:0090.53/12/2017 23:0022.03/12/2017 23:0026.73/12/2017 23:008.33/12/2017 23:000.0
3/13/2017 0:0023.23/13/2017 0:00837.03/13/2017 0:0003/13/2017 0:00331.003/13/2017 0:001.103/13/2017 0:0091.83/13/2017 0:0021.93/13/2017 0:0026.23/13/2017 0:008.43/13/2017 0:000.0
3/13/2017 1:0023.23/13/2017 1:00837.13/13/2017 1:0003/13/2017 1:00126.003/13/2017 1:001.103/13/2017 1:0092.93/13/2017 1:0022.13/13/2017 1:0026.43/13/2017 1:008.73/13/2017 1:000.0
3/13/2017 2:0023.23/13/2017 2:00837.13/13/2017 2:0003/13/2017 2:0069.003/13/2017 2:001.103/13/2017 2:0091.53/13/2017 2:0021.83/13/2017 2:0026.43/13/2017 2:008.73/13/2017 2:000.0
3/13/2017 3:0022.93/13/2017 3:00837.23/13/2017 3:0003/13/2017 3:00261.003/13/2017 3:000.503/13/2017 3:0091.93/13/2017 3:0021.63/13/2017 3:0026.03/13/2017 3:009.03/13/2017 3:000.0
3/13/2017 4:0023.13/13/2017 4:00837.33/13/2017 4:0003/13/2017 4:00161.003/13/2017 4:001.503/13/2017 4:0088.73/13/2017 4:0021.23/13/2017 4:0026.53/13/2017 4:008.63/13/2017 4:000.0
3/13/2017 5:0023.33/13/2017 5:00837.23/13/2017 5:0003/13/2017 5:00110.003/13/2017 5:001.503/13/2017 5:0087.13/13/2017 5:0021.13/13/2017 5:0026.13/13/2017 5:008.63/13/2017 5:000.0
3/13/2017 6:0023.23/13/2017 6:00837.23/13/2017 6:0003/13/2017 6:00129.003/13/2017 6:001.003/13/2017 6:0089.63/13/2017 6:0021.53/13/2017 6:0026.13/13/2017 6:008.83/13/2017 6:000.0
3/13/2017 7:0022.93/13/2017 7:00837.13/13/2017 7:00323/13/2017 7:00172.003/13/2017 7:000.703/13/2017 7:0090.53/13/2017 7:0021.33/13/2017 7:0025.83/13/2017 7:008.53/13/2017 7:000.0
3/13/2017 8:0024.73/13/2017 8:00836.93/13/2017 8:001293/13/2017 8:00110.003/13/2017 8:000.603/13/2017 8:0082.23/13/2017 8:0021.53/13/2017 8:0026.63/13/2017 8:008.93/13/2017 8:000.0
3/13/2017 9:0026.93/13/2017 9:00836.83/13/2017 9:004053/13/2017 9:00158.003/13/2017 9:002.503/13/2017 9:0069.23/13/2017 9:0020.93/13/2017 9:0027.93/13/2017 9:009.13/13/2017 9:000.0
3/13/2017 10:0027.93/13/2017 10:00836.53/13/2017 10:006013/13/2017 10:00163.003/13/2017 10:002.703/13/2017 10:0065.33/13/2017 10:0020.93/13/2017 10:0028.63/13/2017 10:009.43/13/2017 10:000.0
3/13/2017 11:0029.13/13/2017 11:00836.33/13/2017 11:007663/13/2017 11:00154.003/13/2017 11:002.603/13/2017 11:0061.13/13/2017 11:0020.93/13/2017 11:0029.53/13/2017 11:009.73/13/2017 11:000.0
3/13/2017 12:0030.53/13/2017 12:00836.43/13/2017 12:008593/13/2017 12:00196.003/13/2017 12:002.503/13/2017 12:0055.03/13/2017 12:0020.53/13/2017 12:0030.93/13/2017 12:0010.13/13/2017 12:000.0
3/13/2017 13:0032.03/13/2017 13:00836.33/13/2017 13:008743/13/2017 13:00208.003/13/2017 13:002.403/13/2017 13:0048.33/13/2017 13:0019.83/13/2017 13:0032.23/13/2017 13:0010.33/13/2017 13:000.0
3/13/2017 14:0033.03/13/2017 14:00836.33/13/2017 14:008073/13/2017 14:00284.003/13/2017 14:002.003/13/2017 14:0046.83/13/2017 14:0020.23/13/2017 14:0033.03/13/2017 14:0010.93/13/2017 14:000.0
3/13/2017 15:0032.93/13/2017 15:00836.33/13/2017 15:004923/13/2017 15:00334.003/13/2017 15:001.803/13/2017 15:0045.33/13/2017 15:0019.63/13/2017 15:0033.13/13/2017 15:0011.73/13/2017 15:000.0
3/13/2017 16:0033.03/13/2017 16:00836.43/13/2017 16:003583/13/2017 16:00312.003/13/2017 16:001.703/13/2017 16:0041.23/13/2017 16:0018.13/13/2017 16:0033.43/13/2017 16:0012.13/13/2017 16:000.0
3/13/2017 17:0033.43/13/2017 17:00836.43/13/2017 17:002543/13/2017 17:00286.003/13/2017 17:002.303/13/2017 17:0037.63/13/2017 17:0017.13/13/2017 17:0033.73/13/2017 17:0012.73/13/2017 17:000.0
3/13/2017 18:0031.53/13/2017 18:00836.53/13/2017 18:00453/13/2017 18:00268.003/13/2017 18:001.603/13/2017 18:0043.53/13/2017 18:0017.73/13/2017 18:0032.63/13/2017 18:0013.43/13/2017 18:000.0
3/13/2017 19:0028.03/13/2017 19:00836.73/13/2017 19:0003/13/2017 19:00255.003/13/2017 19:000.803/13/2017 19:0055.33/13/2017 19:0018.33/13/2017 19:0030.23/13/2017 19:0013.23/13/2017 19:000.0
3/13/2017 20:0026.33/13/2017 20:00837.03/13/2017 20:0003/13/2017 20:00256.003/13/2017 20:000.803/13/2017 20:0065.23/13/2017 20:0019.33/13/2017 20:0029.33/13/2017 20:0013.43/13/2017 20:000.0
3/13/2017 21:0025.63/13/2017 21:00837.13/13/2017 21:0003/13/2017 21:00318.003/13/2017 21:000.903/13/2017 21:0072.03/13/2017 21:0020.33/13/2017 21:0028.63/13/2017 21:0013.43/13/2017 21:000.0
3/13/2017 22:0024.63/13/2017 22:00837.23/13/2017 22:0003/13/2017 22:00326.003/13/2017 22:001.203/13/2017 22:0074.93/13/2017 22:0019.93/13/2017 22:0027.43/13/2017 22:0013.73/13/2017 22:000.0
3/13/2017 23:0024.13/13/2017 23:00837.23/13/2017 23:0003/13/2017 23:00339.003/13/2017 23:001.303/13/2017 23:0077.33/13/2017 23:0020.03/13/2017 23:0026.93/13/2017 23:0013.43/13/2017 23:000.0
3/14/2017 0:0024.03/14/2017 0:00837.33/14/2017 0:0003/14/2017 0:0010.003/14/2017 0:001.503/14/2017 0:0081.03/14/2017 0:0020.63/14/2017 0:0027.03/14/2017 0:0013.83/14/2017 0:000.0
3/14/2017 1:0023.33/14/2017 1:00837.33/14/2017 1:0003/14/2017 1:00328.003/14/2017 1:001.903/14/2017 1:0081.93/14/2017 1:0020.13/14/2017 1:0025.93/14/2017 1:0014.33/14/2017 1:000.0
3/14/2017 2:0023.33/14/2017 2:00837.33/14/2017 2:0003/14/2017 2:00342.003/14/2017 2:002.103/14/2017 2:0079.63/14/2017 2:0019.63/14/2017 2:0025.83/14/2017 2:0014.53/14/2017 2:000.0
3/14/2017 3:0022.93/14/2017 3:00837.23/14/2017 3:0003/14/2017 3:00337.003/14/2017 3:001.703/14/2017 3:0080.23/14/2017 3:0019.43/14/2017 3:0025.43/14/2017 3:0014.13/14/2017 3:000.0
3/14/2017 4:0022.53/14/2017 4:00837.33/14/2017 4:0003/14/2017 4:003.003/14/2017 4:001.103/14/2017 4:0082.73/14/2017 4:0019.53/14/2017 4:0025.13/14/2017 4:0014.33/14/2017 4:000.0
3/14/2017 5:0021.63/14/2017 5:00837.33/14/2017 5:0003/14/2017 5:0072.003/14/2017 5:000.503/14/2017 5:0088.23/14/2017 5:0019.63/14/2017 5:0024.63/14/2017 5:0014.53/14/2017 5:000.0
3/14/2017 6:0021.23/14/2017 6:00837.43/14/2017 6:0003/14/2017 6:00267.003/14/2017 6:000.603/14/2017 6:0091.23/14/2017 6:0019.83/14/2017 6:0024.33/14/2017 6:0014.53/14/2017 6:000.0
3/14/2017 7:0021.33/14/2017 7:00837.53/14/2017 7:00273/14/2017 7:00304.003/14/2017 7:000.503/14/2017 7:0090.13/14/2017 7:0019.73/14/2017 7:0024.23/14/2017 7:0014.43/14/2017 7:000.0
3/14/2017 8:0023.93/14/2017 8:00837.33/14/2017 8:001903/14/2017 8:00357.003/14/2017 8:000.903/14/2017 8:0077.33/14/2017 8:0019.83/14/2017 8:0025.13/14/2017 8:0014.73/14/2017 8:000.0
3/14/2017 9:0026.63/14/2017 9:00837.03/14/2017 9:004073/14/2017 9:0089.003/14/2017 9:001.303/14/2017 9:0066.13/14/2017 9:0019.83/14/2017 9:0027.13/14/2017 9:0015.23/14/2017 9:000.0
3/14/2017 10:0028.83/14/2017 10:00836.73/14/2017 10:006173/14/2017 10:00128.003/14/2017 10:002.403/14/2017 10:0059.03/14/2017 10:0020.13/14/2017 10:0029.33/14/2017 10:0015.43/14/2017 10:000.0
3/14/2017 11:0030.83/14/2017 11:00836.53/14/2017 11:007743/14/2017 11:00159.003/14/2017 11:002.403/14/2017 11:0053.03/14/2017 11:0020.23/14/2017 11:0030.83/14/2017 11:0015.63/14/2017 11:000.0
3/14/2017 12:0031.93/14/2017 12:00836.53/14/2017 12:008703/14/2017 12:00164.003/14/2017 12:002.403/14/2017 12:0047.13/14/2017 12:0019.33/14/2017 12:0031.93/14/2017 12:0015.93/14/2017 12:000.0
3/14/2017 13:0032.83/14/2017 13:00836.53/14/2017 13:007743/14/2017 13:00141.003/14/2017 13:001.903/14/2017 13:0046.43/14/2017 13:0019.93/14/2017 13:0032.73/14/2017 13:0016.43/14/2017 13:000.0
3/14/2017 14:0032.63/14/2017 14:00836.53/14/2017 14:005503/14/2017 14:0036.003/14/2017 14:002.003/14/2017 14:0046.63/14/2017 14:0019.83/14/2017 14:0033.23/14/2017 14:0016.83/14/2017 14:000.0
3/14/2017 15:0033.23/14/2017 15:00836.43/14/2017 15:005003/14/2017 15:0048.003/14/2017 15:002.203/14/2017 15:0045.83/14/2017 15:0020.03/14/2017 15:0033.63/14/2017 15:0017.43/14/2017 15:000.0
3/14/2017 16:0032.73/14/2017 16:00836.43/14/2017 16:003093/14/2017 16:0043.003/14/2017 16:002.103/14/2017 16:0044.73/14/2017 16:0019.23/14/2017 16:0033.53/14/2017 16:0018.23/14/2017 16:000.0
3/14/2017 17:0032.43/14/2017 17:00836.53/14/2017 17:001493/14/2017 17:0042.003/14/2017 17:001.403/14/2017 17:0043.83/14/2017 17:0018.63/14/2017 17:0033.53/14/2017 17:0018.63/14/2017 17:000.0
3/14/2017 18:0029.83/14/2017 18:00836.53/14/2017 18:00483/14/2017 18:0073.003/14/2017 18:002.303/14/2017 18:0060.33/14/2017 18:0021.43/14/2017 18:0031.63/14/2017 18:0019.23/14/2017 18:000.0
3/14/2017 19:0026.93/14/2017 19:00836.73/14/2017 19:0013/14/2017 19:00100.003/14/2017 19:002.503/14/2017 19:0069.53/14/2017 19:0020.93/14/2017 19:0029.13/14/2017 19:0019.23/14/2017 19:000.0
3/14/2017 20:0025.03/14/2017 20:00836.83/14/2017 20:0003/14/2017 20:00100.003/14/2017 20:003.303/14/2017 20:0075.23/14/2017 20:0020.43/14/2017 20:0027.33/14/2017 20:0019.23/14/2017 20:000.0
3/14/2017 21:0024.33/14/2017 21:00836.93/14/2017 21:0003/14/2017 21:00104.003/14/2017 21:004.003/14/2017 21:0077.03/14/2017 21:0020.13/14/2017 21:0026.63/14/2017 21:0019.73/14/2017 21:000.0
3/14/2017 22:0023.63/14/2017 22:00837.13/14/2017 22:0003/14/2017 22:0078.003/14/2017 22:003.403/14/2017 22:0079.23/14/2017 22:0019.93/14/2017 22:0026.03/14/2017 22:0019.83/14/2017 22:000.0
3/14/2017 23:0023.43/14/2017 23:00837.13/14/2017 23:0003/14/2017 23:0052.003/14/2017 23:001.803/14/2017 23:0079.73/14/2017 23:0019.83/14/2017 23:0025.73/14/2017 23:0020.23/14/2017 23:000.0
3/15/2017 0:0023.23/15/2017 0:00837.13/15/2017 0:0003/15/2017 0:0010.003/15/2017 0:001.703/15/2017 0:0080.43/15/2017 0:0019.73/15/2017 0:0025.73/15/2017 0:0020.53/15/2017 0:000.0
3/15/2017 1:0023.23/15/2017 1:00837.13/15/2017 1:0003/15/2017 1:0056.003/15/2017 1:002.203/15/2017 1:0079.43/15/2017 1:0019.53/15/2017 1:0025.63/15/2017 1:0020.73/15/2017 1:000.0
3/15/2017 2:0022.63/15/2017 2:00837.13/15/2017 2:0003/15/2017 2:0057.003/15/2017 2:001.703/15/2017 2:0081.43/15/2017 2:0019.33/15/2017 2:0024.93/15/2017 2:0020.63/15/2017 2:000.0
3/15/2017 3:0022.53/15/2017 3:00837.13/15/2017 3:0003/15/2017 3:0024.003/15/2017 3:001.703/15/2017 3:0080.63/15/2017 3:0019.13/15/2017 3:0024.93/15/2017 3:0020.53/15/2017 3:000.0
3/15/2017 4:0022.73/15/2017 4:00837.33/15/2017 4:0003/15/2017 4:0034.003/15/2017 4:001.803/15/2017 4:0079.13/15/2017 4:0019.03/15/2017 4:0025.03/15/2017 4:0020.63/15/2017 4:000.0
3/15/2017 5:0022.63/15/2017 5:00837.23/15/2017 5:0003/15/2017 5:0065.003/15/2017 5:001.603/15/2017 5:0079.53/15/2017 5:0018.93/15/2017 5:0024.93/15/2017 5:0020.83/15/2017 5:000.0
3/15/2017 6:0022.63/15/2017 6:00837.23/15/2017 6:0003/15/2017 6:0074.003/15/2017 6:001.503/15/2017 6:0079.63/15/2017 6:0019.03/15/2017 6:0024.93/15/2017 6:0020.93/15/2017 6:000.0
3/15/2017 7:0022.43/15/2017 7:00837.23/15/2017 7:00333/15/2017 7:00124.003/15/2017 7:001.003/15/2017 7:0082.33/15/2017 7:0019.33/15/2017 7:0024.73/15/2017 7:0021.23/15/2017 7:000.0
3/15/2017 8:0023.03/15/2017 8:00837.03/15/2017 8:001163/15/2017 8:00140.003/15/2017 8:002.003/15/2017 8:0080.33/15/2017 8:0019.53/15/2017 8:0024.93/15/2017 8:0021.23/15/2017 8:000.0
3/15/2017 9:0023.43/15/2017 9:00837.13/15/2017 9:001983/15/2017 9:00108.003/15/2017 9:003.003/15/2017 9:0079.13/15/2017 9:0019.63/15/2017 9:0025.23/15/2017 9:0021.43/15/2017 9:000.0
3/15/2017 10:0024.73/15/2017 10:00837.03/15/2017 10:004043/15/2017 10:00100.003/15/2017 10:003.003/15/2017 10:0073.43/15/2017 10:0019.73/15/2017 10:0026.13/15/2017 10:0021.73/15/2017 10:000.0
3/15/2017 11:0026.03/15/2017 11:00836.93/15/2017 11:004513/15/2017 11:00105.003/15/2017 11:002.303/15/2017 11:0069.13/15/2017 11:0020.03/15/2017 11:0027.33/15/2017 11:0021.83/15/2017 11:000.0
3/15/2017 12:0028.33/15/2017 12:00836.83/15/2017 12:007023/15/2017 12:00129.003/15/2017 12:002.203/15/2017 12:0061.73/15/2017 12:0020.33/15/2017 12:0028.53/15/2017 12:0022.33/15/2017 12:000.0
3/15/2017 13:0028.43/15/2017 13:00836.63/15/2017 13:005853/15/2017 13:00111.003/15/2017 13:002.903/15/2017 13:0060.13/15/2017 13:0020.03/15/2017 13:0029.33/15/2017 13:0022.53/15/2017 13:000.0
3/15/2017 14:0029.03/15/2017 14:00836.63/15/2017 14:005623/15/2017 14:00120.003/15/2017 14:002.703/15/2017 14:0058.23/15/2017 14:0020.03/15/2017 14:0029.93/15/2017 14:0022.93/15/2017 14:000.0
3/15/2017 15:0028.83/15/2017 15:00836.53/15/2017 15:003753/15/2017 15:0095.003/15/2017 15:003.103/15/2017 15:0059.53/15/2017 15:0020.23/15/2017 15:0030.13/15/2017 15:0023.53/15/2017 15:000.0
3/15/2017 16:0029.03/15/2017 16:00836.53/15/2017 16:003693/15/2017 16:0085.003/15/2017 16:003.003/15/2017 16:0059.53/15/2017 16:0020.43/15/2017 16:0030.33/15/2017 16:0023.83/15/2017 16:000.0
3/15/2017 17:0028.53/15/2017 17:00836.63/15/2017 17:001403/15/2017 17:0092.003/15/2017 17:002.503/15/2017 17:0061.23/15/2017 17:0020.43/15/2017 17:0030.33/15/2017 17:0024.43/15/2017 17:000.0
3/15/2017 18:0028.23/15/2017 18:00836.63/15/2017 18:00653/15/2017 18:0094.003/15/2017 18:002.003/15/2017 18:0063.73/15/2017 18:0020.73/15/2017 18:0030.13/15/2017 18:0024.63/15/2017 18:000.0
3/15/2017 19:0026.63/15/2017 19:00836.73/15/2017 19:0003/15/2017 19:00111.003/15/2017 19:002.103/15/2017 19:0072.93/15/2017 19:0021.43/15/2017 19:0029.03/15/2017 19:0025.33/15/2017 19:000.0
3/15/2017 20:0025.03/15/2017 20:00837.03/15/2017 20:0003/15/2017 20:00105.003/15/2017 20:002.503/15/2017 20:0078.93/15/2017 20:0021.23/15/2017 20:0027.43/15/2017 20:0025.53/15/2017 20:000.0
3/15/2017 21:0024.03/15/2017 21:00837.23/15/2017 21:0003/15/2017 21:00119.003/15/2017 21:001.903/15/2017 21:0082.03/15/2017 21:0020.83/15/2017 21:0026.43/15/2017 21:0025.73/15/2017 21:000.0
3/15/2017 22:0023.13/15/2017 22:00837.23/15/2017 22:0003/15/2017 22:00121.003/15/2017 22:001.903/15/2017 22:0084.63/15/2017 22:0020.43/15/2017 22:0025.53/15/2017 22:0025.83/15/2017 22:000.0
3/15/2017 23:0022.63/15/2017 23:00837.23/15/2017 23:0003/15/2017 23:00125.003/15/2017 23:001.403/15/2017 23:0086.73/15/2017 23:0020.33/15/2017 23:0025.03/15/2017 23:0025.93/15/2017 23:000.0
3/16/2017 0:0022.33/16/2017 0:00837.33/16/2017 0:0003/16/2017 0:00127.003/16/2017 0:001.603/16/2017 0:0087.53/16/2017 0:0020.23/16/2017 0:0024.83/16/2017 0:0026.23/16/2017 0:000.0
3/16/2017 1:0022.13/16/2017 1:00837.43/16/2017 1:0003/16/2017 1:00112.003/16/2017 1:001.603/16/2017 1:0087.63/16/2017 1:0020.03/16/2017 1:0024.53/16/2017 1:0025.93/16/2017 1:000.0
3/16/2017 2:0021.93/16/2017 2:00837.53/16/2017 2:0003/16/2017 2:00104.003/16/2017 2:001.303/16/2017 2:0088.33/16/2017 2:0020.03/16/2017 2:0024.43/16/2017 2:0025.73/16/2017 2:000.0
3/16/2017 3:0022.03/16/2017 3:00837.53/16/2017 3:0003/16/2017 3:0096.003/16/2017 3:001.403/16/2017 3:0087.83/16/2017 3:0020.03/16/2017 3:0024.53/16/2017 3:0025.53/16/2017 3:000.0
3/16/2017 4:0022.23/16/2017 4:00837.43/16/2017 4:0003/16/2017 4:0066.003/16/2017 4:001.303/16/2017 4:0087.13/16/2017 4:0020.03/16/2017 4:0024.63/16/2017 4:0025.73/16/2017 4:000.0
3/16/2017 5:0022.13/16/2017 5:00837.43/16/2017 5:0003/16/2017 5:0076.003/16/2017 5:000.703/16/2017 5:0087.83/16/2017 5:0020.13/16/2017 5:0024.73/16/2017 5:0025.83/16/2017 5:000.0
3/16/2017 6:0022.03/16/2017 6:00837.43/16/2017 6:0003/16/2017 6:00110.003/16/2017 6:001.203/16/2017 6:0087.33/16/2017 6:0019.93/16/2017 6:0024.53/16/2017 6:0025.83/16/2017 6:000.0
3/16/2017 7:0022.23/16/2017 7:00837.43/16/2017 7:00193/16/2017 7:00123.003/16/2017 7:001.703/16/2017 7:0086.63/16/2017 7:0019.93/16/2017 7:0024.63/16/2017 7:0025.83/16/2017 7:000.0
3/16/2017 8:0022.63/16/2017 8:00837.43/16/2017 8:00753/16/2017 8:00113.003/16/2017 8:002.203/16/2017 8:0085.13/16/2017 8:0020.03/16/2017 8:0024.83/16/2017 8:0026.13/16/2017 8:000.0
3/16/2017 9:0023.83/16/2017 9:00837.33/16/2017 9:002163/16/2017 9:00136.003/16/2017 9:002.703/16/2017 9:0080.53/16/2017 9:0020.33/16/2017 9:0025.53/16/2017 9:0026.03/16/2017 9:000.0
3/16/2017 10:0023.73/16/2017 10:00837.13/16/2017 10:001783/16/2017 10:00207.003/16/2017 10:002.403/16/2017 10:0079.83/16/2017 10:0020.13/16/2017 10:0025.33/16/2017 10:0026.43/16/2017 10:000.0
3/16/2017 11:0024.33/16/2017 11:00837.13/16/2017 11:001853/16/2017 11:00170.003/16/2017 11:001.103/16/2017 11:0077.43/16/2017 11:0020.23/16/2017 11:0025.93/16/2017 11:0026.43/16/2017 11:000.0
3/16/2017 12:0026.03/16/2017 12:00836.93/16/2017 12:004413/16/2017 12:00104.003/16/2017 12:002.403/16/2017 12:0072.53/16/2017 12:0020.73/16/2017 12:0027.33/16/2017 12:0026.53/16/2017 12:000.0
3/16/2017 13:0026.03/16/2017 13:00836.83/16/2017 13:001433/16/2017 13:00162.003/16/2017 13:001.503/16/2017 13:0071.73/16/2017 13:0020.63/16/2017 13:0027.73/16/2017 13:0026.83/16/2017 13:000.0
3/16/2017 14:0025.63/16/2017 14:00836.83/16/2017 14:00643/16/2017 14:0077.003/16/2017 14:001.403/16/2017 14:0074.43/16/2017 14:0020.83/16/2017 14:0027.73/16/2017 14:0026.83/16/2017 14:000.0
3/16/2017 15:0024.83/16/2017 15:00837.03/16/2017 15:0093/16/2017 15:00341.003/16/2017 15:000.903/16/2017 15:0080.73/16/2017 15:0021.33/16/2017 15:0027.23/16/2017 15:0026.63/16/2017 15:000.0
3/16/2017 16:0023.53/16/2017 16:00837.13/16/2017 16:0083/16/2017 16:00285.003/16/2017 16:001.603/16/2017 16:0087.83/16/2017 16:0021.43/16/2017 16:0026.13/16/2017 16:0026.13/16/2017 16:001.1
3/16/2017 17:0022.93/16/2017 17:00837.13/16/2017 17:0053/16/2017 17:00282.003/16/2017 17:000.903/16/2017 17:0092.23/16/2017 17:0021.63/16/2017 17:0025.63/16/2017 17:0024.83/16/2017 17:001.4
3/16/2017 18:0022.73/16/2017 18:00837.23/16/2017 18:0023/16/2017 18:00323.003/16/2017 18:001.603/16/2017 18:0094.03/16/2017 18:0021.83/16/2017 18:0025.43/16/2017 18:0022.93/16/2017 18:002.9
3/16/2017 19:0022.63/16/2017 19:00837.33/16/2017 19:0003/16/2017 19:00321.003/16/2017 19:002.003/16/2017 19:0094.63/16/2017 19:0021.83/16/2017 19:0025.43/16/2017 19:0020.73/16/2017 19:001.8
3/16/2017 20:0022.53/16/2017 20:00837.33/16/2017 20:0003/16/2017 20:00306.003/16/2017 20:001.403/16/2017 20:0094.43/16/2017 20:0021.63/16/2017 20:0025.33/16/2017 20:0019.93/16/2017 20:000.1
3/16/2017 21:0022.73/16/2017 21:00837.33/16/2017 21:0003/16/2017 21:0011.003/16/2017 21:001.103/16/2017 21:0094.33/16/2017 21:0021.83/16/2017 21:0025.43/16/2017 21:0019.83/16/2017 21:000.1
3/16/2017 22:0022.83/16/2017 22:00837.43/16/2017 22:0003/16/2017 22:00139.003/16/2017 22:002.003/16/2017 22:0094.63/16/2017 22:0022.03/16/2017 22:0025.43/16/2017 22:0019.43/16/2017 22:000.5
3/16/2017 23:0022.43/16/2017 23:00837.43/16/2017 23:0003/16/2017 23:00159.003/16/2017 23:000.903/16/2017 23:0095.83/16/2017 23:0021.83/16/2017 23:0025.13/16/2017 23:0019.23/16/2017 23:000.0
3/17/2017 0:0022.73/17/2017 0:00837.33/17/2017 0:0003/17/2017 0:00135.003/17/2017 0:001.703/17/2017 0:0094.83/17/2017 0:0021.93/17/2017 0:0025.43/17/2017 0:0019.13/17/2017 0:000.0
3/17/2017 1:0022.53/17/2017 1:00837.33/17/2017 1:0003/17/2017 1:00172.003/17/2017 1:001.003/17/2017 1:0095.43/17/2017 1:0021.83/17/2017 1:0025.23/17/2017 1:0019.13/17/2017 1:000.0
3/17/2017 2:0022.33/17/2017 2:00837.33/17/2017 2:0003/17/2017 2:00156.003/17/2017 2:001.003/17/2017 2:0096.13/17/2017 2:0021.73/17/2017 2:0024.93/17/2017 2:0019.13/17/2017 2:000.0
3/17/2017 3:0022.23/17/2017 3:00837.33/17/2017 3:0003/17/2017 3:00170.003/17/2017 3:000.703/17/2017 3:0096.93/17/2017 3:0021.83/17/2017 3:0024.93/17/2017 3:0018.83/17/2017 3:000.0
3/17/2017 4:0021.83/17/2017 4:00837.33/17/2017 4:0003/17/2017 4:00154.003/17/2017 4:002.303/17/2017 4:0095.83/17/2017 4:0021.23/17/2017 4:0024.43/17/2017 4:0018.53/17/2017 4:000.1
3/17/2017 5:0021.33/17/2017 5:00837.23/17/2017 5:0003/17/2017 5:00107.003/17/2017 5:001.003/17/2017 5:0094.03/17/2017 5:0020.43/17/2017 5:0023.93/17/2017 5:0018.83/17/2017 5:000.0
3/17/2017 6:0021.43/17/2017 6:00837.23/17/2017 6:0003/17/2017 6:00319.003/17/2017 6:000.803/17/2017 6:0092.83/17/2017 6:0020.33/17/2017 6:0024.13/17/2017 6:0018.93/17/2017 6:000.0
3/17/2017 7:0021.53/17/2017 7:00837.53/17/2017 7:00133/17/2017 7:00313.003/17/2017 7:001.003/17/2017 7:0093.33/17/2017 7:0020.43/17/2017 7:0024.03/17/2017 7:0019.03/17/2017 7:000.0
3/17/2017 8:0022.03/17/2017 8:00837.53/17/2017 8:00533/17/2017 8:00333.003/17/2017 8:001.503/17/2017 8:0090.53/17/2017 8:0020.43/17/2017 8:0024.33/17/2017 8:0019.13/17/2017 8:000.0
3/17/2017 9:0023.53/17/2017 9:00837.53/17/2017 9:003643/17/2017 9:005.003/17/2017 9:001.603/17/2017 9:0083.23/17/2017 9:0020.63/17/2017 9:0025.13/17/2017 9:0018.83/17/2017 9:000.3
3/17/2017 10:0025.13/17/2017 10:00836.93/17/2017 10:006113/17/2017 10:00104.003/17/2017 10:001.903/17/2017 10:0074.43/17/2017 10:0020.33/17/2017 10:0025.83/17/2017 10:0019.23/17/2017 10:000.0
3/17/2017 11:0025.63/17/2017 11:00836.63/17/2017 11:005733/17/2017 11:0096.003/17/2017 11:002.303/17/2017 11:0072.63/17/2017 11:0020.43/17/2017 11:0026.73/17/2017 11:0019.33/17/2017 11:000.0
3/17/2017 12:0026.93/17/2017 12:00836.63/17/2017 12:005143/17/2017 12:0090.003/17/2017 12:001.303/17/2017 12:0065.83/17/2017 12:0020.03/17/2017 12:0027.43/17/2017 12:0019.53/17/2017 12:000.0
3/17/2017 13:0028.13/17/2017 13:00836.63/17/2017 13:007603/17/2017 13:00215.003/17/2017 13:002.003/17/2017 13:0055.53/17/2017 13:0018.43/17/2017 13:0028.33/17/2017 13:0019.93/17/2017 13:000.0
3/17/2017 14:0028.43/17/2017 14:00836.63/17/2017 14:004453/17/2017 14:00210.003/17/2017 14:002.103/17/2017 14:0054.33/17/2017 14:0018.43/17/2017 14:0028.93/17/2017 14:0020.43/17/2017 14:000.0
3/17/2017 15:0028.93/17/2017 15:00836.73/17/2017 15:004073/17/2017 15:00175.003/17/2017 15:002.103/17/2017 15:0053.83/17/2017 15:0018.73/17/2017 15:0029.23/17/2017 15:0020.63/17/2017 15:000.0
3/17/2017 16:0029.43/17/2017 16:00836.63/17/2017 16:004503/17/2017 16:00193.003/17/2017 16:001.603/17/2017 16:0051.93/17/2017 16:0018.63/17/2017 16:0029.43/17/2017 16:0021.13/17/2017 16:000.0
3/17/2017 17:0030.03/17/2017 17:00836.63/17/2017 17:003143/17/2017 17:00188.003/17/2017 17:002.003/17/2017 17:0048.53/17/2017 17:0018.03/17/2017 17:0029.93/17/2017 17:0022.03/17/2017 17:000.0
3/17/2017 18:0028.13/17/2017 18:00836.83/17/2017 18:00603/17/2017 18:00193.003/17/2017 18:001.103/17/2017 18:0054.73/17/2017 18:0018.23/17/2017 18:0029.43/17/2017 18:0022.13/17/2017 18:000.0
3/17/2017 19:0026.03/17/2017 19:00837.03/17/2017 19:0003/17/2017 19:00312.003/17/2017 19:001.003/17/2017 19:0071.83/17/2017 19:0020.63/17/2017 19:0028.33/17/2017 19:0021.73/17/2017 19:000.0
3/17/2017 20:0025.03/17/2017 20:00837.13/17/2017 20:0003/17/2017 20:0043.003/17/2017 20:001.203/17/2017 20:0077.93/17/2017 20:0020.93/17/2017 20:0027.63/17/2017 20:0021.73/17/2017 20:000.0
3/17/2017 21:0024.73/17/2017 21:00837.23/17/2017 21:0003/17/2017 21:0092.003/17/2017 21:002.303/17/2017 21:0079.73/17/2017 21:0021.03/17/2017 21:0027.13/17/2017 21:0022.13/17/2017 21:000.0
3/17/2017 22:0023.93/17/2017 22:00837.33/17/2017 22:0003/17/2017 22:0033.003/17/2017 22:001.103/17/2017 22:0082.33/17/2017 22:0020.83/17/2017 22:0026.43/17/2017 22:0022.33/17/2017 22:000.0
3/17/2017 23:0023.43/17/2017 23:00837.33/17/2017 23:0003/17/2017 23:0091.003/17/2017 23:001.303/17/2017 23:0083.03/17/2017 23:0020.43/17/2017 23:0025.93/17/2017 23:0022.53/17/2017 23:000.0
3/18/2017 0:0022.83/18/2017 0:00837.33/18/2017 0:0003/18/2017 0:0084.003/18/2017 0:000.603/18/2017 0:0086.23/18/2017 0:0020.43/18/2017 0:0025.63/18/2017 0:0022.63/18/2017 0:000.0
3/18/2017 1:0022.73/18/2017 1:00837.43/18/2017 1:0003/18/2017 1:00119.003/18/2017 1:001.103/18/2017 1:0088.33/18/2017 1:0020.73/18/2017 1:0025.33/18/2017 1:0022.73/18/2017 1:000.0
3/18/2017 2:0022.63/18/2017 2:00837.43/18/2017 2:0003/18/2017 2:00124.003/18/2017 2:001.503/18/2017 2:0088.33/18/2017 2:0020.63/18/2017 2:0025.13/18/2017 2:0022.83/18/2017 2:000.0
3/18/2017 3:0022.23/18/2017 3:00837.33/18/2017 3:0003/18/2017 3:00127.003/18/2017 3:001.303/18/2017 3:0089.33/18/2017 3:0020.43/18/2017 3:0024.83/18/2017 3:0022.93/18/2017 3:000.0
3/18/2017 4:0021.83/18/2017 4:00837.33/18/2017 4:0003/18/2017 4:00260.003/18/2017 4:000.803/18/2017 4:0091.43/18/2017 4:0020.43/18/2017 4:0024.43/18/2017 4:0022.93/18/2017 4:000.0
3/18/2017 5:0021.53/18/2017 5:00837.43/18/2017 5:0003/18/2017 5:00295.003/18/2017 5:000.803/18/2017 5:0092.93/18/2017 5:0020.43/18/2017 5:0024.23/18/2017 5:0023.03/18/2017 5:000.0
3/18/2017 6:0021.23/18/2017 6:00837.43/18/2017 6:0003/18/2017 6:00316.003/18/2017 6:001.203/18/2017 6:0094.43/18/2017 6:0020.33/18/2017 6:0024.03/18/2017 6:0023.03/18/2017 6:000.0
3/18/2017 7:0021.93/18/2017 7:00837.43/18/2017 7:00493/18/2017 7:00326.003/18/2017 7:002.303/18/2017 7:0091.53/18/2017 7:0020.53/18/2017 7:0024.23/18/2017 7:0022.93/18/2017 7:000.0
3/18/2017 8:0023.83/18/2017 8:00837.43/18/2017 8:002553/18/2017 8:00328.003/18/2017 8:002.203/18/2017 8:0084.33/18/2017 8:0021.13/18/2017 8:0025.23/18/2017 8:0023.23/18/2017 8:000.0
3/18/2017 9:0025.43/18/2017 9:00837.13/18/2017 9:004953/18/2017 9:00320.003/18/2017 9:001.403/18/2017 9:0075.53/18/2017 9:0020.83/18/2017 9:0026.13/18/2017 9:0024.03/18/2017 9:000.0
3/18/2017 10:0028.13/18/2017 10:00836.83/18/2017 10:006863/18/2017 10:0020.003/18/2017 10:001.103/18/2017 10:0063.43/18/2017 10:0020.63/18/2017 10:0027.83/18/2017 10:0024.33/18/2017 10:000.0
3/18/2017 11:0029.03/18/2017 11:00836.63/18/2017 11:008103/18/2017 11:00145.003/18/2017 11:001.903/18/2017 11:0059.43/18/2017 11:0020.43/18/2017 11:0029.13/18/2017 11:0024.43/18/2017 11:000.0
3/18/2017 12:0030.33/18/2017 12:00836.53/18/2017 12:008543/18/2017 12:00159.003/18/2017 12:002.403/18/2017 12:0053.43/18/2017 12:0019.83/18/2017 12:0030.23/18/2017 12:0024.13/18/2017 12:000.0
3/18/2017 13:0030.53/18/2017 13:00836.53/18/2017 13:008183/18/2017 13:00158.003/18/2017 13:003.403/18/2017 13:0053.13/18/2017 13:0019.93/18/2017 13:0030.93/18/2017 13:0024.83/18/2017 13:000.0
3/18/2017 14:0031.53/18/2017 14:00836.63/18/2017 14:009493/18/2017 14:00173.003/18/2017 14:003.303/18/2017 14:0050.23/18/2017 14:0020.03/18/2017 14:0031.53/18/2017 14:0025.33/18/2017 14:000.0
3/18/2017 15:0028.83/18/2017 15:00836.63/18/2017 15:001973/18/2017 15:00341.003/18/2017 15:002.303/18/2017 15:0061.13/18/2017 15:0020.63/18/2017 15:0030.03/18/2017 15:0025.83/18/2017 15:000.0
3/18/2017 16:0028.23/18/2017 16:00836.83/18/2017 16:001813/18/2017 16:00344.003/18/2017 16:002.503/18/2017 16:0063.13/18/2017 16:0020.63/18/2017 16:0029.73/18/2017 16:0026.23/18/2017 16:000.0
3/18/2017 17:0024.83/18/2017 17:00836.93/18/2017 17:0093/18/2017 17:0012.003/18/2017 17:003.303/18/2017 17:0078.43/18/2017 17:0020.93/18/2017 17:0026.93/18/2017 17:0026.83/18/2017 17:000.8
3/18/2017 18:0023.03/18/2017 18:00837.23/18/2017 18:0053/18/2017 18:0022.003/18/2017 18:001.903/18/2017 18:0085.73/18/2017 18:0020.53/18/2017 18:0025.43/18/2017 18:0025.93/18/2017 18:000.4
3/18/2017 19:0022.73/18/2017 19:00837.43/18/2017 19:0003/18/2017 19:00331.003/18/2017 19:001.803/18/2017 19:0089.23/18/2017 19:0020.93/18/2017 19:0025.33/18/2017 19:0025.33/18/2017 19:000.2
3/18/2017 20:0022.73/18/2017 20:00837.43/18/2017 20:0003/18/2017 20:00342.003/18/2017 20:001.203/18/2017 20:0088.93/18/2017 20:0020.83/18/2017 20:0025.43/18/2017 20:0025.63/18/2017 20:000.0
3/18/2017 21:0022.83/18/2017 21:00837.43/18/2017 21:0003/18/2017 21:00335.003/18/2017 21:000.603/18/2017 21:0090.03/18/2017 21:0021.13/18/2017 21:0025.53/18/2017 21:0025.83/18/2017 21:000.0
3/18/2017 22:0022.93/18/2017 22:00837.43/18/2017 22:0003/18/2017 22:0050.003/18/2017 22:001.003/18/2017 22:0089.73/18/2017 22:0021.23/18/2017 22:0025.63/18/2017 22:0026.13/18/2017 22:000.3
3/18/2017 23:0022.53/18/2017 23:00837.63/18/2017 23:0003/18/2017 23:00140.003/18/2017 23:001.703/18/2017 23:0093.43/18/2017 23:0021.53/18/2017 23:0025.13/18/2017 23:0020.63/18/2017 23:0014.4
3/19/2017 0:0022.13/19/2017 0:00837.63/19/2017 0:0003/19/2017 0:00146.003/19/2017 0:003.003/19/2017 0:0096.73/19/2017 0:0021.63/19/2017 0:0024.73/19/2017 0:0012.73/19/2017 0:000.0
3/19/2017 1:0021.73/19/2017 1:00837.63/19/2017 1:0003/19/2017 1:00122.003/19/2017 1:002.503/19/2017 1:0094.23/19/2017 1:0020.83/19/2017 1:0024.33/19/2017 1:0012.63/19/2017 1:000.0
3/19/2017 2:0021.83/19/2017 2:00837.73/19/2017 2:0003/19/2017 2:00112.003/19/2017 2:002.003/19/2017 2:0092.63/19/2017 2:0020.63/19/2017 2:0024.33/19/2017 2:0012.93/19/2017 2:000.0
3/19/2017 3:0021.83/19/2017 3:00837.83/19/2017 3:0003/19/2017 3:00140.003/19/2017 3:001.103/19/2017 3:0092.33/19/2017 3:0020.63/19/2017 3:0024.43/19/2017 3:0013.03/19/2017 3:000.0
3/19/2017 4:0021.53/19/2017 4:00837.73/19/2017 4:0003/19/2017 4:00198.003/19/2017 4:000.803/19/2017 4:0093.83/19/2017 4:0020.53/19/2017 4:0024.03/19/2017 4:0013.13/19/2017 4:000.0
3/19/2017 5:0021.23/19/2017 5:00837.73/19/2017 5:0003/19/2017 5:00191.003/19/2017 5:001.603/19/2017 5:0095.13/19/2017 5:0020.53/19/2017 5:0023.63/19/2017 5:0013.13/19/2017 5:000.0
3/19/2017 6:0021.03/19/2017 6:00837.73/19/2017 6:0003/19/2017 6:00143.003/19/2017 6:001.003/19/2017 6:0095.53/19/2017 6:0020.33/19/2017 6:0023.53/19/2017 6:0013.43/19/2017 6:000.0
3/19/2017 7:0021.43/19/2017 7:00837.73/19/2017 7:00343/19/2017 7:00103.003/19/2017 7:000.903/19/2017 7:0093.53/19/2017 7:0020.43/19/2017 7:0023.93/19/2017 7:0013.33/19/2017 7:000.0
3/19/2017 8:0023.73/19/2017 8:00837.63/19/2017 8:002553/19/2017 8:0083.003/19/2017 8:001.003/19/2017 8:0082.73/19/2017 8:0020.73/19/2017 8:0024.63/19/2017 8:0013.33/19/2017 8:000.0
3/19/2017 9:0025.23/19/2017 9:00837.23/19/2017 9:004783/19/2017 9:00118.003/19/2017 9:001.503/19/2017 9:0074.63/19/2017 9:0020.43/19/2017 9:0025.63/19/2017 9:0013.93/19/2017 9:000.0
3/19/2017 10:0025.93/19/2017 10:00837.03/19/2017 10:005783/19/2017 10:00117.003/19/2017 10:001.503/19/2017 10:0071.93/19/2017 10:0020.53/19/2017 10:0026.73/19/2017 10:0014.03/19/2017 10:000.0
3/19/2017 11:0027.13/19/2017 11:00836.93/19/2017 11:007663/19/2017 11:00177.003/19/2017 11:002.903/19/2017 11:0066.73/19/2017 11:0020.43/19/2017 11:0027.63/19/2017 11:0014.33/19/2017 11:000.0
3/19/2017 12:0027.93/19/2017 12:00836.83/19/2017 12:009073/19/2017 12:00166.003/19/2017 12:002.803/19/2017 12:0067.03/19/2017 12:0021.33/19/2017 12:0028.43/19/2017 12:0014.23/19/2017 12:000.0
3/19/2017 13:0028.03/19/2017 13:00836.83/19/2017 13:004953/19/2017 13:00170.003/19/2017 13:003.303/19/2017 13:0064.83/19/2017 13:0020.83/19/2017 13:0028.93/19/2017 13:0014.73/19/2017 13:000.0
3/19/2017 14:0025.53/19/2017 14:00837.13/19/2017 14:003503/19/2017 14:0014.003/19/2017 14:003.503/19/2017 14:0076.03/19/2017 14:0021.03/19/2017 14:0027.13/19/2017 14:0015.03/19/2017 14:000.0
3/19/2017 15:0025.43/19/2017 15:00837.23/19/2017 15:002223/19/2017 15:0055.003/19/2017 15:002.303/19/2017 15:0073.03/19/2017 15:0020.33/19/2017 15:0027.13/19/2017 15:0015.33/19/2017 15:000.0
3/19/2017 16:0025.93/19/2017 16:00837.23/19/2017 16:001403/19/2017 16:00356.003/19/2017 16:001.003/19/2017 16:0074.53/19/2017 16:0021.13/19/2017 16:0027.63/19/2017 16:0015.53/19/2017 16:000.0
3/19/2017 17:0026.13/19/2017 17:00837.33/19/2017 17:001523/19/2017 17:00101.003/19/2017 17:001.103/19/2017 17:0076.73/19/2017 17:0021.83/19/2017 17:0027.93/19/2017 17:0015.63/19/2017 17:000.0
3/19/2017 18:0026.43/19/2017 18:00837.23/19/2017 18:00743/19/2017 18:00133.003/19/2017 18:001.303/19/2017 18:0077.13/19/2017 18:0022.13/19/2017 18:0028.23/19/2017 18:0016.03/19/2017 18:000.0
3/19/2017 19:0024.43/19/2017 19:00837.33/19/2017 19:0003/19/2017 19:0076.003/19/2017 19:001.303/19/2017 19:0086.83/19/2017 19:0022.13/19/2017 19:0027.13/19/2017 19:0016.03/19/2017 19:000.0
3/19/2017 20:0023.93/19/2017 20:00837.43/19/2017 20:0003/19/2017 20:00312.003/19/2017 20:000.803/19/2017 20:0089.53/19/2017 20:0022.13/19/2017 20:0026.73/19/2017 20:0015.93/19/2017 20:000.0
3/19/2017 21:0023.53/19/2017 21:00837.53/19/2017 21:0003/19/2017 21:00321.003/19/2017 21:000.903/19/2017 21:0091.83/19/2017 21:0022.23/19/2017 21:0026.53/19/2017 21:0015.83/19/2017 21:000.0
3/19/2017 22:0023.33/19/2017 22:00837.63/19/2017 22:0003/19/2017 22:00317.003/19/2017 22:000.803/19/2017 22:0093.33/19/2017 22:0022.23/19/2017 22:0026.13/19/2017 22:0016.13/19/2017 22:000.0
3/19/2017 23:0023.33/19/2017 23:00837.83/19/2017 23:0003/19/2017 23:00138.003/19/2017 23:000.903/19/2017 23:0093.53/19/2017 23:0022.33/19/2017 23:0026.23/19/2017 23:0016.13/19/2017 23:000.0
3/20/2017 0:0023.23/20/2017 0:00837.83/20/2017 0:0003/20/2017 0:0022.003/20/2017 0:000.803/20/2017 0:0093.33/20/2017 0:0022.13/20/2017 0:0026.03/20/2017 0:0016.33/20/2017 0:000.0
3/20/2017 1:0023.13/20/2017 1:00837.83/20/2017 1:0003/20/2017 1:00345.003/20/2017 1:000.703/20/2017 1:0093.93/20/2017 1:0022.13/20/2017 1:0025.93/20/2017 1:0016.43/20/2017 1:000.0
3/20/2017 2:0022.93/20/2017 2:00837.83/20/2017 2:0003/20/2017 2:00336.003/20/2017 2:000.803/20/2017 2:0095.03/20/2017 2:0022.13/20/2017 2:0025.83/20/2017 2:0016.63/20/2017 2:000.0
3/20/2017 3:0023.03/20/2017 3:00837.83/20/2017 3:0003/20/2017 3:00323.003/20/2017 3:001.203/20/2017 3:0095.13/20/2017 3:0022.23/20/2017 3:0025.93/20/2017 3:0016.73/20/2017 3:000.0
3/20/2017 4:0023.13/20/2017 4:00837.63/20/2017 4:0003/20/2017 4:00326.003/20/2017 4:001.603/20/2017 4:0094.93/20/2017 4:0022.33/20/2017 4:0025.83/20/2017 4:0016.73/20/2017 4:000.0
3/20/2017 5:0023.03/20/2017 5:00837.63/20/2017 5:0003/20/2017 5:00317.003/20/2017 5:001.503/20/2017 5:0094.33/20/2017 5:0022.13/20/2017 5:0025.73/20/2017 5:0016.83/20/2017 5:000.0
3/20/2017 6:0022.63/20/2017 6:00837.73/20/2017 6:0003/20/2017 6:00332.003/20/2017 6:001.003/20/2017 6:0095.13/20/2017 6:0021.93/20/2017 6:0025.53/20/2017 6:0016.83/20/2017 6:000.0
3/20/2017 7:0022.83/20/2017 7:00837.83/20/2017 7:00523/20/2017 7:00322.003/20/2017 7:000.903/20/2017 7:0094.13/20/2017 7:0021.93/20/2017 7:0025.23/20/2017 7:0016.73/20/2017 7:000.0
3/20/2017 8:0024.53/20/2017 8:00837.63/20/2017 8:002393/20/2017 8:00325.003/20/2017 8:001.703/20/2017 8:0086.13/20/2017 8:0022.13/20/2017 8:0025.93/20/2017 8:0017.13/20/2017 8:000.0
3/20/2017 9:0025.53/20/2017 9:00837.33/20/2017 9:003143/20/2017 9:000.003/20/2017 9:001.203/20/2017 9:0080.83/20/2017 9:0022.03/20/2017 9:0026.63/20/2017 9:0017.63/20/2017 9:000.0
3/20/2017 10:0026.93/20/2017 10:00837.23/20/2017 10:006073/20/2017 10:0079.003/20/2017 10:001.203/20/2017 10:0075.23/20/2017 10:0022.23/20/2017 10:0027.43/20/2017 10:0017.43/20/2017 10:000.0
3/20/2017 11:0029.33/20/2017 11:00836.93/20/2017 11:008743/20/2017 11:00218.003/20/2017 11:002.203/20/2017 11:0059.13/20/2017 11:0020.63/20/2017 11:0029.33/20/2017 11:0017.83/20/2017 11:000.0
3/20/2017 12:0030.23/20/2017 12:00836.83/20/2017 12:008383/20/2017 12:00241.003/20/2017 12:002.403/20/2017 12:0052.53/20/2017 12:0019.53/20/2017 12:0030.53/20/2017 12:0018.13/20/2017 12:000.0
3/20/2017 13:0029.03/20/2017 13:00836.93/20/2017 13:003843/20/2017 13:0040.003/20/2017 13:002.003/20/2017 13:0061.13/20/2017 13:0020.83/20/2017 13:0030.13/20/2017 13:0018.73/20/2017 13:000.0
3/20/2017 14:0028.63/20/2017 14:00837.23/20/2017 14:001383/20/2017 14:00140.003/20/2017 14:001.703/20/2017 14:0061.83/20/2017 14:0020.63/20/2017 14:0030.33/20/2017 14:0018.83/20/2017 14:000.0
3/20/2017 15:0029.33/20/2017 15:00837.13/20/2017 15:003213/20/2017 15:00147.003/20/2017 15:001.303/20/2017 15:0058.43/20/2017 15:0020.43/20/2017 15:0030.23/20/2017 15:0019.33/20/2017 15:000.0
3/20/2017 16:0028.93/20/2017 16:00837.13/20/2017 16:002243/20/2017 16:0035.003/20/2017 16:002.003/20/2017 16:0061.43/20/2017 16:0020.83/20/2017 16:0030.13/20/2017 16:0019.93/20/2017 16:000.0
3/20/2017 17:0029.13/20/2017 17:00837.23/20/2017 17:001813/20/2017 17:0074.003/20/2017 17:001.203/20/2017 17:0061.93/20/2017 17:0021.13/20/2017 17:0030.53/20/2017 17:0019.73/20/2017 17:000.0
3/20/2017 18:0029.33/20/2017 18:00837.23/20/2017 18:00843/20/2017 18:0093.003/20/2017 18:001.503/20/2017 18:0062.43/20/2017 18:0021.43/20/2017 18:0030.73/20/2017 18:0020.63/20/2017 18:000.0
3/20/2017 19:0027.53/20/2017 19:00837.33/20/2017 19:0013/20/2017 19:00145.003/20/2017 19:001.403/20/2017 19:0069.33/20/2017 19:0021.43/20/2017 19:0030.03/20/2017 19:0020.63/20/2017 19:000.0
3/20/2017 20:0026.23/20/2017 20:00837.53/20/2017 20:0003/20/2017 20:00156.003/20/2017 20:001.203/20/2017 20:0073.93/20/2017 20:0021.33/20/2017 20:0028.83/20/2017 20:0020.43/20/2017 20:000.0
3/20/2017 21:0025.33/20/2017 21:00837.63/20/2017 21:0003/20/2017 21:00163.003/20/2017 21:000.903/20/2017 21:0078.23/20/2017 21:0021.33/20/2017 21:0028.03/20/2017 21:0020.23/20/2017 21:000.0
3/20/2017 22:0024.43/20/2017 22:00837.63/20/2017 22:0003/20/2017 22:00194.003/20/2017 22:001.003/20/2017 22:0084.33/20/2017 22:0021.73/20/2017 22:0027.43/20/2017 22:0020.53/20/2017 22:000.0
3/20/2017 23:0024.23/20/2017 23:00837.63/20/2017 23:0003/20/2017 23:00133.003/20/2017 23:000.703/20/2017 23:0086.03/20/2017 23:0021.83/20/2017 23:0027.13/20/2017 23:0020.63/20/2017 23:000.0
3/21/2017 0:0024.03/21/2017 0:00837.73/21/2017 0:0003/21/2017 0:00122.003/21/2017 0:000.903/21/2017 0:0086.83/21/2017 0:0021.73/21/2017 0:0026.83/21/2017 0:0020.43/21/2017 0:000.0
3/21/2017 1:0023.83/21/2017 1:00837.83/21/2017 1:0003/21/2017 1:00141.003/21/2017 1:000.703/21/2017 1:0088.73/21/2017 1:0021.93/21/2017 1:0026.63/21/2017 1:0020.53/21/2017 1:000.0
3/21/2017 2:0023.53/21/2017 2:00837.83/21/2017 2:0003/21/2017 2:00144.003/21/2017 2:001.003/21/2017 2:0089.03/21/2017 2:0021.73/21/2017 2:0026.13/21/2017 2:0020.73/21/2017 2:000.0
3/21/2017 3:0023.33/21/2017 3:00837.83/21/2017 3:0003/21/2017 3:00119.003/21/2017 3:001.003/21/2017 3:0088.93/21/2017 3:0021.43/21/2017 3:0025.93/21/2017 3:0020.83/21/2017 3:000.0
3/21/2017 4:0023.13/21/2017 4:00837.93/21/2017 4:0003/21/2017 4:00154.003/21/2017 4:001.303/21/2017 4:0088.53/21/2017 4:0021.23/21/2017 4:0025.63/21/2017 4:0020.83/21/2017 4:000.0
3/21/2017 5:0022.83/21/2017 5:00837.93/21/2017 5:0003/21/2017 5:00182.003/21/2017 5:001.303/21/2017 5:0090.03/21/2017 5:0021.13/21/2017 5:0025.43/21/2017 5:0020.83/21/2017 5:000.0
3/21/2017 6:0022.73/21/2017 6:00837.93/21/2017 6:0003/21/2017 6:00143.003/21/2017 6:001.603/21/2017 6:0090.83/21/2017 6:0021.23/21/2017 6:0025.33/21/2017 6:0021.03/21/2017 6:000.0
3/21/2017 7:0022.83/21/2017 7:00837.93/21/2017 7:00153/21/2017 7:00115.003/21/2017 7:001.703/21/2017 7:0090.63/21/2017 7:0021.33/21/2017 7:0025.43/21/2017 7:0021.03/21/2017 7:000.0
3/21/2017 8:0023.83/21/2017 8:00838.03/21/2017 8:00863/21/2017 8:00117.003/21/2017 8:000.903/21/2017 8:0087.23/21/2017 8:0021.63/21/2017 8:0026.03/21/2017 8:0021.03/21/2017 8:000.0
3/21/2017 9:0023.93/21/2017 9:00837.93/21/2017 9:002573/21/2017 9:0078.003/21/2017 9:001.503/21/2017 9:0084.03/21/2017 9:0021.13/21/2017 9:0025.73/21/2017 9:0019.63/21/2017 9:002.5
3/21/2017 10:0022.43/21/2017 10:00837.83/21/2017 10:00673/21/2017 10:00330.003/21/2017 10:004.603/21/2017 10:0087.43/21/2017 10:0020.33/21/2017 10:0024.33/21/2017 10:0016.73/21/2017 10:0022.5
3/21/2017 11:0020.33/21/2017 11:00837.93/21/2017 11:00533/21/2017 11:00326.003/21/2017 11:003.403/21/2017 11:0097.13/21/2017 11:0019.93/21/2017 11:0022.93/21/2017 11:000.33/21/2017 11:0027.1
3/21/2017 12:0020.53/21/2017 12:00838.03/21/2017 12:00843/21/2017 12:00322.003/21/2017 12:003.203/21/2017 12:0096.53/21/2017 12:0020.03/21/2017 12:0023.03/21/2017 12:000.33/21/2017 12:004.4
3/21/2017 13:0020.53/21/2017 13:00838.03/21/2017 13:00933/21/2017 13:0090.003/21/2017 13:001.603/21/2017 13:0096.93/21/2017 13:0020.13/21/2017 13:0022.83/21/2017 13:000.33/21/2017 13:008.0
3/21/2017 14:0021.53/21/2017 14:00837.93/21/2017 14:002463/21/2017 14:00107.003/21/2017 14:002.103/21/2017 14:0092.13/21/2017 14:0020.23/21/2017 14:0023.63/21/2017 14:000.33/21/2017 14:000.0
3/21/2017 15:0021.63/21/2017 15:00837.83/21/2017 15:00953/21/2017 15:00134.003/21/2017 15:002.503/21/2017 15:0091.53/21/2017 15:0020.23/21/2017 15:0023.83/21/2017 15:000.33/21/2017 15:000.0
3/21/2017 16:0021.23/21/2017 16:00837.73/21/2017 16:00783/21/2017 16:00144.003/21/2017 16:002.303/21/2017 16:0094.43/21/2017 16:0020.33/21/2017 16:0023.43/21/2017 16:000.33/21/2017 16:000.3
3/21/2017 17:0021.43/21/2017 17:00837.73/21/2017 17:00683/21/2017 17:00123.003/21/2017 17:001.803/21/2017 17:0091.73/21/2017 17:0020.13/21/2017 17:0023.73/21/2017 17:000.33/21/2017 17:000.0
3/21/2017 18:0021.43/21/2017 18:00837.73/21/2017 18:00103/21/2017 18:00122.003/21/2017 18:001.603/21/2017 18:0092.73/21/2017 18:0020.23/21/2017 18:0023.83/21/2017 18:000.33/21/2017 18:000.4
3/21/2017 19:0021.13/21/2017 19:00837.73/21/2017 19:0003/21/2017 19:00158.003/21/2017 19:001.203/21/2017 19:0094.43/21/2017 19:0020.23/21/2017 19:0023.63/21/2017 19:000.33/21/2017 19:000.3
3/21/2017 20:0020.83/21/2017 20:00837.73/21/2017 20:0003/21/2017 20:00225.003/21/2017 20:000.703/21/2017 20:0095.53/21/2017 20:0020.13/21/2017 20:0023.23/21/2017 20:000.33/21/2017 20:000.0
3/21/2017 21:0020.53/21/2017 21:00837.83/21/2017 21:0003/21/2017 21:00206.003/21/2017 21:000.803/21/2017 21:0096.83/21/2017 21:0020.03/21/2017 21:0023.13/21/2017 21:000.33/21/2017 21:000.0
3/21/2017 22:0020.73/21/2017 22:00837.83/21/2017 22:0003/21/2017 22:00255.003/21/2017 22:000.703/21/2017 22:0097.03/21/2017 22:0020.33/21/2017 22:0023.43/21/2017 22:000.33/21/2017 22:000.0
3/21/2017 23:0020.93/21/2017 23:00837.83/21/2017 23:0003/21/2017 23:00177.003/21/2017 23:001.003/21/2017 23:0097.03/21/2017 23:0020.53/21/2017 23:0023.53/21/2017 23:000.33/21/2017 23:000.0
3/22/2017 0:0021.03/22/2017 0:00837.83/22/2017 0:0003/22/2017 0:0014.003/22/2017 0:000.703/22/2017 0:0097.23/22/2017 0:0020.63/22/2017 0:0023.73/22/2017 0:000.33/22/2017 0:000.0
3/22/2017 1:0021.13/22/2017 1:00837.93/22/2017 1:0003/22/2017 1:0087.003/22/2017 1:001.003/22/2017 1:0093.83/22/2017 1:0020.13/22/2017 1:0023.73/22/2017 1:000.33/22/2017 1:000.0
3/22/2017 2:0021.23/22/2017 2:00837.83/22/2017 2:0003/22/2017 2:00349.003/22/2017 2:001.003/22/2017 2:0092.83/22/2017 2:0020.13/22/2017 2:0023.83/22/2017 2:000.33/22/2017 2:000.0
3/22/2017 3:0021.13/22/2017 3:00837.73/22/2017 3:0003/22/2017 3:00312.003/22/2017 3:001.103/22/2017 3:0094.73/22/2017 3:0020.33/22/2017 3:0023.73/22/2017 3:000.33/22/2017 3:000.0
3/22/2017 4:0021.23/22/2017 4:00837.83/22/2017 4:0003/22/2017 4:00316.003/22/2017 4:001.203/22/2017 4:0094.63/22/2017 4:0020.43/22/2017 4:0023.83/22/2017 4:000.33/22/2017 4:000.0
3/22/2017 5:0021.23/22/2017 5:00837.73/22/2017 5:0003/22/2017 5:00320.003/22/2017 5:001.803/22/2017 5:0094.53/22/2017 5:0020.43/22/2017 5:0023.73/22/2017 5:000.33/22/2017 5:000.0
3/22/2017 6:0021.03/22/2017 6:00837.73/22/2017 6:0003/22/2017 6:00313.003/22/2017 6:001.703/22/2017 6:0095.03/22/2017 6:0020.23/22/2017 6:0023.63/22/2017 6:000.33/22/2017 6:000.0
3/22/2017 7:0021.33/22/2017 7:00837.73/22/2017 7:00413/22/2017 7:00317.003/22/2017 7:001.803/22/2017 7:0094.13/22/2017 7:0020.43/22/2017 7:0023.63/22/2017 7:000.33/22/2017 7:000.0
3/22/2017 8:0021.83/22/2017 8:00837.73/22/2017 8:001013/22/2017 8:00319.003/22/2017 8:002.203/22/2017 8:0092.83/22/2017 8:0020.73/22/2017 8:0024.13/22/2017 8:000.33/22/2017 8:000.0
3/22/2017 9:0023.33/22/2017 9:00837.43/22/2017 9:003603/22/2017 9:00335.003/22/2017 9:002.003/22/2017 9:0087.13/22/2017 9:0021.13/22/2017 9:0024.93/22/2017 9:009.53/22/2017 9:000.0
3/22/2017 10:0025.03/22/2017 10:00837.13/22/2017 10:006493/22/2017 10:00347.003/22/2017 10:001.803/22/2017 10:0077.43/22/2017 10:0020.83/22/2017 10:0025.93/22/2017 10:0027.63/22/2017 10:000.0
3/22/2017 11:0026.73/22/2017 11:00836.73/22/2017 11:006893/22/2017 11:00194.003/22/2017 11:001.803/22/2017 11:0070.63/22/2017 11:0021.03/22/2017 11:0027.33/22/2017 11:0043.23/22/2017 11:000.0
3/22/2017 12:0027.33/22/2017 12:00836.63/22/2017 12:007773/22/2017 12:00237.003/22/2017 12:003.103/22/2017 12:0067.53/22/2017 12:0020.83/22/2017 12:0028.33/22/2017 12:0038.83/22/2017 12:000.0
3/22/2017 13:0027.53/22/2017 13:00836.53/22/2017 13:003893/22/2017 13:00226.003/22/2017 13:002.403/22/2017 13:0068.23/22/2017 13:0021.23/22/2017 13:0028.73/22/2017 13:0023.53/22/2017 13:000.0
3/22/2017 14:0028.53/22/2017 14:00836.63/22/2017 14:007643/22/2017 14:00234.003/22/2017 14:003.503/22/2017 14:0064.33/22/2017 14:0021.23/22/2017 14:0029.53/22/2017 14:0013.23/22/2017 14:000.0
3/22/2017 15:0029.23/22/2017 15:00836.63/22/2017 15:006043/22/2017 15:00223.003/22/2017 15:002.803/22/2017 15:0060.53/22/2017 15:0020.83/22/2017 15:0030.03/22/2017 15:005.63/22/2017 15:000.0
3/22/2017 16:0028.93/22/2017 16:00836.73/22/2017 16:002653/22/2017 16:00255.003/22/2017 16:002.303/22/2017 16:0059.33/22/2017 16:0020.23/22/2017 16:0030.23/22/2017 16:003.53/22/2017 16:000.0
3/22/2017 17:0029.93/22/2017 17:00836.63/22/2017 17:002713/22/2017 17:00237.003/22/2017 17:001.603/22/2017 17:0055.93/22/2017 17:0020.23/22/2017 17:0030.53/22/2017 17:007.13/22/2017 17:000.0
3/22/2017 18:0028.93/22/2017 18:00836.63/22/2017 18:00883/22/2017 18:00220.003/22/2017 18:001.803/22/2017 18:0059.33/22/2017 18:0020.23/22/2017 18:0030.23/22/2017 18:007.73/22/2017 18:000.0
3/22/2017 19:0026.33/22/2017 19:00836.83/22/2017 19:0013/22/2017 19:00258.003/22/2017 19:001.103/22/2017 19:0071.93/22/2017 19:0020.93/22/2017 19:0028.53/22/2017 19:007.63/22/2017 19:000.0
3/22/2017 20:0024.33/22/2017 20:00837.13/22/2017 20:0003/22/2017 20:00284.003/22/2017 20:000.803/22/2017 20:0080.23/22/2017 20:0020.73/22/2017 20:0027.23/22/2017 20:007.53/22/2017 20:000.0
3/22/2017 21:0023.83/22/2017 21:00837.13/22/2017 21:0003/22/2017 21:00292.003/22/2017 21:000.903/22/2017 21:0083.73/22/2017 21:0020.93/22/2017 21:0026.83/22/2017 21:007.33/22/2017 21:000.0
3/22/2017 22:0022.93/22/2017 22:00837.33/22/2017 22:0003/22/2017 22:00319.003/22/2017 22:000.603/22/2017 22:0089.13/22/2017 22:0021.13/22/2017 22:0025.93/22/2017 22:007.63/22/2017 22:000.0
3/22/2017 23:0022.53/22/2017 23:00837.43/22/2017 23:0003/22/2017 23:00319.003/22/2017 23:000.903/22/2017 23:0091.03/22/2017 23:0021.03/22/2017 23:0025.53/22/2017 23:007.63/22/2017 23:000.0
3/23/2017 0:0022.13/23/2017 0:00837.43/23/2017 0:0003/23/2017 0:00336.003/23/2017 0:001.003/23/2017 0:0094.13/23/2017 0:0021.23/23/2017 0:0025.13/23/2017 0:007.73/23/2017 0:000.0
3/23/2017 1:0022.03/23/2017 1:00837.43/23/2017 1:0003/23/2017 1:00333.003/23/2017 1:001.203/23/2017 1:0095.93/23/2017 1:0021.43/23/2017 1:0024.93/23/2017 1:007.93/23/2017 1:000.0
3/23/2017 2:0021.63/23/2017 2:00837.43/23/2017 2:0003/23/2017 2:00334.003/23/2017 2:001.203/23/2017 2:0096.43/23/2017 2:0021.13/23/2017 2:0024.43/23/2017 2:008.13/23/2017 2:000.0
3/23/2017 3:0021.43/23/2017 3:00837.53/23/2017 3:0003/23/2017 3:00330.003/23/2017 3:001.903/23/2017 3:0094.23/23/2017 3:0020.53/23/2017 3:0024.03/23/2017 3:008.33/23/2017 3:000.0
3/23/2017 4:0021.23/23/2017 4:00837.53/23/2017 4:0003/23/2017 4:00327.003/23/2017 4:001.803/23/2017 4:0093.83/23/2017 4:0020.23/23/2017 4:0023.83/23/2017 4:008.53/23/2017 4:000.0
3/23/2017 5:0021.13/23/2017 5:00837.43/23/2017 5:0003/23/2017 5:00327.003/23/2017 5:002.203/23/2017 5:0093.73/23/2017 5:0020.13/23/2017 5:0023.63/23/2017 5:008.53/23/2017 5:000.0
3/23/2017 6:0020.83/23/2017 6:00837.43/23/2017 6:0003/23/2017 6:00336.003/23/2017 6:001.403/23/2017 6:0093.93/23/2017 6:0019.93/23/2017 6:0023.43/23/2017 6:008.13/23/2017 6:000.0
3/23/2017 7:0021.13/23/2017 7:00837.33/23/2017 7:00533/23/2017 7:00335.003/23/2017 7:001.503/23/2017 7:0092.53/23/2017 7:0019.93/23/2017 7:0023.33/23/2017 7:008.13/23/2017 7:000.0
3/23/2017 8:0023.13/23/2017 8:00837.23/23/2017 8:002563/23/2017 8:00347.003/23/2017 8:001.303/23/2017 8:0080.03/23/2017 8:0019.53/23/2017 8:0023.83/23/2017 8:008.53/23/2017 8:000.0
3/23/2017 9:0024.33/23/2017 9:00836.93/23/2017 9:004953/23/2017 9:00344.003/23/2017 9:001.703/23/2017 9:0074.83/23/2017 9:0019.63/23/2017 9:0024.73/23/2017 9:009.03/23/2017 9:000.0
3/23/2017 10:0025.53/23/2017 10:00836.83/23/2017 10:006843/23/2017 10:00334.003/23/2017 10:001.803/23/2017 10:0071.33/23/2017 10:0020.03/23/2017 10:0026.13/23/2017 10:009.23/23/2017 10:000.0
3/23/2017 11:0028.33/23/2017 11:00836.73/23/2017 11:008203/23/2017 11:0042.003/23/2017 11:001.203/23/2017 11:0065.33/23/2017 11:0021.23/23/2017 11:0028.23/23/2017 11:009.23/23/2017 11:000.0
3/23/2017 12:0028.63/23/2017 12:00836.53/23/2017 12:008933/23/2017 12:0026.003/23/2017 12:002.003/23/2017 12:0064.43/23/2017 12:0021.33/23/2017 12:0029.23/23/2017 12:009.53/23/2017 12:000.0
3/23/2017 13:0029.53/23/2017 13:00836.63/23/2017 13:009023/23/2017 13:00354.003/23/2017 13:002.103/23/2017 13:0060.13/23/2017 13:0021.03/23/2017 13:0030.03/23/2017 13:009.63/23/2017 13:000.0
3/23/2017 14:0030.43/23/2017 14:00836.83/23/2017 14:008623/23/2017 14:001.003/23/2017 14:002.103/23/2017 14:0057.83/23/2017 14:0021.23/23/2017 14:0030.73/23/2017 14:0010.13/23/2017 14:000.0
3/23/2017 15:0031.13/23/2017 15:00836.73/23/2017 15:007383/23/2017 15:0035.003/23/2017 15:002.003/23/2017 15:0054.13/23/2017 15:0020.83/23/2017 15:0031.33/23/2017 15:0010.93/23/2017 15:000.0
3/23/2017 16:0031.43/23/2017 16:00836.73/23/2017 16:004583/23/2017 16:0025.003/23/2017 16:001.903/23/2017 16:0050.43/23/2017 16:0019.93/23/2017 16:0031.73/23/2017 16:0011.73/23/2017 16:000.0
3/23/2017 17:0031.33/23/2017 17:00836.83/23/2017 17:002893/23/2017 17:0055.003/23/2017 17:001.803/23/2017 17:0048.93/23/2017 17:0019.43/23/2017 17:0031.83/23/2017 17:0012.23/23/2017 17:000.0
3/23/2017 18:0030.63/23/2017 18:00836.93/23/2017 18:00823/23/2017 18:0033.003/23/2017 18:001.103/23/2017 18:0050.93/23/2017 18:0019.43/23/2017 18:0031.63/23/2017 18:0012.63/23/2017 18:000.0
3/23/2017 19:0027.43/23/2017 19:00837.23/23/2017 19:0013/23/2017 19:00285.003/23/2017 19:001.003/23/2017 19:0068.93/23/2017 19:0021.33/23/2017 19:0029.73/23/2017 19:0012.33/23/2017 19:000.0
3/23/2017 20:0025.63/23/2017 20:00837.33/23/2017 20:0003/23/2017 20:00293.003/23/2017 20:001.103/23/2017 20:0073.93/23/2017 20:0020.73/23/2017 20:0028.43/23/2017 20:0012.33/23/2017 20:000.0
3/23/2017 21:0024.93/23/2017 21:00837.63/23/2017 21:0003/23/2017 21:00333.003/23/2017 21:000.703/23/2017 21:0075.33/23/2017 21:0020.33/23/2017 21:0027.93/23/2017 21:0012.43/23/2017 21:000.0
3/23/2017 22:0024.33/23/2017 22:00837.73/23/2017 22:0003/23/2017 22:0064.003/23/2017 22:000.603/23/2017 22:0079.73/23/2017 22:0020.63/23/2017 22:0027.53/23/2017 22:0013.03/23/2017 22:000.0
3/23/2017 23:0024.13/23/2017 23:00837.73/23/2017 23:0003/23/2017 23:00147.003/23/2017 23:001.003/23/2017 23:0084.73/23/2017 23:0021.43/23/2017 23:0026.93/23/2017 23:0013.03/23/2017 23:000.0
3/24/2017 0:0023.73/24/2017 0:00837.83/24/2017 0:0003/24/2017 0:0050.003/24/2017 0:000.803/24/2017 0:0086.73/24/2017 0:0021.43/24/2017 0:0026.63/24/2017 0:0013.13/24/2017 0:000.0
3/24/2017 1:0022.93/24/2017 1:00837.83/24/2017 1:0003/24/2017 1:00339.003/24/2017 1:000.503/24/2017 1:0091.63/24/2017 1:0021.53/24/2017 1:0026.03/24/2017 1:0013.33/24/2017 1:000.0
3/24/2017 2:0022.53/24/2017 2:00837.83/24/2017 2:0003/24/2017 2:0035.003/24/2017 2:000.503/24/2017 2:0093.23/24/2017 2:0021.43/24/2017 2:0025.53/24/2017 2:0013.53/24/2017 2:000.0
3/24/2017 3:0022.33/24/2017 3:00837.93/24/2017 3:0003/24/2017 3:00351.003/24/2017 3:000.703/24/2017 3:0094.63/24/2017 3:0021.53/24/2017 3:0025.23/24/2017 3:0013.43/24/2017 3:000.0
3/24/2017 4:0022.23/24/2017 4:00838.13/24/2017 4:0003/24/2017 4:00342.003/24/2017 4:000.803/24/2017 4:0094.03/24/2017 4:0021.33/24/2017 4:0025.13/24/2017 4:0013.53/24/2017 4:000.0
3/24/2017 5:0022.03/24/2017 5:00838.13/24/2017 5:0003/24/2017 5:0067.003/24/2017 5:001.003/24/2017 5:0090.83/24/2017 5:0020.53/24/2017 5:0024.73/24/2017 5:0013.73/24/2017 5:000.0
3/24/2017 6:0021.73/24/2017 6:00838.13/24/2017 6:0003/24/2017 6:00341.003/24/2017 6:000.903/24/2017 6:0094.23/24/2017 6:0020.83/24/2017 6:0024.53/24/2017 6:0013.83/24/2017 6:000.0
3/24/2017 7:0022.23/24/2017 7:00838.03/24/2017 7:00533/24/2017 7:00344.003/24/2017 7:001.203/24/2017 7:0092.33/24/2017 7:0021.03/24/2017 7:0024.63/24/2017 7:0013.73/24/2017 7:000.0
3/24/2017 8:0024.03/24/2017 8:00837.83/24/2017 8:002433/24/2017 8:00334.003/24/2017 8:001.603/24/2017 8:0083.83/24/2017 8:0021.23/24/2017 8:0025.43/24/2017 8:0014.03/24/2017 8:000.0
3/24/2017 9:0025.53/24/2017 9:00837.53/24/2017 9:004763/24/2017 9:00337.003/24/2017 9:002.203/24/2017 9:0077.03/24/2017 9:0021.23/24/2017 9:0026.63/24/2017 9:0014.43/24/2017 9:000.0
3/24/2017 10:0028.53/24/2017 10:00837.33/24/2017 10:006903/24/2017 10:00333.003/24/2017 10:001.103/24/2017 10:0060.53/24/2017 10:0020.23/24/2017 10:0028.33/24/2017 10:0014.63/24/2017 10:000.0
3/24/2017 11:0030.73/24/2017 11:00837.03/24/2017 11:008403/24/2017 11:00171.003/24/2017 11:001.903/24/2017 11:0052.03/24/2017 11:0019.83/24/2017 11:0030.33/24/2017 11:0014.83/24/2017 11:000.0
3/24/2017 12:0031.93/24/2017 12:00836.93/24/2017 12:009283/24/2017 12:00186.003/24/2017 12:002.303/24/2017 12:0048.23/24/2017 12:0019.73/24/2017 12:0031.53/24/2017 12:0014.93/24/2017 12:000.0
3/24/2017 13:0032.43/24/2017 13:00836.93/24/2017 13:009343/24/2017 13:00202.003/24/2017 13:002.003/24/2017 13:0045.53/24/2017 13:0019.23/24/2017 13:0032.03/24/2017 13:0015.53/24/2017 13:000.0
3/24/2017 14:0033.43/24/2017 14:00836.93/24/2017 14:008993/24/2017 14:00195.003/24/2017 14:002.003/24/2017 14:0043.03/24/2017 14:0019.23/24/2017 14:0032.73/24/2017 14:0016.23/24/2017 14:000.0
3/24/2017 15:0033.53/24/2017 15:00837.03/24/2017 15:006483/24/2017 15:00269.003/24/2017 15:001.703/24/2017 15:0042.03/24/2017 15:0018.93/24/2017 15:0033.03/24/2017 15:0017.03/24/2017 15:000.0
3/24/2017 16:0032.43/24/2017 16:00837.03/24/2017 16:003153/24/2017 16:00341.003/24/2017 16:001.103/24/2017 16:0047.73/24/2017 16:0020.03/24/2017 16:0032.83/24/2017 16:0017.43/24/2017 16:000.0
3/24/2017 17:0032.43/24/2017 17:00837.03/24/2017 17:002113/24/2017 17:00205.003/24/2017 17:001.403/24/2017 17:0047.13/24/2017 17:0019.83/24/2017 17:0032.83/24/2017 17:0018.03/24/2017 17:000.0
3/24/2017 18:0030.73/24/2017 18:00837.03/24/2017 18:00493/24/2017 18:00199.003/24/2017 18:001.603/24/2017 18:0052.73/24/2017 18:0020.03/24/2017 18:0032.33/24/2017 18:0018.63/24/2017 18:000.0
3/24/2017 19:0028.93/24/2017 19:00837.23/24/2017 19:0003/24/2017 19:00200.003/24/2017 19:001.903/24/2017 19:0062.73/24/2017 19:0021.13/24/2017 19:0031.23/24/2017 19:0018.63/24/2017 19:000.0
3/24/2017 20:0028.33/24/2017 20:00837.33/24/2017 20:0003/24/2017 20:00219.003/24/2017 20:003.003/24/2017 20:0063.83/24/2017 20:0020.93/24/2017 20:0030.63/24/2017 20:0019.23/24/2017 20:000.0
3/24/2017 21:0027.43/24/2017 21:00837.63/24/2017 21:0003/24/2017 21:00195.003/24/2017 21:001.203/24/2017 21:0066.13/24/2017 21:0020.63/24/2017 21:0029.73/24/2017 21:0019.33/24/2017 21:000.0
3/24/2017 22:0026.53/24/2017 22:00837.73/24/2017 22:0003/24/2017 22:00174.003/24/2017 22:003.203/24/2017 22:0067.63/24/2017 22:0020.13/24/2017 22:0028.73/24/2017 22:0019.63/24/2017 22:000.0
3/24/2017 23:0024.63/24/2017 23:00837.63/24/2017 23:0003/24/2017 23:00147.003/24/2017 23:003.103/24/2017 23:0076.03/24/2017 23:0020.23/24/2017 23:0026.83/24/2017 23:0020.03/24/2017 23:000.0
3/25/2017 0:0023.43/25/2017 0:00837.73/25/2017 0:0003/25/2017 0:00124.003/25/2017 0:001.903/25/2017 0:0084.13/25/2017 0:0020.63/25/2017 0:0025.73/25/2017 0:0020.13/25/2017 0:000.0
3/25/2017 1:0023.13/25/2017 1:00837.83/25/2017 1:0003/25/2017 1:00146.003/25/2017 1:001.003/25/2017 1:0083.73/25/2017 1:0020.33/25/2017 1:0025.63/25/2017 1:0020.13/25/2017 1:000.0
3/25/2017 2:0023.33/25/2017 2:00837.93/25/2017 2:0003/25/2017 2:00309.003/25/2017 2:001.503/25/2017 2:0086.33/25/2017 2:0021.03/25/2017 2:0025.83/25/2017 2:0020.33/25/2017 2:000.0
3/25/2017 3:0023.23/25/2017 3:00837.83/25/2017 3:0003/25/2017 3:00315.003/25/2017 3:001.103/25/2017 3:0085.93/25/2017 3:0020.83/25/2017 3:0025.73/25/2017 3:0020.43/25/2017 3:000.0
3/25/2017 4:0022.93/25/2017 4:00837.93/25/2017 4:0003/25/2017 4:00316.003/25/2017 4:001.403/25/2017 4:0085.13/25/2017 4:0020.33/25/2017 4:0025.43/25/2017 4:0020.73/25/2017 4:000.0
3/25/2017 5:0022.63/25/2017 5:00837.83/25/2017 5:0003/25/2017 5:00316.003/25/2017 5:001.203/25/2017 5:0087.73/25/2017 5:0020.53/25/2017 5:0025.33/25/2017 5:0020.53/25/2017 5:000.0
3/25/2017 6:0022.33/25/2017 6:00837.83/25/2017 6:0003/25/2017 6:00305.003/25/2017 6:000.803/25/2017 6:0091.63/25/2017 6:0020.93/25/2017 6:0025.13/25/2017 6:0020.43/25/2017 6:000.0
3/25/2017 7:0022.73/25/2017 7:00837.93/25/2017 7:00383/25/2017 7:00334.003/25/2017 7:001.303/25/2017 7:0091.23/25/2017 7:0021.33/25/2017 7:0025.23/25/2017 7:0020.53/25/2017 7:000.0
3/25/2017 8:0024.53/25/2017 8:00837.83/25/2017 8:002133/25/2017 8:00321.003/25/2017 8:001.803/25/2017 8:0083.53/25/2017 8:0021.63/25/2017 8:0026.13/25/2017 8:0020.73/25/2017 8:000.0
3/25/2017 9:0025.43/25/2017 9:00837.53/25/2017 9:002953/25/2017 9:00328.003/25/2017 9:001.403/25/2017 9:0078.73/25/2017 9:0021.53/25/2017 9:0026.83/25/2017 9:0021.13/25/2017 9:000.0
3/25/2017 10:0027.43/25/2017 10:00837.43/25/2017 10:005253/25/2017 10:00358.003/25/2017 10:001.303/25/2017 10:0068.23/25/2017 10:0021.13/25/2017 10:0027.83/25/2017 10:0021.33/25/2017 10:000.0
3/25/2017 11:0028.53/25/2017 11:00837.23/25/2017 11:007803/25/2017 11:002.003/25/2017 11:001.603/25/2017 11:0063.83/25/2017 11:0021.13/25/2017 11:0028.83/25/2017 11:0021.53/25/2017 11:000.0
3/25/2017 12:0030.13/25/2017 12:00836.93/25/2017 12:008023/25/2017 12:0037.003/25/2017 12:001.403/25/2017 12:0056.93/25/2017 12:0020.73/25/2017 12:0030.13/25/2017 12:0021.73/25/2017 12:000.0
3/25/2017 13:0030.73/25/2017 13:00836.83/25/2017 13:007773/25/2017 13:00154.003/25/2017 13:001.903/25/2017 13:0053.13/25/2017 13:0020.13/25/2017 13:0030.83/25/2017 13:0021.93/25/2017 13:000.0
3/25/2017 14:0031.03/25/2017 14:00836.83/25/2017 14:006763/25/2017 14:00359.003/25/2017 14:002.003/25/2017 14:0053.13/25/2017 14:0020.43/25/2017 14:0031.13/25/2017 14:0022.63/25/2017 14:000.0
3/25/2017 15:0031.93/25/2017 15:00836.83/25/2017 15:005803/25/2017 15:00336.003/25/2017 15:001.603/25/2017 15:0050.83/25/2017 15:0020.53/25/2017 15:0031.63/25/2017 15:0023.13/25/2017 15:000.0
3/25/2017 16:0030.23/25/2017 16:00837.13/25/2017 16:001743/25/2017 16:0055.003/25/2017 16:001.203/25/2017 16:0055.33/25/2017 16:0020.33/25/2017 16:0031.33/25/2017 16:0023.43/25/2017 16:000.0
3/25/2017 17:0030.33/25/2017 17:00837.23/25/2017 17:001083/25/2017 17:00167.003/25/2017 17:001.503/25/2017 17:0054.23/25/2017 17:0020.13/25/2017 17:0031.63/25/2017 17:0023.63/25/2017 17:000.0
3/25/2017 18:0029.33/25/2017 18:00837.33/25/2017 18:00613/25/2017 18:00123.003/25/2017 18:002.303/25/2017 18:0060.63/25/2017 18:0021.03/25/2017 18:0030.93/25/2017 18:0024.13/25/2017 18:000.0
3/25/2017 19:0026.73/25/2017 19:00837.43/25/2017 19:0003/25/2017 19:0080.003/25/2017 19:003.903/25/2017 19:0072.83/25/2017 19:0021.53/25/2017 19:0029.13/25/2017 19:0024.63/25/2017 19:000.0
3/25/2017 20:0025.53/25/2017 20:00837.63/25/2017 20:0003/25/2017 20:0078.003/25/2017 20:003.703/25/2017 20:0073.23/25/2017 20:0020.43/25/2017 20:0027.73/25/2017 20:0025.13/25/2017 20:000.0
3/25/2017 21:0024.43/25/2017 21:00837.83/25/2017 21:0003/25/2017 21:0057.003/25/2017 21:003.103/25/2017 21:0070.23/25/2017 21:0018.73/25/2017 21:0026.43/25/2017 21:0025.63/25/2017 21:000.0
3/25/2017 22:0024.13/25/2017 22:00837.73/25/2017 22:0003/25/2017 22:0037.003/25/2017 22:002.503/25/2017 22:0073.03/25/2017 22:0019.03/25/2017 22:0026.33/25/2017 22:0025.83/25/2017 22:000.0
3/25/2017 23:0023.93/25/2017 23:00837.83/25/2017 23:0003/25/2017 23:0059.003/25/2017 23:002.103/25/2017 23:0074.33/25/2017 23:0019.13/25/2017 23:0026.23/25/2017 23:0025.83/25/2017 23:000.0
3/26/2017 0:0023.53/26/2017 0:00837.73/26/2017 0:0003/26/2017 0:0061.003/26/2017 0:003.103/26/2017 0:0075.33/26/2017 0:0018.93/26/2017 0:0025.63/26/2017 0:0026.13/26/2017 0:000.0
3/26/2017 1:0022.83/26/2017 1:00837.83/26/2017 1:0003/26/2017 1:0060.003/26/2017 1:002.503/26/2017 1:0076.73/26/2017 1:0018.63/26/2017 1:0024.93/26/2017 1:0026.53/26/2017 1:000.0
3/26/2017 2:0022.03/26/2017 2:00837.93/26/2017 2:0003/26/2017 2:0052.003/26/2017 2:003.003/26/2017 2:0077.33/26/2017 2:0017.93/26/2017 2:0024.03/26/2017 2:0026.33/26/2017 2:000.0
3/26/2017 3:0021.43/26/2017 3:00838.03/26/2017 3:0003/26/2017 3:0061.003/26/2017 3:003.003/26/2017 3:0076.73/26/2017 3:0017.23/26/2017 3:0023.33/26/2017 3:0026.73/26/2017 3:000.0
3/26/2017 4:0021.03/26/2017 4:00838.13/26/2017 4:0003/26/2017 4:0047.003/26/2017 4:003.003/26/2017 4:0075.93/26/2017 4:0016.73/26/2017 4:0022.93/26/2017 4:0026.93/26/2017 4:000.0
3/26/2017 5:0020.63/26/2017 5:00838.13/26/2017 5:0003/26/2017 5:0040.003/26/2017 5:004.203/26/2017 5:0075.43/26/2017 5:0016.23/26/2017 5:0022.43/26/2017 5:0027.13/26/2017 5:000.0
3/26/2017 6:0019.63/26/2017 6:00838.13/26/2017 6:0003/26/2017 6:0044.003/26/2017 6:004.403/26/2017 6:0078.33/26/2017 6:0015.83/26/2017 6:0021.63/26/2017 6:0026.63/26/2017 6:001.1
3/26/2017 7:0019.23/26/2017 7:00838.23/26/2017 7:0093/26/2017 7:0042.003/26/2017 7:003.903/26/2017 7:0081.03/26/2017 7:0015.93/26/2017 7:0021.23/26/2017 7:0025.83/26/2017 7:000.3
3/26/2017 8:0019.33/26/2017 8:00838.23/26/2017 8:001263/26/2017 8:0041.003/26/2017 8:004.903/26/2017 8:0077.73/26/2017 8:0015.43/26/2017 8:0021.03/26/2017 8:0025.63/26/2017 8:000.0
3/26/2017 9:0020.03/26/2017 9:00838.13/26/2017 9:001803/26/2017 9:0049.003/26/2017 9:004.403/26/2017 9:0073.83/26/2017 9:0015.33/26/2017 9:0021.63/26/2017 9:0026.13/26/2017 9:000.0
3/26/2017 10:0020.93/26/2017 10:00838.03/26/2017 10:004203/26/2017 10:0048.003/26/2017 10:003.903/26/2017 10:0068.53/26/2017 10:0015.03/26/2017 10:0022.03/26/2017 10:0026.23/26/2017 10:000.0
3/26/2017 11:0021.13/26/2017 11:00837.83/26/2017 11:004433/26/2017 11:0042.003/26/2017 11:004.503/26/2017 11:0066.63/26/2017 11:0014.73/26/2017 11:0022.13/26/2017 11:0026.73/26/2017 11:000.0
3/26/2017 12:0020.73/26/2017 12:00837.83/26/2017 12:003523/26/2017 12:0042.003/26/2017 12:004.903/26/2017 12:0067.23/26/2017 12:0014.53/26/2017 12:0021.83/26/2017 12:0026.93/26/2017 12:000.0
3/26/2017 13:0020.73/26/2017 13:00838.03/26/2017 13:004423/26/2017 13:0048.003/26/2017 13:004.703/26/2017 13:0066.03/26/2017 13:0014.23/26/2017 13:0021.73/26/2017 13:0027.13/26/2017 13:000.0
3/26/2017 14:0020.73/26/2017 14:00838.03/26/2017 14:004363/26/2017 14:0048.003/26/2017 14:004.703/26/2017 14:0065.33/26/2017 14:0014.03/26/2017 14:0021.73/26/2017 14:0027.73/26/2017 14:000.0
3/26/2017 15:0019.83/26/2017 15:00838.13/26/2017 15:001963/26/2017 15:0056.003/26/2017 15:004.603/26/2017 15:0069.33/26/2017 15:0014.13/26/2017 15:0021.03/26/2017 15:0028.23/26/2017 15:000.0
3/26/2017 16:0019.63/26/2017 16:00838.23/26/2017 16:004473/26/2017 16:0055.003/26/2017 16:005.303/26/2017 16:0069.73/26/2017 16:0014.03/26/2017 16:0020.53/26/2017 16:0028.53/26/2017 16:000.0
3/26/2017 17:0019.43/26/2017 17:00838.03/26/2017 17:002203/26/2017 17:0054.003/26/2017 17:004.803/26/2017 17:0069.13/26/2017 17:0013.73/26/2017 17:0020.53/26/2017 17:0029.03/26/2017 17:000.0
3/26/2017 18:0017.93/26/2017 18:00838.13/26/2017 18:00373/26/2017 18:0064.003/26/2017 18:004.603/26/2017 18:0072.93/26/2017 18:0013.03/26/2017 18:0019.33/26/2017 18:0029.43/26/2017 18:000.0
3/26/2017 19:0017.03/26/2017 19:00838.33/26/2017 19:0013/26/2017 19:0054.003/26/2017 19:003.703/26/2017 19:0077.23/26/2017 19:0013.03/26/2017 19:0018.63/26/2017 19:0029.43/26/2017 19:000.0
3/26/2017 20:0017.43/26/2017 20:00838.33/26/2017 20:0003/26/2017 20:0050.003/26/2017 20:004.303/26/2017 20:0075.23/26/2017 20:0013.03/26/2017 20:0019.13/26/2017 20:0029.73/26/2017 20:000.0
3/26/2017 21:0017.43/26/2017 21:00838.33/26/2017 21:0003/26/2017 21:0039.003/26/2017 21:004.303/26/2017 21:0074.73/26/2017 21:0012.93/26/2017 21:0019.13/26/2017 21:0030.03/26/2017 21:000.0
3/26/2017 22:0017.73/26/2017 22:00838.33/26/2017 22:0003/26/2017 22:0042.003/26/2017 22:004.603/26/2017 22:0072.53/26/2017 22:0012.83/26/2017 22:0019.33/26/2017 22:0030.13/26/2017 22:000.0
3/26/2017 23:0017.33/26/2017 23:00838.43/26/2017 23:0003/26/2017 23:0049.003/26/2017 23:005.003/26/2017 23:0075.43/26/2017 23:0013.03/26/2017 23:0018.93/26/2017 23:0030.33/26/2017 23:000.0
3/27/2017 0:0016.93/27/2017 0:00838.33/27/2017 0:0003/27/2017 0:0049.003/27/2017 0:004.103/27/2017 0:0076.93/27/2017 0:0012.93/27/2017 0:0018.63/27/2017 0:0030.43/27/2017 0:000.0
3/27/2017 1:0017.53/27/2017 1:00838.23/27/2017 1:0003/27/2017 1:0042.003/27/2017 1:004.503/27/2017 1:0074.73/27/2017 1:0013.03/27/2017 1:0019.23/27/2017 1:0030.43/27/2017 1:000.0
3/27/2017 2:0017.63/27/2017 2:00838.33/27/2017 2:0003/27/2017 2:0051.003/27/2017 2:004.403/27/2017 2:0074.63/27/2017 2:0013.13/27/2017 2:0019.33/27/2017 2:0030.53/27/2017 2:000.0
3/27/2017 3:0017.43/27/2017 3:00838.33/27/2017 3:0003/27/2017 3:0053.003/27/2017 3:003.103/27/2017 3:0076.03/27/2017 3:0013.23/27/2017 3:0019.13/27/2017 3:0030.73/27/2017 3:000.0
3/27/2017 4:0017.33/27/2017 4:00838.33/27/2017 4:0003/27/2017 4:0059.003/27/2017 4:002.903/27/2017 4:0077.23/27/2017 4:0013.33/27/2017 4:0019.03/27/2017 4:0030.83/27/2017 4:000.0
3/27/2017 5:0017.83/27/2017 5:00838.33/27/2017 5:0003/27/2017 5:0041.003/27/2017 5:003.503/27/2017 5:0075.63/27/2017 5:0013.53/27/2017 5:0019.53/27/2017 5:0030.83/27/2017 5:000.0
3/27/2017 6:0017.83/27/2017 6:00838.23/27/2017 6:0003/27/2017 6:0039.003/27/2017 6:003.803/27/2017 6:0074.73/27/2017 6:0013.33/27/2017 6:0019.63/27/2017 6:0030.93/27/2017 6:000.0
3/27/2017 7:0017.93/27/2017 7:00838.23/27/2017 7:00423/27/2017 7:0043.003/27/2017 7:003.403/27/2017 7:0073.63/27/2017 7:0013.23/27/2017 7:0019.63/27/2017 7:0030.83/27/2017 7:000.0
3/27/2017 8:0018.63/27/2017 8:00838.23/27/2017 8:002073/27/2017 8:0052.003/27/2017 8:003.803/27/2017 8:0072.03/27/2017 8:0013.53/27/2017 8:0019.93/27/2017 8:0031.03/27/2017 8:000.0
3/27/2017 9:0020.23/27/2017 9:00838.13/27/2017 9:005533/27/2017 9:0050.003/27/2017 9:004.203/27/2017 9:0066.73/27/2017 9:0013.93/27/2017 9:0020.93/27/2017 9:0031.23/27/2017 9:000.0
3/27/2017 10:0021.43/27/2017 10:00837.93/27/2017 10:006453/27/2017 10:0052.003/27/2017 10:004.003/27/2017 10:0062.83/27/2017 10:0014.13/27/2017 10:0021.93/27/2017 10:0031.73/27/2017 10:000.0
3/27/2017 11:0021.83/27/2017 11:00837.73/27/2017 11:005323/27/2017 11:0048.003/27/2017 11:003.803/27/2017 11:0061.63/27/2017 11:0014.23/27/2017 11:0022.53/27/2017 11:0032.13/27/2017 11:000.0
3/27/2017 12:0021.83/27/2017 12:00837.83/27/2017 12:004403/27/2017 12:0057.003/27/2017 12:003.703/27/2017 12:0061.93/27/2017 12:0014.23/27/2017 12:0022.53/27/2017 12:0032.13/27/2017 12:000.0
3/27/2017 13:0021.83/27/2017 13:00837.73/27/2017 13:004723/27/2017 13:0050.003/27/2017 13:003.703/27/2017 13:0062.73/27/2017 13:0014.43/27/2017 13:0022.63/27/2017 13:0032.53/27/2017 13:000.0
3/27/2017 14:0021.83/27/2017 14:00837.83/27/2017 14:004973/27/2017 14:0065.003/27/2017 14:003.703/27/2017 14:0062.03/27/2017 14:0014.33/27/2017 14:0022.53/27/2017 14:0033.13/27/2017 14:000.0
3/27/2017 15:0021.43/27/2017 15:00837.83/27/2017 15:003763/27/2017 15:0072.003/27/2017 15:004.203/27/2017 15:0063.13/27/2017 15:0014.23/27/2017 15:0022.33/27/2017 15:0033.43/27/2017 15:000.0
3/27/2017 16:0020.83/27/2017 16:00837.93/27/2017 16:002313/27/2017 16:0072.003/27/2017 16:004.303/27/2017 16:0065.73/27/2017 16:0014.23/27/2017 16:0022.03/27/2017 16:0033.73/27/2017 16:000.0
3/27/2017 17:0019.93/27/2017 17:00837.93/27/2017 17:001273/27/2017 17:0078.003/27/2017 17:004.103/27/2017 17:0069.23/27/2017 17:0014.23/27/2017 17:0021.33/27/2017 17:0033.93/27/2017 17:000.0
3/27/2017 18:0019.43/27/2017 18:00838.03/27/2017 18:00753/27/2017 18:0074.003/27/2017 18:003.703/27/2017 18:0071.83/27/2017 18:0014.23/27/2017 18:0020.83/27/2017 18:0034.23/27/2017 18:000.0
3/27/2017 19:0018.63/27/2017 19:00838.23/27/2017 19:0013/27/2017 19:0068.003/27/2017 19:002.903/27/2017 19:0075.03/27/2017 19:0014.23/27/2017 19:0020.23/27/2017 19:0034.43/27/2017 19:000.0
3/27/2017 20:0018.23/27/2017 20:00838.23/27/2017 20:0003/27/2017 20:0067.003/27/2017 20:003.303/27/2017 20:0077.13/27/2017 20:0014.23/27/2017 20:0019.93/27/2017 20:0034.83/27/2017 20:000.0
3/27/2017 21:0017.83/27/2017 21:00838.13/27/2017 21:0003/27/2017 21:0063.003/27/2017 21:002.903/27/2017 21:0079.13/27/2017 21:0014.23/27/2017 21:0019.63/27/2017 21:0035.03/27/2017 21:000.0
3/27/2017 22:0017.63/27/2017 22:00838.23/27/2017 22:0003/27/2017 22:0059.003/27/2017 22:002.303/27/2017 22:0080.73/27/2017 22:0014.33/27/2017 22:0019.43/27/2017 22:0035.03/27/2017 22:000.0
3/27/2017 23:0017.73/27/2017 23:00838.23/27/2017 23:0003/27/2017 23:0060.003/27/2017 23:002.003/27/2017 23:0082.13/27/2017 23:0014.73/27/2017 23:0019.63/27/2017 23:0035.23/27/2017 23:000.0
3/28/2017 0:0018.23/28/2017 0:00838.33/28/2017 0:0003/28/2017 0:0043.003/28/2017 0:001.703/28/2017 0:0082.43/28/2017 0:0015.23/28/2017 0:0020.33/28/2017 0:0035.33/28/2017 0:000.0
3/28/2017 1:0018.03/28/2017 1:00838.23/28/2017 1:0003/28/2017 1:0057.003/28/2017 1:001.803/28/2017 1:0082.33/28/2017 1:0015.03/28/2017 1:0019.93/28/2017 1:0035.33/28/2017 1:000.0
3/28/2017 2:0017.83/28/2017 2:00838.23/28/2017 2:0003/28/2017 2:0047.003/28/2017 2:001.603/28/2017 2:0084.63/28/2017 2:0015.23/28/2017 2:0019.83/28/2017 2:0035.33/28/2017 2:000.0
3/28/2017 3:0017.43/28/2017 3:00838.13/28/2017 3:0003/28/2017 3:00334.003/28/2017 3:001.003/28/2017 3:0090.33/28/2017 3:0015.93/28/2017 3:0019.63/28/2017 3:0035.63/28/2017 3:000.0
3/28/2017 4:0017.43/28/2017 4:00838.13/28/2017 4:0003/28/2017 4:00331.003/28/2017 4:001.403/28/2017 4:0089.73/28/2017 4:0015.83/28/2017 4:0019.53/28/2017 4:0035.63/28/2017 4:000.0
3/28/2017 5:0017.23/28/2017 5:00838.13/28/2017 5:0003/28/2017 5:00323.003/28/2017 5:000.903/28/2017 5:0089.83/28/2017 5:0015.63/28/2017 5:0019.33/28/2017 5:0035.63/28/2017 5:000.0
3/28/2017 6:0017.03/28/2017 6:00838.13/28/2017 6:0003/28/2017 6:00333.003/28/2017 6:000.803/28/2017 6:0088.83/28/2017 6:0015.23/28/2017 6:0019.33/28/2017 6:0035.23/28/2017 6:000.0
3/28/2017 7:0018.03/28/2017 7:00838.23/28/2017 7:00813/28/2017 7:00318.003/28/2017 7:001.203/28/2017 7:0085.33/28/2017 7:0015.63/28/2017 7:0019.53/28/2017 7:0035.13/28/2017 7:000.0
3/28/2017 8:0019.33/28/2017 8:00838.03/28/2017 8:002043/28/2017 8:00328.003/28/2017 8:002.003/28/2017 8:0082.53/28/2017 8:0016.33/28/2017 8:0020.53/28/2017 8:0035.63/28/2017 8:000.0
3/28/2017 9:0021.13/28/2017 9:00837.93/28/2017 9:003873/28/2017 9:00336.003/28/2017 9:001.903/28/2017 9:0076.73/28/2017 9:0016.93/28/2017 9:0021.93/28/2017 9:0035.73/28/2017 9:000.0
3/28/2017 10:0023.53/28/2017 10:00837.63/28/2017 10:006173/28/2017 10:00322.003/28/2017 10:001.303/28/2017 10:0068.53/28/2017 10:0017.43/28/2017 10:0023.53/28/2017 10:0035.93/28/2017 10:000.0
3/28/2017 11:0025.53/28/2017 11:00837.43/28/2017 11:008753/28/2017 11:00351.003/28/2017 11:001.303/28/2017 11:0062.13/28/2017 11:0017.83/28/2017 11:0025.13/28/2017 11:0036.13/28/2017 11:000.0
3/28/2017 12:0026.23/28/2017 12:00837.33/28/2017 12:009723/28/2017 12:0091.003/28/2017 12:002.403/28/2017 12:0059.13/28/2017 12:0017.73/28/2017 12:0026.53/28/2017 12:0036.23/28/2017 12:000.0
3/28/2017 13:0027.53/28/2017 13:00837.33/28/2017 13:008413/28/2017 13:0096.003/28/2017 13:002.003/28/2017 13:0055.63/28/2017 13:0017.93/28/2017 13:0027.83/28/2017 13:0036.43/28/2017 13:000.0
3/28/2017 14:0028.73/28/2017 14:00837.33/28/2017 14:007613/28/2017 14:00138.003/28/2017 14:002.603/28/2017 14:0052.43/28/2017 14:0018.13/28/2017 14:0028.63/28/2017 14:0036.93/28/2017 14:000.0
3/28/2017 15:0028.93/28/2017 15:00837.33/28/2017 15:004003/28/2017 15:00208.003/28/2017 15:001.203/28/2017 15:0051.83/28/2017 15:0018.13/28/2017 15:0028.83/28/2017 15:0037.43/28/2017 15:000.0
3/28/2017 16:0028.33/28/2017 16:00837.33/28/2017 16:003733/28/2017 16:0083.003/28/2017 16:002.203/28/2017 16:0054.23/28/2017 16:0018.23/28/2017 16:0029.03/28/2017 16:0037.73/28/2017 16:000.0
3/28/2017 17:0028.03/28/2017 17:00837.53/28/2017 17:002123/28/2017 17:0095.003/28/2017 17:002.103/28/2017 17:0054.43/28/2017 17:0018.03/28/2017 17:0029.03/28/2017 17:0038.43/28/2017 17:000.0
3/28/2017 18:0027.93/28/2017 18:00837.53/28/2017 18:00903/28/2017 18:00118.003/28/2017 18:001.803/28/2017 18:0055.13/28/2017 18:0018.13/28/2017 18:0028.93/28/2017 18:0038.93/28/2017 18:000.0
3/28/2017 19:0025.43/28/2017 19:00837.63/28/2017 19:0013/28/2017 19:00232.003/28/2017 19:000.703/28/2017 19:0067.03/28/2017 19:0018.93/28/2017 19:0027.43/28/2017 19:0038.83/28/2017 19:000.0
3/28/2017 20:0023.33/28/2017 20:00837.83/28/2017 20:0003/28/2017 20:00209.003/28/2017 20:000.503/28/2017 20:0077.63/28/2017 20:0019.23/28/2017 20:0026.43/28/2017 20:0038.63/28/2017 20:000.0
3/28/2017 21:0022.93/28/2017 21:00837.93/28/2017 21:0003/28/2017 21:00151.003/28/2017 21:000.903/28/2017 21:0078.63/28/2017 21:0019.13/28/2017 21:0026.23/28/2017 21:0038.83/28/2017 21:000.0
3/28/2017 22:0022.53/28/2017 22:00838.03/28/2017 22:0003/28/2017 22:00133.003/28/2017 22:000.703/28/2017 22:0081.13/28/2017 22:0019.23/28/2017 22:0025.43/28/2017 22:0039.03/28/2017 22:000.0
3/28/2017 23:0021.63/28/2017 23:00838.13/28/2017 23:0003/28/2017 23:00308.003/28/2017 23:000.903/28/2017 23:0087.13/28/2017 23:0019.43/28/2017 23:0024.43/28/2017 23:0038.93/28/2017 23:000.0
3/29/2017 0:0021.23/29/2017 0:00838.03/29/2017 0:0003/29/2017 0:00298.003/29/2017 0:000.603/29/2017 0:0089.73/29/2017 0:0019.53/29/2017 0:0024.03/29/2017 0:0039.23/29/2017 0:000.0
3/29/2017 1:0020.93/29/2017 1:00838.03/29/2017 1:0003/29/2017 1:00320.003/29/2017 1:001.003/29/2017 1:0091.63/29/2017 1:0019.63/29/2017 1:0023.53/29/2017 1:0039.53/29/2017 1:000.0
3/29/2017 2:0020.73/29/2017 2:00838.03/29/2017 2:0003/29/2017 2:00330.003/29/2017 2:001.203/29/2017 2:0092.33/29/2017 2:0019.53/29/2017 2:0023.53/29/2017 2:0039.33/29/2017 2:000.0
3/29/2017 3:0020.73/29/2017 3:00838.13/29/2017 3:0003/29/2017 3:00349.003/29/2017 3:001.203/29/2017 3:0092.63/29/2017 3:0019.53/29/2017 3:0023.43/29/2017 3:0039.13/29/2017 3:000.0
3/29/2017 4:0020.73/29/2017 4:00838.03/29/2017 4:0003/29/2017 4:00342.003/29/2017 4:001.403/29/2017 4:0091.73/29/2017 4:0019.43/29/2017 4:0023.33/29/2017 4:0039.33/29/2017 4:000.0
3/29/2017 5:0020.43/29/2017 5:00837.93/29/2017 5:0003/29/2017 5:00343.003/29/2017 5:001.303/29/2017 5:0092.13/29/2017 5:0019.13/29/2017 5:0022.93/29/2017 5:0039.33/29/2017 5:000.0
3/29/2017 6:0020.33/29/2017 6:00838.03/29/2017 6:0003/29/2017 6:00333.003/29/2017 6:001.803/29/2017 6:0091.33/29/2017 6:0018.93/29/2017 6:0022.83/29/2017 6:0039.33/29/2017 6:000.0
3/29/2017 7:0020.73/29/2017 7:00838.03/29/2017 7:00573/29/2017 7:00345.003/29/2017 7:001.403/29/2017 7:0090.13/29/2017 7:0019.13/29/2017 7:0022.83/29/2017 7:0039.33/29/2017 7:000.0
3/29/2017 8:0022.83/29/2017 8:00837.83/29/2017 8:002473/29/2017 8:00339.003/29/2017 8:001.703/29/2017 8:0081.33/29/2017 8:0019.53/29/2017 8:0023.83/29/2017 8:0039.73/29/2017 8:000.0
3/29/2017 9:0023.93/29/2017 9:00837.53/29/2017 9:004433/29/2017 9:00344.003/29/2017 9:001.803/29/2017 9:0075.13/29/2017 9:0019.33/29/2017 9:0024.73/29/2017 9:0040.13/29/2017 9:000.0
3/29/2017 10:0026.23/29/2017 10:00837.43/29/2017 10:007083/29/2017 10:00334.003/29/2017 10:001.803/29/2017 10:0067.63/29/2017 10:0019.83/29/2017 10:0026.53/29/2017 10:0040.33/29/2017 10:000.0
3/29/2017 11:0028.33/29/2017 11:00837.23/29/2017 11:008523/29/2017 11:00318.003/29/2017 11:001.903/29/2017 11:0056.73/29/2017 11:0019.03/29/2017 11:0028.33/29/2017 11:0040.73/29/2017 11:000.0
3/29/2017 12:0029.23/29/2017 12:00837.13/29/2017 12:009143/29/2017 12:00342.003/29/2017 12:002.203/29/2017 12:0056.03/29/2017 12:0019.63/29/2017 12:0029.53/29/2017 12:0041.03/29/2017 12:000.0
3/29/2017 13:0029.93/29/2017 13:00837.13/29/2017 13:009013/29/2017 13:0014.003/29/2017 13:002.703/29/2017 13:0054.03/29/2017 13:0019.73/29/2017 13:0030.23/29/2017 13:0041.23/29/2017 13:000.0
3/29/2017 14:0030.43/29/2017 14:00837.23/29/2017 14:008623/29/2017 14:0040.003/29/2017 14:002.603/29/2017 14:0051.13/29/2017 14:0019.23/29/2017 14:0030.73/29/2017 14:0041.53/29/2017 14:000.0
3/29/2017 15:0030.93/29/2017 15:00837.03/29/2017 15:006023/29/2017 15:0039.003/29/2017 15:002.303/29/2017 15:0049.23/29/2017 15:0019.13/29/2017 15:0031.23/29/2017 15:0042.53/29/2017 15:000.0
3/29/2017 16:0031.73/29/2017 16:00836.93/29/2017 16:005163/29/2017 16:0027.003/29/2017 16:002.203/29/2017 16:0047.43/29/2017 16:0019.23/29/2017 16:0031.73/29/2017 16:0043.33/29/2017 16:000.0
3/29/2017 17:0030.93/29/2017 17:00837.13/29/2017 17:002123/29/2017 17:0044.003/29/2017 17:001.703/29/2017 17:0049.73/29/2017 17:0019.23/29/2017 17:0031.73/29/2017 17:0043.83/29/2017 17:000.0
3/29/2017 18:0029.53/29/2017 18:00837.33/29/2017 18:00843/29/2017 18:00117.003/29/2017 18:002.003/29/2017 18:0056.33/29/2017 18:0020.03/29/2017 18:0030.53/29/2017 18:0044.53/29/2017 18:000.0
3/29/2017 19:0025.13/29/2017 19:00837.53/29/2017 19:0033/29/2017 19:00125.003/29/2017 19:002.603/29/2017 19:0071.43/29/2017 19:0019.63/29/2017 19:0027.13/29/2017 19:0044.83/29/2017 19:000.0
3/29/2017 20:0023.33/29/2017 20:00837.93/29/2017 20:0003/29/2017 20:00120.003/29/2017 20:003.003/29/2017 20:0076.63/29/2017 20:0019.03/29/2017 20:0025.43/29/2017 20:0045.23/29/2017 20:000.0
3/29/2017 21:0022.53/29/2017 21:00837.93/29/2017 21:0003/29/2017 21:00133.003/29/2017 21:002.403/29/2017 21:0079.03/29/2017 21:0018.73/29/2017 21:0024.63/29/2017 21:0045.63/29/2017 21:000.0
3/29/2017 22:0021.93/29/2017 22:00838.03/29/2017 22:0003/29/2017 22:00139.003/29/2017 22:002.303/29/2017 22:0081.83/29/2017 22:0018.73/29/2017 22:0024.03/29/2017 22:0046.33/29/2017 22:000.0
3/29/2017 23:0021.63/29/2017 23:00838.03/29/2017 23:0003/29/2017 23:00119.003/29/2017 23:001.703/29/2017 23:0084.23/29/2017 23:0018.93/29/2017 23:0023.83/29/2017 23:0046.63/29/2017 23:000.0
3/30/2017 0:0021.23/30/2017 0:00838.03/30/2017 0:0003/30/2017 0:00134.003/30/2017 0:001.103/30/2017 0:0086.03/30/2017 0:0018.83/30/2017 0:0023.63/30/2017 0:0046.73/30/2017 0:000.0
3/30/2017 1:0020.93/30/2017 1:00838.13/30/2017 1:0003/30/2017 1:0032.003/30/2017 1:000.903/30/2017 1:0088.23/30/2017 1:0018.93/30/2017 1:0023.43/30/2017 1:0046.73/30/2017 1:000.0
3/30/2017 2:0020.83/30/2017 2:00838.13/30/2017 2:0003/30/2017 2:00303.003/30/2017 2:001.103/30/2017 2:0090.63/30/2017 2:0019.33/30/2017 2:0023.33/30/2017 2:0046.63/30/2017 2:000.0
3/30/2017 3:0020.73/30/2017 3:00838.03/30/2017 3:0003/30/2017 3:00324.003/30/2017 3:001.303/30/2017 3:0090.83/30/2017 3:0019.23/30/2017 3:0023.33/30/2017 3:0046.43/30/2017 3:000.0
3/30/2017 4:0020.83/30/2017 4:00838.13/30/2017 4:0003/30/2017 4:00337.003/30/2017 4:001.403/30/2017 4:0089.83/30/2017 4:0019.13/30/2017 4:0023.43/30/2017 4:0046.13/30/2017 4:000.0
3/30/2017 5:0020.93/30/2017 5:00838.03/30/2017 5:0003/30/2017 5:00334.003/30/2017 5:001.503/30/2017 5:0090.13/30/2017 5:0019.33/30/2017 5:0023.53/30/2017 5:0046.23/30/2017 5:000.0
3/30/2017 6:0020.93/30/2017 6:00838.03/30/2017 6:0003/30/2017 6:00335.003/30/2017 6:001.503/30/2017 6:0092.03/30/2017 6:0019.63/30/2017 6:0023.43/30/2017 6:0046.03/30/2017 6:000.0
3/30/2017 7:0021.43/30/2017 7:00838.13/30/2017 7:00523/30/2017 7:00334.003/30/2017 7:001.403/30/2017 7:0088.83/30/2017 7:0019.53/30/2017 7:0023.63/30/2017 7:0046.03/30/2017 7:000.0
3/30/2017 8:0023.23/30/2017 8:00837.93/30/2017 8:002653/30/2017 8:00321.003/30/2017 8:002.403/30/2017 8:0082.53/30/2017 8:0020.13/30/2017 8:0024.63/30/2017 8:0046.13/30/2017 8:000.0
3/30/2017 9:0025.33/30/2017 9:00837.63/30/2017 9:005053/30/2017 9:00343.003/30/2017 9:002.103/30/2017 9:0072.73/30/2017 9:0020.13/30/2017 9:0025.93/30/2017 9:0046.53/30/2017 9:000.0
3/30/2017 10:0026.83/30/2017 10:00837.53/30/2017 10:007053/30/2017 10:00341.003/30/2017 10:001.903/30/2017 10:0065.23/30/2017 10:0019.83/30/2017 10:0027.13/30/2017 10:0046.73/30/2017 10:000.0
3/30/2017 11:0027.93/30/2017 11:00837.33/30/2017 11:007863/30/2017 11:0018.003/30/2017 11:002.303/30/2017 11:0060.73/30/2017 11:0019.73/30/2017 11:0028.33/30/2017 11:0047.13/30/2017 11:000.0
3/30/2017 12:0028.93/30/2017 12:00837.33/30/2017 12:009093/30/2017 12:008.003/30/2017 12:002.303/30/2017 12:0058.93/30/2017 12:0020.13/30/2017 12:0029.23/30/2017 12:0047.13/30/2017 12:000.0
3/30/2017 13:0028.93/30/2017 13:00837.33/30/2017 13:006513/30/2017 13:008.003/30/2017 13:002.403/30/2017 13:0059.63/30/2017 13:0020.33/30/2017 13:0029.73/30/2017 13:0047.73/30/2017 13:000.0
3/30/2017 14:0029.73/30/2017 14:00837.33/30/2017 14:005533/30/2017 14:0028.003/30/2017 14:002.403/30/2017 14:0057.13/30/2017 14:0020.43/30/2017 14:0030.53/30/2017 14:0048.33/30/2017 14:000.0
3/30/2017 15:0029.83/30/2017 15:00837.33/30/2017 15:003933/30/2017 15:0052.003/30/2017 15:002.403/30/2017 15:0056.63/30/2017 15:0020.33/30/2017 15:0030.83/30/2017 15:0048.43/30/2017 15:000.0
3/30/2017 16:0030.63/30/2017 16:00837.33/30/2017 16:003823/30/2017 16:005.003/30/2017 16:001.603/30/2017 16:0053.93/30/2017 16:0020.33/30/2017 16:0031.23/30/2017 16:0048.73/30/2017 16:000.0
3/30/2017 17:0030.63/30/2017 17:00837.33/30/2017 17:002113/30/2017 17:00354.003/30/2017 17:001.503/30/2017 17:0052.83/30/2017 17:0019.93/30/2017 17:0031.33/30/2017 17:0049.63/30/2017 17:000.0
3/30/2017 18:0030.43/30/2017 18:00837.33/30/2017 18:00873/30/2017 18:00316.003/30/2017 18:000.603/30/2017 18:0055.53/30/2017 18:0020.63/30/2017 18:0031.23/30/2017 18:0049.53/30/2017 18:000.0
3/30/2017 19:0027.63/30/2017 19:00837.53/30/2017 19:0003/30/2017 19:00295.003/30/2017 19:000.703/30/2017 19:0068.53/30/2017 19:0021.43/30/2017 19:0029.93/30/2017 19:0049.93/30/2017 19:000.0
3/30/2017 20:0025.73/30/2017 20:00837.73/30/2017 20:0003/30/2017 20:00305.003/30/2017 20:000.903/30/2017 20:0076.33/30/2017 20:0021.33/30/2017 20:0028.53/30/2017 20:0049.73/30/2017 20:000.0
3/30/2017 21:0025.23/30/2017 21:00837.73/30/2017 21:0003/30/2017 21:00347.003/30/2017 21:000.903/30/2017 21:0078.83/30/2017 21:0021.33/30/2017 21:0028.33/30/2017 21:0049.43/30/2017 21:000.0
3/30/2017 22:0025.13/30/2017 22:00837.83/30/2017 22:0003/30/2017 22:00103.003/30/2017 22:000.903/30/2017 22:0081.73/30/2017 22:0021.83/30/2017 22:0028.23/30/2017 22:0049.93/30/2017 22:000.0
3/30/2017 23:0024.73/30/2017 23:00837.83/30/2017 23:0003/30/2017 23:00121.003/30/2017 23:001.303/30/2017 23:0084.63/30/2017 23:0022.03/30/2017 23:0027.43/30/2017 23:0050.23/30/2017 23:000.0
3/31/2017 0:0024.33/31/2017 0:00837.83/31/2017 0:0003/31/2017 0:0026.003/31/2017 0:000.403/31/2017 0:0085.73/31/2017 0:0021.83/31/2017 0:0027.13/31/2017 0:0050.23/31/2017 0:000.0
3/31/2017 1:0024.03/31/2017 1:00837.83/31/2017 1:0003/31/2017 1:00273.003/31/2017 1:000.303/31/2017 1:0088.63/31/2017 1:0022.13/31/2017 1:0026.93/31/2017 1:0050.43/31/2017 1:000.0
3/31/2017 2:0024.03/31/2017 2:00837.93/31/2017 2:0003/31/2017 2:00295.003/31/2017 2:000.803/31/2017 2:0089.13/31/2017 2:0022.23/31/2017 2:0026.73/31/2017 2:0050.23/31/2017 2:000.0
3/31/2017 3:0023.83/31/2017 3:00838.03/31/2017 3:0003/31/2017 3:0078.003/31/2017 3:000.903/31/2017 3:0090.03/31/2017 3:0022.13/31/2017 3:0026.63/31/2017 3:0050.13/31/2017 3:000.0
3/31/2017 4:0023.63/31/2017 4:00837.93/31/2017 4:0003/31/2017 4:00179.003/31/2017 4:000.503/31/2017 4:0091.13/31/2017 4:0022.13/31/2017 4:0026.43/31/2017 4:0050.13/31/2017 4:000.0
3/31/2017 5:0023.53/31/2017 5:00838.03/31/2017 5:0003/31/2017 5:00117.003/31/2017 5:000.903/31/2017 5:0090.63/31/2017 5:0021.93/31/2017 5:0026.23/31/2017 5:0050.43/31/2017 5:000.0
3/31/2017 6:0023.33/31/2017 6:00838.03/31/2017 6:0003/31/2017 6:00184.003/31/2017 6:000.603/31/2017 6:0092.23/31/2017 6:0022.03/31/2017 6:0026.13/31/2017 6:0050.53/31/2017 6:000.0
3/31/2017 7:0021.83/31/2017 7:00838.13/31/2017 7:0003/31/2017 7:00317.003/31/2017 7:005.003/31/2017 7:0091.93/31/2017 7:0020.53/31/2017 7:0024.23/31/2017 7:0047.13/31/2017 7:0020.4
3/31/2017 8:0020.23/31/2017 8:00838.23/31/2017 8:0073/31/2017 8:00355.003/31/2017 8:002.803/31/2017 8:0096.33/31/2017 8:0019.73/31/2017 8:0022.93/31/2017 8:0029.13/31/2017 8:006.8
3/31/2017 9:0020.83/31/2017 9:00838.13/31/2017 9:00783/31/2017 9:0032.003/31/2017 9:001.203/31/2017 9:0094.03/31/2017 9:0019.93/31/2017 9:0023.43/31/2017 9:0026.43/31/2017 9:000.5
3/31/2017 10:0021.33/31/2017 10:00838.13/31/2017 10:001053/31/2017 10:00204.003/31/2017 10:001.603/31/2017 10:0093.43/31/2017 10:0020.33/31/2017 10:0023.43/31/2017 10:0026.33/31/2017 10:000.4
3/31/2017 11:0021.53/31/2017 11:00838.13/31/2017 11:001333/31/2017 11:00213.003/31/2017 11:001.403/31/2017 11:0092.43/31/2017 11:0020.33/31/2017 11:0023.53/31/2017 11:0025.83/31/2017 11:000.0
3/31/2017 12:0022.83/31/2017 12:00838.13/31/2017 12:002883/31/2017 12:0081.003/31/2017 12:000.703/31/2017 12:0085.13/31/2017 12:0020.23/31/2017 12:0024.43/31/2017 12:0025.73/31/2017 12:000.0
3/31/2017 13:0024.43/31/2017 13:00837.73/31/2017 13:003203/31/2017 13:000.003/31/2017 13:001.003/31/2017 13:0078.63/31/2017 13:0020.53/31/2017 13:0025.63/31/2017 13:0026.23/31/2017 13:000.0
3/31/2017 14:0023.73/31/2017 14:00837.73/31/2017 14:001353/31/2017 14:00336.003/31/2017 14:002.003/31/2017 14:0082.03/31/2017 14:0020.53/31/2017 14:0025.73/31/2017 14:0026.33/31/2017 14:000.0
3/31/2017 15:0023.73/31/2017 15:00837.93/31/2017 15:00563/31/2017 15:00296.003/31/2017 15:002.003/31/2017 15:0083.33/31/2017 15:0020.83/31/2017 15:0026.03/31/2017 15:0026.03/31/2017 15:000.9
3/31/2017 16:0023.43/31/2017 16:00838.03/31/2017 16:001643/31/2017 16:0015.003/31/2017 16:002.003/31/2017 16:0086.93/31/2017 16:0021.23/31/2017 16:0025.53/31/2017 16:0024.93/31/2017 16:000.2
3/31/2017 17:0023.53/31/2017 17:00837.93/31/2017 17:001223/31/2017 17:0014.003/31/2017 17:002.203/31/2017 17:0086.83/31/2017 17:0021.23/31/2017 17:0025.73/31/2017 17:0024.83/31/2017 17:000.0
3/31/2017 18:0023.43/31/2017 18:00837.93/31/2017 18:00653/31/2017 18:0052.003/31/2017 18:003.003/31/2017 18:0082.53/31/2017 18:0020.33/31/2017 18:0025.43/31/2017 18:0025.13/31/2017 18:000.0
3/31/2017 19:0021.13/31/2017 19:00837.83/31/2017 19:0013/31/2017 19:0054.003/31/2017 19:003.403/31/2017 19:0082.53/31/2017 19:0018.13/31/2017 19:0023.23/31/2017 19:0025.23/31/2017 19:000.0
3/31/2017 20:0020.83/31/2017 20:00837.93/31/2017 20:0003/31/2017 20:0043.003/31/2017 20:003.603/31/2017 20:0081.33/31/2017 20:0017.63/31/2017 20:0022.93/31/2017 20:0025.33/31/2017 20:000.0
3/31/2017 21:0020.73/31/2017 21:00837.93/31/2017 21:0003/31/2017 21:0043.003/31/2017 21:003.703/31/2017 21:0077.73/31/2017 21:0016.73/31/2017 21:0022.73/31/2017 21:0025.83/31/2017 21:000.0
3/31/2017 22:0020.33/31/2017 22:00838.13/31/2017 22:0003/31/2017 22:0039.003/31/2017 22:004.503/31/2017 22:0076.63/31/2017 22:0016.13/31/2017 22:0022.23/31/2017 22:0025.73/31/2017 22:000.0
3/31/2017 23:0020.13/31/2017 23:00838.13/31/2017 23:0003/31/2017 23:0029.003/31/2017 23:004.203/31/2017 23:0076.43/31/2017 23:0015.93/31/2017 23:0022.03/31/2017 23:0025.83/31/2017 23:000.0
4/1/2017 0:0020.24/1/2017 0:00838.14/1/2017 0:0004/1/2017 0:0030.004/1/2017 0:004.104/1/2017 0:0074.64/1/2017 0:0015.64/1/2017 0:0022.14/1/2017 0:0025.94/1/2017 0:000.0
4/1/2017 1:0020.04/1/2017 1:00838.14/1/2017 1:0004/1/2017 1:0030.004/1/2017 1:003.504/1/2017 1:0075.44/1/2017 1:0015.64/1/2017 1:0021.94/1/2017 1:0026.24/1/2017 1:000.0
4/1/2017 2:0019.74/1/2017 2:00838.24/1/2017 2:0004/1/2017 2:0021.004/1/2017 2:003.404/1/2017 2:0076.14/1/2017 2:0015.44/1/2017 2:0021.64/1/2017 2:0026.44/1/2017 2:000.0
4/1/2017 3:0019.54/1/2017 3:00838.24/1/2017 3:0004/1/2017 3:008.004/1/2017 3:003.604/1/2017 3:0077.24/1/2017 3:0015.54/1/2017 3:0021.44/1/2017 3:0026.64/1/2017 3:000.0
4/1/2017 4:0019.54/1/2017 4:00838.14/1/2017 4:0004/1/2017 4:00359.004/1/2017 4:003.004/1/2017 4:0076.74/1/2017 4:0015.44/1/2017 4:0021.44/1/2017 4:0026.74/1/2017 4:000.0
4/1/2017 5:0019.04/1/2017 5:00838.14/1/2017 5:0004/1/2017 5:0014.004/1/2017 5:003.304/1/2017 5:0076.94/1/2017 5:0014.94/1/2017 5:0020.84/1/2017 5:0026.64/1/2017 5:000.0
4/1/2017 6:0018.64/1/2017 6:00838.14/1/2017 6:0004/1/2017 6:0014.004/1/2017 6:003.204/1/2017 6:0077.04/1/2017 6:0014.64/1/2017 6:0020.54/1/2017 6:0026.44/1/2017 6:000.0
4/1/2017 7:0019.04/1/2017 7:00838.14/1/2017 7:00764/1/2017 7:0016.004/1/2017 7:003.504/1/2017 7:0074.64/1/2017 7:0014.54/1/2017 7:0020.54/1/2017 7:0026.64/1/2017 7:000.0
4/1/2017 8:0019.94/1/2017 8:00838.04/1/2017 8:002874/1/2017 8:0021.004/1/2017 8:004.104/1/2017 8:0070.64/1/2017 8:0014.54/1/2017 8:0021.04/1/2017 8:0026.94/1/2017 8:000.0
4/1/2017 9:0020.94/1/2017 9:00837.74/1/2017 9:005464/1/2017 9:0046.004/1/2017 9:004.604/1/2017 9:0068.14/1/2017 9:0014.94/1/2017 9:0021.84/1/2017 9:0027.34/1/2017 9:000.0
4/1/2017 10:0021.94/1/2017 10:00837.84/1/2017 10:007324/1/2017 10:0053.004/1/2017 10:004.204/1/2017 10:0065.04/1/2017 10:0015.14/1/2017 10:0022.74/1/2017 10:0027.54/1/2017 10:000.0
4/1/2017 11:0022.74/1/2017 11:00837.74/1/2017 11:008984/1/2017 11:0056.004/1/2017 11:004.604/1/2017 11:0061.44/1/2017 11:0015.04/1/2017 11:0023.44/1/2017 11:0027.64/1/2017 11:000.0
4/1/2017 12:0022.94/1/2017 12:00837.74/1/2017 12:009214/1/2017 12:0065.004/1/2017 12:004.804/1/2017 12:0060.54/1/2017 12:0014.94/1/2017 12:0023.74/1/2017 12:0027.94/1/2017 12:000.0
4/1/2017 13:0022.54/1/2017 13:00837.84/1/2017 13:009994/1/2017 13:0068.004/1/2017 13:005.704/1/2017 13:0061.14/1/2017 13:0014.74/1/2017 13:0023.24/1/2017 13:0028.84/1/2017 13:000.0
4/1/2017 14:0022.94/1/2017 14:00837.74/1/2017 14:009214/1/2017 14:0070.004/1/2017 14:005.104/1/2017 14:0059.34/1/2017 14:0014.64/1/2017 14:0023.54/1/2017 14:0029.64/1/2017 14:000.0
4/1/2017 15:0021.74/1/2017 15:00837.84/1/2017 15:007004/1/2017 15:0062.004/1/2017 15:005.704/1/2017 15:0063.54/1/2017 15:0014.54/1/2017 15:0022.44/1/2017 15:0030.64/1/2017 15:000.0
4/1/2017 16:0020.34/1/2017 16:00837.84/1/2017 16:005684/1/2017 16:0059.004/1/2017 16:006.004/1/2017 16:0068.24/1/2017 16:0014.34/1/2017 16:0021.14/1/2017 16:0031.54/1/2017 16:000.0
4/1/2017 17:0018.74/1/2017 17:00837.94/1/2017 17:001834/1/2017 17:0063.004/1/2017 17:005.804/1/2017 17:0073.14/1/2017 17:0013.94/1/2017 17:0020.04/1/2017 17:0032.14/1/2017 17:000.0
4/1/2017 18:0017.84/1/2017 18:00838.14/1/2017 18:00524/1/2017 18:0063.004/1/2017 18:005.604/1/2017 18:0075.74/1/2017 18:0013.54/1/2017 18:0019.34/1/2017 18:0032.44/1/2017 18:000.0
4/1/2017 19:0017.94/1/2017 19:00838.44/1/2017 19:0014/1/2017 19:0053.004/1/2017 19:003.904/1/2017 19:0073.04/1/2017 19:0013.14/1/2017 19:0019.54/1/2017 19:0032.64/1/2017 19:000.0
4/1/2017 20:0018.04/1/2017 20:00838.44/1/2017 20:0004/1/2017 20:0046.004/1/2017 20:003.204/1/2017 20:0071.14/1/2017 20:0012.84/1/2017 20:0019.64/1/2017 20:0032.94/1/2017 20:000.0
4/2/2017 1:0018.04/2/2017 1:00838.14/2/2017 1:0004/2/2017 1:0028.004/2/2017 1:003.004/2/2017 1:0057.04/2/2017 1:009.44/2/2017 1:0019.54/2/2017 1:0034.14/2/2017 1:000.0
4/2/2017 2:0018.04/2/2017 2:00838.14/2/2017 2:0004/2/2017 2:0049.004/2/2017 2:003.604/2/2017 2:0060.14/2/2017 2:0010.24/2/2017 2:0019.44/2/2017 2:0034.34/2/2017 2:000.0
4/2/2017 3:0017.74/2/2017 3:00838.24/2/2017 3:0004/2/2017 3:0029.004/2/2017 3:003.504/2/2017 3:0062.14/2/2017 3:0010.44/2/2017 3:0019.24/2/2017 3:0034.44/2/2017 3:000.0
4/2/2017 4:0017.34/2/2017 4:00838.24/2/2017 4:0004/2/2017 4:0032.004/2/2017 4:003.504/2/2017 4:0065.44/2/2017 4:0010.84/2/2017 4:0018.94/2/2017 4:0034.14/2/2017 4:000.0
4/2/2017 5:0017.14/2/2017 5:00838.24/2/2017 5:0004/2/2017 5:009.004/2/2017 5:002.704/2/2017 5:0067.34/2/2017 5:0011.14/2/2017 5:0018.84/2/2017 5:0034.34/2/2017 5:000.0
4/2/2017 6:0017.24/2/2017 6:00838.24/2/2017 6:0004/2/2017 6:0020.004/2/2017 6:002.804/2/2017 6:0067.24/2/2017 6:0011.14/2/2017 6:0018.84/2/2017 6:0034.44/2/2017 6:000.0
4/2/2017 7:0017.84/2/2017 7:00838.24/2/2017 7:00834/2/2017 7:0019.004/2/2017 7:002.404/2/2017 7:0066.34/2/2017 7:0011.54/2/2017 7:0019.04/2/2017 7:0034.34/2/2017 7:000.0
4/2/2017 8:0019.44/2/2017 8:00838.04/2/2017 8:003044/2/2017 8:0023.004/2/2017 8:002.404/2/2017 8:0060.24/2/2017 8:0011.64/2/2017 8:0019.84/2/2017 8:0034.84/2/2017 8:000.0
4/2/2017 9:0021.04/2/2017 9:00837.94/2/2017 9:005504/2/2017 9:0058.004/2/2017 9:003.304/2/2017 9:0057.34/2/2017 9:0012.34/2/2017 9:0021.44/2/2017 9:0035.24/2/2017 9:000.0
4/2/2017 10:0022.44/2/2017 10:00837.84/2/2017 10:007584/2/2017 10:0064.004/2/2017 10:003.604/2/2017 10:0055.94/2/2017 10:0013.24/2/2017 10:0022.84/2/2017 10:0035.34/2/2017 10:000.0
4/2/2017 11:0023.34/2/2017 11:00837.64/2/2017 11:008994/2/2017 11:0064.004/2/2017 11:004.004/2/2017 11:0056.24/2/2017 11:0014.24/2/2017 11:0023.94/2/2017 11:0035.64/2/2017 11:000.0
4/2/2017 12:0024.44/2/2017 12:00837.44/2/2017 12:009804/2/2017 12:0069.004/2/2017 12:003.904/2/2017 12:0055.14/2/2017 12:0014.94/2/2017 12:0025.04/2/2017 12:0035.84/2/2017 12:000.0
4/2/2017 13:0024.94/2/2017 13:00837.54/2/2017 13:009914/2/2017 13:0074.004/2/2017 13:004.004/2/2017 13:0054.54/2/2017 13:0015.24/2/2017 13:0025.44/2/2017 13:0036.24/2/2017 13:000.0
4/2/2017 14:0024.94/2/2017 14:00837.64/2/2017 14:008394/2/2017 14:0070.004/2/2017 14:004.504/2/2017 14:0055.74/2/2017 14:0015.54/2/2017 14:0025.44/2/2017 14:0037.24/2/2017 14:000.0
4/2/2017 15:0024.64/2/2017 15:00837.54/2/2017 15:007724/2/2017 15:0081.004/2/2017 15:004.504/2/2017 15:0057.54/2/2017 15:0015.74/2/2017 15:0025.14/2/2017 15:0037.54/2/2017 15:000.0
4/2/2017 16:0023.94/2/2017 16:00837.64/2/2017 16:005724/2/2017 16:0074.004/2/2017 16:004.804/2/2017 16:0058.44/2/2017 16:0015.34/2/2017 16:0024.54/2/2017 16:0038.64/2/2017 16:000.0
4/2/2017 17:0023.34/2/2017 17:00837.64/2/2017 17:003334/2/2017 17:0076.004/2/2017 17:004.404/2/2017 17:0060.04/2/2017 17:0015.24/2/2017 17:0024.04/2/2017 17:0039.44/2/2017 17:000.0
4/2/2017 18:0021.54/2/2017 18:00837.84/2/2017 18:001024/2/2017 18:0073.004/2/2017 18:004.304/2/2017 18:0065.64/2/2017 18:0014.94/2/2017 18:0022.74/2/2017 18:0040.14/2/2017 18:000.0
4/2/2017 19:0019.54/2/2017 19:00838.04/2/2017 19:0014/2/2017 19:0071.004/2/2017 19:004.804/2/2017 19:0072.44/2/2017 19:0014.54/2/2017 19:0021.14/2/2017 19:0040.24/2/2017 19:000.0
4/2/2017 20:0018.84/2/2017 20:00838.04/2/2017 20:0004/2/2017 20:0072.004/2/2017 20:004.104/2/2017 20:0075.54/2/2017 20:0014.44/2/2017 20:0020.64/2/2017 20:0040.64/2/2017 20:000.0
4/2/2017 21:0018.74/2/2017 21:00838.04/2/2017 21:0004/2/2017 21:0071.004/2/2017 21:003.404/2/2017 21:0076.24/2/2017 21:0014.54/2/2017 21:0020.54/2/2017 21:0040.94/2/2017 21:000.0
4/2/2017 22:0018.84/2/2017 22:00838.14/2/2017 22:0004/2/2017 22:0058.004/2/2017 22:002.904/2/2017 22:0075.74/2/2017 22:0014.54/2/2017 22:0020.74/2/2017 22:0041.04/2/2017 22:000.0
4/2/2017 23:0018.94/2/2017 23:00838.24/2/2017 23:0004/2/2017 23:0054.004/2/2017 23:001.804/2/2017 23:0075.74/2/2017 23:0014.64/2/2017 23:0020.84/2/2017 23:0041.04/2/2017 23:000.0
4/3/2017 0:0018.84/3/2017 0:00838.24/3/2017 0:0004/3/2017 0:0066.004/3/2017 0:002.804/3/2017 0:0075.84/3/2017 0:0014.54/3/2017 0:0020.74/3/2017 0:0040.94/3/2017 0:000.0
4/3/2017 8:0021.14/3/2017 8:00838.04/3/2017 8:002864/3/2017 8:0046.004/3/2017 8:002.104/3/2017 8:0073.24/3/2017 8:0016.24/3/2017 8:0021.94/3/2017 8:0041.54/3/2017 8:000.0
4/3/2017 9:0022.54/3/2017 9:00837.84/3/2017 9:005304/3/2017 9:0075.004/3/2017 9:002.804/3/2017 9:0068.34/3/2017 9:0016.44/3/2017 9:0023.14/3/2017 9:0041.84/3/2017 9:000.0
4/3/2017 10:0023.64/3/2017 10:00837.74/3/2017 10:007314/3/2017 10:0073.004/3/2017 10:003.304/3/2017 10:0064.64/3/2017 10:0016.64/3/2017 10:0024.14/3/2017 10:0042.24/3/2017 10:000.0
4/3/2017 11:0024.34/3/2017 11:00837.54/3/2017 11:008684/3/2017 11:0086.004/3/2017 11:003.004/3/2017 11:0062.04/3/2017 11:0016.64/3/2017 11:0024.74/3/2017 11:0042.34/3/2017 11:000.0
4/3/2017 12:0025.14/3/2017 12:00837.54/3/2017 12:009564/3/2017 12:0093.004/3/2017 12:002.804/3/2017 12:0060.44/3/2017 12:0017.04/3/2017 12:0025.54/3/2017 12:0042.34/3/2017 12:000.0
4/3/2017 13:0026.04/3/2017 13:00837.54/3/2017 13:009694/3/2017 13:00105.004/3/2017 13:002.804/3/2017 13:0058.24/3/2017 13:0017.24/3/2017 13:0026.44/3/2017 13:0043.04/3/2017 13:000.0
4/3/2017 14:0026.84/3/2017 14:00837.54/3/2017 14:008484/3/2017 14:00102.004/3/2017 14:002.704/3/2017 14:0055.74/3/2017 14:0017.34/3/2017 14:0027.04/3/2017 14:0043.54/3/2017 14:000.0
4/3/2017 15:0027.54/3/2017 15:00837.44/3/2017 15:007594/3/2017 15:0099.004/3/2017 15:002.404/3/2017 15:0052.04/3/2017 15:0016.84/3/2017 15:0027.54/3/2017 15:0044.14/3/2017 15:000.0
4/3/2017 16:0027.14/3/2017 16:00837.34/3/2017 16:003384/3/2017 16:0092.004/3/2017 16:002.304/3/2017 16:0054.54/3/2017 16:0017.24/3/2017 16:0027.74/3/2017 16:0045.04/3/2017 16:000.0
4/3/2017 17:0026.64/3/2017 17:00837.44/3/2017 17:002614/3/2017 17:00143.004/3/2017 17:002.804/3/2017 17:0058.34/3/2017 17:0017.84/3/2017 17:0027.44/3/2017 17:0045.54/3/2017 17:000.0
4/3/2017 18:0025.04/3/2017 18:00837.44/3/2017 18:00914/3/2017 18:00143.004/3/2017 18:003.404/3/2017 18:0062.94/3/2017 18:0017.54/3/2017 18:0026.24/3/2017 18:0046.14/3/2017 18:000.0
4/3/2017 19:0022.84/3/2017 19:00837.74/3/2017 19:0014/3/2017 19:00131.004/3/2017 19:003.204/3/2017 19:0071.04/3/2017 19:0017.34/3/2017 19:0024.64/3/2017 19:0046.04/3/2017 19:000.0
4/3/2017 20:0021.74/3/2017 20:00837.94/3/2017 20:0004/3/2017 20:00115.004/3/2017 20:003.504/3/2017 20:0076.54/3/2017 20:0017.54/3/2017 20:0023.74/3/2017 20:0046.34/3/2017 20:000.0
4/3/2017 21:0020.94/3/2017 21:00837.94/3/2017 21:0004/3/2017 21:00107.004/3/2017 21:002.404/3/2017 21:0081.04/3/2017 21:0017.64/3/2017 21:0022.94/3/2017 21:0046.64/3/2017 21:000.0
4/3/2017 22:0020.44/3/2017 22:00838.04/3/2017 22:0004/3/2017 22:0096.004/3/2017 22:001.304/3/2017 22:0082.14/3/2017 22:0017.34/3/2017 22:0022.64/3/2017 22:0046.84/3/2017 22:000.0
4/3/2017 23:0020.44/3/2017 23:00838.04/3/2017 23:0004/3/2017 23:0068.004/3/2017 23:001.604/3/2017 23:0080.54/3/2017 23:0017.04/3/2017 23:0022.54/3/2017 23:0046.84/3/2017 23:000.0
4/4/2017 0:0020.34/4/2017 0:00837.94/4/2017 0:0004/4/2017 0:0050.004/4/2017 0:001.504/4/2017 0:0080.34/4/2017 0:0016.94/4/2017 0:0022.44/4/2017 0:0046.74/4/2017 0:000.0
4/4/2017 1:0020.34/4/2017 1:00838.04/4/2017 1:0004/4/2017 1:0035.004/4/2017 1:002.004/4/2017 1:0079.64/4/2017 1:0016.74/4/2017 1:0022.34/4/2017 1:0046.84/4/2017 1:000.0
4/4/2017 2:0019.94/4/2017 2:00838.04/4/2017 2:0004/4/2017 2:0066.004/4/2017 2:001.304/4/2017 2:0081.54/4/2017 2:0016.74/4/2017 2:0022.14/4/2017 2:0047.14/4/2017 2:000.0
4/4/2017 3:0019.94/4/2017 3:00838.04/4/2017 3:0004/4/2017 3:0086.004/4/2017 3:001.404/4/2017 3:0081.54/4/2017 3:0016.74/4/2017 3:0022.04/4/2017 3:0047.34/4/2017 3:000.0
4/4/2017 4:0019.74/4/2017 4:00838.04/4/2017 4:0004/4/2017 4:00106.004/4/2017 4:002.304/4/2017 4:0084.64/4/2017 4:0017.14/4/2017 4:0022.04/4/2017 4:0047.44/4/2017 4:000.0
4/4/2017 5:0020.04/4/2017 5:00838.04/4/2017 5:0004/4/2017 5:0072.004/4/2017 5:001.904/4/2017 5:0084.64/4/2017 5:0017.44/4/2017 5:0022.14/4/2017 5:0047.44/4/2017 5:000.0
4/4/2017 6:0019.54/4/2017 6:00838.04/4/2017 6:0004/4/2017 6:0016.004/4/2017 6:001.104/4/2017 6:0088.14/4/2017 6:0017.64/4/2017 6:0021.74/4/2017 6:0047.54/4/2017 6:000.0
4/4/2017 7:0019.54/4/2017 7:00838.04/4/2017 7:00774/4/2017 7:00321.004/4/2017 7:001.604/4/2017 7:0089.14/4/2017 7:0017.74/4/2017 7:0021.44/4/2017 7:0047.14/4/2017 7:000.0
4/4/2017 8:0022.04/4/2017 8:00837.94/4/2017 8:002924/4/2017 8:00344.004/4/2017 8:002.104/4/2017 8:0076.84/4/2017 8:0017.84/4/2017 8:0022.94/4/2017 8:0047.54/4/2017 8:000.0
4/4/2017 9:0023.04/4/2017 9:00837.74/4/2017 9:005284/4/2017 9:00329.004/4/2017 9:002.504/4/2017 9:0072.24/4/2017 9:0017.84/4/2017 9:0023.64/4/2017 9:0047.94/4/2017 9:000.0
4/4/2017 10:0024.44/4/2017 10:00837.64/4/2017 10:007294/4/2017 10:00319.004/4/2017 10:002.004/4/2017 10:0065.94/4/2017 10:0017.74/4/2017 10:0024.64/4/2017 10:0048.04/4/2017 10:000.0
4/4/2017 11:0026.74/4/2017 11:00837.34/4/2017 11:008484/4/2017 11:00132.004/4/2017 11:001.404/4/2017 11:0057.54/4/2017 11:0017.74/4/2017 11:0026.04/4/2017 11:0048.24/4/2017 11:000.0
4/4/2017 12:0027.04/4/2017 12:00837.24/4/2017 12:009724/4/2017 12:0090.004/4/2017 12:002.404/4/2017 12:0055.74/4/2017 12:0017.54/4/2017 12:0027.14/4/2017 12:0048.54/4/2017 12:000.0
4/4/2017 13:0028.34/4/2017 13:00837.24/4/2017 13:009714/4/2017 13:00108.004/4/2017 13:002.504/4/2017 13:0052.44/4/2017 13:0017.74/4/2017 13:0028.34/4/2017 13:0048.64/4/2017 13:000.0
4/4/2017 14:0028.84/4/2017 14:00837.14/4/2017 14:008834/4/2017 14:00101.004/4/2017 14:002.504/4/2017 14:0050.94/4/2017 14:0017.74/4/2017 14:0028.94/4/2017 14:0049.34/4/2017 14:000.0
4/4/2017 15:0029.74/4/2017 15:00837.14/4/2017 15:006964/4/2017 15:0071.004/4/2017 15:002.104/4/2017 15:0048.54/4/2017 15:0017.84/4/2017 15:0029.74/4/2017 15:0050.14/4/2017 15:000.0
4/4/2017 16:0028.94/4/2017 16:00837.14/4/2017 16:003604/4/2017 16:0052.004/4/2017 16:002.104/4/2017 16:0049.74/4/2017 16:0017.44/4/2017 16:0029.54/4/2017 16:0050.94/4/2017 16:000.0
4/4/2017 17:0029.34/4/2017 17:00837.14/4/2017 17:002504/4/2017 17:00155.004/4/2017 17:002.104/4/2017 17:0051.54/4/2017 17:0018.34/4/2017 17:0029.84/4/2017 17:0051.44/4/2017 17:000.0
4/4/2017 18:0027.54/4/2017 18:00837.24/4/2017 18:00824/4/2017 18:00137.004/4/2017 18:002.604/4/2017 18:0057.64/4/2017 18:0018.54/4/2017 18:0028.94/4/2017 18:0052.04/4/2017 18:000.0
4/4/2017 19:0025.44/4/2017 19:00837.44/4/2017 19:0014/4/2017 19:00122.004/4/2017 19:002.904/4/2017 19:0065.54/4/2017 19:0018.54/4/2017 19:0027.34/4/2017 19:0052.24/4/2017 19:000.0
4/4/2017 20:0024.04/4/2017 20:00837.64/4/2017 20:0004/4/2017 20:00113.004/4/2017 20:002.304/4/2017 20:0072.94/4/2017 20:0018.94/4/2017 20:0026.14/4/2017 20:0052.64/4/2017 20:000.0
4/4/2017 21:0022.94/4/2017 21:00837.64/4/2017 21:0004/4/2017 21:00125.004/4/2017 21:001.604/4/2017 21:0077.14/4/2017 21:0018.74/4/2017 21:0025.14/4/2017 21:0052.74/4/2017 21:000.0
4/4/2017 22:0022.24/4/2017 22:00837.74/4/2017 22:0004/4/2017 22:00125.004/4/2017 22:001.704/4/2017 22:0080.04/4/2017 22:0018.74/4/2017 22:0024.44/4/2017 22:0053.14/4/2017 22:000.0
4/4/2017 23:0021.94/4/2017 23:00837.74/4/2017 23:0004/4/2017 23:00120.004/4/2017 23:001.504/4/2017 23:0081.24/4/2017 23:0018.64/4/2017 23:0024.04/4/2017 23:0053.24/4/2017 23:000.0
4/5/2017 0:0021.64/5/2017 0:00837.94/5/2017 0:0004/5/2017 0:00115.004/5/2017 0:001.304/5/2017 0:0082.54/5/2017 0:0018.64/5/2017 0:0023.84/5/2017 0:0053.04/5/2017 0:000.0
4/5/2017 1:0021.44/5/2017 1:00837.84/5/2017 1:0004/5/2017 1:00119.004/5/2017 1:001.304/5/2017 1:0084.04/5/2017 1:0018.74/5/2017 1:0023.64/5/2017 1:0053.04/5/2017 1:000.0
4/5/2017 2:0021.24/5/2017 2:00838.04/5/2017 2:0004/5/2017 2:0093.004/5/2017 2:000.704/5/2017 2:0085.54/5/2017 2:0018.74/5/2017 2:0023.54/5/2017 2:0053.24/5/2017 2:000.0
4/5/2017 3:0020.64/5/2017 3:00837.94/5/2017 3:0004/5/2017 3:00327.004/5/2017 3:000.604/5/2017 3:0089.44/5/2017 3:0018.94/5/2017 3:0023.24/5/2017 3:0053.54/5/2017 3:000.0
4/5/2017 4:0020.54/5/2017 4:00837.94/5/2017 4:0004/5/2017 4:00332.004/5/2017 4:001.404/5/2017 4:0092.14/5/2017 4:0019.24/5/2017 4:0023.04/5/2017 4:0053.14/5/2017 4:000.0
4/5/2017 5:0020.94/5/2017 5:00837.94/5/2017 5:0004/5/2017 5:00328.004/5/2017 5:002.004/5/2017 5:0091.84/5/2017 5:0019.64/5/2017 5:0023.44/5/2017 5:0053.34/5/2017 5:000.0
4/5/2017 6:0020.84/5/2017 6:00837.84/5/2017 6:0014/5/2017 6:00333.004/5/2017 6:000.804/5/2017 6:0092.64/5/2017 6:0019.64/5/2017 6:0023.34/5/2017 6:0053.74/5/2017 6:000.0
4/5/2017 7:0021.14/5/2017 7:00837.84/5/2017 7:00564/5/2017 7:0040.004/5/2017 7:000.704/5/2017 7:0090.44/5/2017 7:0019.54/5/2017 7:0023.24/5/2017 7:0053.34/5/2017 7:000.0
4/5/2017 8:0023.34/5/2017 8:00837.74/5/2017 8:002124/5/2017 8:00321.004/5/2017 8:001.204/5/2017 8:0082.94/5/2017 8:0020.34/5/2017 8:0024.54/5/2017 8:0053.64/5/2017 8:000.0
4/5/2017 9:0023.94/5/2017 9:00837.64/5/2017 9:002664/5/2017 9:00273.004/5/2017 9:001.004/5/2017 9:0079.04/5/2017 9:0020.14/5/2017 9:0025.14/5/2017 9:0054.04/5/2017 9:000.0
4/5/2017 10:0025.74/5/2017 10:00837.54/5/2017 10:004384/5/2017 10:00258.004/5/2017 10:001.004/5/2017 10:0071.54/5/2017 10:0020.24/5/2017 10:0026.04/5/2017 10:0053.84/5/2017 10:000.0
4/5/2017 11:0028.04/5/2017 11:00837.24/5/2017 11:007574/5/2017 11:00181.004/5/2017 11:001.304/5/2017 11:0063.84/5/2017 11:0020.64/5/2017 11:0027.34/5/2017 11:0054.04/5/2017 11:000.0
4/5/2017 12:0028.94/5/2017 12:00837.24/5/2017 12:007424/5/2017 12:00204.004/5/2017 12:002.304/5/2017 12:0059.74/5/2017 12:0020.34/5/2017 12:0029.04/5/2017 12:0054.14/5/2017 12:000.0
4/5/2017 13:0029.54/5/2017 13:00837.14/5/2017 13:005784/5/2017 13:005.004/5/2017 13:001.504/5/2017 13:0058.24/5/2017 13:0020.54/5/2017 13:0029.44/5/2017 13:0054.54/5/2017 13:000.0
4/5/2017 14:0028.94/5/2017 14:00837.24/5/2017 14:003604/5/2017 14:004.004/5/2017 14:001.504/5/2017 14:0060.84/5/2017 14:0020.64/5/2017 14:0029.54/5/2017 14:0054.94/5/2017 14:000.0
4/5/2017 15:0029.04/5/2017 15:00837.24/5/2017 15:003854/5/2017 15:00348.004/5/2017 15:001.704/5/2017 15:0060.04/5/2017 15:0020.54/5/2017 15:0029.84/5/2017 15:0054.94/5/2017 15:000.0
4/5/2017 16:0029.64/5/2017 16:00837.24/5/2017 16:003404/5/2017 16:00339.004/5/2017 16:001.404/5/2017 16:0057.34/5/2017 16:0020.34/5/2017 16:0030.24/5/2017 16:0055.54/5/2017 16:000.0
4/5/2017 17:0028.44/5/2017 17:00837.24/5/2017 17:001114/5/2017 17:0011.004/5/2017 17:001.604/5/2017 17:0061.24/5/2017 17:0020.34/5/2017 17:0029.94/5/2017 17:0055.94/5/2017 17:000.0
4/5/2017 18:0027.94/5/2017 18:00837.34/5/2017 18:00164/5/2017 18:00256.004/5/2017 18:000.604/5/2017 18:0063.44/5/2017 18:0020.44/5/2017 18:0029.94/5/2017 18:0055.74/5/2017 18:000.0
4/5/2017 19:0026.84/5/2017 19:00837.34/5/2017 19:0004/5/2017 19:00172.004/5/2017 19:000.604/5/2017 19:0070.54/5/2017 19:0021.14/5/2017 19:0029.24/5/2017 19:0055.84/5/2017 19:000.0
4/5/2017 20:0025.84/5/2017 20:00837.44/5/2017 20:0004/5/2017 20:00274.004/5/2017 20:000.604/5/2017 20:0074.54/5/2017 20:0021.04/5/2017 20:0028.34/5/2017 20:0056.04/5/2017 20:000.0
4/5/2017 21:0025.24/5/2017 21:00837.54/5/2017 21:0004/5/2017 21:00318.004/5/2017 21:001.004/5/2017 21:0077.04/5/2017 21:0021.04/5/2017 21:0027.94/5/2017 21:0056.14/5/2017 21:000.0
4/5/2017 22:0024.84/5/2017 22:00837.64/5/2017 22:0004/5/2017 22:00358.004/5/2017 22:000.604/5/2017 22:0081.74/5/2017 22:0021.54/5/2017 22:0027.54/5/2017 22:0056.14/5/2017 22:000.0
4/5/2017 23:0024.54/5/2017 23:00837.64/5/2017 23:0004/5/2017 23:00168.004/5/2017 23:000.604/5/2017 23:0083.64/5/2017 23:0021.64/5/2017 23:0027.34/5/2017 23:0056.34/5/2017 23:000.0
4/6/2017 0:0024.34/6/2017 0:00837.74/6/2017 0:0004/6/2017 0:00183.004/6/2017 0:000.604/6/2017 0:0084.84/6/2017 0:0021.74/6/2017 0:0027.14/6/2017 0:0056.54/6/2017 0:000.0
4/6/2017 1:0023.64/6/2017 1:00837.74/6/2017 1:0004/6/2017 1:00169.004/6/2017 1:000.704/6/2017 1:0087.44/6/2017 1:0021.54/6/2017 1:0026.44/6/2017 1:0056.44/6/2017 1:000.0
4/6/2017 2:0023.34/6/2017 2:00837.84/6/2017 2:0004/6/2017 2:00299.004/6/2017 2:000.704/6/2017 2:0090.14/6/2017 2:0021.74/6/2017 2:0026.04/6/2017 2:0056.44/6/2017 2:000.0
4/6/2017 3:0023.24/6/2017 3:00837.94/6/2017 3:0004/6/2017 3:00258.004/6/2017 3:000.504/6/2017 3:0090.24/6/2017 3:0021.64/6/2017 3:0026.04/6/2017 3:0056.44/6/2017 3:000.0
4/6/2017 4:0023.14/6/2017 4:00838.04/6/2017 4:0004/6/2017 4:00214.004/6/2017 4:000.704/6/2017 4:0091.44/6/2017 4:0021.74/6/2017 4:0026.04/6/2017 4:0056.44/6/2017 4:000.0
4/6/2017 5:0023.14/6/2017 5:00837.84/6/2017 5:0004/6/2017 5:00142.004/6/2017 5:000.804/6/2017 5:0091.34/6/2017 5:0021.74/6/2017 5:0026.04/6/2017 5:0056.44/6/2017 5:000.0
4/6/2017 6:0023.04/6/2017 6:00837.94/6/2017 6:0004/6/2017 6:00148.004/6/2017 6:000.604/6/2017 6:0092.64/6/2017 6:0021.84/6/2017 6:0025.94/6/2017 6:0056.44/6/2017 6:000.0
4/6/2017 7:0023.14/6/2017 7:00837.94/6/2017 7:00294/6/2017 7:00229.004/6/2017 7:000.604/6/2017 7:0090.84/6/2017 7:0021.64/6/2017 7:0025.74/6/2017 7:0056.44/6/2017 7:000.0
4/6/2017 8:0023.84/6/2017 8:00837.84/6/2017 8:00914/6/2017 8:00151.004/6/2017 8:001.104/6/2017 8:0086.04/6/2017 8:0021.44/6/2017 8:0025.94/6/2017 8:0056.74/6/2017 8:000.0
4/6/2017 9:0024.84/6/2017 9:00837.84/6/2017 9:002474/6/2017 9:00166.004/6/2017 9:001.904/6/2017 9:0079.64/6/2017 9:0021.14/6/2017 9:0026.44/6/2017 9:0056.84/6/2017 9:000.0
4/6/2017 10:0025.94/6/2017 10:00837.74/6/2017 10:002864/6/2017 10:00173.004/6/2017 10:001.604/6/2017 10:0074.64/6/2017 10:0021.14/6/2017 10:0027.04/6/2017 10:0057.34/6/2017 10:000.0
4/6/2017 11:0027.24/6/2017 11:00837.54/6/2017 11:003804/6/2017 11:00213.004/6/2017 11:001.104/6/2017 11:0068.84/6/2017 11:0021.04/6/2017 11:0027.54/6/2017 11:0057.44/6/2017 11:000.0
4/6/2017 12:0026.94/6/2017 12:00837.44/6/2017 12:002604/6/2017 12:00249.004/6/2017 12:001.504/6/2017 12:0071.44/6/2017 12:0021.44/6/2017 12:0027.94/6/2017 12:0057.84/6/2017 12:000.0
4/6/2017 13:0027.14/6/2017 13:00837.54/6/2017 13:003764/6/2017 13:0078.004/6/2017 13:001.504/6/2017 13:0070.74/6/2017 13:0021.44/6/2017 13:0028.34/6/2017 13:0057.84/6/2017 13:000.0
4/6/2017 14:0027.44/6/2017 14:00837.54/6/2017 14:002334/6/2017 14:0038.004/6/2017 14:001.604/6/2017 14:0070.74/6/2017 14:0021.74/6/2017 14:0028.64/6/2017 14:0058.04/6/2017 14:000.0
4/6/2017 15:0027.64/6/2017 15:00837.54/6/2017 15:002834/6/2017 15:00159.004/6/2017 15:001.604/6/2017 15:0069.64/6/2017 15:0021.64/6/2017 15:0028.94/6/2017 15:0058.04/6/2017 15:000.0
4/6/2017 16:0028.44/6/2017 16:00837.54/6/2017 16:003624/6/2017 16:00189.004/6/2017 16:001.904/6/2017 16:0066.74/6/2017 16:0021.74/6/2017 16:0029.24/6/2017 16:0058.34/6/2017 16:000.0
4/6/2017 17:0028.44/6/2017 17:00837.54/6/2017 17:002254/6/2017 17:00174.004/6/2017 17:001.604/6/2017 17:0067.04/6/2017 17:0021.84/6/2017 17:0029.34/6/2017 17:0058.74/6/2017 17:000.0
4/6/2017 18:0027.54/6/2017 18:00837.64/6/2017 18:00954/6/2017 18:00167.004/6/2017 18:001.504/6/2017 18:0071.14/6/2017 18:0021.94/6/2017 18:0029.04/6/2017 18:0059.14/6/2017 18:000.0
4/6/2017 19:0025.64/6/2017 19:00837.84/6/2017 19:0014/6/2017 19:00173.004/6/2017 19:001.104/6/2017 19:0079.74/6/2017 19:0021.94/6/2017 19:0028.14/6/2017 19:0058.94/6/2017 19:000.0
4/6/2017 20:0024.74/6/2017 20:00837.94/6/2017 20:0004/6/2017 20:00184.004/6/2017 20:000.904/6/2017 20:0084.64/6/2017 20:0022.04/6/2017 20:0027.64/6/2017 20:0058.64/6/2017 20:000.0
4/6/2017 21:0023.84/6/2017 21:00837.94/6/2017 21:0004/6/2017 21:00231.004/6/2017 21:000.804/6/2017 21:0089.24/6/2017 21:0022.04/6/2017 21:0026.94/6/2017 21:0058.74/6/2017 21:000.0
4/6/2017 22:0023.44/6/2017 22:00838.04/6/2017 22:0004/6/2017 22:00241.004/6/2017 22:000.504/6/2017 22:0091.94/6/2017 22:0022.14/6/2017 22:0026.74/6/2017 22:0058.54/6/2017 22:000.0
4/6/2017 23:0023.64/6/2017 23:00838.04/6/2017 23:0004/6/2017 23:00294.004/6/2017 23:000.504/6/2017 23:0092.14/6/2017 23:0022.34/6/2017 23:0026.54/6/2017 23:0058.64/6/2017 23:000.0
4/7/2017 0:0023.34/7/2017 0:00837.94/7/2017 0:0004/7/2017 0:00282.004/7/2017 0:000.504/7/2017 0:0093.64/7/2017 0:0022.34/7/2017 0:0026.34/7/2017 0:0058.74/7/2017 0:000.0
4/7/2017 1:0023.04/7/2017 1:00838.14/7/2017 1:0004/7/2017 1:00316.004/7/2017 1:001.004/7/2017 1:0094.94/7/2017 1:0022.24/7/2017 1:0025.84/7/2017 1:0059.04/7/2017 1:000.0
4/7/2017 2:0023.04/7/2017 2:00838.04/7/2017 2:0004/7/2017 2:00327.004/7/2017 2:001.004/7/2017 2:0094.64/7/2017 2:0022.24/7/2017 2:0025.94/7/2017 2:0059.14/7/2017 2:000.0
4/7/2017 3:0023.14/7/2017 3:00838.14/7/2017 3:0004/7/2017 3:00330.004/7/2017 3:001.104/7/2017 3:0094.24/7/2017 3:0022.24/7/2017 3:0025.94/7/2017 3:0059.24/7/2017 3:000.0
4/7/2017 4:0023.04/7/2017 4:00838.04/7/2017 4:0004/7/2017 4:00330.004/7/2017 4:001.204/7/2017 4:0094.54/7/2017 4:0022.14/7/2017 4:0025.74/7/2017 4:0059.24/7/2017 4:000.0
4/7/2017 5:0022.94/7/2017 5:00838.04/7/2017 5:0004/7/2017 5:00321.004/7/2017 5:001.804/7/2017 5:0094.54/7/2017 5:0022.04/7/2017 5:0025.64/7/2017 5:0059.34/7/2017 5:000.0
4/7/2017 6:0022.74/7/2017 6:00838.04/7/2017 6:0014/7/2017 6:00324.004/7/2017 6:001.904/7/2017 6:0094.94/7/2017 6:0021.94/7/2017 6:0025.44/7/2017 6:0059.54/7/2017 6:000.0
4/7/2017 7:0023.04/7/2017 7:00838.04/7/2017 7:00624/7/2017 7:00327.004/7/2017 7:001.704/7/2017 7:0094.24/7/2017 7:0022.14/7/2017 7:0025.54/7/2017 7:0059.34/7/2017 7:000.0
4/7/2017 8:0024.14/7/2017 8:00838.04/7/2017 8:001744/7/2017 8:00332.004/7/2017 8:001.904/7/2017 8:0089.44/7/2017 8:0022.34/7/2017 8:0026.24/7/2017 8:0059.34/7/2017 8:000.0
4/7/2017 9:0025.34/7/2017 9:00837.84/7/2017 9:003074/7/2017 9:00332.004/7/2017 9:001.604/7/2017 9:0083.54/7/2017 9:0022.44/7/2017 9:0026.94/7/2017 9:0059.44/7/2017 9:000.0
4/7/2017 10:0026.94/7/2017 10:00837.64/7/2017 10:004914/7/2017 10:00338.004/7/2017 10:001.904/7/2017 10:0076.14/7/2017 10:0022.44/7/2017 10:0028.14/7/2017 10:0059.74/7/2017 10:000.0
4/7/2017 11:0029.54/7/2017 11:00837.34/7/2017 11:008134/7/2017 11:0013.004/7/2017 11:001.504/7/2017 11:0065.24/7/2017 11:0022.44/7/2017 11:0029.74/7/2017 11:0059.94/7/2017 11:000.0
4/7/2017 12:0030.14/7/2017 12:00837.24/7/2017 12:008194/7/2017 12:00302.004/7/2017 12:002.104/7/2017 12:0059.94/7/2017 12:0021.54/7/2017 12:0030.64/7/2017 12:0060.24/7/2017 12:000.0
4/7/2017 13:0031.44/7/2017 13:00837.14/7/2017 13:008984/7/2017 13:00285.004/7/2017 13:002.404/7/2017 13:0053.24/7/2017 13:0020.84/7/2017 13:0031.64/7/2017 13:0060.64/7/2017 13:000.0
4/7/2017 14:0032.64/7/2017 14:00837.14/7/2017 14:008744/7/2017 14:00262.004/7/2017 14:002.804/7/2017 14:0046.94/7/2017 14:0019.94/7/2017 14:0032.64/7/2017 14:0061.24/7/2017 14:000.0
4/7/2017 15:0032.94/7/2017 15:00837.04/7/2017 15:007344/7/2017 15:00257.004/7/2017 15:003.004/7/2017 15:0044.34/7/2017 15:0019.24/7/2017 15:0032.94/7/2017 15:0062.34/7/2017 15:000.0
4/7/2017 16:0032.94/7/2017 16:00837.04/7/2017 16:005324/7/2017 16:00265.004/7/2017 16:002.604/7/2017 16:0043.74/7/2017 16:0019.04/7/2017 16:0033.04/7/2017 16:0062.94/7/2017 16:000.0
4/7/2017 17:0032.14/7/2017 17:00837.14/7/2017 17:002964/7/2017 17:00253.004/7/2017 17:003.104/7/2017 17:0045.14/7/2017 17:0018.84/7/2017 17:0032.84/7/2017 17:0064.04/7/2017 17:000.0
4/7/2017 18:0031.04/7/2017 18:00837.24/7/2017 18:00804/7/2017 18:00262.004/7/2017 18:002.004/7/2017 18:0049.84/7/2017 18:0019.44/7/2017 18:0032.34/7/2017 18:0064.64/7/2017 18:000.0
4/7/2017 19:0028.54/7/2017 19:00837.44/7/2017 19:0014/7/2017 19:00245.004/7/2017 19:001.304/7/2017 19:0061.74/7/2017 19:0020.54/7/2017 19:0030.84/7/2017 19:0064.54/7/2017 19:000.0
4/7/2017 20:0026.94/7/2017 20:00837.54/7/2017 20:0004/7/2017 20:00258.004/7/2017 20:000.704/7/2017 20:0067.44/7/2017 20:0020.44/7/2017 20:0029.74/7/2017 20:0064.34/7/2017 20:000.0
4/7/2017 21:0026.14/7/2017 21:00837.64/7/2017 21:0004/7/2017 21:00296.004/7/2017 21:000.804/7/2017 21:0074.44/7/2017 21:0021.34/7/2017 21:0028.94/7/2017 21:0064.64/7/2017 21:000.0
4/7/2017 22:0025.44/7/2017 22:00837.64/7/2017 22:0004/7/2017 22:00325.004/7/2017 22:000.804/7/2017 22:0078.74/7/2017 22:0021.54/7/2017 22:0028.24/7/2017 22:0064.64/7/2017 22:000.0
4/7/2017 23:0027.84/7/2017 23:00992.74/7/2017 23:0004/7/2017 23:00145.004/7/2017 23:000.604/7/2017 23:0072.94/7/2017 23:0022.64/7/2017 23:0030.64/7/2017 23:000.14/7/2017 23:000.0
4/8/2017 0:0024.64/8/2017 0:00837.94/8/2017 0:0004/8/2017 0:00337.004/8/2017 0:000.604/8/2017 0:0084.74/8/2017 0:0021.94/8/2017 0:0027.64/8/2017 0:0065.24/8/2017 0:000.0
4/8/2017 17:0032.64/8/2017 17:00837.14/8/2017 17:003124/8/2017 17:00254.004/8/2017 17:003.204/8/2017 17:0048.04/8/2017 17:0020.24/8/2017 17:0033.44/8/2017 17:0069.84/8/2017 17:000.0
4/28/2017 17:0023.64/28/2017 17:00830.54/28/2017 17:001764/28/2017 17:0066.004/28/2017 17:003.704/28/2017 17:0071.94/28/2017 17:0018.34/28/2017 17:0025.24/28/2017 17:0013.94/28/2017 17:000.0
4/29/2017 1:0020.54/29/2017 1:00830.64/29/2017 1:0004/29/2017 1:0030.004/29/2017 1:001.204/29/2017 1:0080.04/29/2017 1:0017.04/29/2017 1:0022.64/29/2017 1:0014.84/29/2017 1:000.0
4/29/2017 2:0020.24/29/2017 2:00830.64/29/2017 2:0004/29/2017 2:00331.004/29/2017 2:002.104/29/2017 2:0085.64/29/2017 2:0017.84/29/2017 2:0022.44/29/2017 2:0014.94/29/2017 2:000.0
4/29/2017 3:0020.24/29/2017 3:00830.64/29/2017 3:0004/29/2017 3:00326.004/29/2017 3:002.004/29/2017 3:0088.34/29/2017 3:0018.34/29/2017 3:0022.44/29/2017 3:0015.14/29/2017 3:000.0
4/29/2017 4:0020.04/29/2017 4:00830.64/29/2017 4:0004/29/2017 4:00328.004/29/2017 4:001.404/29/2017 4:0089.24/29/2017 4:0018.24/29/2017 4:0022.34/29/2017 4:0015.14/29/2017 4:000.0
4/29/2017 5:0019.94/29/2017 5:00830.74/29/2017 5:0004/29/2017 5:00135.004/29/2017 5:000.904/29/2017 5:0088.34/29/2017 5:0018.04/29/2017 5:0022.34/29/2017 5:0015.34/29/2017 5:000.0
4/29/2017 6:0019.54/29/2017 6:00830.74/29/2017 6:0034/29/2017 6:00115.004/29/2017 6:000.704/29/2017 6:0088.04/29/2017 6:0017.54/29/2017 6:0021.84/29/2017 6:0015.34/29/2017 6:000.0
4/29/2017 7:0020.14/29/2017 7:00830.64/29/2017 7:00664/29/2017 7:00322.004/29/2017 7:001.504/29/2017 7:0088.84/29/2017 7:0018.34/29/2017 7:0022.24/29/2017 7:0015.34/29/2017 7:000.0
4/29/2017 8:0021.44/29/2017 8:00830.64/29/2017 8:001774/29/2017 8:00335.004/29/2017 8:002.104/29/2017 8:0086.14/29/2017 8:0019.14/29/2017 8:0023.24/29/2017 8:0015.44/29/2017 8:000.0
4/29/2017 9:0022.94/29/2017 9:00830.54/29/2017 9:004614/29/2017 9:00342.004/29/2017 9:002.204/29/2017 9:0078.84/29/2017 9:0019.14/29/2017 9:0024.14/29/2017 9:0015.64/29/2017 9:000.0
4/29/2017 10:0024.64/29/2017 10:00830.34/29/2017 10:006274/29/2017 10:0049.004/29/2017 10:001.704/29/2017 10:0067.74/29/2017 10:0018.34/29/2017 10:0025.04/29/2017 10:0016.14/29/2017 10:000.0
4/29/2017 11:0026.14/29/2017 11:00830.14/29/2017 11:005544/29/2017 11:00115.004/29/2017 11:001.504/29/2017 11:0060.24/29/2017 11:0017.94/29/2017 11:0026.14/29/2017 11:0016.34/29/2017 11:000.0
4/29/2017 12:0026.74/29/2017 12:00830.14/29/2017 12:006044/29/2017 12:00131.004/29/2017 12:001.504/29/2017 12:0060.44/29/2017 12:0018.54/29/2017 12:0026.84/29/2017 12:0016.44/29/2017 12:000.0
4/29/2017 13:0027.74/29/2017 13:00830.34/29/2017 13:006794/29/2017 13:00178.004/29/2017 13:001.904/29/2017 13:0060.34/29/2017 13:0019.44/29/2017 13:0027.64/29/2017 13:0016.64/29/2017 13:000.0
4/29/2017 14:0027.54/29/2017 14:00830.44/29/2017 14:006104/29/2017 14:00176.004/29/2017 14:002.004/29/2017 14:0062.64/29/2017 14:0019.84/29/2017 14:0027.74/29/2017 14:0016.84/29/2017 14:000.0
4/29/2017 15:0028.44/29/2017 15:00830.54/29/2017 15:006654/29/2017 15:00205.004/29/2017 15:001.704/29/2017 15:0058.54/29/2017 15:0019.64/29/2017 15:0028.34/29/2017 15:0017.34/29/2017 15:000.0
4/29/2017 16:0028.64/29/2017 16:00830.64/29/2017 16:004904/29/2017 16:0028.004/29/2017 16:001.404/29/2017 16:0060.84/29/2017 16:0020.44/29/2017 16:0028.74/29/2017 16:0017.84/29/2017 16:000.0
4/29/2017 17:0028.14/29/2017 17:00830.54/29/2017 17:001914/29/2017 17:00203.004/29/2017 17:001.404/29/2017 17:0061.44/29/2017 17:0020.14/29/2017 17:0028.84/29/2017 17:0018.34/29/2017 17:000.0
4/29/2017 18:0026.74/29/2017 18:00830.44/29/2017 18:00364/29/2017 18:00166.004/29/2017 18:001.804/29/2017 18:0064.84/29/2017 18:0019.64/29/2017 18:0028.54/29/2017 18:0018.34/29/2017 18:000.0
4/29/2017 19:0026.04/29/2017 19:00830.54/29/2017 19:0014/29/2017 19:00167.004/29/2017 19:001.004/29/2017 19:0068.14/29/2017 19:0019.74/29/2017 19:0028.14/29/2017 19:0018.34/29/2017 19:000.0
4/29/2017 20:0025.54/29/2017 20:00830.64/29/2017 20:0004/29/2017 20:00160.004/29/2017 20:000.904/29/2017 20:0071.44/29/2017 20:0020.04/29/2017 20:0027.84/29/2017 20:0018.74/29/2017 20:000.0
4/29/2017 21:0025.14/29/2017 21:00830.64/29/2017 21:0004/29/2017 21:00148.004/29/2017 21:001.204/29/2017 21:0073.54/29/2017 21:0020.14/29/2017 21:0027.44/29/2017 21:0018.74/29/2017 21:000.0
4/29/2017 22:0024.54/29/2017 22:00830.74/29/2017 22:0004/29/2017 22:00125.004/29/2017 22:001.204/29/2017 22:0077.74/29/2017 22:0020.44/29/2017 22:0026.94/29/2017 22:0019.04/29/2017 22:000.0
4/29/2017 23:0023.74/29/2017 23:00830.74/29/2017 23:0004/29/2017 23:00139.004/29/2017 23:001.004/29/2017 23:0082.34/29/2017 23:0020.64/29/2017 23:0026.24/29/2017 23:0019.04/29/2017 23:000.0
4/30/2017 0:0022.84/30/2017 0:00830.74/30/2017 0:0004/30/2017 0:00181.004/30/2017 0:000.804/30/2017 0:0086.74/30/2017 0:0020.54/30/2017 0:0025.64/30/2017 0:0019.14/30/2017 0:000.0
4/30/2017 1:0022.34/30/2017 1:00830.94/30/2017 1:0004/30/2017 1:00234.004/30/2017 1:000.504/30/2017 1:0089.14/30/2017 1:0020.54/30/2017 1:0025.04/30/2017 1:0019.44/30/2017 1:000.0
4/30/2017 2:0021.84/30/2017 2:00831.24/30/2017 2:0004/30/2017 2:00303.004/30/2017 2:000.604/30/2017 2:0091.74/30/2017 2:0020.54/30/2017 2:0024.54/30/2017 2:0019.34/30/2017 2:000.0
4/30/2017 3:0021.54/30/2017 3:00831.34/30/2017 3:0004/30/2017 3:00291.004/30/2017 3:000.704/30/2017 3:0092.94/30/2017 3:0020.44/30/2017 3:0024.24/30/2017 3:0019.44/30/2017 3:000.0
4/30/2017 4:0021.34/30/2017 4:00831.34/30/2017 4:0004/30/2017 4:00304.004/30/2017 4:000.704/30/2017 4:0093.94/30/2017 4:0020.44/30/2017 4:0024.04/30/2017 4:0019.54/30/2017 4:000.0
4/30/2017 5:0021.24/30/2017 5:00831.24/30/2017 5:0004/30/2017 5:00313.004/30/2017 5:000.804/30/2017 5:0094.24/30/2017 5:0020.34/30/2017 5:0023.94/30/2017 5:0019.54/30/2017 5:000.0
4/30/2017 6:0021.24/30/2017 6:00831.34/30/2017 6:0054/30/2017 6:00308.004/30/2017 6:001.004/30/2017 6:0095.54/30/2017 6:0020.54/30/2017 6:0024.04/30/2017 6:0019.54/30/2017 6:000.0
4/30/2017 7:0022.64/30/2017 7:00831.24/30/2017 7:001094/30/2017 7:00312.004/30/2017 7:001.004/30/2017 7:0091.24/30/2017 7:0021.24/30/2017 7:0024.54/30/2017 7:0019.54/30/2017 7:000.0
4/30/2017 8:0024.24/30/2017 8:00831.04/30/2017 8:002844/30/2017 8:00335.004/30/2017 8:001.404/30/2017 8:0084.84/30/2017 8:0021.64/30/2017 8:0025.44/30/2017 8:0020.04/30/2017 8:000.0
4/30/2017 9:0025.74/30/2017 9:00830.94/30/2017 9:004864/30/2017 9:00313.004/30/2017 9:001.404/30/2017 9:0077.84/30/2017 9:0021.64/30/2017 9:0026.54/30/2017 9:0020.24/30/2017 9:000.0
4/30/2017 10:0027.24/30/2017 10:00831.34/30/2017 10:006414/30/2017 10:00302.004/30/2017 10:001.304/30/2017 10:0070.44/30/2017 10:0021.44/30/2017 10:0027.44/30/2017 10:0020.34/30/2017 10:000.0
4/30/2017 11:0027.64/30/2017 11:00832.54/30/2017 11:004094/30/2017 11:00336.004/30/2017 11:001.604/30/2017 11:0069.94/30/2017 11:0021.74/30/2017 11:0028.24/30/2017 11:0020.74/30/2017 11:000.0
4/30/2017 12:0028.14/30/2017 12:00832.34/30/2017 12:005234/30/2017 12:00331.004/30/2017 12:001.104/30/2017 12:0068.34/30/2017 12:0021.84/30/2017 12:0028.84/30/2017 12:0020.54/30/2017 12:000.0
4/30/2017 13:0030.04/30/2017 13:00832.24/30/2017 13:007224/30/2017 13:0067.004/30/2017 13:001.304/30/2017 13:0062.54/30/2017 13:0022.14/30/2017 13:0029.94/30/2017 13:0021.04/30/2017 13:000.0
4/30/2017 14:0030.64/30/2017 14:00831.84/30/2017 14:008714/30/2017 14:00213.004/30/2017 14:002.404/30/2017 14:0059.24/30/2017 14:0021.84/30/2017 14:0030.74/30/2017 14:0021.34/30/2017 14:000.0
4/30/2017 15:0031.04/30/2017 15:00831.74/30/2017 15:007334/30/2017 15:00219.004/30/2017 15:002.804/30/2017 15:0056.64/30/2017 15:0021.44/30/2017 15:0031.34/30/2017 15:0021.94/30/2017 15:000.0
4/30/2017 16:0030.84/30/2017 16:00831.24/30/2017 16:005234/30/2017 16:00239.004/30/2017 16:003.404/30/2017 16:0056.14/30/2017 16:0021.14/30/2017 16:0031.74/30/2017 16:0022.64/30/2017 16:000.0
4/30/2017 17:0030.44/30/2017 17:00831.24/30/2017 17:002954/30/2017 17:00236.004/30/2017 17:002.904/30/2017 17:0057.04/30/2017 17:0021.04/30/2017 17:0031.64/30/2017 17:0023.44/30/2017 17:000.0
4/30/2017 18:0029.74/30/2017 18:00831.44/30/2017 18:001204/30/2017 18:00243.004/30/2017 18:002.604/30/2017 18:0059.04/30/2017 18:0020.94/30/2017 18:0031.34/30/2017 18:0024.14/30/2017 18:000.0
4/30/2017 19:0027.94/30/2017 19:00831.54/30/2017 19:0034/30/2017 19:00242.004/30/2017 19:001.304/30/2017 19:0067.84/30/2017 19:0021.54/30/2017 19:0030.24/30/2017 19:0024.04/30/2017 19:000.0
4/30/2017 20:0026.24/30/2017 20:00831.84/30/2017 20:0004/30/2017 20:00234.004/30/2017 20:001.004/30/2017 20:0076.64/30/2017 20:0021.84/30/2017 20:0029.14/30/2017 20:0023.94/30/2017 20:000.0
4/30/2017 21:0025.54/30/2017 21:00831.84/30/2017 21:0004/30/2017 21:00219.004/30/2017 21:000.404/30/2017 21:0078.84/30/2017 21:0021.64/30/2017 21:0028.94/30/2017 21:0024.14/30/2017 21:000.0
4/30/2017 22:0025.14/30/2017 22:00831.84/30/2017 22:0004/30/2017 22:00312.004/30/2017 22:000.804/30/2017 22:0084.14/30/2017 22:0022.34/30/2017 22:0028.34/30/2017 22:0024.14/30/2017 22:000.0
4/30/2017 23:0024.44/30/2017 23:00831.94/30/2017 23:0004/30/2017 23:00312.004/30/2017 23:001.104/30/2017 23:0086.84/30/2017 23:0022.14/30/2017 23:0027.44/30/2017 23:0024.54/30/2017 23:000.0
5/1/2017 0:0024.15/1/2017 0:00832.15/1/2017 0:0005/1/2017 0:00317.005/1/2017 0:001.205/1/2017 0:0088.35/1/2017 0:0022.15/1/2017 0:0027.05/1/2017 0:0024.35/1/2017 0:000.0
5/1/2017 1:0023.75/1/2017 1:00832.15/1/2017 1:0005/1/2017 1:00328.005/1/2017 1:001.205/1/2017 1:0091.15/1/2017 1:0022.25/1/2017 1:0026.75/1/2017 1:0024.65/1/2017 1:000.0
5/1/2017 2:0023.55/1/2017 2:00832.15/1/2017 2:0005/1/2017 2:00335.005/1/2017 2:001.505/1/2017 2:0092.45/1/2017 2:0022.35/1/2017 2:0026.45/1/2017 2:0024.65/1/2017 2:000.0
5/1/2017 3:0023.55/1/2017 3:00832.15/1/2017 3:0005/1/2017 3:00344.005/1/2017 3:001.205/1/2017 3:0092.55/1/2017 3:0022.35/1/2017 3:0026.35/1/2017 3:0024.85/1/2017 3:000.0
5/1/2017 4:0023.05/1/2017 4:00832.05/1/2017 4:0005/1/2017 4:00330.005/1/2017 4:001.405/1/2017 4:0094.55/1/2017 4:0022.15/1/2017 4:0025.95/1/2017 4:0024.95/1/2017 4:000.0
5/1/2017 5:0023.25/1/2017 5:00831.75/1/2017 5:0005/1/2017 5:00331.005/1/2017 5:001.805/1/2017 5:0093.35/1/2017 5:0022.15/1/2017 5:0026.05/1/2017 5:0024.95/1/2017 5:000.0
5/1/2017 6:0023.15/1/2017 6:00831.75/1/2017 6:0075/1/2017 6:00327.005/1/2017 6:001.305/1/2017 6:0094.35/1/2017 6:0022.25/1/2017 6:0025.95/1/2017 6:0024.95/1/2017 6:000.0
5/1/2017 7:0024.25/1/2017 7:00831.75/1/2017 7:001155/1/2017 7:00327.005/1/2017 7:000.905/1/2017 7:0089.35/1/2017 7:0022.45/1/2017 7:0026.15/1/2017 7:0024.95/1/2017 7:000.0
5/1/2017 8:0025.75/1/2017 8:00831.75/1/2017 8:002215/1/2017 8:00348.005/1/2017 8:001.205/1/2017 8:0084.15/1/2017 8:0022.95/1/2017 8:0027.35/1/2017 8:0025.25/1/2017 8:000.0
5/1/2017 9:0027.35/1/2017 9:00831.55/1/2017 9:004735/1/2017 9:00338.005/1/2017 9:001.005/1/2017 9:0076.95/1/2017 9:0023.05/1/2017 9:0028.15/1/2017 9:0025.45/1/2017 9:000.0
5/1/2017 10:0029.35/1/2017 10:00831.35/1/2017 10:007095/1/2017 10:0045.005/1/2017 10:001.505/1/2017 10:0068.65/1/2017 10:0023.05/1/2017 10:0029.55/1/2017 10:0025.75/1/2017 10:000.0
5/1/2017 11:0030.15/1/2017 11:00830.65/1/2017 11:007115/1/2017 11:00295.005/1/2017 11:002.105/1/2017 11:0064.25/1/2017 11:0022.75/1/2017 11:0030.85/1/2017 11:0026.05/1/2017 11:000.0
5/1/2017 12:0030.85/1/2017 12:00830.35/1/2017 12:008385/1/2017 12:00252.005/1/2017 12:003.005/1/2017 12:0060.15/1/2017 12:0022.25/1/2017 12:0031.75/1/2017 12:0026.15/1/2017 12:000.0
5/1/2017 13:0031.65/1/2017 13:00830.25/1/2017 13:007305/1/2017 13:00261.005/1/2017 13:002.505/1/2017 13:0056.75/1/2017 13:0022.05/1/2017 13:0032.45/1/2017 13:0026.55/1/2017 13:000.0
5/1/2017 14:0032.25/1/2017 14:00830.15/1/2017 14:008305/1/2017 14:00247.005/1/2017 14:002.905/1/2017 14:0053.85/1/2017 14:0021.7